Wetterdaten: Donnerstag, 28.12.2017
Datum Zeit Temp. A. Pool Temp. Feuchte A. Luftdruck Regen Wind Richtung Richtung Sonnenschein ET UV Solar Taupunkt Windchill Windben Empfang
28.12.2017 00:00 1,1 C 4,4 C 91 % 988,6 hPa 0,0 l/m 9,7 km/h (2 Bft) SW 225 0 min 0,000 mm 0,0 UV-I 0 W/m -0,2 C -2,0 C 14,5 km/h (3 Bft) 95,65 %
28.12.2017 00:01 1,2 C 4,4 C 91 % 988,6 hPa 0,0 l/m 9,7 km/h (2 Bft) SW 225 0 min 0,000 mm 0,0 UV-I 0 W/m -0,1 C -1,9 C 12,9 km/h (3 Bft) 91,30 %
28.12.2017 00:02 1,2 C 4,4 C 91 % 988,5 hPa 0,0 l/m 9,7 km/h (2 Bft) SW 225 0 min 0,000 mm 0,0 UV-I 0 W/m -0,1 C -1,9 C 12,9 km/h (3 Bft) 95,65 %
28.12.2017 00:03 1,2 C 4,4 C 90 % 988,4 hPa 0,0 l/m 12,9 km/h (3 Bft) W-SW 247 0 min 0,000 mm 0,0 UV-I 0 W/m -0,3 C -4,2 C 14,5 km/h (3 Bft) 95,65 %
28.12.2017 00:04 1,2 C 4,4 C 90 % 988,4 hPa 0,0 l/m 12,9 km/h (3 Bft) W 270 0 min 0,000 mm 0,0 UV-I 0 W/m -0,3 C -4,2 C 16,1 km/h (3 Bft) 95,65 %
28.12.2017 00:05 1,2 C 4,4 C 90 % 988,4 hPa 0,0 l/m 9,7 km/h (2 Bft) W-SW 247 0 min 0,000 mm 0,0 UV-I 0 W/m -0,3 C -1,9 C 14,5 km/h (3 Bft) 100,00 %
28.12.2017 00:06 1,2 C 4,4 C 90 % 988,4 hPa 0,0 l/m 11,3 km/h (2 Bft) W-SW 247 0 min 0,000 mm 0,0 UV-I 0 W/m -0,3 C -3,1 C 16,1 km/h (3 Bft) 95,65 %
28.12.2017 00:07 1,2 C 3,9 C 90 % 988,4 hPa 0,0 l/m 14,5 km/h (3 Bft) W-SW 247 0 min 0,000 mm 0,0 UV-I 0 W/m -0,3 C -5,2 C 20,9 km/h (4 Bft) 95,65 %
28.12.2017 00:08 1,2 C 3,9 C 90 % 988,5 hPa 0,0 l/m 12,9 km/h (3 Bft) W-SW 247 0 min 0,000 mm 0,0 UV-I 0 W/m -0,3 C -4,2 C 16,1 km/h (3 Bft) 91,30 %
28.12.2017 00:09 1,2 C 4,4 C 90 % 988,5 hPa 0,0 l/m 9,7 km/h (2 Bft) W-SW 247 0 min 0,000 mm 0,0 UV-I 0 W/m -0,3 C -1,9 C 14,5 km/h (3 Bft) 95,65 %
28.12.2017 00:10 1,3 C 4,4 C 90 % 988,5 hPa 0,0 l/m 12,9 km/h (3 Bft) W-SW 247 0 min 0,000 mm 0,0 UV-I 0 W/m -0,2 C -4,1 C 16,1 km/h (3 Bft) 100,00 %
28.12.2017 00:11 1,3 C 4,4 C 90 % 988,5 hPa 0,0 l/m 12,9 km/h (3 Bft) W-SW 247 0 min 0,000 mm 0,0 UV-I 0 W/m -0,2 C -4,1 C 19,3 km/h (3 Bft) 95,65 %
28.12.2017 00:12 1,3 C 4,4 C 90 % 988,5 hPa 0,0 l/m 12,9 km/h (3 Bft) W-SW 247 0 min 0,000 mm 0,0 UV-I 0 W/m -0,2 C -4,1 C 16,1 km/h (3 Bft) 100,00 %
28.12.2017 00:13 1,3 C 4,4 C 90 % 988,6 hPa 0,0 l/m 12,9 km/h (3 Bft) SW 225 0 min 0,000 mm 0,0 UV-I 0 W/m -0,2 C -4,1 C 19,3 km/h (3 Bft) 95,65 %
28.12.2017 00:14 1,3 C 4,4 C 90 % 988,6 hPa 0,0 l/m 12,9 km/h (3 Bft) W-SW 247 0 min 0,000 mm 0,0 UV-I 0 W/m -0,2 C -4,1 C 17,7 km/h (3 Bft) 95,65 %
28.12.2017 00:15 1,4 C 4,4 C 90 % 988,6 hPa 0,0 l/m 12,9 km/h (3 Bft) W-SW 247 0 min 0,000 mm 0,0 UV-I 0 W/m -0,1 C -4,0 C 17,7 km/h (3 Bft) 91,30 %
28.12.2017 00:16 1,4 C 4,4 C 90 % 988,6 hPa 0,0 l/m 12,9 km/h (3 Bft) W-SW 247 0 min 0,000 mm 0,0 UV-I 0 W/m -0,1 C -4,0 C 17,7 km/h (3 Bft) 95,65 %
28.12.2017 00:17 1,4 C 4,4 C 90 % 988,6 hPa 0,0 l/m 11,3 km/h (2 Bft) W-SW 247 0 min 0,000 mm 0,0 UV-I 0 W/m -0,1 C -2,9 C 16,1 km/h (3 Bft) 95,65 %
28.12.2017 00:18 1,4 C 4,4 C 90 % 988,6 hPa 0,0 l/m 14,5 km/h (3 Bft) W-SW 247 0 min 0,000 mm 0,0 UV-I 0 W/m -0,1 C -5,0 C 19,3 km/h (3 Bft) 91,30 %
28.12.2017 00:19 1,4 C 4,4 C 90 % 988,5 hPa 0,0 l/m 11,3 km/h (2 Bft) W-SW 247 0 min 0,000 mm 0,0 UV-I 0 W/m -0,1 C -2,9 C 14,5 km/h (3 Bft) 100,00 %
28.12.2017 00:20 1,4 C 4,4 C 90 % 988,6 hPa 0,0 l/m 11,3 km/h (2 Bft) SW 225 0 min 0,000 mm 0,0 UV-I 0 W/m -0,1 C -2,9 C 16,1 km/h (3 Bft) 95,65 %
28.12.2017 00:21 1,4 C 4,4 C 90 % 988,6 hPa 0,0 l/m 12,9 km/h (3 Bft) W-SW 247 0 min 0,000 mm 0,0 UV-I 0 W/m -0,1 C -4,0 C 16,1 km/h (3 Bft) 95,65 %
28.12.2017 00:22 1,4 C 4,4 C 90 % 988,6 hPa 0,0 l/m 11,3 km/h (2 Bft) SW 225 0 min 0,000 mm 0,0 UV-I 0 W/m -0,1 C -2,9 C 17,7 km/h (3 Bft) 95,65 %
28.12.2017 00:23 1,4 C 4,4 C 90 % 988,6 hPa 0,0 l/m 9,7 km/h (2 Bft) SW 225 0 min 0,000 mm 0,0 UV-I 0 W/m -0,1 C -1,7 C 14,5 km/h (3 Bft) 100,00 %
28.12.2017 00:24 1,4 C 4,4 C 90 % 988,6 hPa 0,0 l/m 11,3 km/h (2 Bft) SW 225 0 min 0,000 mm 0,0 UV-I 0 W/m -0,1 C -2,9 C 16,1 km/h (3 Bft) 95,65 %
28.12.2017 00:25 1,4 C 4,4 C 89 % 988,6 hPa 0,0 l/m 11,3 km/h (2 Bft) W-SW 247 0 min 0,000 mm 0,0 UV-I 0 W/m -0,2 C -2,9 C 14,5 km/h (3 Bft) 86,96 %
28.12.2017 00:26 1,5 C 4,4 C 89 % 988,6 hPa 0,0 l/m 9,7 km/h (2 Bft) W-SW 247 0 min 0,000 mm 0,0 UV-I 0 W/m -0,1 C -1,6 C 17,7 km/h (3 Bft) 100,00 %
28.12.2017 00:27 1,4 C 4,4 C 89 % 988,6 hPa 0,0 l/m 8,0 km/h (2 Bft) W-SW 247 0 min 0,000 mm 0,0 UV-I 0 W/m -0,2 C -0,2 C 11,3 km/h (2 Bft) 91,30 %
28.12.2017 00:28 1,4 C 4,4 C 89 % 988,5 hPa 0,0 l/m 8,0 km/h (2 Bft) W-SW 247 0 min 0,000 mm 0,0 UV-I 0 W/m -0,2 C -0,2 C 12,9 km/h (3 Bft) 95,65 %
28.12.2017 00:29 1,4 C 4,4 C 90 % 988,5 hPa 0,0 l/m 9,7 km/h (2 Bft) W-SW 247 0 min 0,000 mm 0,0 UV-I 0 W/m -0,1 C -1,7 C 12,9 km/h (3 Bft) 91,30 %
28.12.2017 00:30 1,4 C 4,4 C 90 % 988,5 hPa 0,0 l/m 11,3 km/h (2 Bft) W-SW 247 0 min 0,000 mm 0,0 UV-I 0 W/m -0,1 C -2,9 C 12,9 km/h (3 Bft) 100,00 %
28.12.2017 00:31 1,4 C 4,4 C 90 % 988,5 hPa 0,0 l/m 9,7 km/h (2 Bft) W-SW 247 0 min 0,000 mm 0,0 UV-I 0 W/m -0,1 C -1,7 C 11,3 km/h (2 Bft) 91,30 %
28.12.2017 00:32 1,4 C 4,4 C 90 % 988,6 hPa 0,0 l/m 11,3 km/h (2 Bft) W-SW 247 0 min 0,000 mm 0,0 UV-I 0 W/m -0,1 C -2,9 C 14,5 km/h (3 Bft) 100,00 %
28.12.2017 00:33 1,4 C 4,4 C 90 % 988,6 hPa 0,0 l/m 14,5 km/h (3 Bft) W-SW 247 0 min 0,000 mm 0,0 UV-I 0 W/m -0,1 C -5,0 C 17,7 km/h (3 Bft) 91,30 %
28.12.2017 00:34 1,4 C 4,4 C 90 % 988,7 hPa 0,0 l/m 8,0 km/h (2 Bft) W-SW 247 0 min 0,000 mm 0,0 UV-I 0 W/m -0,1 C -0,2 C 11,3 km/h (2 Bft) 95,65 %
28.12.2017 00:35 1,4 C 4,4 C 90 % 988,7 hPa 0,0 l/m 6,4 km/h (2 Bft) W-SW 247 0 min 0,000 mm 0,0 UV-I 0 W/m -0,1 C 1,4 C 11,3 km/h (2 Bft) 91,30 %
28.12.2017 00:36 1,4 C 4,4 C 90 % 988,8 hPa 0,0 l/m 8,0 km/h (2 Bft) SW 225 0 min 0,000 mm 0,0 UV-I 0 W/m -0,1 C -0,2 C 14,5 km/h (3 Bft) 95,65 %
28.12.2017 00:37 1,4 C 4,4 C 90 % 988,8 hPa 0,0 l/m 8,0 km/h (2 Bft) SW 225 0 min 0,000 mm 0,0 UV-I 0 W/m -0,1 C -0,2 C 11,3 km/h (2 Bft) 95,65 %
28.12.2017 00:38 1,4 C 4,4 C 90 % 988,8 hPa 0,0 l/m 8,0 km/h (2 Bft) W-SW 247 0 min 0,000 mm 0,0 UV-I 0 W/m -0,1 C -0,2 C 9,7 km/h (2 Bft) 95,65 %
28.12.2017 00:39 1,5 C 4,4 C 90 % 988,8 hPa 0,0 l/m 8,0 km/h (2 Bft) W-SW 247 0 min 0,000 mm 0,0 UV-I 0 W/m 0,0 C -0,1 C 11,3 km/h (2 Bft) 95,65 %
28.12.2017 00:40 1,5 C 4,4 C 90 % 988,8 hPa 0,0 l/m 11,3 km/h (2 Bft) W 270 0 min 0,000 mm 0,0 UV-I 0 W/m 0,0 C -2,8 C 14,5 km/h (3 Bft) 95,65 %
28.12.2017 00:41 1,5 C 4,4 C 89 % 988,8 hPa 0,0 l/m 8,0 km/h (2 Bft) SW 225 0 min 0,000 mm 0,0 UV-I 0 W/m -0,1 C -0,1 C 12,9 km/h (3 Bft) 100,00 %
28.12.2017 00:42 1,6 C 4,4 C 89 % 988,8 hPa 0,0 l/m 8,0 km/h (2 Bft) W-SW 247 0 min 0,000 mm 0,0 UV-I 0 W/m -0,0 C 0,0 C 11,3 km/h (2 Bft) 91,30 %
28.12.2017 00:43 1,6 C 4,4 C 89 % 988,8 hPa 0,0 l/m 9,7 km/h (2 Bft) W-SW 247 0 min 0,000 mm 0,0 UV-I 0 W/m -0,0 C -1,4 C 12,9 km/h (3 Bft) 100,00 %
28.12.2017 00:44 1,6 C 4,4 C 89 % 988,9 hPa 0,0 l/m 8,0 km/h (2 Bft) W-SW 247 0 min 0,000 mm 0,0 UV-I 0 W/m -0,0 C 0,0 C 11,3 km/h (2 Bft) 95,65 %
28.12.2017 00:45 1,6 C 4,4 C 89 % 988,9 hPa 0,0 l/m 8,0 km/h (2 Bft) W-SW 247 0 min 0,000 mm 0,0 UV-I 0 W/m -0,0 C 0,0 C 12,9 km/h (3 Bft) 100,00 %
28.12.2017 00:46 1,6 C 4,4 C 89 % 988,8 hPa 0,0 l/m 8,0 km/h (2 Bft) W-SW 247 0 min 0,000 mm 0,0 UV-I 0 W/m -0,0 C 0,0 C 12,9 km/h (3 Bft) 91,30 %
28.12.2017 00:47 1,6 C 4,4 C 89 % 988,8 hPa 0,0 l/m 8,0 km/h (2 Bft) W-SW 247 0 min 0,000 mm 0,0 UV-I 0 W/m -0,0 C 0,0 C 12,9 km/h (3 Bft) 100,00 %
28.12.2017 00:48 1,6 C 4,4 C 89 % 988,8 hPa 0,0 l/m 8,0 km/h (2 Bft) W-SW 247 0 min 0,000 mm 0,0 UV-I 0 W/m -0,0 C 0,0 C 11,3 km/h (2 Bft) 86,96 %
28.12.2017 00:49 1,6 C 4,4 C 89 % 988,8 hPa 0,0 l/m 11,3 km/h (2 Bft) W 270 0 min 0,000 mm 0,0 UV-I 0 W/m -0,0 C -2,7 C 14,5 km/h (3 Bft) 91,30 %
28.12.2017 00:50 1,6 C 4,4 C 89 % 988,8 hPa 0,0 l/m 11,3 km/h (2 Bft) W-SW 247 0 min 0,000 mm 0,0 UV-I 0 W/m -0,0 C -2,7 C 16,1 km/h (3 Bft) 95,65 %
28.12.2017 00:51 1,6 C 4,4 C 90 % 988,8 hPa 0,0 l/m 11,3 km/h (2 Bft) W 270 0 min 0,000 mm 0,0 UV-I 0 W/m 0,1 C -2,7 C 14,5 km/h (3 Bft) 95,65 %
28.12.2017 00:52 1,6 C 4,4 C 89 % 988,8 hPa 0,0 l/m 9,7 km/h (2 Bft) W-SW 247 0 min 0,000 mm 0,0 UV-I 0 W/m -0,0 C -1,4 C 16,1 km/h (3 Bft) 95,65 %
28.12.2017 00:53 1,6 C 4,4 C 89 % 988,8 hPa 0,0 l/m 9,7 km/h (2 Bft) W-SW 247 0 min 0,000 mm 0,0 UV-I 0 W/m -0,0 C -1,4 C 14,5 km/h (3 Bft) 95,65 %
28.12.2017 00:54 1,7 C 3,9 C 89 % 988,8 hPa 0,0 l/m 11,3 km/h (2 Bft) W-SW 247 0 min 0,000 mm 0,0 UV-I 0 W/m 0,1 C -2,6 C 16,1 km/h (3 Bft) 100,00 %
28.12.2017 00:55 1,7 C 3,9 C 89 % 988,8 hPa 0,0 l/m 6,4 km/h (2 Bft) W-SW 247 0 min 0,000 mm 0,0 UV-I 0 W/m 0,1 C 1,7 C 8,0 km/h (2 Bft) 100,00 %
28.12.2017 00:56 1,7 C 3,9 C 90 % 988,9 hPa 0,0 l/m 9,7 km/h (2 Bft) SW 225 0 min 0,000 mm 0,0 UV-I 0 W/m 0,2 C -1,3 C 14,5 km/h (3 Bft) 100,00 %
28.12.2017 00:57 1,7 C 4,4 C 90 % 988,9 hPa 0,0 l/m 8,0 km/h (2 Bft) W-SW 247 0 min 0,000 mm 0,0 UV-I 0 W/m 0,2 C 0,1 C 11,3 km/h (2 Bft) 95,65 %
28.12.2017 00:58 1,7 C 4,4 C 89 % 988,9 hPa 0,0 l/m 8,0 km/h (2 Bft) W-SW 247 0 min 0,000 mm 0,0 UV-I 0 W/m 0,1 C 0,1 C 11,3 km/h (2 Bft) 100,00 %
28.12.2017 00:59 1,7 C 4,4 C 89 % 988,9 hPa 0,0 l/m 9,7 km/h (2 Bft) W-SW 247 0 min 0,000 mm 0,0 UV-I 0 W/m 0,1 C -1,3 C 14,5 km/h (3 Bft) 95,65 %
28.12.2017 01:00 1,7 C 4,4 C 89 % 989,0 hPa 0,0 l/m 11,3 km/h (2 Bft) W-SW 247 0 min 0,000 mm 0,0 UV-I 0 W/m 0,1 C -2,6 C 14,5 km/h (3 Bft) 100,00 %
28.12.2017 01:01 1,8 C 4,4 C 89 % 988,9 hPa 0,0 l/m 12,9 km/h (3 Bft) W-SW 247 0 min 0,000 mm 0,0 UV-I 0 W/m 0,2 C -3,5 C 20,9 km/h (4 Bft) 100,00 %
28.12.2017 01:02 1,8 C 3,9 C 89 % 988,9 hPa 0,0 l/m 12,9 km/h (3 Bft) W-SW 247 0 min 0,000 mm 0,0 UV-I 0 W/m 0,2 C -3,5 C 16,1 km/h (3 Bft) 91,30 %
28.12.2017 01:03 1,8 C 3,9 C 89 % 988,9 hPa 0,0 l/m 11,3 km/h (2 Bft) W 270 0 min 0,000 mm 0,0 UV-I 0 W/m 0,2 C -2,4 C 14,5 km/h (3 Bft) 95,65 %
28.12.2017 01:04 1,9 C 3,9 C 89 % 988,9 hPa 0,0 l/m 11,3 km/h (2 Bft) W-SW 247 0 min 0,000 mm 0,0 UV-I 0 W/m 0,3 C -2,3 C 14,5 km/h (3 Bft) 95,65 %
28.12.2017 01:05 1,9 C 3,9 C 89 % 988,9 hPa 0,0 l/m 14,5 km/h (3 Bft) W-SW 247 0 min 0,000 mm 0,0 UV-I 0 W/m 0,3 C -4,4 C 19,3 km/h (3 Bft) 100,00 %
28.12.2017 01:06 1,9 C 3,9 C 89 % 988,9 hPa 0,0 l/m 12,9 km/h (3 Bft) W 270 0 min 0,000 mm 0,0 UV-I 0 W/m 0,3 C -3,4 C 17,7 km/h (3 Bft) 100,00 %
28.12.2017 01:07 1,9 C 3,9 C 89 % 988,9 hPa 0,0 l/m 11,3 km/h (2 Bft) W-SW 247 0 min 0,000 mm 0,0 UV-I 0 W/m 0,3 C -2,3 C 14,5 km/h (3 Bft) 100,00 %
28.12.2017 01:08 1,9 C 3,9 C 89 % 988,9 hPa 0,0 l/m 11,3 km/h (2 Bft) W 270 0 min 0,000 mm 0,0 UV-I 0 W/m 0,3 C -2,3 C 16,1 km/h (3 Bft) 100,00 %
28.12.2017 01:09 1,9 C 3,9 C 89 % 988,8 hPa 0,0 l/m 14,5 km/h (3 Bft) W 270 0 min 0,000 mm 0,0 UV-I 0 W/m 0,3 C -4,4 C 17,7 km/h (3 Bft) 100,00 %
28.12.2017 01:10 1,9 C 3,9 C 89 % 988,8 hPa 0,0 l/m 9,7 km/h (2 Bft) W 270 0 min 0,000 mm 0,0 UV-I 0 W/m 0,3 C -1,1 C 12,9 km/h (3 Bft) 95,65 %
28.12.2017 01:11 1,9 C 3,9 C 89 % 988,8 hPa 0,0 l/m 9,7 km/h (2 Bft) W 270 0 min 0,000 mm 0,0 UV-I 0 W/m 0,3 C -1,1 C 14,5 km/h (3 Bft) 100,00 %
28.12.2017 01:12 1,9 C 3,9 C 89 % 988,9 hPa 0,0 l/m 12,9 km/h (3 Bft) W-SW 247 0 min 0,000 mm 0,0 UV-I 0 W/m 0,3 C -3,4 C 17,7 km/h (3 Bft) 100,00 %
28.12.2017 01:13 1,9 C 4,4 C 89 % 988,9 hPa 0,0 l/m 9,7 km/h (2 Bft) W-SW 247 0 min 0,000 mm 0,0 UV-I 0 W/m 0,3 C -1,1 C 14,5 km/h (3 Bft) 100,00 %
28.12.2017 01:14 1,9 C 4,4 C 89 % 988,9 hPa 0,0 l/m 12,9 km/h (3 Bft) W-SW 247 0 min 0,000 mm 0,0 UV-I 0 W/m 0,3 C -3,4 C 17,7 km/h (3 Bft) 100,00 %
28.12.2017 01:15 1,9 C 4,4 C 89 % 988,9 hPa 0,0 l/m 11,3 km/h (2 Bft) W 270 0 min 0,000 mm 0,0 UV-I 0 W/m 0,3 C -2,3 C 12,9 km/h (3 Bft) 100,00 %
28.12.2017 01:16 1,9 C 4,4 C 89 % 988,9 hPa 0,0 l/m 8,0 km/h (2 Bft) W-SW 247 0 min 0,000 mm 0,0 UV-I 0 W/m 0,3 C 0,3 C 14,5 km/h (3 Bft) 95,65 %
28.12.2017 01:17 2,0 C 4,4 C 89 % 988,9 hPa 0,0 l/m 12,9 km/h (3 Bft) W-SW 247 0 min 0,000 mm 0,0 UV-I 0 W/m 0,4 C -3,3 C 19,3 km/h (3 Bft) 95,65 %
28.12.2017 01:18 2,0 C 4,4 C 89 % 988,9 hPa 0,0 l/m 16,1 km/h (3 Bft) W-SW 247 0 min 0,000 mm 0,0 UV-I 0 W/m 0,4 C -5,2 C 20,9 km/h (4 Bft) 100,00 %
28.12.2017 01:19 2,1 C 4,4 C 89 % 989,0 hPa 0,0 l/m 14,5 km/h (3 Bft) W-SW 247 0 min 0,000 mm 0,0 UV-I 0 W/m 0,5 C -4,2 C 17,7 km/h (3 Bft) 100,00 %
28.12.2017 01:20 2,1 C 4,4 C 89 % 988,9 hPa 0,0 l/m 14,5 km/h (3 Bft) W-SW 247 0 min 0,000 mm 0,0 UV-I 0 W/m 0,5 C -4,2 C 17,7 km/h (3 Bft) 100,00 %
28.12.2017 01:21 2,1 C 4,4 C 89 % 989,0 hPa 0,0 l/m 9,7 km/h (2 Bft) W-SW 247 0 min 0,000 mm 0,0 UV-I 0 W/m 0,5 C -0,9 C 12,9 km/h (3 Bft) 100,00 %
28.12.2017 01:22 2,1 C 4,4 C 89 % 989,0 hPa 0,0 l/m 9,7 km/h (2 Bft) W-SW 247 0 min 0,000 mm 0,0 UV-I 0 W/m 0,5 C -0,9 C 14,5 km/h (3 Bft) 95,65 %
28.12.2017 01:23 2,1 C 4,4 C 89 % 989,0 hPa 0,0 l/m 16,1 km/h (3 Bft) W-SW 247 0 min 0,000 mm 0,0 UV-I 0 W/m 0,5 C -5,0 C 20,9 km/h (4 Bft) 95,65 %
28.12.2017 01:24 2,1 C 4,4 C 89 % 989,0 hPa 0,0 l/m 14,5 km/h (3 Bft) W-SW 247 0 min 0,000 mm 0,0 UV-I 0 W/m 0,5 C -4,2 C 19,3 km/h (3 Bft) 91,30 %
28.12.2017 01:25 2,2 C 4,4 C 89 % 989,0 hPa 0,0 l/m 11,3 km/h (2 Bft) W-SW 247 0 min 0,000 mm 0,0 UV-I 0 W/m 0,6 C -2,0 C 17,7 km/h (3 Bft) 95,65 %
28.12.2017 01:26 2,2 C 4,4 C 89 % 989,1 hPa 0,0 l/m 14,5 km/h (3 Bft) W-SW 247 0 min 0,000 mm 0,0 UV-I 0 W/m 0,6 C -4,0 C 20,9 km/h (4 Bft) 100,00 %
28.12.2017 01:27 2,2 C 4,4 C 89 % 989,0 hPa 0,0 l/m 12,9 km/h (3 Bft) W-SW 247 0 min 0,000 mm 0,0 UV-I 0 W/m 0,6 C -3,1 C 19,3 km/h (3 Bft) 100,00 %
28.12.2017 01:28 2,2 C 4,4 C 89 % 989,0 hPa 0,0 l/m 16,1 km/h (3 Bft) W-SW 247 0 min 0,000 mm 0,0 UV-I 0 W/m 0,6 C -4,9 C 19,3 km/h (3 Bft) 100,00 %
28.12.2017 01:29 2,2 C 4,4 C 89 % 989,0 hPa 0,0 l/m 14,5 km/h (3 Bft) W-SW 247 0 min 0,000 mm 0,0 UV-I 0 W/m 0,6 C -4,0 C 19,3 km/h (3 Bft) 100,00 %
28.12.2017 01:30 2,2 C 4,4 C 89 % 989,0 hPa 0,0 l/m 14,5 km/h (3 Bft) W-SW 247 0 min 0,000 mm 0,0 UV-I 0 W/m 0,6 C -4,0 C 19,3 km/h (3 Bft) 100,00 %
28.12.2017 01:31 2,2 C 4,4 C 89 % 988,9 hPa 0,0 l/m 12,9 km/h (3 Bft) W-SW 247 0 min 0,000 mm 0,0 UV-I 0 W/m 0,6 C -3,1 C 19,3 km/h (3 Bft) 95,65 %
28.12.2017 01:32 2,2 C 4,4 C 89 % 988,9 hPa 0,0 l/m 14,5 km/h (3 Bft) SW 225 0 min 0,000 mm 0,0 UV-I 0 W/m 0,6 C -4,0 C 20,9 km/h (4 Bft) 100,00 %
28.12.2017 01:33 2,2 C 4,4 C 89 % 988,9 hPa 0,0 l/m 12,9 km/h (3 Bft) W-SW 247 0 min 0,000 mm 0,0 UV-I 0 W/m 0,6 C -3,1 C 16,1 km/h (3 Bft) 100,00 %
28.12.2017 01:34 2,2 C 4,4 C 89 % 989,0 hPa 0,0 l/m 12,9 km/h (3 Bft) W-SW 247 0 min 0,000 mm 0,0 UV-I 0 W/m 0,6 C -3,1 C 19,3 km/h (3 Bft) 100,00 %
28.12.2017 01:35 2,2 C 4,4 C 89 % 989,0 hPa 0,0 l/m 19,3 km/h (3 Bft) W-SW 247 0 min 0,000 mm 0,0 UV-I 0 W/m 0,6 C -6,5 C 25,7 km/h (4 Bft) 100,00 %
28.12.2017 01:36 2,2 C 4,4 C 90 % 989,0 hPa 0,0 l/m 14,5 km/h (3 Bft) W-SW 247 0 min 0,000 mm 0,0 UV-I 0 W/m 0,7 C -4,0 C 20,9 km/h (4 Bft) 100,00 %
28.12.2017 01:37 2,2 C 4,4 C 90 % 989,1 hPa 0,0 l/m 16,1 km/h (3 Bft) W-SW 247 0 min 0,000 mm 0,0 UV-I 0 W/m 0,7 C -4,9 C 25,7 km/h (4 Bft) 100,00 %
28.12.2017 01:38 2,2 C 4,4 C 90 % 989,0 hPa 0,0 l/m 16,1 km/h (3 Bft) W-SW 247 0 min 0,000 mm 0,0 UV-I 0 W/m 0,7 C -4,9 C 22,5 km/h (4 Bft) 95,65 %
28.12.2017 01:39 2,2 C 4,4 C 90 % 989,0 hPa 0,0 l/m 16,1 km/h (3 Bft) W-SW 247 0 min 0,000 mm 0,0 UV-I 0 W/m 0,7 C -4,9 C 24,1 km/h (4 Bft) 100,00 %
28.12.2017 01:40 2,2 C 4,4 C 91 % 989,0 hPa 0,0 l/m 16,1 km/h (3 Bft) W-SW 247 0 min 0,000 mm 0,0 UV-I 0 W/m 0,9 C -4,9 C 20,9 km/h (4 Bft) 100,00 %
28.12.2017 01:41 2,1 C 4,4 C 91 % 989,1 hPa 0,2 l/m 16,1 km/h (3 Bft) SW 225 0 min 0,000 mm 0,0 UV-I 0 W/m 0,8 C -5,0 C 22,5 km/h (4 Bft) 100,00 %
28.12.2017 01:42 2,1 C 4,4 C 91 % 989,2 hPa 0,0 l/m 17,7 km/h (3 Bft) SW 225 0 min 0,000 mm 0,0 UV-I 0 W/m 0,8 C -5,9 C 25,7 km/h (4 Bft) 100,00 %
28.12.2017 01:43 2,1 C 4,4 C 91 % 989,2 hPa 0,0 l/m 17,7 km/h (3 Bft) SW 225 0 min 0,000 mm 0,0 UV-I 0 W/m 0,8 C -5,9 C 24,1 km/h (4 Bft) 100,00 %
28.12.2017 01:44 2,1 C 4,4 C 91 % 989,3 hPa 0,0 l/m 16,1 km/h (3 Bft) SW 225 0 min 0,000 mm 0,0 UV-I 0 W/m 0,8 C -5,0 C 19,3 km/h (3 Bft) 100,00 %
28.12.2017 01:45 2,0 C 4,4 C 92 % 989,2 hPa 0,0 l/m 11,3 km/h (2 Bft) W-SW 247 0 min 0,000 mm 0,0 UV-I 0 W/m 0,8 C -2,2 C 16,1 km/h (3 Bft) 100,00 %
28.12.2017 01:46 2,0 C 4,4 C 92 % 989,2 hPa 0,0 l/m 14,5 km/h (3 Bft) W-SW 247 0 min 0,000 mm 0,0 UV-I 0 W/m 0,8 C -4,3 C 20,9 km/h (4 Bft) 95,65 %
28.12.2017 01:47 1,9 C 4,4 C 92 % 989,2 hPa 0,0 l/m 14,5 km/h (3 Bft) W-SW 247 0 min 0,000 mm 0,0 UV-I 0 W/m 0,7 C -4,4 C 19,3 km/h (3 Bft) 95,65 %
28.12.2017 01:48 1,9 C 4,4 C 92 % 989,2 hPa 0,0 l/m 12,9 km/h (3 Bft) W-SW 247 0 min 0,000 mm 0,0 UV-I 0 W/m 0,7 C -3,4 C 19,3 km/h (3 Bft) 91,30 %
28.12.2017 01:49 1,9 C 4,4 C 93 % 989,2 hPa 0,0 l/m 17,7 km/h (3 Bft) SW 225 0 min 0,000 mm 0,0 UV-I 0 W/m 0,9 C -6,1 C 19,3 km/h (3 Bft) 100,00 %
28.12.2017 01:50 1,9 C 4,4 C 93 % 989,2 hPa 0,2 l/m 16,1 km/h (3 Bft) SW 225 0 min 0,000 mm 0,0 UV-I 0 W/m 0,9 C -5,3 C 22,5 km/h (4 Bft) 100,00 %
28.12.2017 01:51 1,9 C 4,4 C 93 % 989,2 hPa 0,0 l/m 20,9 km/h (4 Bft) SW 225 0 min 0,000 mm 0,0 UV-I 0 W/m 0,9 C -7,6 C 29,0 km/h (5 Bft) 95,65 %
28.12.2017 01:52 1,9 C 4,4 C 93 % 989,2 hPa 0,0 l/m 12,9 km/h (3 Bft) W-SW 247 0 min 0,000 mm 0,0 UV-I 0 W/m 0,9 C -3,4 C 29,0 km/h (5 Bft) 100,00 %
28.12.2017 01:53 1,9 C 4,4 C 93 % 989,2 hPa 0,0 l/m 12,9 km/h (3 Bft) SW 225 0 min 0,000 mm 0,0 UV-I 0 W/m 0,9 C -3,4 C 19,3 km/h (3 Bft) 91,30 %
28.12.2017 01:54 1,9 C 4,4 C 93 % 989,3 hPa 0,0 l/m 11,3 km/h (2 Bft) W-SW 247 0 min 0,000 mm 0,0 UV-I 0 W/m 0,9 C -2,3 C 16,1 km/h (3 Bft) 91,30 %
28.12.2017 01:55 1,9 C 4,4 C 94 % 989,3 hPa 0,0 l/m 16,1 km/h (3 Bft) SW 225 0 min 0,000 mm 0,0 UV-I 0 W/m 1,0 C -5,3 C 19,3 km/h (3 Bft) 95,65 %
28.12.2017 01:56 1,8 C 4,4 C 94 % 989,3 hPa 0,0 l/m 11,3 km/h (2 Bft) W-SW 247 0 min 0,000 mm 0,0 UV-I 0 W/m 0,9 C -2,4 C 16,1 km/h (3 Bft) 95,65 %
28.12.2017 01:57 1,8 C 3,9 C 94 % 989,4 hPa 0,0 l/m 11,3 km/h (2 Bft) W-SW 247 0 min 0,000 mm 0,0 UV-I 0 W/m 0,9 C -2,4 C 17,7 km/h (3 Bft) 91,30 %
28.12.2017 01:58 1,8 C 3,9 C 94 % 989,4 hPa 0,0 l/m 12,9 km/h (3 Bft) W-SW 247 0 min 0,000 mm 0,0 UV-I 0 W/m 0,9 C -3,5 C 19,3 km/h (3 Bft) 91,30 %
28.12.2017 01:59 1,8 C 3,9 C 94 % 989,4 hPa 0,0 l/m 14,5 km/h (3 Bft) W-SW 247 0 min 0,000 mm 0,0 UV-I 0 W/m 0,9 C -4,5 C 22,5 km/h (4 Bft) 95,65 %
28.12.2017 02:00 1,8 C 3,9 C 94 % 989,4 hPa 0,2 l/m 11,3 km/h (2 Bft) W-SW 247 0 min 0,000 mm 0,0 UV-I 0 W/m 0,9 C -2,4 C 16,1 km/h (3 Bft) 91,30 %
28.12.2017 02:01 1,8 C 3,9 C 94 % 989,3 hPa 0,0 l/m 14,5 km/h (3 Bft) W-SW 247 0 min 0,000 mm 0,0 UV-I 0 W/m 0,9 C -4,5 C 19,3 km/h (3 Bft) 95,65 %
28.12.2017 02:02 1,7 C 3,9 C 94 % 989,4 hPa 0,0 l/m 16,1 km/h (3 Bft) W-SW 247 0 min 0,000 mm 0,0 UV-I 0 W/m 0,8 C -5,5 C 20,9 km/h (4 Bft) 100,00 %
28.12.2017 02:03 1,7 C 3,9 C 94 % 989,4 hPa 0,0 l/m 12,9 km/h (3 Bft) W-SW 247 0 min 0,000 mm 0,0 UV-I 0 W/m 0,8 C -3,6 C 16,1 km/h (3 Bft) 95,65 %
28.12.2017 02:04 1,7 C 3,9 C 94 % 989,4 hPa 0,0 l/m 14,5 km/h (3 Bft) W-SW 247 0 min 0,000 mm 0,0 UV-I 0 W/m 0,8 C -4,6 C 19,3 km/h (3 Bft) 100,00 %
28.12.2017 02:05 1,7 C 3,9 C 94 % 989,4 hPa 0,0 l/m 16,1 km/h (3 Bft) SW 225 0 min 0,000 mm 0,0 UV-I 0 W/m 0,8 C -5,5 C 24,1 km/h (4 Bft) 95,65 %
28.12.2017 02:06 1,7 C 3,9 C 94 % 989,5 hPa 0,2 l/m 12,9 km/h (3 Bft) W-SW 247 0 min 0,000 mm 0,0 UV-I 0 W/m 0,8 C -3,6 C 17,7 km/h (3 Bft) 95,65 %
28.12.2017 02:07 1,6 C 3,9 C 94 % 989,5 hPa 0,0 l/m 11,3 km/h (2 Bft) W-SW 247 0 min 0,000 mm 0,0 UV-I 0 W/m 0,7 C -2,7 C 19,3 km/h (3 Bft) 91,30 %
28.12.2017 02:08 1,6 C 4,4 C 95 % 989,5 hPa 0,0 l/m 16,1 km/h (3 Bft) SW 225 0 min 0,000 mm 0,0 UV-I 0 W/m 0,9 C -5,7 C 20,9 km/h (4 Bft) 100,00 %
28.12.2017 02:09 1,6 C 4,4 C 95 % 989,4 hPa 0,0 l/m 17,7 km/h (3 Bft) SW 225 0 min 0,000 mm 0,0 UV-I 0 W/m 0,9 C -6,5 C 22,5 km/h (4 Bft) 95,65 %
28.12.2017 02:10 1,6 C 4,4 C 95 % 989,5 hPa 0,0 l/m 12,9 km/h (3 Bft) SW 225 0 min 0,000 mm 0,0 UV-I 0 W/m 0,9 C -3,8 C 17,7 km/h (3 Bft) 95,65 %
28.12.2017 02:11 1,6 C 4,4 C 95 % 989,5 hPa 0,0 l/m 17,7 km/h (3 Bft) W-SW 247 0 min 0,000 mm 0,0 UV-I 0 W/m 0,9 C -6,5 C 22,5 km/h (4 Bft) 91,30 %
28.12.2017 02:12 1,6 C 4,4 C 95 % 989,5 hPa 0,0 l/m 16,1 km/h (3 Bft) SW 225 0 min 0,000 mm 0,0 UV-I 0 W/m 0,9 C -5,7 C 24,1 km/h (4 Bft) 100,00 %
28.12.2017 02:13 1,6 C 3,9 C 95 % 989,5 hPa 0,2 l/m 12,9 km/h (3 Bft) W-SW 247 0 min 0,000 mm 0,0 UV-I 0 W/m 0,9 C -3,8 C 17,7 km/h (3 Bft) 91,30 %
28.12.2017 02:14 1,5 C 3,9 C 95 % 989,5 hPa 0,0 l/m 16,1 km/h (3 Bft) SW 225 0 min 0,000 mm 0,0 UV-I 0 W/m 0,8 C -5,8 C 25,7 km/h (4 Bft) 95,65 %
28.12.2017 02:15 1,5 C 3,9 C 95 % 989,5 hPa 0,0 l/m 16,1 km/h (3 Bft) SW 225 0 min 0,000 mm 0,0 UV-I 0 W/m 0,8 C -5,8 C 22,5 km/h (4 Bft) 86,96 %
28.12.2017 02:16 1,5 C 3,9 C 95 % 989,5 hPa 0,0 l/m 19,3 km/h (3 Bft) SW 225 0 min 0,000 mm 0,0 UV-I 0 W/m 0,8 C -7,4 C 25,7 km/h (4 Bft) 95,65 %
28.12.2017 02:17 1,5 C 3,9 C 95 % 989,5 hPa 0,0 l/m 17,7 km/h (3 Bft) SW 225 0 min 0,000 mm 0,0 UV-I 0 W/m 0,8 C -6,6 C 25,7 km/h (4 Bft) 95,65 %
28.12.2017 02:18 1,5 C 3,9 C 95 % 989,5 hPa 0,0 l/m 19,3 km/h (3 Bft) SW 225 0 min 0,000 mm 0,0 UV-I 0 W/m 0,8 C -7,4 C 25,7 km/h (4 Bft) 95,65 %
28.12.2017 02:19 1,5 C 3,9 C 95 % 989,4 hPa 0,2 l/m 17,7 km/h (3 Bft) SW 225 0 min 0,000 mm 0,0 UV-I 0 W/m 0,8 C -6,6 C 20,9 km/h (4 Bft) 100,00 %
28.12.2017 02:20 1,6 C 3,9 C 95 % 989,5 hPa 0,0 l/m 17,7 km/h (3 Bft) SW 225 0 min 0,000 mm 0,0 UV-I 0 W/m 0,9 C -6,5 C 25,7 km/h (4 Bft) 100,00 %
28.12.2017 02:21 1,5 C 3,9 C 95 % 989,5 hPa 0,0 l/m 17,7 km/h (3 Bft) SW 225 0 min 0,000 mm 0,0 UV-I 0 W/m 0,8 C -6,6 C 24,1 km/h (4 Bft) 95,65 %
28.12.2017 02:22 1,5 C 3,9 C 95 % 989,5 hPa 0,0 l/m 17,7 km/h (3 Bft) W-SW 247 0 min 0,000 mm 0,0 UV-I 0 W/m 0,8 C -6,6 C 22,5 km/h (4 Bft) 91,30 %
28.12.2017 02:23 1,5 C 3,9 C 95 % 989,5 hPa 0,0 l/m 17,7 km/h (3 Bft) SW 225 0 min 0,000 mm 0,0 UV-I 0 W/m 0,8 C -6,6 C 22,5 km/h (4 Bft) 95,65 %
28.12.2017 02:24 1,5 C 3,9 C 95 % 989,5 hPa 0,0 l/m 17,7 km/h (3 Bft) SW 225 0 min 0,000 mm 0,0 UV-I 0 W/m 0,8 C -6,6 C 24,1 km/h (4 Bft) 91,30 %
28.12.2017 02:25 1,5 C 3,9 C 95 % 989,6 hPa 0,0 l/m 19,3 km/h (3 Bft) W-SW 247 0 min 0,000 mm 0,0 UV-I 0 W/m 0,8 C -7,4 C 27,4 km/h (4 Bft) 100,00 %
28.12.2017 02:26 1,5 C 3,9 C 95 % 989,6 hPa 0,0 l/m 17,7 km/h (3 Bft) SW 225 0 min 0,000 mm 0,0 UV-I 0 W/m 0,8 C -6,6 C 29,0 km/h (5 Bft) 95,65 %
28.12.2017 02:27 1,5 C 3,9 C 95 % 989,6 hPa 0,0 l/m 22,5 km/h (4 Bft) SW 225 0 min 0,000 mm 0,0 UV-I 0 W/m 0,8 C -8,7 C 27,4 km/h (4 Bft) 95,65 %
28.12.2017 02:28 1,5 C 3,9 C 95 % 989,6 hPa 0,0 l/m 17,7 km/h (3 Bft) SW 225 0 min 0,000 mm 0,0 UV-I 0 W/m 0,8 C -6,6 C 20,9 km/h (4 Bft) 95,65 %
28.12.2017 02:29 1,5 C 3,9 C 95 % 989,6 hPa 0,2 l/m 16,1 km/h (3 Bft) SW 225 0 min 0,000 mm 0,0 UV-I 0 W/m 0,8 C -5,8 C 24,1 km/h (4 Bft) 95,65 %
28.12.2017 02:30 1,4 C 3,9 C 95 % 989,6 hPa 0,0 l/m 20,9 km/h (4 Bft) W-SW 247 0 min 0,000 mm 0,0 UV-I 0 W/m 0,7 C -8,2 C 30,6 km/h (5 Bft) 100,00 %
28.12.2017 02:31 1,4 C 3,9 C 95 % 989,6 hPa 0,0 l/m 14,5 km/h (3 Bft) SW 225 0 min 0,000 mm 0,0 UV-I 0 W/m 0,7 C -5,0 C 20,9 km/h (4 Bft) 95,65 %
28.12.2017 02:32 1,4 C 4,4 C 95 % 989,6 hPa 0,0 l/m 17,7 km/h (3 Bft) W-SW 247 0 min 0,000 mm 0,0 UV-I 0 W/m 0,7 C -6,7 C 30,6 km/h (5 Bft) 100,00 %
28.12.2017 02:33 1,4 C 4,4 C 95 % 989,6 hPa 0,0 l/m 14,5 km/h (3 Bft) W-SW 247 0 min 0,000 mm 0,0 UV-I 0 W/m 0,7 C -5,0 C 19,3 km/h (3 Bft) 91,30 %
28.12.2017 02:34 1,4 C 4,4 C 95 % 989,7 hPa 0,0 l/m 12,9 km/h (3 Bft) W-SW 247 0 min 0,000 mm 0,0 UV-I 0 W/m 0,7 C -4,0 C 25,7 km/h (4 Bft) 100,00 %
28.12.2017 02:35 1,4 C 4,4 C 95 % 989,7 hPa 0,0 l/m 17,7 km/h (3 Bft) SW 225 0 min 0,000 mm 0,0 UV-I 0 W/m 0,7 C -6,7 C 25,7 km/h (4 Bft) 91,30 %
28.12.2017 02:36 1,3 C 3,9 C 95 % 989,7 hPa 0,2 l/m 20,9 km/h (4 Bft) SW 225 0 min 0,000 mm 0,0 UV-I 0 W/m 0,6 C -8,3 C 25,7 km/h (4 Bft) 95,65 %
28.12.2017 02:37 1,4 C 3,9 C 95 % 989,7 hPa 0,0 l/m 20,9 km/h (4 Bft) SW 225 0 min 0,000 mm 0,0 UV-I 0 W/m 0,7 C -8,2 C 29,0 km/h (5 Bft) 100,00 %
28.12.2017 02:38 1,3 C 3,9 C 95 % 989,8 hPa 0,0 l/m 19,3 km/h (3 Bft) SW 225 0 min 0,000 mm 0,0 UV-I 0 W/m 0,6 C -7,6 C 29,0 km/h (5 Bft) 95,65 %
28.12.2017 02:39 1,3 C 3,9 C 95 % 989,8 hPa 0,0 l/m 16,1 km/h (3 Bft) SW 225 0 min 0,000 mm 0,0 UV-I 0 W/m 0,6 C -6,0 C 19,3 km/h (3 Bft) 100,00 %
28.12.2017 02:40 1,3 C 3,9 C 95 % 989,8 hPa 0,0 l/m 12,9 km/h (3 Bft) SW 225 0 min 0,000 mm 0,0 UV-I 0 W/m 0,6 C -4,1 C 16,1 km/h (3 Bft) 91,30 %
28.12.2017 02:41 1,3 C 3,9 C 95 % 989,8 hPa 0,0 l/m 14,5 km/h (3 Bft) W-SW 247 0 min 0,000 mm 0,0 UV-I 0 W/m 0,6 C -5,1 C 22,5 km/h (4 Bft) 100,00 %
28.12.2017 02:42 1,3 C 3,9 C 95 % 989,8 hPa 0,0 l/m 16,1 km/h (3 Bft) SW 225 0 min 0,000 mm 0,0 UV-I 0 W/m 0,6 C -6,0 C 22,5 km/h (4 Bft) 91,30 %
28.12.2017 02:43 1,3 C 3,9 C 95 % 989,8 hPa 0,0 l/m 14,5 km/h (3 Bft) W-SW 247 0 min 0,000 mm 0,0 UV-I 0 W/m 0,6 C -5,1 C 19,3 km/h (3 Bft) 100,00 %
28.12.2017 02:44 1,2 C 3,9 C 95 % 989,8 hPa 0,0 l/m 14,5 km/h (3 Bft) W-SW 247 0 min 0,000 mm 0,0 UV-I 0 W/m 0,5 C -5,2 C 22,5 km/h (4 Bft) 95,65 %
28.12.2017 02:45 1,2 C 3,9 C 95 % 989,8 hPa 0,2 l/m 19,3 km/h (3 Bft) SW 225 0 min 0,000 mm 0,0 UV-I 0 W/m 0,5 C -7,8 C 25,7 km/h (4 Bft) 95,65 %
28.12.2017 02:46 1,2 C 3,9 C 95 % 989,8 hPa 0,0 l/m 19,3 km/h (3 Bft) SW 225 0 min 0,000 mm 0,0 UV-I 0 W/m 0,5 C -7,8 C 29,0 km/h (5 Bft) 95,65 %
28.12.2017 02:47 1,2 C 3,9 C 95 % 989,8 hPa 0,0 l/m 20,9 km/h (4 Bft) SW 225 0 min 0,000 mm 0,0 UV-I 0 W/m 0,5 C -8,5 C 30,6 km/h (5 Bft) 95,65 %
28.12.2017 02:48 1,2 C 3,9 C 96 % 989,8 hPa 0,0 l/m 14,5 km/h (3 Bft) W-SW 247 0 min 0,000 mm 0,0 UV-I 0 W/m 0,6 C -5,2 C 22,5 km/h (4 Bft) 95,65 %
28.12.2017 02:49 1,2 C 3,9 C 96 % 989,8 hPa 0,0 l/m 16,1 km/h (3 Bft) SW 225 0 min 0,000 mm 0,0 UV-I 0 W/m 0,6 C -6,1 C 25,7 km/h (4 Bft) 95,65 %
28.12.2017 02:50 1,2 C 3,9 C 96 % 989,9 hPa 0,0 l/m 14,5 km/h (3 Bft) SW 225 0 min 0,000 mm 0,0 UV-I 0 W/m 0,6 C -5,2 C 19,3 km/h (3 Bft) 100,00 %
28.12.2017 02:51 1,2 C 3,9 C 96 % 989,9 hPa 0,0 l/m 17,7 km/h (3 Bft) SW 225 0 min 0,000 mm 0,0 UV-I 0 W/m 0,6 C -7,0 C 24,1 km/h (4 Bft) 100,00 %
28.12.2017 02:52 1,2 C 3,9 C 96 % 989,8 hPa 0,2 l/m 12,9 km/h (3 Bft) W-SW 247 0 min 0,000 mm 0,0 UV-I 0 W/m 0,6 C -4,2 C 19,3 km/h (3 Bft) 100,00 %
28.12.2017 02:53 1,2 C 3,9 C 96 % 989,9 hPa 0,0 l/m 12,9 km/h (3 Bft) W-SW 247 0 min 0,000 mm 0,0 UV-I 0 W/m 0,6 C -4,2 C 19,3 km/h (3 Bft) 95,65 %
28.12.2017 02:54 1,2 C 3,9 C 96 % 989,8 hPa 0,0 l/m 12,9 km/h (3 Bft) W-SW 247 0 min 0,000 mm 0,0 UV-I 0 W/m 0,6 C -4,2 C 17,7 km/h (3 Bft) 100,00 %
28.12.2017 02:55 1,2 C 3,9 C 95 % 989,8 hPa 0,0 l/m 16,1 km/h (3 Bft) SW 225 0 min 0,000 mm 0,0 UV-I 0 W/m 0,5 C -6,1 C 22,5 km/h (4 Bft) 100,00 %
28.12.2017 02:56 1,2 C 3,9 C 95 % 989,8 hPa 0,0 l/m 17,7 km/h (3 Bft) SW 225 0 min 0,000 mm 0,0 UV-I 0 W/m 0,5 C -7,0 C 25,7 km/h (4 Bft) 95,65 %
28.12.2017 02:57 1,2 C 3,9 C 96 % 989,8 hPa 0,0 l/m 19,3 km/h (3 Bft) SW 225 0 min 0,000 mm 0,0 UV-I 0 W/m 0,6 C -7,8 C 25,7 km/h (4 Bft) 100,00 %
28.12.2017 02:58 1,2 C 3,9 C 96 % 989,9 hPa 0,0 l/m 17,7 km/h (3 Bft) SW 225 0 min 0,000 mm 0,0 UV-I 0 W/m 0,6 C -7,0 C 22,5 km/h (4 Bft) 100,00 %
28.12.2017 02:59 1,2 C 3,9 C 96 % 989,9 hPa 0,0 l/m 16,1 km/h (3 Bft) W-SW 247 0 min 0,000 mm 0,0 UV-I 0 W/m 0,6 C -6,1 C 22,5 km/h (4 Bft) 100,00 %
28.12.2017 03:00 1,2 C 3,9 C 96 % 989,9 hPa 0,0 l/m 19,3 km/h (3 Bft) SW 225 0 min 0,000 mm 0,0 UV-I 0 W/m 0,6 C -7,8 C 27,4 km/h (4 Bft) 100,00 %
28.12.2017 03:01 1,2 C 3,9 C 96 % 989,9 hPa 0,2 l/m 17,7 km/h (3 Bft) W-SW 247 0 min 0,000 mm 0,0 UV-I 0 W/m 0,6 C -7,0 C 25,7 km/h (4 Bft) 100,00 %
28.12.2017 03:02 1,2 C 3,9 C 96 % 989,9 hPa 0,0 l/m 16,1 km/h (3 Bft) W-SW 247 0 min 0,000 mm 0,0 UV-I 0 W/m 0,6 C -6,1 C 20,9 km/h (4 Bft) 100,00 %
28.12.2017 03:03 1,2 C 3,9 C 96 % 989,9 hPa 0,0 l/m 12,9 km/h (3 Bft) SW 225 0 min 0,000 mm 0,0 UV-I 0 W/m 0,6 C -4,2 C 17,7 km/h (3 Bft) 91,30 %
28.12.2017 03:04 1,1 C 3,9 C 96 % 989,9 hPa 0,0 l/m 12,9 km/h (3 Bft) W-SW 247 0 min 0,000 mm 0,0 UV-I 0 W/m 0,5 C -4,3 C 19,3 km/h (3 Bft) 100,00 %
28.12.2017 03:05 1,1 C 3,9 C 96 % 990,0 hPa 0,0 l/m 11,3 km/h (2 Bft) SW 225 0 min 0,000 mm 0,0 UV-I 0 W/m 0,5 C -3,2 C 19,3 km/h (3 Bft) 100,00 %
28.12.2017 03:06 1,1 C 3,9 C 96 % 990,0 hPa 0,0 l/m 14,5 km/h (3 Bft) SW 225 0 min 0,000 mm 0,0 UV-I 0 W/m 0,5 C -5,4 C 24,1 km/h (4 Bft) 100,00 %
28.12.2017 03:07 1,1 C 3,9 C 96 % 990,0 hPa 0,0 l/m 14,5 km/h (3 Bft) SW 225 0 min 0,000 mm 0,0 UV-I 0 W/m 0,5 C -5,4 C 22,5 km/h (4 Bft) 100,00 %
28.12.2017 03:08 1,1 C 3,9 C 96 % 990,0 hPa 0,0 l/m 12,9 km/h (3 Bft) SW 225 0 min 0,000 mm 0,0 UV-I 0 W/m 0,5 C -4,3 C 19,3 km/h (3 Bft) 100,00 %
28.12.2017 03:09 1,1 C 3,9 C 96 % 990,0 hPa 0,0 l/m 17,7 km/h (3 Bft) SW 225 0 min 0,000 mm 0,0 UV-I 0 W/m 0,5 C -7,1 C 25,7 km/h (4 Bft) 100,00 %
28.12.2017 03:10 1,1 C 3,9 C 96 % 990,0 hPa 0,2 l/m 14,5 km/h (3 Bft) SW 225 0 min 0,000 mm 0,0 UV-I 0 W/m 0,5 C -5,4 C 24,1 km/h (4 Bft) 95,65 %
28.12.2017 03:11 1,2 C 3,9 C 96 % 990,0 hPa 0,0 l/m 16,1 km/h (3 Bft) SW 225 0 min 0,000 mm 0,0 UV-I 0 W/m 0,6 C -6,1 C 20,9 km/h (4 Bft) 100,00 %
28.12.2017 03:12 1,2 C 3,9 C 96 % 990,0 hPa 0,0 l/m 14,5 km/h (3 Bft) SW 225 0 min 0,000 mm 0,0 UV-I 0 W/m 0,6 C -5,2 C 19,3 km/h (3 Bft) 100,00 %
28.12.2017 03:13 1,2 C 3,9 C 96 % 990,0 hPa 0,0 l/m 14,5 km/h (3 Bft) SW 225 0 min 0,000 mm 0,0 UV-I 0 W/m 0,6 C -5,2 C 20,9 km/h (4 Bft) 100,00 %
28.12.2017 03:14 1,2 C 3,9 C 96 % 990,0 hPa 0,0 l/m 14,5 km/h (3 Bft) SW 225 0 min 0,000 mm 0,0 UV-I 0 W/m 0,6 C -5,2 C 19,3 km/h (3 Bft) 95,65 %
28.12.2017 03:15 1,2 C 3,9 C 96 % 990,0 hPa 0,0 l/m 19,3 km/h (3 Bft) W-SW 247 0 min 0,000 mm 0,0 UV-I 0 W/m 0,6 C -7,8 C 27,4 km/h (4 Bft) 100,00 %
28.12.2017 03:16 1,2 C 3,9 C 96 % 990,0 hPa 0,0 l/m 17,7 km/h (3 Bft) S-SW 202 0 min 0,000 mm 0,0 UV-I 0 W/m 0,6 C -7,0 C 29,0 km/h (5 Bft) 100,00 %
28.12.2017 03:17 1,2 C 3,9 C 96 % 990,0 hPa 0,0 l/m 19,3 km/h (3 Bft) SW 225 0 min 0,000 mm 0,0 UV-I 0 W/m 0,6 C -7,8 C 27,4 km/h (4 Bft) 95,65 %
28.12.2017 03:18 1,2 C 3,9 C 96 % 990,0 hPa 0,0 l/m 19,3 km/h (3 Bft) SW 225 0 min 0,000 mm 0,0 UV-I 0 W/m 0,6 C -7,8 C 22,5 km/h (4 Bft) 100,00 %
28.12.2017 03:19 1,2 C 3,9 C 96 % 990,0 hPa 0,0 l/m 16,1 km/h (3 Bft) SW 225 0 min 0,000 mm 0,0 UV-I 0 W/m 0,6 C -6,1 C 24,1 km/h (4 Bft) 100,00 %
28.12.2017 03:20 1,2 C 3,9 C 96 % 990,0 hPa 0,0 l/m 24,1 km/h (4 Bft) W-SW 247 0 min 0,000 mm 0,0 UV-I 0 W/m 0,6 C -9,8 C 37,0 km/h (5 Bft) 95,65 %
28.12.2017 03:21 1,2 C 3,9 C 96 % 990,0 hPa 0,2 l/m 22,5 km/h (4 Bft) SW 225 0 min 0,000 mm 0,0 UV-I 0 W/m 0,6 C -9,1 C 35,4 km/h (5 Bft) 95,65 %
28.12.2017 03:22 1,3 C 3,9 C 96 % 990,1 hPa 0,0 l/m 20,9 km/h (4 Bft) SW 225 0 min 0,000 mm 0,0 UV-I 0 W/m 0,7 C -8,3 C 40,2 km/h (6 Bft) 95,65 %
28.12.2017 03:23 1,3 C 3,9 C 96 % 990,1 hPa 0,0 l/m 24,1 km/h (4 Bft) SW 225 0 min 0,000 mm 0,0 UV-I 0 W/m 0,7 C -9,6 C 30,6 km/h (5 Bft) 100,00 %
28.12.2017 03:24 1,3 C 3,9 C 96 % 990,1 hPa 0,0 l/m 20,9 km/h (4 Bft) SW 225 0 min 0,000 mm 0,0 UV-I 0 W/m 0,7 C -8,3 C 30,6 km/h (5 Bft) 91,30 %
28.12.2017 03:25 1,3 C 3,9 C 96 % 990,2 hPa 0,0 l/m 14,5 km/h (3 Bft) SW 225 0 min 0,000 mm 0,0 UV-I 0 W/m 0,7 C -5,1 C 22,5 km/h (4 Bft) 95,65 %
28.12.2017 03:26 1,3 C 3,9 C 96 % 990,3 hPa 0,0 l/m 24,1 km/h (4 Bft) SW 225 0 min 0,000 mm 0,0 UV-I 0 W/m 0,7 C -9,6 C 30,6 km/h (5 Bft) 95,65 %
28.12.2017 03:27 1,3 C 3,9 C 96 % 990,3 hPa 0,0 l/m 19,3 km/h (3 Bft) W-SW 247 0 min 0,000 mm 0,0 UV-I 0 W/m 0,7 C -7,6 C 33,8 km/h (5 Bft) 95,65 %
28.12.2017 03:28 1,4 C 3,9 C 96 % 990,3 hPa 0,0 l/m 22,5 km/h (4 Bft) S-SW 202 0 min 0,000 mm 0,0 UV-I 0 W/m 0,8 C -8,9 C 32,2 km/h (5 Bft) 95,65 %
28.12.2017 03:29 1,4 C 3,9 C 96 % 990,3 hPa 0,0 l/m 20,9 km/h (4 Bft) SW 225 0 min 0,000 mm 0,0 UV-I 0 W/m 0,8 C -8,2 C 27,4 km/h (4 Bft) 100,00 %
28.12.2017 03:30 1,4 C 4,4 C 95 % 990,3 hPa 0,0 l/m 17,7 km/h (3 Bft) SW 225 0 min 0,000 mm 0,0 UV-I 0 W/m 0,7 C -6,7 C 25,7 km/h (4 Bft) 95,65 %
28.12.2017 03:31 1,4 C 3,9 C 95 % 990,2 hPa 0,0 l/m 16,1 km/h (3 Bft) SW 225 0 min 0,000 mm 0,0 UV-I 0 W/m 0,7 C -5,9 C 25,7 km/h (4 Bft) 95,65 %
28.12.2017 03:32 1,4 C 3,9 C 95 % 990,2 hPa 0,2 l/m 22,5 km/h (4 Bft) SW 225 0 min 0,000 mm 0,0 UV-I 0 W/m 0,7 C -8,9 C 27,4 km/h (4 Bft) 95,65 %
28.12.2017 03:33 1,4 C 3,9 C 95 % 990,2 hPa 0,0 l/m 24,1 km/h (4 Bft) W-SW 247 0 min 0,000 mm 0,0 UV-I 0 W/m 0,7 C -9,5 C 35,4 km/h (5 Bft) 100,00 %
28.12.2017 03:34 1,3 C 3,9 C 95 % 990,2 hPa 0,0 l/m 17,7 km/h (3 Bft) W-SW 247 0 min 0,000 mm 0,0 UV-I 0 W/m 0,6 C -6,9 C 25,7 km/h (4 Bft) 95,65 %
28.12.2017 03:35 1,3 C 3,9 C 95 % 990,2 hPa 0,0 l/m 14,5 km/h (3 Bft) W-SW 247 0 min 0,000 mm 0,0 UV-I 0 W/m 0,6 C -5,1 C 19,3 km/h (3 Bft) 100,00 %
28.12.2017 03:36 1,3 C 3,9 C 95 % 990,2 hPa 0,0 l/m 20,9 km/h (4 Bft) SW 225 0 min 0,000 mm 0,0 UV-I 0 W/m 0,6 C -8,3 C 29,0 km/h (5 Bft) 95,65 %
28.12.2017 03:37 1,3 C 3,9 C 95 % 990,2 hPa 0,0 l/m 16,1 km/h (3 Bft) SW 225 0 min 0,000 mm 0,0 UV-I 0 W/m 0,6 C -6,0 C 25,7 km/h (4 Bft) 95,65 %
28.12.2017 03:38 1,3 C 3,9 C 95 % 990,2 hPa 0,0 l/m 14,5 km/h (3 Bft) SW 225 0 min 0,000 mm 0,0 UV-I 0 W/m 0,6 C -5,1 C 22,5 km/h (4 Bft) 95,65 %
28.12.2017 03:39 1,3 C 3,9 C 95 % 990,3 hPa 0,0 l/m 20,9 km/h (4 Bft) SW 225 0 min 0,000 mm 0,0 UV-I 0 W/m 0,6 C -8,3 C 27,4 km/h (4 Bft) 91,30 %
28.12.2017 03:40 1,3 C 3,9 C 95 % 990,3 hPa 0,0 l/m 19,3 km/h (3 Bft) SW 225 0 min 0,000 mm 0,0 UV-I 0 W/m 0,6 C -7,6 C 24,1 km/h (4 Bft) 100,00 %
28.12.2017 03:41 1,3 C 3,9 C 95 % 990,3 hPa 0,0 l/m 16,1 km/h (3 Bft) SW 225 0 min 0,000 mm 0,0 UV-I 0 W/m 0,6 C -6,0 C 22,5 km/h (4 Bft) 95,65 %
28.12.2017 03:42 1,3 C 3,9 C 95 % 990,4 hPa 0,0 l/m 20,9 km/h (4 Bft) SW 225 0 min 0,000 mm 0,0 UV-I 0 W/m 0,6 C -8,3 C 30,6 km/h (5 Bft) 100,00 %
28.12.2017 03:43 1,2 C 3,9 C 95 % 990,3 hPa 0,0 l/m 20,9 km/h (4 Bft) SW 225 0 min 0,000 mm 0,0 UV-I 0 W/m 0,5 C -8,5 C 37,0 km/h (5 Bft) 100,00 %
28.12.2017 03:44 1,2 C 3,9 C 95 % 990,3 hPa 0,0 l/m 17,7 km/h (3 Bft) W-SW 247 0 min 0,000 mm 0,0 UV-I 0 W/m 0,5 C -7,0 C 27,4 km/h (4 Bft) 100,00 %
28.12.2017 03:45 1,2 C 4,4 C 95 % 990,2 hPa 0,2 l/m 17,7 km/h (3 Bft) SW 225 0 min 0,000 mm 0,0 UV-I 0 W/m 0,5 C -7,0 C 24,1 km/h (4 Bft) 91,30 %
28.12.2017 03:46 1,2 C 3,9 C 95 % 990,3 hPa 0,0 l/m 22,5 km/h (4 Bft) SW 225 0 min 0,000 mm 0,0 UV-I 0 W/m 0,5 C -9,1 C 35,4 km/h (5 Bft) 100,00 %
28.12.2017 03:47 1,2 C 3,9 C 95 % 990,2 hPa 0,0 l/m 20,9 km/h (4 Bft) SW 225 0 min 0,000 mm 0,0 UV-I 0 W/m 0,5 C -8,5 C 24,1 km/h (4 Bft) 100,00 %
28.12.2017 03:48 1,2 C 3,9 C 95 % 990,2 hPa 0,0 l/m 20,9 km/h (4 Bft) SW 225 0 min 0,000 mm 0,0 UV-I 0 W/m 0,5 C -8,5 C 29,0 km/h (5 Bft) 100,00 %
28.12.2017 03:49 1,2 C 3,9 C 95 % 990,2 hPa 0,0 l/m 16,1 km/h (3 Bft) SW 225 0 min 0,000 mm 0,0 UV-I 0 W/m 0,5 C -6,1 C 24,1 km/h (4 Bft) 100,00 %
28.12.2017 03:50 1,2 C 3,9 C 95 % 990,2 hPa 0,0 l/m 22,5 km/h (4 Bft) W-SW 247 0 min 0,000 mm 0,0 UV-I 0 W/m 0,5 C -9,1 C 32,2 km/h (5 Bft) 100,00 %
28.12.2017 03:51 1,1 C 4,4 C 95 % 990,2 hPa 0,0 l/m 24,1 km/h (4 Bft) SW 225 0 min 0,000 mm 0,0 UV-I 0 W/m 0,4 C -9,9 C 32,2 km/h (5 Bft) 100,00 %
28.12.2017 03:52 1,2 C 3,9 C 95 % 990,2 hPa 0,0 l/m 16,1 km/h (3 Bft) W-SW 247 0 min 0,000 mm 0,0 UV-I 0 W/m 0,5 C -6,1 C 22,5 km/h (4 Bft) 95,65 %
28.12.2017 03:53 1,1 C 3,9 C 95 % 990,2 hPa 0,0 l/m 19,3 km/h (3 Bft) SW 225 0 min 0,000 mm 0,0 UV-I 0 W/m 0,4 C -7,9 C 25,7 km/h (4 Bft) 100,00 %
28.12.2017 03:54 1,2 C 3,9 C 95 % 990,2 hPa 0,0 l/m 20,9 km/h (4 Bft) S-SW 202 0 min 0,000 mm 0,0 UV-I 0 W/m 0,5 C -8,5 C 29,0 km/h (5 Bft) 95,65 %
28.12.2017 03:55 1,2 C 3,9 C 95 % 990,2 hPa 0,0 l/m 17,7 km/h (3 Bft) SW 225 0 min 0,000 mm 0,0 UV-I 0 W/m 0,5 C -7,0 C 24,1 km/h (4 Bft) 100,00 %
28.12.2017 03:56 1,2 C 3,9 C 95 % 990,2 hPa 0,2 l/m 22,5 km/h (4 Bft) SW 225 0 min 0,000 mm 0,0 UV-I 0 W/m 0,5 C -9,1 C 32,2 km/h (5 Bft) 100,00 %
28.12.2017 03:57 1,2 C 3,9 C 95 % 990,3 hPa 0,0 l/m 22,5 km/h (4 Bft) W-SW 247 0 min 0,000 mm 0,0 UV-I 0 W/m 0,5 C -9,1 C 33,8 km/h (5 Bft) 100,00 %
28.12.2017 03:58 1,2 C 3,9 C 95 % 990,3 hPa 0,0 l/m 16,1 km/h (3 Bft) W-SW 247 0 min 0,000 mm 0,0 UV-I 0 W/m 0,5 C -6,1 C 32,2 km/h (5 Bft) 100,00 %
28.12.2017 03:59 1,1 C 3,9 C 95 % 990,2 hPa 0,0 l/m 19,3 km/h (3 Bft) SW 225 0 min 0,000 mm 0,0 UV-I 0 W/m 0,4 C -7,9 C 25,7 km/h (4 Bft) 95,65 %
28.12.2017 04:00 1,2 C 3,9 C 95 % 990,2 hPa 0,0 l/m 20,9 km/h (4 Bft) SW 225 0 min 0,000 mm 0,0 UV-I 0 W/m 0,5 C -8,5 C 27,4 km/h (4 Bft) 100,00 %
28.12.2017 04:01 1,1 C 4,4 C 95 % 990,2 hPa 0,0 l/m 16,1 km/h (3 Bft) SW 225 0 min 0,000 mm 0,0 UV-I 0 W/m 0,4 C -6,3 C 20,9 km/h (4 Bft) 100,00 %
28.12.2017 04:02 1,1 C 3,9 C 95 % 990,2 hPa 0,0 l/m 19,3 km/h (3 Bft) SW 225 0 min 0,000 mm 0,0 UV-I 0 W/m 0,4 C -7,9 C 25,7 km/h (4 Bft) 95,65 %
28.12.2017 04:03 1,1 C 3,9 C 95 % 990,3 hPa 0,0 l/m 19,3 km/h (3 Bft) W-SW 247 0 min 0,000 mm 0,0 UV-I 0 W/m 0,4 C -7,9 C 25,7 km/h (4 Bft) 100,00 %
28.12.2017 04:04 1,1 C 3,9 C 95 % 990,3 hPa 0,0 l/m 17,7 km/h (3 Bft) SW 225 0 min 0,000 mm 0,0 UV-I 0 W/m 0,4 C -7,1 C 20,9 km/h (4 Bft) 95,65 %
28.12.2017 04:05 1,1 C 3,9 C 95 % 990,3 hPa 0,0 l/m 19,3 km/h (3 Bft) SW 225 0 min 0,000 mm 0,0 UV-I 0 W/m 0,4 C -7,9 C 25,7 km/h (4 Bft) 100,00 %
28.12.2017 04:06 1,1 C 4,4 C 95 % 990,3 hPa 0,0 l/m 19,3 km/h (3 Bft) SW 225 0 min 0,000 mm 0,0 UV-I 0 W/m 0,4 C -7,9 C 24,1 km/h (4 Bft) 95,65 %
28.12.2017 04:07 1,1 C 3,9 C 95 % 990,3 hPa 0,0 l/m 24,1 km/h (4 Bft) SW 225 0 min 0,000 mm 0,0 UV-I 0 W/m 0,4 C -9,9 C 32,2 km/h (5 Bft) 100,00 %
28.12.2017 04:08 1,1 C 3,9 C 95 % 990,4 hPa 0,0 l/m 14,5 km/h (3 Bft) W-SW 247 0 min 0,000 mm 0,0 UV-I 0 W/m 0,4 C -5,4 C 20,9 km/h (4 Bft) 95,65 %
28.12.2017 04:09 1,1 C 3,9 C 95 % 990,3 hPa 0,2 l/m 20,9 km/h (4 Bft) SW 225 0 min 0,000 mm 0,0 UV-I 0 W/m 0,4 C -8,6 C 29,0 km/h (5 Bft) 100,00 %
28.12.2017 04:10 1,1 C 3,9 C 95 % 990,4 hPa 0,0 l/m 20,9 km/h (4 Bft) SW 225 0 min 0,000 mm 0,0 UV-I 0 W/m 0,4 C -8,6 C 27,4 km/h (4 Bft) 100,00 %
28.12.2017 04:11 1,1 C 3,9 C 95 % 990,3 hPa 0,0 l/m 17,7 km/h (3 Bft) W-SW 247 0 min 0,000 mm 0,0 UV-I 0 W/m 0,4 C -7,1 C 27,4 km/h (4 Bft) 95,65 %
28.12.2017 04:12 1,1 C 3,9 C 95 % 990,3 hPa 0,0 l/m 17,7 km/h (3 Bft) SW 225 0 min 0,000 mm 0,0 UV-I 0 W/m 0,4 C -7,1 C 25,7 km/h (4 Bft) 100,00 %
28.12.2017 04:13 1,0 C 3,9 C 95 % 990,3 hPa 0,0 l/m 16,1 km/h (3 Bft) SW 225 0 min 0,000 mm 0,0 UV-I 0 W/m 0,3 C -6,4 C 24,1 km/h (4 Bft) 91,30 %
28.12.2017 04:14 1,0 C 3,9 C 95 % 990,4 hPa 0,0 l/m 20,9 km/h (4 Bft) W-SW 247 0 min 0,000 mm 0,0 UV-I 0 W/m 0,3 C -8,7 C 30,6 km/h (5 Bft) 100,00 %
28.12.2017 04:15 1,0 C 3,9 C 96 % 990,4 hPa 0,0 l/m 14,5 km/h (3 Bft) SW 225 0 min 0,000 mm 0,0 UV-I 0 W/m 0,4 C -5,5 C 19,3 km/h (3 Bft) 91,30 %
28.12.2017 04:16 1,0 C 3,9 C 96 % 990,4 hPa 0,0 l/m 17,7 km/h (3 Bft) SW 225 0 min 0,000 mm 0,0 UV-I 0 W/m 0,4 C -7,2 C 24,1 km/h (4 Bft) 100,00 %
28.12.2017 04:17 0,9 C 3,9 C 96 % 990,4 hPa 0,0 l/m 19,3 km/h (3 Bft) SW 225 0 min 0,000 mm 0,0 UV-I 0 W/m 0,3 C -8,1 C 29,0 km/h (5 Bft) 95,65 %
28.12.2017 04:18 0,9 C 3,9 C 96 % 990,4 hPa 0,0 l/m 20,9 km/h (4 Bft) SW 225 0 min 0,000 mm 0,0 UV-I 0 W/m 0,3 C -8,9 C 25,7 km/h (4 Bft) 100,00 %
28.12.2017 04:19 1,0 C 3,9 C 96 % 990,3 hPa 0,0 l/m 20,9 km/h (4 Bft) W-SW 247 0 min 0,000 mm 0,0 UV-I 0 W/m 0,4 C -8,7 C 30,6 km/h (5 Bft) 91,30 %
28.12.2017 04:20 1,0 C 3,9 C 96 % 990,4 hPa 0,0 l/m 20,9 km/h (4 Bft) W-SW 247 0 min 0,000 mm 0,0 UV-I 0 W/m 0,4 C -8,7 C 27,4 km/h (4 Bft) 91,30 %
28.12.2017 04:21 1,0 C 3,9 C 96 % 990,4 hPa 0,2 l/m 16,1 km/h (3 Bft) W-SW 247 0 min 0,000 mm 0,0 UV-I 0 W/m 0,4 C -6,4 C 22,5 km/h (4 Bft) 100,00 %
28.12.2017 04:22 0,9 C 3,9 C 96 % 990,4 hPa 0,0 l/m 19,3 km/h (3 Bft) SW 225 0 min 0,000 mm 0,0 UV-I 0 W/m 0,3 C -8,1 C 25,7 km/h (4 Bft) 95,65 %
28.12.2017 04:23 0,9 C 3,9 C 96 % 990,4 hPa 0,0 l/m 20,9 km/h (4 Bft) SW 225 0 min 0,000 mm 0,0 UV-I 0 W/m 0,3 C -8,9 C 25,7 km/h (4 Bft) 100,00 %
28.12.2017 04:24 0,9 C 3,9 C 96 % 990,4 hPa 0,0 l/m 16,1 km/h (3 Bft) SW 225 0 min 0,000 mm 0,0 UV-I 0 W/m 0,3 C -6,5 C 22,5 km/h (4 Bft) 91,30 %
28.12.2017 04:25 0,9 C 3,9 C 96 % 990,5 hPa 0,0 l/m 19,3 km/h (3 Bft) SW 225 0 min 0,000 mm 0,0 UV-I 0 W/m 0,3 C -8,1 C 25,7 km/h (4 Bft) 100,00 %
28.12.2017 04:26 0,9 C 3,9 C 96 % 990,5 hPa 0,0 l/m 17,7 km/h (3 Bft) W-SW 247 0 min 0,000 mm 0,0 UV-I 0 W/m 0,3 C -7,4 C 25,7 km/h (4 Bft) 95,65 %
28.12.2017 04:27 0,9 C 3,9 C 96 % 990,5 hPa 0,0 l/m 19,3 km/h (3 Bft) W-SW 247 0 min 0,000 mm 0,0 UV-I 0 W/m 0,3 C -8,1 C 24,1 km/h (4 Bft) 95,65 %
28.12.2017 04:28 0,9 C 3,9 C 96 % 990,5 hPa 0,0 l/m 19,3 km/h (3 Bft) SW 225 0 min 0,000 mm 0,0 UV-I 0 W/m 0,3 C -8,1 C 27,4 km/h (4 Bft) 95,65 %
28.12.2017 04:29 0,9 C 3,9 C 96 % 990,6 hPa 0,0 l/m 22,5 km/h (4 Bft) W-SW 247 0 min 0,000 mm 0,0 UV-I 0 W/m 0,3 C -9,5 C 30,6 km/h (5 Bft) 95,65 %
28.12.2017 04:30 0,9 C 3,9 C 96 % 990,5 hPa 0,0 l/m 20,9 km/h (4 Bft) W-SW 247 0 min 0,000 mm 0,0 UV-I 0 W/m 0,3 C -8,9 C 25,7 km/h (4 Bft) 100,00 %
28.12.2017 04:31 0,9 C 3,9 C 96 % 990,6 hPa 0,0 l/m 19,3 km/h (3 Bft) SW 225 0 min 0,000 mm 0,0 UV-I 0 W/m 0,3 C -8,1 C 24,1 km/h (4 Bft) 95,65 %
28.12.2017 04:32 0,9 C 3,9 C 96 % 990,6 hPa 0,0 l/m 20,9 km/h (4 Bft) W-SW 247 0 min 0,000 mm 0,0 UV-I 0 W/m 0,3 C -8,9 C 32,2 km/h (5 Bft) 100,00 %
28.12.2017 04:33 0,9 C 3,9 C 96 % 990,7 hPa 0,2 l/m 20,9 km/h (4 Bft) SW 225 0 min 0,000 mm 0,0 UV-I 0 W/m 0,3 C -8,9 C 27,4 km/h (4 Bft) 95,65 %
28.12.2017 04:34 0,9 C 3,9 C 96 % 990,7 hPa 0,0 l/m 19,3 km/h (3 Bft) SW 225 0 min 0,000 mm 0,0 UV-I 0 W/m 0,3 C -8,1 C 25,7 km/h (4 Bft) 95,65 %
28.12.2017 04:35 0,9 C 3,9 C 96 % 990,7 hPa 0,0 l/m 19,3 km/h (3 Bft) W-SW 247 0 min 0,000 mm 0,0 UV-I 0 W/m 0,3 C -8,1 C 25,7 km/h (4 Bft) 95,65 %
28.12.2017 04:36 0,9 C 3,9 C 96 % 990,7 hPa 0,0 l/m 14,5 km/h (3 Bft) W-SW 247 0 min 0,000 mm 0,0 UV-I 0 W/m 0,3 C -5,6 C 24,1 km/h (4 Bft) 100,00 %
28.12.2017 04:37 0,9 C 3,9 C 96 % 990,8 hPa 0,0 l/m 16,1 km/h (3 Bft) SW 225 0 min 0,000 mm 0,0 UV-I 0 W/m 0,3 C -6,5 C 22,5 km/h (4 Bft) 95,65 %
28.12.2017 04:38 0,9 C 3,9 C 96 % 990,7 hPa 0,0 l/m 17,7 km/h (3 Bft) SW 225 0 min 0,000 mm 0,0 UV-I 0 W/m 0,3 C -7,4 C 27,4 km/h (4 Bft) 91,30 %
28.12.2017 04:39 0,8 C 3,9 C 96 % 990,7 hPa 0,0 l/m 14,5 km/h (3 Bft) SW 225 0 min 0,000 mm 0,0 UV-I 0 W/m 0,2 C -5,7 C 22,5 km/h (4 Bft) 100,00 %
28.12.2017 04:40 0,8 C 3,9 C 96 % 990,7 hPa 0,0 l/m 16,1 km/h (3 Bft) SW 225 0 min 0,000 mm 0,0 UV-I 0 W/m 0,2 C -6,6 C 22,5 km/h (4 Bft) 95,65 %
28.12.2017 04:41 0,9 C 3,9 C 96 % 990,7 hPa 0,0 l/m 20,9 km/h (4 Bft) W-SW 247 0 min 0,000 mm 0,0 UV-I 0 W/m 0,3 C -8,9 C 25,7 km/h (4 Bft) 95,65 %
28.12.2017 04:42 0,9 C 3,9 C 96 % 990,7 hPa 0,0 l/m 19,3 km/h (3 Bft) SW 225 0 min 0,000 mm 0,0 UV-I 0 W/m 0,3 C -8,1 C 25,7 km/h (4 Bft) 95,65 %
28.12.2017 04:43 0,9 C 3,9 C 96 % 990,7 hPa 0,0 l/m 19,3 km/h (3 Bft) SW 225 0 min 0,000 mm 0,0 UV-I 0 W/m 0,3 C -8,1 C 25,7 km/h (4 Bft) 86,96 %
28.12.2017 04:44 0,9 C 3,9 C 96 % 990,7 hPa 0,2 l/m 19,3 km/h (3 Bft) SW 225 0 min 0,000 mm 0,0 UV-I 0 W/m 0,3 C -8,1 C 24,1 km/h (4 Bft) 91,30 %
28.12.2017 04:45 0,9 C 3,9 C 96 % 990,7 hPa 0,0 l/m 19,3 km/h (3 Bft) SW 225 0 min 0,000 mm 0,0 UV-I 0 W/m 0,3 C -8,1 C 25,7 km/h (4 Bft) 91,30 %
28.12.2017 04:46 0,9 C 3,9 C 96 % 990,6 hPa 0,0 l/m 20,9 km/h (4 Bft) SW 225 0 min 0,000 mm 0,0 UV-I 0 W/m 0,3 C -8,9 C 30,6 km/h (5 Bft) 100,00 %
28.12.2017 04:47 0,9 C 3,9 C 96 % 990,6 hPa 0,0 l/m 20,9 km/h (4 Bft) SW 225 0 min 0,000 mm 0,0 UV-I 0 W/m 0,3 C -8,9 C 27,4 km/h (4 Bft) 91,30 %
28.12.2017 04:48 0,9 C 3,9 C 96 % 990,6 hPa 0,0 l/m 20,9 km/h (4 Bft) SW 225 0 min 0,000 mm 0,0 UV-I 0 W/m 0,3 C -8,9 C 25,7 km/h (4 Bft) 95,65 %
28.12.2017 04:49 0,9 C 3,9 C 96 % 990,7 hPa 0,0 l/m 24,1 km/h (4 Bft) SW 225 0 min 0,000 mm 0,0 UV-I 0 W/m 0,3 C -10,2 C 29,0 km/h (5 Bft) 91,30 %
28.12.2017 04:50 0,9 C 3,9 C 96 % 990,7 hPa 0,0 l/m 19,3 km/h (3 Bft) SW 225 0 min 0,000 mm 0,0 UV-I 0 W/m 0,3 C -8,1 C 25,7 km/h (4 Bft) 95,65 %
28.12.2017 04:51 0,9 C 3,9 C 96 % 990,7 hPa 0,0 l/m 16,1 km/h (3 Bft) SW 225 0 min 0,000 mm 0,0 UV-I 0 W/m 0,3 C -6,5 C 25,7 km/h (4 Bft) 91,30 %
28.12.2017 04:52 1,0 C 3,9 C 96 % 990,8 hPa 0,0 l/m 17,7 km/h (3 Bft) SW 225 0 min 0,000 mm 0,0 UV-I 0 W/m 0,4 C -7,2 C 22,5 km/h (4 Bft) 100,00 %
28.12.2017 04:53 0,9 C 3,9 C 96 % 990,7 hPa 0,0 l/m 17,7 km/h (3 Bft) W-SW 247 0 min 0,000 mm 0,0 UV-I 0 W/m 0,3 C -7,4 C 24,1 km/h (4 Bft) 86,96 %
28.12.2017 04:54 1,0 C 3,9 C 96 % 990,8 hPa 0,2 l/m 19,3 km/h (3 Bft) SW 225 0 min 0,000 mm 0,0 UV-I 0 W/m 0,4 C -8,0 C 24,1 km/h (4 Bft) 95,65 %
28.12.2017 04:55 1,0 C 3,9 C 96 % 990,8 hPa 0,0 l/m 19,3 km/h (3 Bft) SW 225 0 min 0,000 mm 0,0 UV-I 0 W/m 0,4 C -8,0 C 32,2 km/h (5 Bft) 91,30 %
28.12.2017 04:56 1,0 C 3,9 C 96 % 990,8 hPa 0,0 l/m 19,3 km/h (3 Bft) SW 225 0 min 0,000 mm 0,0 UV-I 0 W/m 0,4 C -8,0 C 27,4 km/h (4 Bft) 95,65 %
28.12.2017 04:57 1,0 C 3,9 C 96 % 990,8 hPa 0,0 l/m 14,5 km/h (3 Bft) SW 225 0 min 0,000 mm 0,0 UV-I 0 W/m 0,4 C -5,5 C 22,5 km/h (4 Bft) 100,00 %
28.12.2017 04:58 1,0 C 3,9 C 96 % 990,8 hPa 0,0 l/m 29,0 km/h (5 Bft) SW 225 0 min 0,000 mm 0,0 UV-I 0 W/m 0,4 C -11,7 C 35,4 km/h (5 Bft) 95,65 %
28.12.2017 04:59 1,0 C 3,9 C 96 % 990,8 hPa 0,0 l/m 20,9 km/h (4 Bft) SW 225 0 min 0,000 mm 0,0 UV-I 0 W/m 0,4 C -8,7 C 27,4 km/h (4 Bft) 100,00 %
28.12.2017 05:00 1,0 C 3,9 C 96 % 990,8 hPa 0,0 l/m 19,3 km/h (3 Bft) SW 225 0 min 0,000 mm 0,0 UV-I 0 W/m 0,4 C -8,0 C 30,6 km/h (5 Bft) 95,65 %
28.12.2017 05:01 1,1 C 3,9 C 96 % 990,8 hPa 0,0 l/m 20,9 km/h (4 Bft) W-SW 247 0 min 0,000 mm 0,0 UV-I 0 W/m 0,5 C -8,6 C 29,0 km/h (5 Bft) 100,00 %
28.12.2017 05:02 1,1 C 3,9 C 96 % 990,8 hPa 0,0 l/m 20,9 km/h (4 Bft) SW 225 0 min 0,000 mm 0,0 UV-I 0 W/m 0,5 C -8,6 C 29,0 km/h (5 Bft) 91,30 %
28.12.2017 05:03 1,1 C 3,9 C 96 % 990,8 hPa 0,0 l/m 20,9 km/h (4 Bft) SW 225 0 min 0,000 mm 0,0 UV-I 0 W/m 0,5 C -8,6 C 30,6 km/h (5 Bft) 100,00 %
28.12.2017 05:04 1,1 C 3,9 C 96 % 990,8 hPa 0,2 l/m 22,5 km/h (4 Bft) SW 225 0 min 0,000 mm 0,0 UV-I 0 W/m 0,5 C -9,3 C 30,6 km/h (5 Bft) 95,65 %
28.12.2017 05:05 1,1 C 3,9 C 96 % 990,8 hPa 0,0 l/m 17,7 km/h (3 Bft) SW 225 0 min 0,000 mm 0,0 UV-I 0 W/m 0,5 C -7,1 C 25,7 km/h (4 Bft) 100,00 %
28.12.2017 05:06 1,1 C 3,9 C 96 % 990,9 hPa 0,0 l/m 20,9 km/h (4 Bft) SW 225 0 min 0,000 mm 0,0 UV-I 0 W/m 0,5 C -8,6 C 29,0 km/h (5 Bft) 91,30 %
28.12.2017 05:07 1,1 C 3,9 C 96 % 990,9 hPa 0,0 l/m 19,3 km/h (3 Bft) W-SW 247 0 min 0,000 mm 0,0 UV-I 0 W/m 0,5 C -7,9 C 25,7 km/h (4 Bft) 100,00 %
28.12.2017 05:08 1,1 C 3,9 C 96 % 990,9 hPa 0,0 l/m 19,3 km/h (3 Bft) SW 225 0 min 0,000 mm 0,0 UV-I 0 W/m 0,5 C -7,9 C 29,0 km/h (5 Bft) 95,65 %
28.12.2017 05:09 1,1 C 3,9 C 96 % 990,9 hPa 0,0 l/m 20,9 km/h (4 Bft) SW 225 0 min 0,000 mm 0,0 UV-I 0 W/m 0,5 C -8,6 C 30,6 km/h (5 Bft) 91,30 %
28.12.2017 05:10 1,1 C 3,9 C 96 % 990,9 hPa 0,0 l/m 19,3 km/h (3 Bft) SW 225 0 min 0,000 mm 0,0 UV-I 0 W/m 0,5 C -7,9 C 27,4 km/h (4 Bft) 100,00 %
28.12.2017 05:11 1,1 C 3,9 C 96 % 990,9 hPa 0,0 l/m 22,5 km/h (4 Bft) SW 225 0 min 0,000 mm 0,0 UV-I 0 W/m 0,5 C -9,3 C 29,0 km/h (5 Bft) 100,00 %
28.12.2017 05:12 1,1 C 3,9 C 96 % 990,9 hPa 0,0 l/m 22,5 km/h (4 Bft) SW 225 0 min 0,000 mm 0,0 UV-I 0 W/m 0,5 C -9,3 C 33,8 km/h (5 Bft) 100,00 %
28.12.2017 05:13 1,1 C 3,9 C 96 % 990,9 hPa 0,0 l/m 19,3 km/h (3 Bft) SW 225 0 min 0,000 mm 0,0 UV-I 0 W/m 0,5 C -7,9 C 27,4 km/h (4 Bft) 100,00 %
28.12.2017 05:14 1,1 C 3,9 C 96 % 990,9 hPa 0,0 l/m 17,7 km/h (3 Bft) SW 225 0 min 0,000 mm 0,0 UV-I 0 W/m 0,5 C -7,1 C 27,4 km/h (4 Bft) 100,00 %
28.12.2017 05:15 1,1 C 3,9 C 96 % 991,0 hPa 0,0 l/m 25,7 km/h (4 Bft) SW 225 0 min 0,000 mm 0,0 UV-I 0 W/m 0,5 C -10,5 C 33,8 km/h (5 Bft) 100,00 %
28.12.2017 05:16 1,1 C 3,9 C 96 % 991,0 hPa 0,0 l/m 22,5 km/h (4 Bft) SW 225 0 min 0,000 mm 0,0 UV-I 0 W/m 0,5 C -9,3 C 29,0 km/h (5 Bft) 95,65 %
28.12.2017 05:17 1,2 C 3,9 C 96 % 991,0 hPa 0,2 l/m 19,3 km/h (3 Bft) SW 225 0 min 0,000 mm 0,0 UV-I 0 W/m 0,6 C -7,8 C 30,6 km/h (5 Bft) 100,00 %
28.12.2017 05:18 1,2 C 3,9 C 96 % 991,0 hPa 0,0 l/m 20,9 km/h (4 Bft) W-SW 247 0 min 0,000 mm 0,0 UV-I 0 W/m 0,6 C -8,5 C 27,4 km/h (4 Bft) 100,00 %
28.12.2017 05:19 1,2 C 3,9 C 96 % 991,1 hPa 0,0 l/m 24,1 km/h (4 Bft) SW 225 0 min 0,000 mm 0,0 UV-I 0 W/m 0,6 C -9,8 C 32,2 km/h (5 Bft) 100,00 %
28.12.2017 05:20 1,2 C 3,9 C 96 % 991,1 hPa 0,0 l/m 24,1 km/h (4 Bft) SW 225 0 min 0,000 mm 0,0 UV-I 0 W/m 0,6 C -9,8 C 32,2 km/h (5 Bft) 100,00 %
28.12.2017 05:21 1,2 C 3,9 C 96 % 991,2 hPa 0,0 l/m 17,7 km/h (3 Bft) W-SW 247 0 min 0,000 mm 0,0 UV-I 0 W/m 0,6 C -7,0 C 29,0 km/h (5 Bft) 100,00 %
28.12.2017 05:22 1,2 C 3,9 C 96 % 991,2 hPa 0,0 l/m 19,3 km/h (3 Bft) SW 225 0 min 0,000 mm 0,0 UV-I 0 W/m 0,6 C -7,8 C 27,4 km/h (4 Bft) 100,00 %
28.12.2017 05:23 1,2 C 3,9 C 96 % 991,2 hPa 0,0 l/m 19,3 km/h (3 Bft) SW 225 0 min 0,000 mm 0,0 UV-I 0 W/m 0,6 C -7,8 C 29,0 km/h (5 Bft) 95,65 %
28.12.2017 05:24 1,2 C 3,9 C 96 % 991,2 hPa 0,0 l/m 14,5 km/h (3 Bft) W-SW 247 0 min 0,000 mm 0,0 UV-I 0 W/m 0,6 C -5,2 C 24,1 km/h (4 Bft) 100,00 %
28.12.2017 05:25 1,2 C 3,9 C 96 % 991,2 hPa 0,2 l/m 25,7 km/h (4 Bft) SW 225 0 min 0,000 mm 0,0 UV-I 0 W/m 0,6 C -10,3 C 32,2 km/h (5 Bft) 100,00 %
28.12.2017 05:26 1,2 C 3,9 C 96 % 991,3 hPa 0,0 l/m 22,5 km/h (4 Bft) SW 225 0 min 0,000 mm 0,0 UV-I 0 W/m 0,6 C -9,1 C 33,8 km/h (5 Bft) 100,00 %
28.12.2017 05:27 1,2 C 3,9 C 96 % 991,2 hPa 0,0 l/m 19,3 km/h (3 Bft) W 270 0 min 0,000 mm 0,0 UV-I 0 W/m 0,6 C -7,8 C 25,7 km/h (4 Bft) 100,00 %
28.12.2017 05:28 1,2 C 3,9 C 96 % 991,2 hPa 0,0 l/m 14,5 km/h (3 Bft) W-SW 247 0 min 0,000 mm 0,0 UV-I 0 W/m 0,6 C -5,2 C 20,9 km/h (4 Bft) 100,00 %
28.12.2017 05:29 1,2 C 3,9 C 96 % 991,2 hPa 0,0 l/m 17,7 km/h (3 Bft) SW 225 0 min 0,000 mm 0,0 UV-I 0 W/m 0,6 C -7,0 C 29,0 km/h (5 Bft) 100,00 %
28.12.2017 05:30 1,2 C 3,9 C 96 % 991,2 hPa 0,0 l/m 20,9 km/h (4 Bft) SW 225 0 min 0,000 mm 0,0 UV-I 0 W/m 0,6 C -8,5 C 30,6 km/h (5 Bft) 95,65 %
28.12.2017 05:31 1,2 C 3,9 C 96 % 991,2 hPa 0,0 l/m 19,3 km/h (3 Bft) W-SW 247 0 min 0,000 mm 0,0 UV-I 0 W/m 0,6 C -7,8 C 24,1 km/h (4 Bft) 100,00 %
28.12.2017 05:32 1,2 C 3,9 C 96 % 991,2 hPa 0,0 l/m 22,5 km/h (4 Bft) SW 225 0 min 0,000 mm 0,0 UV-I 0 W/m 0,6 C -9,1 C 32,2 km/h (5 Bft) 100,00 %
28.12.2017 05:33 1,2 C 3,9 C 96 % 991,3 hPa 0,0 l/m 20,9 km/h (4 Bft) SW 225 0 min 0,000 mm 0,0 UV-I 0 W/m 0,6 C -8,5 C 37,0 km/h (5 Bft) 100,00 %
28.12.2017 05:34 1,2 C 3,9 C 96 % 991,3 hPa 0,0 l/m 16,1 km/h (3 Bft) SW 225 0 min 0,000 mm 0,0 UV-I 0 W/m 0,6 C -6,1 C 24,1 km/h (4 Bft) 95,65 %
28.12.2017 05:35 1,2 C 3,9 C 96 % 991,3 hPa 0,0 l/m 17,7 km/h (3 Bft) SW 225 0 min 0,000 mm 0,0 UV-I 0 W/m 0,6 C -7,0 C 25,7 km/h (4 Bft) 100,00 %
28.12.2017 05:36 1,2 C 3,9 C 95 % 991,3 hPa 0,2 l/m 16,1 km/h (3 Bft) SW 225 0 min 0,000 mm 0,0 UV-I 0 W/m 0,5 C -6,1 C 22,5 km/h (4 Bft) 95,65 %
28.12.2017 05:37 1,2 C 3,9 C 95 % 991,3 hPa 0,0 l/m 22,5 km/h (4 Bft) SW 225 0 min 0,000 mm 0,0 UV-I 0 W/m 0,5 C -9,1 C 32,2 km/h (5 Bft) 95,65 %
28.12.2017 05:38 1,2 C 3,9 C 95 % 991,4 hPa 0,0 l/m 22,5 km/h (4 Bft) SW 225 0 min 0,000 mm 0,0 UV-I 0 W/m 0,5 C -9,1 C 37,0 km/h (5 Bft) 95,65 %
28.12.2017 05:39 1,2 C 3,9 C 96 % 991,4 hPa 0,0 l/m 17,7 km/h (3 Bft) W-SW 247 0 min 0,000 mm 0,0 UV-I 0 W/m 0,6 C -7,0 C 25,7 km/h (4 Bft) 100,00 %
28.12.2017 05:40 1,2 C 3,9 C 96 % 991,4 hPa 0,0 l/m 20,9 km/h (4 Bft) SW 225 0 min 0,000 mm 0,0 UV-I 0 W/m 0,6 C -8,5 C 30,6 km/h (5 Bft) 100,00 %
28.12.2017 05:41 1,2 C 3,9 C 96 % 991,4 hPa 0,0 l/m 20,9 km/h (4 Bft) SW 225 0 min 0,000 mm 0,0 UV-I 0 W/m 0,6 C -8,5 C 29,0 km/h (5 Bft) 95,65 %
28.12.2017 05:42 1,2 C 3,9 C 96 % 991,4 hPa 0,0 l/m 22,5 km/h (4 Bft) SW 225 0 min 0,000 mm 0,0 UV-I 0 W/m 0,6 C -9,1 C 30,6 km/h (5 Bft) 100,00 %
28.12.2017 05:43 1,2 C 3,9 C 96 % 991,4 hPa 0,0 l/m 25,7 km/h (4 Bft) SW 225 0 min 0,000 mm 0,0 UV-I 0 W/m 0,6 C -10,3 C 32,2 km/h (5 Bft) 100,00 %
28.12.2017 05:44 1,2 C 3,9 C 96 % 991,4 hPa 0,0 l/m 25,7 km/h (4 Bft) SW 225 0 min 0,000 mm 0,0 UV-I 0 W/m 0,6 C -10,3 C 35,4 km/h (5 Bft) 95,65 %
28.12.2017 05:45 1,2 C 3,9 C 96 % 991,4 hPa 0,0 l/m 22,5 km/h (4 Bft) SW 225 0 min 0,000 mm 0,0 UV-I 0 W/m 0,6 C -9,1 C 27,4 km/h (4 Bft) 95,65 %
28.12.2017 05:46 1,2 C 3,9 C 96 % 991,5 hPa 0,0 l/m 27,4 km/h (4 Bft) SW 225 0 min 0,000 mm 0,0 UV-I 0 W/m 0,6 C -10,9 C 35,4 km/h (5 Bft) 95,65 %
28.12.2017 05:47 1,2 C 3,9 C 96 % 991,5 hPa 0,2 l/m 19,3 km/h (3 Bft) SW 225 0 min 0,000 mm 0,0 UV-I 0 W/m 0,6 C -7,8 C 27,4 km/h (4 Bft) 100,00 %
28.12.2017 05:48 1,2 C 3,9 C 96 % 991,5 hPa 0,0 l/m 20,9 km/h (4 Bft) SW 225 0 min 0,000 mm 0,0 UV-I 0 W/m 0,6 C -8,5 C 29,0 km/h (5 Bft) 100,00 %
28.12.2017 05:49 1,2 C 3,9 C 96 % 991,6 hPa 0,0 l/m 20,9 km/h (4 Bft) SW 225 0 min 0,000 mm 0,0 UV-I 0 W/m 0,6 C -8,5 C 32,2 km/h (5 Bft) 95,65 %
28.12.2017 05:50 1,2 C 3,9 C 96 % 991,6 hPa 0,0 l/m 22,5 km/h (4 Bft) SW 225 0 min 0,000 mm 0,0 UV-I 0 W/m 0,6 C -9,1 C 33,8 km/h (5 Bft) 95,65 %
28.12.2017 05:51 1,2 C 3,9 C 95 % 991,6 hPa 0,0 l/m 19,3 km/h (3 Bft) W-SW 247 0 min 0,000 mm 0,0 UV-I 0 W/m 0,5 C -7,8 C 25,7 km/h (4 Bft) 95,65 %
28.12.2017 05:52 1,2 C 3,9 C 95 % 991,6 hPa 0,0 l/m 22,5 km/h (4 Bft) SW 225 0 min 0,000 mm 0,0 UV-I 0 W/m 0,5 C -9,1 C 30,6 km/h (5 Bft) 95,65 %
28.12.2017 05:53 1,2 C 3,9 C 95 % 991,6 hPa 0,0 l/m 19,3 km/h (3 Bft) W-SW 247 0 min 0,000 mm 0,0 UV-I 0 W/m 0,5 C -7,8 C 27,4 km/h (4 Bft) 95,65 %
28.12.2017 05:54 1,2 C 3,9 C 96 % 991,6 hPa 0,0 l/m 20,9 km/h (4 Bft) W-SW 247 0 min 0,000 mm 0,0 UV-I 0 W/m 0,6 C -8,5 C 30,6 km/h (5 Bft) 100,00 %
28.12.2017 05:55 1,1 C 3,9 C 96 % 991,6 hPa 0,0 l/m 25,7 km/h (4 Bft) SW 225 0 min 0,000 mm 0,0 UV-I 0 W/m 0,5 C -10,5 C 33,8 km/h (5 Bft) 100,00 %
28.12.2017 05:56 1,1 C 3,9 C 96 % 991,6 hPa 0,0 l/m 27,4 km/h (4 Bft) SW 225 0 min 0,000 mm 0,0 UV-I 0 W/m 0,5 C -11,1 C 37,0 km/h (5 Bft) 95,65 %
28.12.2017 05:57 1,1 C 3,9 C 96 % 991,6 hPa 0,0 l/m 17,7 km/h (3 Bft) SW 225 0 min 0,000 mm 0,0 UV-I 0 W/m 0,5 C -7,1 C 27,4 km/h (4 Bft) 100,00 %
28.12.2017 05:58 1,1 C 3,9 C 96 % 991,6 hPa 0,0 l/m 24,1 km/h (4 Bft) SW 225 0 min 0,000 mm 0,0 UV-I 0 W/m 0,5 C -9,9 C 33,8 km/h (5 Bft) 95,65 %
28.12.2017 05:59 1,1 C 3,9 C 96 % 991,6 hPa 0,2 l/m 25,7 km/h (4 Bft) SW 225 0 min 0,000 mm 0,0 UV-I 0 W/m 0,5 C -10,5 C 37,0 km/h (5 Bft) 100,00 %
28.12.2017 06:00 1,2 C 3,9 C 96 % 991,6 hPa 0,0 l/m 20,9 km/h (4 Bft) SW 225 0 min 0,000 mm 0,0 UV-I 0 W/m 0,6 C -8,5 C 32,2 km/h (5 Bft) 100,00 %
28.12.2017 06:01 1,1 C 3,9 C 96 % 991,6 hPa 0,0 l/m 20,9 km/h (4 Bft) SW 225 0 min 0,000 mm 0,0 UV-I 0 W/m 0,5 C -8,6 C 30,6 km/h (5 Bft) 100,00 %
28.12.2017 06:02 1,1 C 3,9 C 96 % 991,6 hPa 0,0 l/m 17,7 km/h (3 Bft) W-SW 247 0 min 0,000 mm 0,0 UV-I 0 W/m 0,5 C -7,1 C 32,2 km/h (5 Bft) 100,00 %
28.12.2017 06:03 1,1 C 3,9 C 96 % 991,7 hPa 0,0 l/m 19,3 km/h (3 Bft) SW 225 0 min 0,000 mm 0,0 UV-I 0 W/m 0,5 C -7,9 C 24,1 km/h (4 Bft) 100,00 %
28.12.2017 06:04 1,1 C 3,9 C 96 % 991,7 hPa 0,0 l/m 19,3 km/h (3 Bft) W-SW 247 0 min 0,000 mm 0,0 UV-I 0 W/m 0,5 C -7,9 C 25,7 km/h (4 Bft) 95,65 %
28.12.2017 06:05 1,1 C 3,9 C 96 % 991,7 hPa 0,0 l/m 19,3 km/h (3 Bft) SW 225 0 min 0,000 mm 0,0 UV-I 0 W/m 0,5 C -7,9 C 32,2 km/h (5 Bft) 95,65 %
28.12.2017 06:06 1,1 C 3,9 C 96 % 991,7 hPa 0,0 l/m 24,1 km/h (4 Bft) SW 225 0 min 0,000 mm 0,0 UV-I 0 W/m 0,5 C -9,9 C 32,2 km/h (5 Bft) 100,00 %
28.12.2017 06:07 1,1 C 3,9 C 96 % 991,7 hPa 0,0 l/m 24,1 km/h (4 Bft) SW 225 0 min 0,000 mm 0,0 UV-I 0 W/m 0,5 C -9,9 C 33,8 km/h (5 Bft) 100,00 %
28.12.2017 06:08 1,1 C 3,9 C 96 % 991,6 hPa 0,2 l/m 22,5 km/h (4 Bft) SW 225 0 min 0,000 mm 0,0 UV-I 0 W/m 0,5 C -9,3 C 30,6 km/h (5 Bft) 91,30 %
28.12.2017 06:09 1,1 C 3,9 C 96 % 991,7 hPa 0,0 l/m 20,9 km/h (4 Bft) W-SW 247 0 min 0,000 mm 0,0 UV-I 0 W/m 0,5 C -8,6 C 32,2 km/h (5 Bft) 100,00 %
28.12.2017 06:10 1,1 C 3,9 C 96 % 991,7 hPa 0,0 l/m 22,5 km/h (4 Bft) SW 225 0 min 0,000 mm 0,0 UV-I 0 W/m 0,5 C -9,3 C 37,0 km/h (5 Bft) 95,65 %
28.12.2017 06:11 1,1 C 3,9 C 96 % 991,8 hPa 0,0 l/m 25,7 km/h (4 Bft) SW 225 0 min 0,000 mm 0,0 UV-I 0 W/m 0,5 C -10,5 C 43,5 km/h (6 Bft) 100,00 %
28.12.2017 06:12 1,1 C 3,9 C 96 % 991,8 hPa 0,0 l/m 24,1 km/h (4 Bft) SW 225 0 min 0,000 mm 0,0 UV-I 0 W/m 0,5 C -9,9 C 43,5 km/h (6 Bft) 91,30 %
28.12.2017 06:13 1,2 C 3,9 C 96 % 991,8 hPa 0,0 l/m 22,5 km/h (4 Bft) W-SW 247 0 min 0,000 mm 0,0 UV-I 0 W/m 0,6 C -9,1 C 30,6 km/h (5 Bft) 100,00 %
28.12.2017 06:14 1,2 C 3,9 C 96 % 991,8 hPa 0,0 l/m 22,5 km/h (4 Bft) SW 225 0 min 0,000 mm 0,0 UV-I 0 W/m 0,6 C -9,1 C 30,6 km/h (5 Bft) 95,65 %
28.12.2017 06:15 1,2 C 3,9 C 96 % 991,9 hPa 0,0 l/m 27,4 km/h (4 Bft) SW 225 0 min 0,000 mm 0,0 UV-I 0 W/m 0,6 C -10,9 C 40,2 km/h (6 Bft) 100,00 %
28.12.2017 06:16 1,2 C 3,9 C 96 % 991,8 hPa 0,0 l/m 25,7 km/h (4 Bft) SW 225 0 min 0,000 mm 0,0 UV-I 0 W/m 0,6 C -10,3 C 40,2 km/h (6 Bft) 95,65 %
28.12.2017 06:17 1,2 C 3,9 C 96 % 991,9 hPa 0,0 l/m 20,9 km/h (4 Bft) W-SW 247 0 min 0,000 mm 0,0 UV-I 0 W/m 0,6 C -8,5 C 30,6 km/h (5 Bft) 91,30 %
28.12.2017 06:18 1,2 C 3,9 C 96 % 991,9 hPa 0,0 l/m 24,1 km/h (4 Bft) SW 225 0 min 0,000 mm 0,0 UV-I 0 W/m 0,6 C -9,8 C 32,2 km/h (5 Bft) 100,00 %
28.12.2017 06:19 1,2 C 3,9 C 96 % 991,9 hPa 0,0 l/m 24,1 km/h (4 Bft) SW 225 0 min 0,000 mm 0,0 UV-I 0 W/m 0,6 C -9,8 C 37,0 km/h (5 Bft) 91,30 %
28.12.2017 06:20 1,2 C 3,9 C 96 % 991,9 hPa 0,2 l/m 22,5 km/h (4 Bft) SW 225 0 min 0,000 mm 0,0 UV-I 0 W/m 0,6 C -9,1 C 32,2 km/h (5 Bft) 100,00 %
28.12.2017 06:21 1,2 C 3,9 C 96 % 992,0 hPa 0,0 l/m 29,0 km/h (5 Bft) SW 225 0 min 0,000 mm 0,0 UV-I 0 W/m 0,6 C -11,4 C 37,0 km/h (5 Bft) 95,65 %
28.12.2017 06:22 1,2 C 3,9 C 96 % 992,0 hPa 0,0 l/m 25,7 km/h (4 Bft) SW 225 0 min 0,000 mm 0,0 UV-I 0 W/m 0,6 C -10,3 C 35,4 km/h (5 Bft) 100,00 %
28.12.2017 06:23 1,2 C 3,9 C 96 % 992,0 hPa 0,0 l/m 20,9 km/h (4 Bft) SW 225 0 min 0,000 mm 0,0 UV-I 0 W/m 0,6 C -8,5 C 25,7 km/h (4 Bft) 95,65 %
28.12.2017 06:24 1,2 C 3,9 C 96 % 992,0 hPa 0,0 l/m 19,3 km/h (3 Bft) W-SW 247 0 min 0,000 mm 0,0 UV-I 0 W/m 0,6 C -7,8 C 25,7 km/h (4 Bft) 95,65 %
28.12.2017 06:25 1,2 C 3,9 C 96 % 992,0 hPa 0,0 l/m 24,1 km/h (4 Bft) SW 225 0 min 0,000 mm 0,0 UV-I 0 W/m 0,6 C -9,8 C 30,6 km/h (5 Bft) 95,65 %
28.12.2017 06:26 1,2 C 3,9 C 96 % 992,0 hPa 0,0 l/m 20,9 km/h (4 Bft) SW 225 0 min 0,000 mm 0,0 UV-I 0 W/m 0,6 C -8,5 C 30,6 km/h (5 Bft) 91,30 %
28.12.2017 06:27 1,2 C 3,9 C 96 % 992,0 hPa 0,0 l/m 22,5 km/h (4 Bft) SW 225 0 min 0,000 mm 0,0 UV-I 0 W/m 0,6 C -9,1 C 30,6 km/h (5 Bft) 95,65 %
28.12.2017 06:28 1,2 C 3,9 C 96 % 992,0 hPa 0,0 l/m 25,7 km/h (4 Bft) SW 225 0 min 0,000 mm 0,0 UV-I 0 W/m 0,6 C -10,3 C 37,0 km/h (5 Bft) 95,65 %
28.12.2017 06:29 1,2 C 3,9 C 96 % 992,0 hPa 0,0 l/m 20,9 km/h (4 Bft) SW 225 0 min 0,000 mm 0,0 UV-I 0 W/m 0,6 C -8,5 C 27,4 km/h (4 Bft) 91,30 %
28.12.2017 06:30 1,2 C 3,9 C 96 % 992,0 hPa 0,2 l/m 20,9 km/h (4 Bft) SW 225 0 min 0,000 mm 0,0 UV-I 0 W/m 0,6 C -8,5 C 30,6 km/h (5 Bft) 95,65 %
28.12.2017 06:31 1,2 C 3,9 C 96 % 992,0 hPa 0,0 l/m 19,3 km/h (3 Bft) SW 225 0 min 0,000 mm 0,0 UV-I 0 W/m 0,6 C -7,8 C 27,4 km/h (4 Bft) 91,30 %
28.12.2017 06:32 1,2 C 3,9 C 96 % 992,1 hPa 0,0 l/m 25,7 km/h (4 Bft) SW 225 0 min 0,000 mm 0,0 UV-I 0 W/m 0,6 C -10,3 C 37,0 km/h (5 Bft) 95,65 %
28.12.2017 06:33 1,2 C 3,9 C 96 % 992,1 hPa 0,0 l/m 20,9 km/h (4 Bft) SW 225 0 min 0,000 mm 0,0 UV-I 0 W/m 0,6 C -8,5 C 32,2 km/h (5 Bft) 91,30 %
28.12.2017 06:34 1,2 C 3,9 C 96 % 992,1 hPa 0,0 l/m 17,7 km/h (3 Bft) SW 225 0 min 0,000 mm 0,0 UV-I 0 W/m 0,6 C -7,0 C 27,4 km/h (4 Bft) 100,00 %
28.12.2017 06:35 1,2 C 3,9 C 96 % 992,1 hPa 0,0 l/m 17,7 km/h (3 Bft) SW 225 0 min 0,000 mm 0,0 UV-I 0 W/m 0,6 C -7,0 C 20,9 km/h (4 Bft) 91,30 %
28.12.2017 06:36 1,2 C 3,9 C 96 % 992,1 hPa 0,0 l/m 12,9 km/h (3 Bft) SW 225 0 min 0,000 mm 0,0 UV-I 0 W/m 0,6 C -4,2 C 19,3 km/h (3 Bft) 100,00 %
28.12.2017 06:37 1,2 C 3,9 C 96 % 992,2 hPa 0,0 l/m 17,7 km/h (3 Bft) SW 225 0 min 0,000 mm 0,0 UV-I 0 W/m 0,6 C -7,0 C 29,0 km/h (5 Bft) 91,30 %
28.12.2017 06:38 1,2 C 3,9 C 96 % 992,2 hPa 0,0 l/m 22,5 km/h (4 Bft) SW 225 0 min 0,000 mm 0,0 UV-I 0 W/m 0,6 C -9,1 C 32,2 km/h (5 Bft) 95,65 %
28.12.2017 06:39 1,2 C 3,9 C 96 % 992,2 hPa 0,0 l/m 22,5 km/h (4 Bft) SW 225 0 min 0,000 mm 0,0 UV-I 0 W/m 0,6 C -9,1 C 30,6 km/h (5 Bft) 100,00 %
28.12.2017 06:40 1,2 C 3,9 C 96 % 992,3 hPa 0,0 l/m 16,1 km/h (3 Bft) SW 225 0 min 0,000 mm 0,0 UV-I 0 W/m 0,6 C -6,1 C 22,5 km/h (4 Bft) 91,30 %
28.12.2017 06:41 1,2 C 3,9 C 96 % 992,4 hPa 0,0 l/m 16,1 km/h (3 Bft) SW 225 0 min 0,000 mm 0,0 UV-I 0 W/m 0,6 C -6,1 C 22,5 km/h (4 Bft) 91,30 %
28.12.2017 06:42 1,2 C 3,9 C 96 % 992,4 hPa 0,0 l/m 19,3 km/h (3 Bft) SW 225 0 min 0,000 mm 0,0 UV-I 0 W/m 0,6 C -7,8 C 32,2 km/h (5 Bft) 95,65 %
28.12.2017 06:43 1,2 C 3,9 C 96 % 992,5 hPa 0,0 l/m 16,1 km/h (3 Bft) SW 225 0 min 0,000 mm 0,0 UV-I 0 W/m 0,6 C -6,1 C 24,1 km/h (4 Bft) 100,00 %
28.12.2017 06:44 1,2 C 3,9 C 96 % 992,5 hPa 0,0 l/m 19,3 km/h (3 Bft) SW 225 0 min 0,000 mm 0,0 UV-I 0 W/m 0,6 C -7,8 C 24,1 km/h (4 Bft) 95,65 %
28.12.2017 06:45 1,2 C 3,9 C 96 % 992,5 hPa 0,2 l/m 19,3 km/h (3 Bft) SW 225 0 min 0,000 mm 0,0 UV-I 0 W/m 0,6 C -7,8 C 25,7 km/h (4 Bft) 100,00 %
28.12.2017 06:46 1,3 C 3,9 C 96 % 992,5 hPa 0,0 l/m 20,9 km/h (4 Bft) W-SW 247 0 min 0,000 mm 0,0 UV-I 0 W/m 0,7 C -8,3 C 25,7 km/h (4 Bft) 100,00 %
28.12.2017 06:47 1,3 C 3,9 C 96 % 992,5 hPa 0,0 l/m 17,7 km/h (3 Bft) SW 225 0 min 0,000 mm 0,0 UV-I 0 W/m 0,7 C -6,9 C 27,4 km/h (4 Bft) 86,96 %
28.12.2017 06:48 1,3 C 3,9 C 96 % 992,5 hPa 0,0 l/m 16,1 km/h (3 Bft) SW 225 0 min 0,000 mm 0,0 UV-I 0 W/m 0,7 C -6,0 C 22,5 km/h (4 Bft) 100,00 %
28.12.2017 06:49 1,2 C 3,9 C 96 % 992,5 hPa 0,0 l/m 11,3 km/h (2 Bft) SW 225 0 min 0,000 mm 0,0 UV-I 0 W/m 0,6 C -3,1 C 20,9 km/h (4 Bft) 95,65 %
28.12.2017 06:50 1,2 C 3,9 C 96 % 992,5 hPa 0,0 l/m 20,9 km/h (4 Bft) W-SW 247 0 min 0,000 mm 0,0 UV-I 0 W/m 0,6 C -8,5 C 27,4 km/h (4 Bft) 100,00 %
28.12.2017 06:51 1,3 C 3,9 C 96 % 992,5 hPa 0,0 l/m 20,9 km/h (4 Bft) W-SW 247 0 min 0,000 mm 0,0 UV-I 0 W/m 0,7 C -8,3 C 29,0 km/h (5 Bft) 95,65 %
28.12.2017 06:52 1,3 C 3,9 C 96 % 992,5 hPa 0,0 l/m 20,9 km/h (4 Bft) SW 225 0 min 0,000 mm 0,0 UV-I 0 W/m 0,7 C -8,3 C 30,6 km/h (5 Bft) 100,00 %
28.12.2017 06:53 1,3 C 3,9 C 96 % 992,4 hPa 0,0 l/m 20,9 km/h (4 Bft) SW 225 0 min 0,000 mm 0,0 UV-I 0 W/m 0,7 C -8,3 C 30,6 km/h (5 Bft) 95,65 %
28.12.2017 06:54 1,3 C 3,9 C 96 % 992,5 hPa 0,0 l/m 22,5 km/h (4 Bft) SW 225 0 min 0,000 mm 0,0 UV-I 0 W/m 0,7 C -9,0 C 32,2 km/h (5 Bft) 95,65 %
28.12.2017 06:55 1,3 C 3,9 C 96 % 992,5 hPa 0,0 l/m 20,9 km/h (4 Bft) SW 225 0 min 0,000 mm 0,0 UV-I 0 W/m 0,7 C -8,3 C 29,0 km/h (5 Bft) 95,65 %
28.12.2017 06:56 1,3 C 3,9 C 96 % 992,5 hPa 0,0 l/m 20,9 km/h (4 Bft) SW 225 0 min 0,000 mm 0,0 UV-I 0 W/m 0,7 C -8,3 C 27,4 km/h (4 Bft) 95,65 %
28.12.2017 06:57 1,3 C 3,9 C 95 % 992,5 hPa 0,0 l/m 17,7 km/h (3 Bft) SW 225 0 min 0,000 mm 0,0 UV-I 0 W/m 0,6 C -6,9 C 24,1 km/h (4 Bft) 100,00 %
28.12.2017 06:58 1,3 C 3,9 C 95 % 992,6 hPa 0,0 l/m 20,9 km/h (4 Bft) SW 225 0 min 0,000 mm 0,0 UV-I 0 W/m 0,6 C -8,3 C 24,1 km/h (4 Bft) 91,30 %
28.12.2017 06:59 1,3 C 3,9 C 95 % 992,6 hPa 0,0 l/m 22,5 km/h (4 Bft) SW 225 0 min 0,000 mm 0,0 UV-I 0 W/m 0,6 C -9,0 C 33,8 km/h (5 Bft) 100,00 %
28.12.2017 07:00 1,3 C 3,9 C 95 % 992,6 hPa 0,0 l/m 16,1 km/h (3 Bft) S-SW 202 0 min 0,000 mm 0,0 UV-I 0 W/m 0,6 C -6,0 C 24,1 km/h (4 Bft) 95,65 %
28.12.2017 07:01 1,4 C 3,9 C 95 % 992,6 hPa 0,0 l/m 22,5 km/h (4 Bft) W-SW 247 0 min 0,000 mm 0,0 UV-I 0 W/m 0,7 C -8,9 C 27,4 km/h (4 Bft) 91,30 %
28.12.2017 07:02 1,4 C 3,9 C 95 % 992,7 hPa 0,0 l/m 17,7 km/h (3 Bft) W-SW 247 0 min 0,000 mm 0,0 UV-I 0 W/m 0,7 C -6,7 C 20,9 km/h (4 Bft) 95,65 %
28.12.2017 07:03 1,4 C 3,9 C 95 % 992,6 hPa 0,2 l/m 14,5 km/h (3 Bft) SW 225 0 min 0,000 mm 0,0 UV-I 0 W/m 0,7 C -5,0 C 19,3 km/h (3 Bft) 100,00 %
28.12.2017 07:04 1,4 C 3,9 C 95 % 992,7 hPa 0,0 l/m 19,3 km/h (3 Bft) SW 225 0 min 0,000 mm 0,0 UV-I 0 W/m 0,7 C -7,5 C 25,7 km/h (4 Bft) 100,00 %
28.12.2017 07:05 1,4 C 3,9 C 95 % 992,7 hPa 0,0 l/m 19,3 km/h (3 Bft) SW 225 0 min 0,000 mm 0,0 UV-I 0 W/m 0,7 C -7,5 C 25,7 km/h (4 Bft) 100,00 %
28.12.2017 07:06 1,4 C 3,9 C 95 % 992,7 hPa 0,0 l/m 16,1 km/h (3 Bft) SW 225 0 min 0,000 mm 0,0 UV-I 0 W/m 0,7 C -5,9 C 29,0 km/h (5 Bft) 100,00 %
28.12.2017 07:07 1,4 C 3,9 C 95 % 992,8 hPa 0,0 l/m 19,3 km/h (3 Bft) SW 225 0 min 0,000 mm 0,0 UV-I 0 W/m 0,7 C -7,5 C 24,1 km/h (4 Bft) 95,65 %
28.12.2017 07:08 1,4 C 3,9 C 95 % 992,8 hPa 0,0 l/m 16,1 km/h (3 Bft) W-SW 247 0 min 0,000 mm 0,0 UV-I 0 W/m 0,7 C -5,9 C 24,1 km/h (4 Bft) 95,65 %
28.12.2017 07:09 1,4 C 3,9 C 95 % 992,9 hPa 0,0 l/m 14,5 km/h (3 Bft) W-SW 247 0 min 0,000 mm 0,0 UV-I 0 W/m 0,7 C -5,0 C 19,3 km/h (3 Bft) 100,00 %
28.12.2017 07:10 1,5 C 3,9 C 95 % 992,9 hPa 0,0 l/m 19,3 km/h (3 Bft) SW 225 0 min 0,000 mm 0,0 UV-I 0 W/m 0,8 C -7,4 C 24,1 km/h (4 Bft) 100,00 %
28.12.2017 07:11 1,5 C 3,9 C 95 % 992,9 hPa 0,0 l/m 22,5 km/h (4 Bft) W-SW 247 0 min 0,000 mm 0,0 UV-I 0 W/m 0,8 C -8,7 C 30,6 km/h (5 Bft) 100,00 %
28.12.2017 07:12 1,5 C 3,9 C 95 % 992,9 hPa 0,0 l/m 16,1 km/h (3 Bft) W-SW 247 0 min 0,000 mm 0,0 UV-I 0 W/m 0,8 C -5,8 C 22,5 km/h (4 Bft) 100,00 %
28.12.2017 07:13 1,5 C 3,9 C 95 % 992,9 hPa 0,0 l/m 17,7 km/h (3 Bft) SW 225 0 min 0,000 mm 0,0 UV-I 0 W/m 0,8 C -6,6 C 27,4 km/h (4 Bft) 100,00 %
28.12.2017 07:14 1,5 C 3,9 C 95 % 993,0 hPa 0,0 l/m 17,7 km/h (3 Bft) SW 225 0 min 0,000 mm 0,0 UV-I 0 W/m 0,8 C -6,6 C 25,7 km/h (4 Bft) 100,00 %
28.12.2017 07:15 1,5 C 3,9 C 95 % 993,1 hPa 0,0 l/m 22,5 km/h (4 Bft) SW 225 0 min 0,000 mm 0,0 UV-I 0 W/m 0,8 C -8,7 C 27,4 km/h (4 Bft) 95,65 %
28.12.2017 07:16 1,5 C 3,9 C 95 % 993,1 hPa 0,0 l/m 19,3 km/h (3 Bft) W-SW 247 0 min 0,000 mm 0,0 UV-I 0 W/m 0,8 C -7,4 C 25,7 km/h (4 Bft) 95,65 %
28.12.2017 07:17 1,5 C 3,9 C 95 % 993,1 hPa 0,0 l/m 19,3 km/h (3 Bft) W-SW 247 0 min 0,000 mm 0,0 UV-I 0 W/m 0,8 C -7,4 C 29,0 km/h (5 Bft) 95,65 %
28.12.2017 07:18 1,5 C 3,9 C 95 % 993,0 hPa 0,0 l/m 22,5 km/h (4 Bft) W-SW 247 0 min 0,000 mm 0,0 UV-I 0 W/m 0,8 C -8,7 C 32,2 km/h (5 Bft) 100,00 %
28.12.2017 07:19 1,5 C 3,9 C 95 % 993,1 hPa 0,0 l/m 17,7 km/h (3 Bft) SW 225 0 min 0,000 mm 0,0 UV-I 0 W/m 0,8 C -6,6 C 25,7 km/h (4 Bft) 100,00 %
28.12.2017 07:20 1,5 C 3,9 C 95 % 993,0 hPa 0,0 l/m 17,7 km/h (3 Bft) W-SW 247 0 min 0,000 mm 0,0 UV-I 0 W/m 0,8 C -6,6 C 25,7 km/h (4 Bft) 100,00 %
28.12.2017 07:21 1,5 C 3,9 C 95 % 993,1 hPa 0,0 l/m 19,3 km/h (3 Bft) SW 225 0 min 0,000 mm 0,0 UV-I 0 W/m 0,8 C -7,4 C 29,0 km/h (5 Bft) 95,65 %
28.12.2017 07:22 1,5 C 3,9 C 95 % 993,1 hPa 0,0 l/m 14,5 km/h (3 Bft) SW 225 0 min 0,000 mm 0,0 UV-I 0 W/m 0,8 C -4,9 C 19,3 km/h (3 Bft) 95,65 %
28.12.2017 07:23 1,5 C 3,9 C 95 % 993,1 hPa 0,0 l/m 14,5 km/h (3 Bft) SW 225 0 min 0,000 mm 0,0 UV-I 0 W/m 0,8 C -4,9 C 19,3 km/h (3 Bft) 100,00 %
28.12.2017 07:24 1,5 C 3,9 C 95 % 993,2 hPa 0,0 l/m 16,1 km/h (3 Bft) SW 225 0 min 0,000 mm 0,0 UV-I 0 W/m 0,8 C -5,8 C 22,5 km/h (4 Bft) 100,00 %
28.12.2017 07:25 1,5 C 3,9 C 95 % 993,1 hPa 0,0 l/m 17,7 km/h (3 Bft) W-SW 247 0 min 0,000 mm 0,0 UV-I 0 W/m 0,8 C -6,6 C 25,7 km/h (4 Bft) 100,00 %
28.12.2017 07:26 1,5 C 3,9 C 95 % 993,2 hPa 0,0 l/m 16,1 km/h (3 Bft) W-SW 247 0 min 0,000 mm 0,0 UV-I 0 W/m 0,8 C -5,8 C 22,5 km/h (4 Bft) 100,00 %
28.12.2017 07:27 1,5 C 3,9 C 95 % 993,2 hPa 0,0 l/m 14,5 km/h (3 Bft) SW 225 0 min 0,000 mm 0,0 UV-I 0 W/m 0,8 C -4,9 C 20,9 km/h (4 Bft) 100,00 %
28.12.2017 07:28 1,5 C 3,9 C 95 % 993,3 hPa 0,0 l/m 14,5 km/h (3 Bft) SW 225 0 min 0,000 mm 0,0 UV-I 0 W/m 0,8 C -4,9 C 20,9 km/h (4 Bft) 100,00 %
28.12.2017 07:29 1,5 C 3,9 C 95 % 993,2 hPa 0,0 l/m 17,7 km/h (3 Bft) SW 225 0 min 0,000 mm 0,0 UV-I 0 W/m 0,8 C -6,6 C 25,7 km/h (4 Bft) 95,65 %
28.12.2017 07:30 1,5 C 3,9 C 95 % 993,2 hPa 0,0 l/m 16,1 km/h (3 Bft) W-SW 247 0 min 0,000 mm 0,0 UV-I 0 W/m 0,8 C -5,8 C 24,1 km/h (4 Bft) 100,00 %
28.12.2017 07:31 1,5 C 3,9 C 95 % 993,2 hPa 0,0 l/m 20,9 km/h (4 Bft) W-SW 247 0 min 0,000 mm 0,0 UV-I 0 W/m 0,8 C -8,1 C 29,0 km/h (5 Bft) 100,00 %
28.12.2017 07:32 1,5 C 3,9 C 95 % 993,2 hPa 0,0 l/m 16,1 km/h (3 Bft) SW 225 0 min 0,000 mm 0,0 UV-I 0 W/m 0,8 C -5,8 C 25,7 km/h (4 Bft) 100,00 %
28.12.2017 07:33 1,5 C 3,9 C 95 % 993,2 hPa 0,0 l/m 16,1 km/h (3 Bft) SW 225 0 min 0,000 mm 0,0 UV-I 0 W/m 0,8 C -5,8 C 22,5 km/h (4 Bft) 95,65 %
28.12.2017 07:34 1,5 C 3,9 C 95 % 993,2 hPa 0,0 l/m 14,5 km/h (3 Bft) SW 225 0 min 0,000 mm 0,0 UV-I 0 W/m 0,8 C -4,9 C 22,5 km/h (4 Bft) 95,65 %
28.12.2017 07:35 1,5 C 3,9 C 95 % 993,2 hPa 0,0 l/m 14,5 km/h (3 Bft) SW 225 0 min 0,000 mm 0,0 UV-I 0 W/m 0,8 C -4,9 C 20,9 km/h (4 Bft) 95,65 %
28.12.2017 07:36 1,5 C 3,9 C 95 % 993,3 hPa 0,0 l/m 12,9 km/h (3 Bft) SW 225 0 min 0,000 mm 0,0 UV-I 0 W/m 0,8 C -3,9 C 20,9 km/h (4 Bft) 95,65 %
28.12.2017 07:37 1,5 C 3,9 C 95 % 993,3 hPa 0,0 l/m 12,9 km/h (3 Bft) SW 225 0 min 0,000 mm 0,0 UV-I 0 W/m 0,8 C -3,9 C 19,3 km/h (3 Bft) 95,65 %
28.12.2017 07:38 1,5 C 3,9 C 95 % 993,3 hPa 0,0 l/m 12,9 km/h (3 Bft) SW 225 0 min 0,000 mm 0,0 UV-I 0 W/m 0,8 C -3,9 C 19,3 km/h (3 Bft) 95,65 %
28.12.2017 07:39 1,5 C 3,9 C 95 % 993,3 hPa 0,0 l/m 22,5 km/h (4 Bft) SW 225 0 min 0,000 mm 0,0 UV-I 0 W/m 0,8 C -8,7 C 27,4 km/h (4 Bft) 100,00 %
28.12.2017 07:40 1,5 C 3,9 C 95 % 993,3 hPa 0,0 l/m 19,3 km/h (3 Bft) SW 225 0 min 0,000 mm 0,0 UV-I 0 W/m 0,8 C -7,4 C 27,4 km/h (4 Bft) 95,65 %
28.12.2017 07:41 1,5 C 3,9 C 95 % 993,3 hPa 0,2 l/m 16,1 km/h (3 Bft) SW 225 0 min 0,000 mm 0,0 UV-I 0 W/m 0,8 C -5,8 C 24,1 km/h (4 Bft) 95,65 %
28.12.2017 07:42 1,5 C 3,9 C 95 % 993,4 hPa 0,0 l/m 17,7 km/h (3 Bft) SW 225 0 min 0,000 mm 0,0 UV-I 0 W/m 0,8 C -6,6 C 25,7 km/h (4 Bft) 95,65 %
28.12.2017 07:43 1,5 C 3,9 C 95 % 993,4 hPa 0,0 l/m 17,7 km/h (3 Bft) SW 225 0 min 0,000 mm 0,0 UV-I 0 W/m 0,8 C -6,6 C 25,7 km/h (4 Bft) 95,65 %
28.12.2017 07:44 1,5 C 3,9 C 95 % 993,4 hPa 0,0 l/m 16,1 km/h (3 Bft) W-SW 247 0 min 0,000 mm 0,0 UV-I 0 W/m 0,8 C -5,8 C 25,7 km/h (4 Bft) 91,30 %
28.12.2017 07:45 1,5 C 3,9 C 95 % 993,4 hPa 0,0 l/m 16,1 km/h (3 Bft) W-SW 247 0 min 0,000 mm 0,0 UV-I 0 W/m 0,8 C -5,8 C 24,1 km/h (4 Bft) 100,00 %
28.12.2017 07:46 1,5 C 3,9 C 95 % 993,4 hPa 0,0 l/m 17,7 km/h (3 Bft) SW 225 0 min 0,000 mm 0,0 UV-I 0 W/m 0,8 C -6,6 C 24,1 km/h (4 Bft) 95,65 %
28.12.2017 07:47 1,5 C 3,9 C 95 % 993,4 hPa 0,0 l/m 17,7 km/h (3 Bft) SW 225 0 min 0,000 mm 0,0 UV-I 0 W/m 0,8 C -6,6 C 22,5 km/h (4 Bft) 100,00 %
28.12.2017 07:48 1,5 C 3,9 C 95 % 993,3 hPa 0,0 l/m 16,1 km/h (3 Bft) SW 225 0 min 0,000 mm 0,0 UV-I 0 W/m 0,8 C -5,8 C 24,1 km/h (4 Bft) 91,30 %
28.12.2017 07:49 1,5 C 3,9 C 95 % 993,3 hPa 0,0 l/m 16,1 km/h (3 Bft) SW 225 0 min 0,000 mm 0,0 UV-I 0 W/m 0,8 C -5,8 C 20,9 km/h (4 Bft) 100,00 %
28.12.2017 07:50 1,5 C 3,9 C 95 % 993,3 hPa 0,0 l/m 19,3 km/h (3 Bft) SW 225 0 min 0,000 mm 0,0 UV-I 0 W/m 0,8 C -7,4 C 25,7 km/h (4 Bft) 91,30 %
28.12.2017 07:51 1,5 C 3,9 C 95 % 993,3 hPa 0,0 l/m 19,3 km/h (3 Bft) SW 225 0 min 0,000 mm 0,0 UV-I 5 W/m 0,8 C -7,4 C 24,1 km/h (4 Bft) 100,00 %
28.12.2017 07:52 1,5 C 3,9 C 95 % 993,3 hPa 0,0 l/m 14,5 km/h (3 Bft) SW 225 0 min 0,000 mm 0,0 UV-I 5 W/m 0,8 C -4,9 C 19,3 km/h (3 Bft) 91,30 %
28.12.2017 07:53 1,5 C 3,9 C 95 % 993,3 hPa 0,0 l/m 11,3 km/h (2 Bft) SW 225 0 min 0,000 mm 0,0 UV-I 5 W/m 0,8 C -2,8 C 17,7 km/h (3 Bft) 95,65 %
28.12.2017 07:54 1,5 C 3,9 C 95 % 993,3 hPa 0,0 l/m 12,9 km/h (3 Bft) SW 225 0 min 0,000 mm 0,0 UV-I 5 W/m 0,8 C -3,9 C 24,1 km/h (4 Bft) 100,00 %
28.12.2017 07:55 1,5 C 3,9 C 95 % 993,4 hPa 0,0 l/m 17,7 km/h (3 Bft) SW 225 0 min 0,000 mm 0,0 UV-I 5 W/m 0,8 C -6,6 C 25,7 km/h (4 Bft) 95,65 %
28.12.2017 07:56 1,5 C 3,9 C 95 % 993,3 hPa 0,0 l/m 19,3 km/h (3 Bft) SW 225 0 min 0,000 mm 0,0 UV-I 5 W/m 0,8 C -7,4 C 29,0 km/h (5 Bft) 95,65 %
28.12.2017 07:57 1,5 C 3,9 C 95 % 993,3 hPa 0,0 l/m 17,7 km/h (3 Bft) W-SW 247 0 min 0,000 mm 0,0 UV-I 5 W/m 0,8 C -6,6 C 30,6 km/h (5 Bft) 95,65 %
28.12.2017 07:58 1,5 C 3,9 C 95 % 993,3 hPa 0,0 l/m 20,9 km/h (4 Bft) SW 225 0 min 0,000 mm 0,0 UV-I 5 W/m 0,8 C -8,1 C 29,0 km/h (5 Bft) 100,00 %
28.12.2017 07:59 1,5 C 3,9 C 95 % 993,3 hPa 0,0 l/m 19,3 km/h (3 Bft) SW 225 0 min 0,000 mm 0,0 UV-I 5 W/m 0,8 C -7,4 C 30,6 km/h (5 Bft) 91,30 %
28.12.2017 08:00 1,5 C 3,9 C 95 % 993,3 hPa 0,0 l/m 17,7 km/h (3 Bft) SW 225 0 min 0,000 mm 0,0 UV-I 5 W/m 0,8 C -6,6 C 24,1 km/h (4 Bft) 100,00 %
28.12.2017 08:01 1,6 C 3,9 C 95 % 993,4 hPa 0,0 l/m 17,7 km/h (3 Bft) SW 225 0 min 0,000 mm 0,0 UV-I 5 W/m 0,9 C -6,5 C 24,1 km/h (4 Bft) 100,00 %
28.12.2017 08:02 1,6 C 3,9 C 95 % 993,4 hPa 0,0 l/m 17,7 km/h (3 Bft) W-SW 247 0 min 0,000 mm 0,0 UV-I 6 W/m 0,9 C -6,5 C 24,1 km/h (4 Bft) 100,00 %
28.12.2017 08:03 1,6 C 3,9 C 95 % 993,4 hPa 0,0 l/m 20,9 km/h (4 Bft) SW 225 0 min 0,000 mm 0,0 UV-I 7 W/m 0,9 C -8,0 C 27,4 km/h (4 Bft) 100,00 %
28.12.2017 08:04 1,6 C 3,9 C 95 % 993,3 hPa 0,0 l/m 19,3 km/h (3 Bft) SW 225 0 min 0,000 mm 0,0 UV-I 7 W/m 0,9 C -7,2 C 27,4 km/h (4 Bft) 91,30 %
28.12.2017 08:05 1,6 C 3,9 C 95 % 993,4 hPa 0,0 l/m 16,1 km/h (3 Bft) W-SW 247 0 min 0,000 mm 0,0 UV-I 7 W/m 0,9 C -5,7 C 25,7 km/h (4 Bft) 100,00 %
28.12.2017 08:06 1,6 C 3,9 C 95 % 993,4 hPa 0,0 l/m 14,5 km/h (3 Bft) W-SW 247 0 min 0,000 mm 0,0 UV-I 7 W/m 0,9 C -4,8 C 20,9 km/h (4 Bft) 100,00 %
28.12.2017 08:07 1,6 C 3,9 C 95 % 993,4 hPa 0,0 l/m 19,3 km/h (3 Bft) SW 225 0 min 0,000 mm 0,0 UV-I 7 W/m 0,9 C -7,2 C 30,6 km/h (5 Bft) 100,00 %
28.12.2017 08:08 1,6 C 3,9 C 95 % 993,4 hPa 0,0 l/m 20,9 km/h (4 Bft) SW 225 0 min 0,000 mm 0,0 UV-I 9 W/m 0,9 C -8,0 C 30,6 km/h (5 Bft) 100,00 %
28.12.2017 08:09 1,6 C 3,9 C 95 % 993,4 hPa 0,0 l/m 16,1 km/h (3 Bft) SW 225 0 min 0,000 mm 0,0 UV-I 9 W/m 0,9 C -5,7 C 22,5 km/h (4 Bft) 100,00 %
28.12.2017 08:10 1,6 C 3,9 C 95 % 993,4 hPa 0,0 l/m 14,5 km/h (3 Bft) SW 225 0 min 0,000 mm 0,0 UV-I 9 W/m 0,9 C -4,8 C 19,3 km/h (3 Bft) 100,00 %
28.12.2017 08:11 1,6 C 3,9 C 95 % 993,4 hPa 0,0 l/m 12,9 km/h (3 Bft) SW 225 0 min 0,000 mm 0,0 UV-I 11 W/m 0,9 C -3,8 C 20,9 km/h (4 Bft) 95,65 %
28.12.2017 08:12 1,6 C 3,9 C 95 % 993,4 hPa 0,0 l/m 16,1 km/h (3 Bft) SW 225 0 min 0,000 mm 0,0 UV-I 11 W/m 0,9 C -5,7 C 24,1 km/h (4 Bft) 100,00 %
28.12.2017 08:13 1,6 C 3,9 C 95 % 993,4 hPa 0,0 l/m 17,7 km/h (3 Bft) SW 225 0 min 0,000 mm 0,0 UV-I 11 W/m 0,9 C -6,5 C 24,1 km/h (4 Bft) 100,00 %
28.12.2017 08:14 1,7 C 3,9 C 95 % 993,5 hPa 0,0 l/m 14,5 km/h (3 Bft) SW 225 0 min 0,000 mm 0,0 UV-I 11 W/m 1,0 C -4,6 C 19,3 km/h (3 Bft) 100,00 %
28.12.2017 08:15 1,7 C 3,9 C 95 % 993,5 hPa 0,0 l/m 17,7 km/h (3 Bft) SW 225 0 min 0,000 mm 0,0 UV-I 11 W/m 1,0 C -6,4 C 25,7 km/h (4 Bft) 100,00 %
28.12.2017 08:16 1,7 C 3,9 C 95 % 993,4 hPa 0,0 l/m 19,3 km/h (3 Bft) SW 225 0 min 0,000 mm 0,0 UV-I 12 W/m 1,0 C -7,1 C 27,4 km/h (4 Bft) 100,00 %
28.12.2017 08:17 1,7 C 3,9 C 95 % 993,5 hPa 0,0 l/m 16,1 km/h (3 Bft) SW 225 0 min 0,000 mm 0,0 UV-I 12 W/m 1,0 C -5,5 C 24,1 km/h (4 Bft) 100,00 %
28.12.2017 08:18 1,7 C 3,9 C 95 % 993,5 hPa 0,0 l/m 16,1 km/h (3 Bft) SW 225 0 min 0,000 mm 0,0 UV-I 14 W/m 1,0 C -5,5 C 20,9 km/h (4 Bft) 95,65 %
28.12.2017 08:19 1,7 C 3,9 C 95 % 993,5 hPa 0,0 l/m 16,1 km/h (3 Bft) W-SW 247 0 min 0,000 mm 0,0 UV-I 14 W/m 1,0 C -5,5 C 22,5 km/h (4 Bft) 100,00 %
28.12.2017 08:20 1,7 C 3,9 C 95 % 993,5 hPa 0,0 l/m 17,7 km/h (3 Bft) W-SW 247 0 min 0,000 mm 0,0 UV-I 15 W/m 1,0 C -6,4 C 24,1 km/h (4 Bft) 100,00 %
28.12.2017 08:21 1,7 C 3,9 C 95 % 993,5 hPa 0,0 l/m 16,1 km/h (3 Bft) SW 225 0 min 0,000 mm 0,0 UV-I 16 W/m 1,0 C -5,5 C 22,5 km/h (4 Bft) 100,00 %
28.12.2017 08:22 1,7 C 3,9 C 95 % 993,5 hPa 0,0 l/m 14,5 km/h (3 Bft) S-SW 202 0 min 0,000 mm 0,0 UV-I 18 W/m 1,0 C -4,6 C 19,3 km/h (3 Bft) 95,65 %
28.12.2017 08:23 1,7 C 3,9 C 95 % 993,5 hPa 0,0 l/m 14,5 km/h (3 Bft) SW 225 0 min 0,000 mm 0,0 UV-I 18 W/m 1,0 C -4,6 C 24,1 km/h (4 Bft) 100,00 %
28.12.2017 08:24 1,7 C 3,9 C 95 % 993,5 hPa 0,0 l/m 14,5 km/h (3 Bft) SW 225 0 min 0,000 mm 0,0 UV-I 19 W/m 1,0 C -4,6 C 20,9 km/h (4 Bft) 100,00 %
28.12.2017 08:25 1,7 C 3,9 C 95 % 993,6 hPa 0,0 l/m 17,7 km/h (3 Bft) SW 225 0 min 0,000 mm 0,0 UV-I 19 W/m 1,0 C -6,4 C 22,5 km/h (4 Bft) 95,65 %
28.12.2017 08:26 1,7 C 3,9 C 95 % 993,6 hPa 0,0 l/m 16,1 km/h (3 Bft) SW 225 0 min 0,000 mm 0,0 UV-I 21 W/m 1,0 C -5,5 C 20,9 km/h (4 Bft) 100,00 %
28.12.2017 08:27 1,7 C 3,9 C 95 % 993,6 hPa 0,0 l/m 16,1 km/h (3 Bft) W-SW 247 0 min 0,000 mm 0,0 UV-I 23 W/m 1,0 C -5,5 C 20,9 km/h (4 Bft) 100,00 %
28.12.2017 08:28 1,7 C 3,9 C 95 % 993,6 hPa 0,0 l/m 19,3 km/h (3 Bft) SW 225 0 min 0,000 mm 0,0 UV-I 25 W/m 1,0 C -7,1 C 25,7 km/h (4 Bft) 100,00 %
28.12.2017 08:29 1,7 C 3,9 C 95 % 993,6 hPa 0,0 l/m 17,7 km/h (3 Bft) SW 225 0 min 0,000 mm 0,0 UV-I 25 W/m 1,0 C -6,4 C 25,7 km/h (4 Bft) 95,65 %
28.12.2017 08:30 1,7 C 3,9 C 95 % 993,6 hPa 0,0 l/m 16,1 km/h (3 Bft) SW 225 0 min 0,000 mm 0,0 UV-I 25 W/m 1,0 C -5,5 C 22,5 km/h (4 Bft) 100,00 %
28.12.2017 08:31 1,7 C 3,9 C 95 % 993,6 hPa 0,0 l/m 19,3 km/h (3 Bft) W-SW 247 0 min 0,000 mm 0,0 UV-I 25 W/m 1,0 C -7,1 C 25,7 km/h (4 Bft) 100,00 %
28.12.2017 08:32 1,7 C 3,9 C 95 % 993,6 hPa 0,0 l/m 16,1 km/h (3 Bft) SW 225 0 min 0,000 mm 0,0 UV-I 25 W/m 1,0 C -5,5 C 22,5 km/h (4 Bft) 95,65 %
28.12.2017 08:33 1,7 C 3,9 C 95 % 993,6 hPa 0,0 l/m 16,1 km/h (3 Bft) SW 225 0 min 0,000 mm 0,0 UV-I 25 W/m 1,0 C -5,5 C 20,9 km/h (4 Bft) 95,65 %
28.12.2017 08:34 1,7 C 3,9 C 95 % 993,6 hPa 0,0 l/m 20,9 km/h (4 Bft) SW 225 0 min 0,000 mm 0,0 UV-I 25 W/m 1,0 C -7,8 C 30,6 km/h (5 Bft) 91,30 %
28.12.2017 08:35 1,7 C 3,9 C 95 % 993,6 hPa 0,0 l/m 17,7 km/h (3 Bft) SW 225 0 min 0,000 mm 0,0 UV-I 25 W/m 1,0 C -6,4 C 25,7 km/h (4 Bft) 95,65 %
28.12.2017 08:36 1,7 C 3,9 C 95 % 993,6 hPa 0,0 l/m 17,7 km/h (3 Bft) SW 225 0 min 0,000 mm 0,0 UV-I 25 W/m 1,0 C -6,4 C 24,1 km/h (4 Bft) 100,00 %
28.12.2017 08:37 1,7 C 3,9 C 95 % 993,6 hPa 0,0 l/m 19,3 km/h (3 Bft) SW 225 0 min 0,000 mm 0,0 UV-I 25 W/m 1,0 C -7,1 C 30,6 km/h (5 Bft) 95,65 %
28.12.2017 08:38 1,7 C 3,9 C 95 % 993,6 hPa 0,0 l/m 20,9 km/h (4 Bft) SW 225 0 min 0,000 mm 0,0 UV-I 25 W/m 1,0 C -7,8 C 25,7 km/h (4 Bft) 100,00 %
28.12.2017 08:39 1,7 C 3,9 C 95 % 993,7 hPa 0,0 l/m 17,7 km/h (3 Bft) SW 225 0 min 0,000 mm 0,0 UV-I 25 W/m 1,0 C -6,4 C 22,5 km/h (4 Bft) 86,96 %
28.12.2017 08:40 1,7 C 3,9 C 94 % 993,7 hPa 0,0 l/m 12,9 km/h (3 Bft) SW 225 0 min 0,000 mm 0,0 UV-I 26 W/m 0,8 C -3,6 C 27,4 km/h (4 Bft) 95,65 %
28.12.2017 08:41 1,7 C 3,9 C 94 % 993,7 hPa 0,0 l/m 20,9 km/h (4 Bft) SW 225 0 min 0,000 mm 0,0 UV-I 26 W/m 0,8 C -7,8 C 25,7 km/h (4 Bft) 100,00 %
28.12.2017 08:42 1,7 C 3,9 C 94 % 993,8 hPa 0,0 l/m 14,5 km/h (3 Bft) SW 225 0 min 0,000 mm 0,0 UV-I 28 W/m 0,8 C -4,6 C 17,7 km/h (3 Bft) 95,65 %
28.12.2017 08:43 1,7 C 3,9 C 94 % 993,7 hPa 0,0 l/m 17,7 km/h (3 Bft) W-SW 247 0 min 0,000 mm 0,0 UV-I 30 W/m 0,8 C -6,4 C 22,5 km/h (4 Bft) 100,00 %
28.12.2017 08:44 1,7 C 3,9 C 94 % 993,7 hPa 0,0 l/m 19,3 km/h (3 Bft) SW 225 0 min 0,000 mm 0,0 UV-I 32 W/m 0,8 C -7,1 C 25,7 km/h (4 Bft) 86,96 %
28.12.2017 08:45 1,7 C 3,9 C 94 % 993,6 hPa 0,0 l/m 19,3 km/h (3 Bft) SW 225 0 min 0,000 mm 0,0 UV-I 33 W/m 0,8 C -7,1 C 25,7 km/h (4 Bft) 95,65 %
28.12.2017 08:46 1,7 C 3,9 C 94 % 993,6 hPa 0,0 l/m 19,3 km/h (3 Bft) W-SW 247 0 min 0,000 mm 0,0 UV-I 35 W/m 0,8 C -7,1 C 27,4 km/h (4 Bft) 91,30 %
28.12.2017 08:47 1,7 C 3,9 C 94 % 993,6 hPa 0,0 l/m 22,5 km/h (4 Bft) W-SW 247 0 min 0,000 mm 0,0 UV-I 35 W/m 0,8 C -8,5 C 32,2 km/h (5 Bft) 100,00 %
28.12.2017 08:48 1,7 C 3,9 C 94 % 993,6 hPa 0,0 l/m 16,1 km/h (3 Bft) SW 225 0 min 0,000 mm 0,0 UV-I 37 W/m 0,8 C -5,5 C 20,9 km/h (4 Bft) 95,65 %
28.12.2017 08:49 1,7 C 3,9 C 94 % 993,6 hPa 0,0 l/m 17,7 km/h (3 Bft) SW 225 0 min 0,000 mm 0,0 UV-I 38 W/m 0,8 C -6,4 C 24,1 km/h (4 Bft) 95,65 %
28.12.2017 08:50 1,7 C 3,9 C 94 % 993,6 hPa 0,0 l/m 20,9 km/h (4 Bft) SW 225 0 min 0,000 mm 0,0 UV-I 40 W/m 0,8 C -7,8 C 30,6 km/h (5 Bft) 100,00 %
28.12.2017 08:51 1,7 C 3,9 C 94 % 993,7 hPa 0,0 l/m 24,1 km/h (4 Bft) SW 225 0 min 0,000 mm 0,0 UV-I 40 W/m 0,8 C -9,1 C 30,6 km/h (5 Bft) 95,65 %
28.12.2017 08:52 1,8 C 3,9 C 94 % 993,7 hPa 0,0 l/m 20,9 km/h (4 Bft) SW 225 0 min 0,000 mm 0,0 UV-I 40 W/m 0,9 C -7,7 C 25,7 km/h (4 Bft) 100,00 %
28.12.2017 08:53 1,8 C 3,9 C 94 % 993,6 hPa 0,0 l/m 20,9 km/h (4 Bft) SW 225 0 min 0,000 mm 0,0 UV-I 42 W/m 0,9 C -7,7 C 32,2 km/h (5 Bft) 91,30 %
28.12.2017 08:54 1,7 C 3,9 C 94 % 993,7 hPa 0,0 l/m 17,7 km/h (3 Bft) SW 225 0 min 0,000 mm 0,0 UV-I 44 W/m 0,8 C -6,4 C 22,5 km/h (4 Bft) 95,65 %
28.12.2017 08:55 1,8 C 3,9 C 94 % 993,6 hPa 0,0 l/m 16,1 km/h (3 Bft) SW 225 0 min 0,000 mm 0,0 UV-I 45 W/m 0,9 C -5,4 C 27,4 km/h (4 Bft) 95,65 %
28.12.2017 08:56 1,8 C 3,9 C 94 % 993,6 hPa 0,0 l/m 16,1 km/h (3 Bft) SW 225 0 min 0,000 mm 0,0 UV-I 47 W/m 0,9 C -5,4 C 22,5 km/h (4 Bft) 100,00 %
28.12.2017 08:57 1,8 C 3,9 C 94 % 993,6 hPa 0,0 l/m 22,5 km/h (4 Bft) SW 225 0 min 0,000 mm 0,0 UV-I 47 W/m 0,9 C -8,3 C 30,6 km/h (5 Bft) 95,65 %
28.12.2017 08:58 1,8 C 3,9 C 94 % 993,6 hPa 0,0 l/m 20,9 km/h (4 Bft) SW 225 0 min 0,000 mm 0,0 UV-I 49 W/m 0,9 C -7,7 C 27,4 km/h (4 Bft) 91,30 %
28.12.2017 08:59 1,8 C 3,9 C 94 % 993,7 hPa 0,0 l/m 24,1 km/h (4 Bft) SW 225 0 min 0,000 mm 0,0 UV-I 49 W/m 0,9 C -9,0 C 30,6 km/h (5 Bft) 95,65 %
28.12.2017 09:00 1,8 C 3,9 C 94 % 993,7 hPa 0,0 l/m 16,1 km/h (3 Bft) SW 225 0 min 0,025 mm 0,0 UV-I 49 W/m 0,9 C -5,4 C 24,1 km/h (4 Bft) 91,30 %
28.12.2017 09:01 1,8 C 3,9 C 94 % 993,7 hPa 0,0 l/m 17,7 km/h (3 Bft) SW 225 0 min 0,000 mm 0,0 UV-I 50 W/m 0,9 C -6,2 C 24,1 km/h (4 Bft) 95,65 %
28.12.2017 09:02 1,8 C 3,9 C 94 % 993,8 hPa 0,0 l/m 22,5 km/h (4 Bft) SW 225 0 min 0,000 mm 0,0 UV-I 51 W/m 0,9 C -8,3 C 29,0 km/h (5 Bft) 95,65 %
28.12.2017 09:03 1,8 C 3,9 C 94 % 993,6 hPa 0,0 l/m 17,7 km/h (3 Bft) W-SW 247 0 min 0,000 mm 0,0 UV-I 51 W/m 0,9 C -6,2 C 27,4 km/h (4 Bft) 91,30 %
28.12.2017 09:04 1,8 C 3,9 C 94 % 993,7 hPa 0,0 l/m 20,9 km/h (4 Bft) SW 225 0 min 0,000 mm 0,0 UV-I 51 W/m 0,9 C -7,7 C 25,7 km/h (4 Bft) 95,65 %
28.12.2017 09:05 1,8 C 3,9 C 94 % 993,6 hPa 0,0 l/m 19,3 km/h (3 Bft) W-SW 247 0 min 0,000 mm 0,0 UV-I 49 W/m 0,9 C -7,0 C 25,7 km/h (4 Bft) 86,96 %
28.12.2017 09:06 1,8 C 3,9 C 94 % 993,8 hPa 0,0 l/m 19,3 km/h (3 Bft) W-SW 247 0 min 0,000 mm 0,0 UV-I 49 W/m 0,9 C -7,0 C 32,2 km/h (5 Bft) 100,00 %
28.12.2017 09:07 1,8 C 3,9 C 94 % 993,7 hPa 0,0 l/m 14,5 km/h (3 Bft) W-SW 247 0 min 0,000 mm 0,0 UV-I 49 W/m 0,9 C -4,5 C 17,7 km/h (3 Bft) 86,96 %
28.12.2017 09:08 1,8 C 3,9 C 94 % 993,7 hPa 0,0 l/m 19,3 km/h (3 Bft) SW 225 0 min 0,000 mm 0,0 UV-I 49 W/m 0,9 C -7,0 C 24,1 km/h (4 Bft) 95,65 %
28.12.2017 09:09 1,8 C 3,9 C 94 % 993,7 hPa 0,0 l/m 20,9 km/h (4 Bft) W-SW 247 0 min 0,000 mm 0,0 UV-I 49 W/m 0,9 C -7,7 C 25,7 km/h (4 Bft) 95,65 %
28.12.2017 09:10 1,8 C 3,9 C 94 % 993,8 hPa 0,0 l/m 17,7 km/h (3 Bft) SW 225 0 min 0,000 mm 0,0 UV-I 49 W/m 0,9 C -6,2 C 24,1 km/h (4 Bft) 100,00 %
28.12.2017 09:11 1,7 C 3,9 C 94 % 993,8 hPa 0,0 l/m 14,5 km/h (3 Bft) W-SW 247 0 min 0,000 mm 0,0 UV-I 51 W/m 0,8 C -4,6 C 17,7 km/h (3 Bft) 95,65 %
28.12.2017 09:12 1,7 C 3,9 C 94 % 993,7 hPa 0,0 l/m 14,5 km/h (3 Bft) SW 225 0 min 0,000 mm 0,0 UV-I 54 W/m 0,8 C -4,6 C 24,1 km/h (4 Bft) 95,65 %
28.12.2017 09:13 1,7 C 3,9 C 94 % 993,9 hPa 0,0 l/m 19,3 km/h (3 Bft) SW 225 0 min 0,000 mm 0,0 UV-I 60 W/m 0,8 C -7,1 C 29,0 km/h (5 Bft) 100,00 %
28.12.2017 09:14 1,7 C 3,9 C 94 % 993,9 hPa 0,0 l/m 17,7 km/h (3 Bft) SW 225 0 min 0,000 mm 0,0 UV-I 67 W/m 0,8 C -6,4 C 22,5 km/h (4 Bft) 91,30 %
28.12.2017 09:15 1,7 C 3,9 C 94 % 993,9 hPa 0,0 l/m 19,3 km/h (3 Bft) W-SW 247 0 min 0,000 mm 0,0 UV-I 81 W/m 0,8 C -7,1 C 24,1 km/h (4 Bft) 100,00 %
28.12.2017 09:16 1,8 C 3,9 C 94 % 993,9 hPa 0,0 l/m 17,7 km/h (3 Bft) SW 225 1 min 0,000 mm 0,0 UV-I 97 W/m 0,9 C -6,2 C 30,6 km/h (5 Bft) 95,65 %
28.12.2017 09:17 1,8 C 3,9 C 94 % 994,0 hPa 0,0 l/m 16,1 km/h (3 Bft) SW 225 1 min 0,000 mm 0,0 UV-I 114 W/m 0,9 C -5,4 C 20,9 km/h (4 Bft) 100,00 %
28.12.2017 09:18 1,8 C 3,9 C 94 % 994,0 hPa 0,0 l/m 22,5 km/h (4 Bft) SW 225 1 min 0,000 mm 0,0 UV-I 148 W/m 0,9 C -8,3 C 32,2 km/h (5 Bft) 95,65 %
28.12.2017 09:19 1,8 C 3,9 C 94 % 994,0 hPa 0,0 l/m 14,5 km/h (3 Bft) SW 225 1 min 0,000 mm 0,0 UV-I 167 W/m 0,9 C -4,5 C 22,5 km/h (4 Bft) 100,00 %
28.12.2017 09:20 1,8 C 3,9 C 94 % 994,0 hPa 0,0 l/m 17,7 km/h (3 Bft) SW 225 1 min 0,000 mm 0,0 UV-I 171 W/m 0,9 C -6,2 C 27,4 km/h (4 Bft) 95,65 %
28.12.2017 09:21 1,8 C 3,9 C 94 % 994,0 hPa 0,0 l/m 16,1 km/h (3 Bft) W-SW 247 1 min 0,000 mm 0,0 UV-I 171 W/m 0,9 C -5,4 C 20,9 km/h (4 Bft) 95,65 %
28.12.2017 09:22 1,8 C 3,9 C 94 % 994,0 hPa 0,0 l/m 19,3 km/h (3 Bft) SW 225 1 min 0,000 mm 0,0 UV-I 174 W/m 0,9 C -7,0 C 25,7 km/h (4 Bft) 95,65 %
28.12.2017 09:23 1,8 C 3,9 C 94 % 994,0 hPa 0,0 l/m 12,9 km/h (3 Bft) W-SW 247 1 min 0,000 mm 0,0 UV-I 174 W/m 0,9 C -3,5 C 17,7 km/h (3 Bft) 100,00 %
28.12.2017 09:24 1,9 C 3,9 C 94 % 994,0 hPa 0,0 l/m 20,9 km/h (4 Bft) SW 225 1 min 0,000 mm 0,0 UV-I 180 W/m 1,0 C -7,6 C 27,4 km/h (4 Bft) 100,00 %
28.12.2017 09:25 1,9 C 3,9 C 94 % 994,0 hPa 0,0 l/m 20,9 km/h (4 Bft) SW 225 1 min 0,000 mm 0,0 UV-I 185 W/m 1,0 C -7,6 C 27,4 km/h (4 Bft) 95,65 %
28.12.2017 09:26 1,9 C 3,9 C 94 % 994,1 hPa 0,0 l/m 16,1 km/h (3 Bft) SW 225 1 min 0,000 mm 0,0 UV-I 188 W/m 1,0 C -5,3 C 24,1 km/h (4 Bft) 100,00 %
28.12.2017 09:27 1,9 C 3,9 C 94 % 994,1 hPa 0,0 l/m 17,7 km/h (3 Bft) SW 225 1 min 0,000 mm 0,0 UV-I 190 W/m 1,0 C -6,1 C 24,1 km/h (4 Bft) 100,00 %
28.12.2017 09:28 2,0 C 3,9 C 94 % 994,1 hPa 0,0 l/m 22,5 km/h (4 Bft) SW 225 1 min 0,000 mm 0,0 UV-I 190 W/m 1,1 C -8,1 C 29,0 km/h (5 Bft) 95,65 %
28.12.2017 09:29 2,0 C 3,9 C 94 % 994,1 hPa 0,0 l/m 17,7 km/h (3 Bft) SW 225 1 min 0,000 mm 0,0 UV-I 197 W/m 1,1 C -6,0 C 27,4 km/h (4 Bft) 100,00 %
28.12.2017 09:30 2,1 C 3,9 C 94 % 994,2 hPa 0,0 l/m 14,5 km/h (3 Bft) SW 225 1 min 0,000 mm 0,0 UV-I 191 W/m 1,2 C -4,2 C 22,5 km/h (4 Bft) 100,00 %
28.12.2017 09:31 2,1 C 3,9 C 94 % 994,2 hPa 0,0 l/m 19,3 km/h (3 Bft) SW 225 1 min 0,000 mm 0,0 UV-I 193 W/m 1,2 C -6,6 C 29,0 km/h (5 Bft) 100,00 %
28.12.2017 09:32 2,1 C 3,9 C 94 % 994,2 hPa 0,0 l/m 20,9 km/h (4 Bft) SW 225 1 min 0,000 mm 0,0 UV-I 195 W/m 1,2 C -7,3 C 25,7 km/h (4 Bft) 100,00 %
28.12.2017 09:33 2,1 C 3,9 C 94 % 994,2 hPa 0,0 l/m 17,7 km/h (3 Bft) SW 225 1 min 0,000 mm 0,0 UV-I 195 W/m 1,2 C -5,9 C 29,0 km/h (5 Bft) 100,00 %
28.12.2017 09:34 2,1 C 3,9 C 93 % 994,2 hPa 0,0 l/m 16,1 km/h (3 Bft) SW 225 1 min 0,000 mm 0,0 UV-I 195 W/m 1,1 C -5,0 C 27,4 km/h (4 Bft) 95,65 %
28.12.2017 09:35 2,1 C 3,9 C 93 % 994,3 hPa 0,0 l/m 16,1 km/h (3 Bft) SW 225 1 min 0,000 mm 0,0 UV-I 197 W/m 1,1 C -5,0 C 24,1 km/h (4 Bft) 95,65 %
28.12.2017 09:36 2,2 C 3,9 C 93 % 994,3 hPa 0,0 l/m 22,5 km/h (4 Bft) SW 225 1 min 0,000 mm 0,0 UV-I 198 W/m 1,2 C -7,8 C 29,0 km/h (5 Bft) 100,00 %
28.12.2017 09:37 2,2 C 3,9 C 93 % 994,3 hPa 0,0 l/m 25,7 km/h (4 Bft) SW 225 1 min 0,000 mm 0,0 UV-I 195 W/m 1,2 C -9,0 C 30,6 km/h (5 Bft) 100,00 %
28.12.2017 09:38 2,2 C 3,9 C 93 % 994,5 hPa 0,0 l/m 20,9 km/h (4 Bft) SW 225 1 min 0,000 mm 0,0 UV-I 197 W/m 1,2 C -7,2 C 27,4 km/h (4 Bft) 95,65 %
28.12.2017 09:39 2,2 C 3,9 C 93 % 994,5 hPa 0,0 l/m 20,9 km/h (4 Bft) SW 225 1 min 0,000 mm 0,0 UV-I 188 W/m 1,2 C -7,2 C 25,7 km/h (4 Bft) 100,00 %
28.12.2017 09:40 2,2 C 3,9 C 93 % 994,4 hPa 0,0 l/m 16,1 km/h (3 Bft) SW 225 1 min 0,000 mm 0,0 UV-I 190 W/m 1,2 C -4,9 C 20,9 km/h (4 Bft) 95,65 %
28.12.2017 09:41 2,2 C 3,9 C 93 % 994,4 hPa 0,0 l/m 16,1 km/h (3 Bft) SW 225 1 min 0,000 mm 0,0 UV-I 200 W/m 1,2 C -4,9 C 25,7 km/h (4 Bft) 100,00 %
28.12.2017 09:42 2,2 C 3,9 C 93 % 994,5 hPa 0,0 l/m 19,3 km/h (3 Bft) SW 225 1 min 0,000 mm 0,0 UV-I 205 W/m 1,2 C -6,5 C 25,7 km/h (4 Bft) 95,65 %
28.12.2017 09:43 2,3 C 3,9 C 93 % 994,4 hPa 0,0 l/m 14,5 km/h (3 Bft) SW 225 1 min 0,000 mm 0,0 UV-I 207 W/m 1,3 C -3,9 C 20,9 km/h (4 Bft) 100,00 %
28.12.2017 09:44 2,3 C 3,9 C 93 % 994,4 hPa 0,0 l/m 12,9 km/h (3 Bft) W-SW 247 1 min 0,000 mm 0,0 UV-I 207 W/m 1,3 C -2,9 C 19,3 km/h (3 Bft) 100,00 %
28.12.2017 09:45 2,3 C 3,9 C 93 % 994,2 hPa 0,0 l/m 17,7 km/h (3 Bft) W-SW 247 1 min 0,000 mm 0,0 UV-I 192 W/m 1,3 C -5,6 C 25,7 km/h (4 Bft) 100,00 %
28.12.2017 09:46 2,3 C 3,9 C 93 % 994,2 hPa 0,0 l/m 19,3 km/h (3 Bft) W-SW 247 1 min 0,000 mm 0,0 UV-I 213 W/m 1,3 C -6,4 C 24,1 km/h (4 Bft) 100,00 %
28.12.2017 09:47 2,3 C 3,9 C 93 % 994,2 hPa 0,0 l/m 17,7 km/h (3 Bft) W-SW 247 1 min 0,000 mm 0,0 UV-I 174 W/m 1,3 C -5,6 C 24,1 km/h (4 Bft) 100,00 %
28.12.2017 09:48 2,3 C 3,9 C 93 % 994,2 hPa 0,0 l/m 12,9 km/h (3 Bft) W-SW 247 1 min 0,000 mm 0,0 UV-I 194 W/m 1,3 C -2,9 C 14,5 km/h (3 Bft) 100,00 %
28.12.2017 09:49 2,3 C 3,9 C 93 % 994,3 hPa 0,0 l/m 17,7 km/h (3 Bft) SW 225 1 min 0,000 mm 0,0 UV-I 151 W/m 1,3 C -5,6 C 22,5 km/h (4 Bft) 95,65 %
28.12.2017 09:50 2,3 C 3,9 C 93 % 994,3 hPa 0,0 l/m 17,7 km/h (3 Bft) W-SW 247 1 min 0,000 mm 0,0 UV-I 134 W/m 1,3 C -5,6 C 22,5 km/h (4 Bft) 100,00 %
28.12.2017 09:51 2,3 C 3,9 C 93 % 994,3 hPa 0,0 l/m 16,1 km/h (3 Bft) W-SW 247 1 min 0,000 mm 0,0 UV-I 174 W/m 1,3 C -4,8 C 22,5 km/h (4 Bft) 100,00 %
28.12.2017 09:52 2,3 C 3,9 C 92 % 994,3 hPa 0,0 l/m 16,1 km/h (3 Bft) W-SW 247 1 min 0,000 mm 0,0 UV-I 223 W/m 1,1 C -4,8 C 22,5 km/h (4 Bft) 100,00 %
28.12.2017 09:53 2,3 C 3,9 C 93 % 994,2 hPa 0,0 l/m 16,1 km/h (3 Bft) SW 225 1 min 0,000 mm 0,0 UV-I 183 W/m 1,3 C -4,8 C 22,5 km/h (4 Bft) 100,00 %
28.12.2017 09:54 2,3 C 3,9 C 92 % 994,3 hPa 0,0 l/m 14,5 km/h (3 Bft) SW 225 1 min 0,000 mm 0,0 UV-I 183 W/m 1,1 C -3,9 C 19,3 km/h (3 Bft) 95,65 %
28.12.2017 09:55 2,3 C 3,9 C 92 % 994,2 hPa 0,0 l/m 16,1 km/h (3 Bft) W-SW 247 0 min 0,000 mm 0,0 UV-I 54 W/m 1,1 C -4,8 C 22,5 km/h (4 Bft) 100,00 %
28.12.2017 09:56 2,3 C 3,9 C 92 % 994,2 hPa 0,0 l/m 14,5 km/h (3 Bft) W-SW 247 0 min 0,000 mm 0,0 UV-I 84 W/m 1,1 C -3,9 C 17,7 km/h (3 Bft) 95,65 %
28.12.2017 09:57 2,3 C 3,9 C 92 % 994,3 hPa 0,0 l/m 14,5 km/h (3 Bft) W-SW 247 0 min 0,000 mm 0,0 UV-I 118 W/m 1,1 C -3,9 C 20,9 km/h (4 Bft) 100,00 %
28.12.2017 09:58 2,3 C 3,9 C 92 % 994,2 hPa 0,0 l/m 16,1 km/h (3 Bft) SW 225 1 min 0,000 mm 0,0 UV-I 142 W/m 1,1 C -4,8 C 24,1 km/h (4 Bft) 100,00 %
28.12.2017 09:59 2,3 C 3,9 C 92 % 994,2 hPa 0,0 l/m 17,7 km/h (3 Bft) W-SW 247 1 min 0,000 mm 0,0 UV-I 160 W/m 1,1 C -5,6 C 24,1 km/h (4 Bft) 100,00 %
28.12.2017 10:00 2,3 C 3,9 C 92 % 994,2 hPa 0,0 l/m 16,1 km/h (3 Bft) SW 225 1 min 0,051 mm 0,0 UV-I 193 W/m 1,1 C -4,8 C 22,5 km/h (4 Bft) 100,00 %
28.12.2017 10:01 2,3 C 3,9 C 92 % 994,3 hPa 0,0 l/m 14,5 km/h (3 Bft) SW 225 1 min 0,000 mm 0,0 UV-I 167 W/m 1,1 C -3,9 C 19,3 km/h (3 Bft) 95,65 %
28.12.2017 10:02 2,4 C 3,9 C 92 % 994,3 hPa 0,0 l/m 17,7 km/h (3 Bft) W-SW 247 1 min 0,000 mm 0,0 UV-I 200 W/m 1,2 C -5,5 C 24,1 km/h (4 Bft) 100,00 %
28.12.2017 10:03 2,4 C 3,9 C 92 % 994,3 hPa 0,0 l/m 16,1 km/h (3 Bft) SW 225 1 min 0,000 mm 0,0 UV-I 204 W/m 1,2 C -4,7 C 20,9 km/h (4 Bft) 95,65 %
28.12.2017 10:04 2,4 C 3,9 C 92 % 994,3 hPa 0,0 l/m 14,5 km/h (3 Bft) W-SW 247 1 min 0,000 mm 0,0 UV-I 204 W/m 1,2 C -3,8 C 25,7 km/h (4 Bft) 100,00 %
28.12.2017 10:05 2,5 C 3,9 C 92 % 994,3 hPa 0,0 l/m 19,3 km/h (3 Bft) W-SW 247 0 min 0,000 mm 0,0 UV-I 119 W/m 1,3 C -6,1 C 27,4 km/h (4 Bft) 100,00 %
28.12.2017 10:06 2,5 C 3,9 C 92 % 994,3 hPa 0,0 l/m 11,3 km/h (2 Bft) W-SW 247 0 min 0,000 mm 0,0 UV-I 72 W/m 1,3 C -1,6 C 19,3 km/h (3 Bft) 100,00 %
28.12.2017 10:07 2,5 C 3,9 C 92 % 994,3 hPa 0,0 l/m 14,5 km/h (3 Bft) W-SW 247 0 min 0,000 mm 0,0 UV-I 116 W/m 1,3 C -3,7 C 25,7 km/h (4 Bft) 100,00 %
28.12.2017 10:08 2,5 C 3,9 C 92 % 994,3 hPa 0,0 l/m 17,7 km/h (3 Bft) W-SW 247 1 min 0,000 mm 0,0 UV-I 213 W/m 1,3 C -5,4 C 24,1 km/h (4 Bft) 100,00 %
28.12.2017 10:09 2,5 C 3,9 C 92 % 994,3 hPa 0,0 l/m 12,9 km/h (3 Bft) W-SW 247 1 min 0,000 mm 0,0 UV-I 139 W/m 1,3 C -2,7 C 19,3 km/h (3 Bft) 100,00 %
28.12.2017 10:10 2,5 C 3,9 C 92 % 994,3 hPa 0,0 l/m 14,5 km/h (3 Bft) W-SW 247 0 min 0,000 mm 0,0 UV-I 90 W/m 1,3 C -3,7 C 25,7 km/h (4 Bft) 95,65 %
28.12.2017 10:11 2,5 C 3,9 C 92 % 994,3 hPa 0,0 l/m 17,7 km/h (3 Bft) SW 225 0 min 0,000 mm 0,0 UV-I 77 W/m 1,3 C -5,4 C 25,7 km/h (4 Bft) 100,00 %
28.12.2017 10:12 2,4 C 3,9 C 91 % 994,3 hPa 0,0 l/m 14,5 km/h (3 Bft) W 270 0 min 0,000 mm 0,0 UV-I 70 W/m 1,1 C -3,8 C 17,7 km/h (3 Bft) 100,00 %
28.12.2017 10:13 2,4 C 3,9 C 91 % 994,3 hPa 0,0 l/m 19,3 km/h (3 Bft) W-SW 247 0 min 0,000 mm 0,0 UV-I 70 W/m 1,1 C -6,2 C 24,1 km/h (4 Bft) 100,00 %
28.12.2017 10:14 2,4 C 3,9 C 91 % 994,3 hPa 0,0 l/m 16,1 km/h (3 Bft) W-SW 247 0 min 0,000 mm 0,0 UV-I 70 W/m 1,1 C -4,7 C 20,9 km/h (4 Bft) 100,00 %
28.12.2017 10:15 2,4 C 3,9 C 91 % 994,2 hPa 0,0 l/m 16,1 km/h (3 Bft) W-SW 247 0 min 0,000 mm 0,0 UV-I 72 W/m 1,1 C -4,7 C 19,3 km/h (3 Bft) 100,00 %
28.12.2017 10:16 2,4 C 3,9 C 91 % 994,2 hPa 0,0 l/m 16,1 km/h (3 Bft) W-SW 247 0 min 0,000 mm 0,0 UV-I 70 W/m 1,1 C -4,7 C 24,1 km/h (4 Bft) 100,00 %
28.12.2017 10:17 2,4 C 3,9 C 91 % 994,2 hPa 0,0 l/m 14,5 km/h (3 Bft) W-SW 247 0 min 0,000 mm 0,0 UV-I 71 W/m 1,1 C -3,8 C 19,3 km/h (3 Bft) 86,96 %
28.12.2017 10:18 2,3 C 3,9 C 91 % 994,2 hPa 0,0 l/m 12,9 km/h (3 Bft) W-SW 247 0 min 0,000 mm 0,0 UV-I 79 W/m 1,0 C -2,9 C 16,1 km/h (3 Bft) 100,00 %
28.12.2017 10:19 2,3 C 3,9 C 92 % 994,2 hPa 0,0 l/m 16,1 km/h (3 Bft) SW 225 0 min 0,000 mm 0,0 UV-I 84 W/m 1,1 C -4,8 C 22,5 km/h (4 Bft) 100,00 %
28.12.2017 10:20 2,3 C 3,9 C 92 % 994,2 hPa 0,0 l/m 16,1 km/h (3 Bft) SW 225 0 min 0,000 mm 0,0 UV-I 90 W/m 1,1 C -4,8 C 19,3 km/h (3 Bft) 100,00 %
28.12.2017 10:21 2,4 C 3,9 C 92 % 994,3 hPa 0,0 l/m 14,5 km/h (3 Bft) W-SW 247 0 min 0,000 mm 0,0 UV-I 91 W/m 1,2 C -3,8 C 20,9 km/h (4 Bft) 100,00 %
28.12.2017 10:22 2,4 C 3,9 C 92 % 994,3 hPa 0,0 l/m 17,7 km/h (3 Bft) SW 225 0 min 0,000 mm 0,0 UV-I 93 W/m 1,2 C -5,5 C 24,1 km/h (4 Bft) 100,00 %
28.12.2017 10:23 2,4 C 3,9 C 91 % 994,4 hPa 0,0 l/m 16,1 km/h (3 Bft) W-SW 247 0 min 0,000 mm 0,0 UV-I 92 W/m 1,1 C -4,7 C 22,5 km/h (4 Bft) 95,65 %
28.12.2017 10:24 2,4 C 3,9 C 91 % 994,3 hPa 0,0 l/m 16,1 km/h (3 Bft) SW 225 0 min 0,000 mm 0,0 UV-I 91 W/m 1,1 C -4,7 C 19,3 km/h (3 Bft) 95,65 %
28.12.2017 10:25 2,4 C 3,9 C 91 % 994,3 hPa 0,0 l/m 11,3 km/h (2 Bft) W-SW 247 0 min 0,000 mm 0,0 UV-I 91 W/m 1,1 C -1,8 C 16,1 km/h (3 Bft) 100,00 %
28.12.2017 10:26 2,4 C 3,9 C 91 % 994,3 hPa 0,0 l/m 11,3 km/h (2 Bft) W-SW 247 0 min 0,000 mm 0,0 UV-I 98 W/m 1,1 C -1,8 C 17,7 km/h (3 Bft) 100,00 %
28.12.2017 10:27 2,4 C 3,9 C 91 % 994,3 hPa 0,0 l/m 17,7 km/h (3 Bft) SW 225 0 min 0,000 mm 0,0 UV-I 104 W/m 1,1 C -5,5 C 25,7 km/h (4 Bft) 100,00 %
28.12.2017 10:28 2,5 C 3,9 C 91 % 994,4 hPa 0,0 l/m 17,7 km/h (3 Bft) W-SW 247 0 min 0,000 mm 0,0 UV-I 109 W/m 1,2 C -5,4 C 25,7 km/h (4 Bft) 91,30 %
28.12.2017 10:29 2,6 C 3,9 C 91 % 994,4 hPa 0,0 l/m 17,7 km/h (3 Bft) SW 225 0 min 0,000 mm 0,0 UV-I 112 W/m 1,3 C -5,2 C 20,9 km/h (4 Bft) 100,00 %
28.12.2017 10:30 2,6 C 3,9 C 91 % 994,5 hPa 0,0 l/m 16,1 km/h (3 Bft) W-SW 247 0 min 0,000 mm 0,0 UV-I 116 W/m 1,3 C -4,4 C 20,9 km/h (4 Bft) 95,65 %
28.12.2017 10:31 2,6 C 3,9 C 91 % 994,5 hPa 0,0 l/m 16,1 km/h (3 Bft) SW 225 0 min 0,000 mm 0,0 UV-I 121 W/m 1,3 C -4,4 C 20,9 km/h (4 Bft) 95,65 %
28.12.2017 10:32 2,7 C 3,9 C 91 % 994,6 hPa 0,0 l/m 16,1 km/h (3 Bft) W-SW 247 0 min 0,000 mm 0,0 UV-I 128 W/m 1,4 C -4,3 C 22,5 km/h (4 Bft) 95,65 %
28.12.2017 10:33 2,7 C 3,9 C 91 % 994,6 hPa 0,0 l/m 17,7 km/h (3 Bft) SW 225 0 min 0,000 mm 0,0 UV-I 139 W/m 1,4 C -5,1 C 24,1 km/h (4 Bft) 91,30 %
28.12.2017 10:34 2,7 C 3,9 C 91 % 994,6 hPa 0,0 l/m 14,5 km/h (3 Bft) SW 225 1 min 0,000 mm 0,0 UV-I 156 W/m 1,4 C -3,4 C 19,3 km/h (3 Bft) 95,65 %
28.12.2017 10:35 2,8 C 3,9 C 91 % 994,6 hPa 0,0 l/m 14,5 km/h (3 Bft) W-SW 247 1 min 0,000 mm 0,0 UV-I 165 W/m 1,5 C -3,3 C 17,7 km/h (3 Bft) 86,96 %
28.12.2017 10:36 2,8 C 3,9 C 91 % 994,6 hPa 0,0 l/m 16,1 km/h (3 Bft) SW 225 1 min 0,000 mm 0,0 UV-I 171 W/m 1,5 C -4,2 C 22,5 km/h (4 Bft) 95,65 %
28.12.2017 10:37 2,8 C 3,9 C 91 % 994,5 hPa 0,0 l/m 17,7 km/h (3 Bft) SW 225 1 min 0,000 mm 0,0 UV-I 204 W/m 1,5 C -5,0 C 29,0 km/h (5 Bft) 91,30 %
28.12.2017 10:38 2,9 C 3,9 C 91 % 994,5 hPa 0,0 l/m 14,5 km/h (3 Bft) W-SW 247 1 min 0,000 mm 0,0 UV-I 181 W/m 1,6 C -3,2 C 22,5 km/h (4 Bft) 100,00 %
28.12.2017 10:39 2,9 C 3,9 C 90 % 994,5 hPa 0,0 l/m 19,3 km/h (3 Bft) SW 225 1 min 0,000 mm 0,0 UV-I 220 W/m 1,4 C -5,6 C 27,4 km/h (4 Bft) 86,96 %
28.12.2017 10:40 2,9 C 3,9 C 90 % 994,5 hPa 0,0 l/m 17,7 km/h (3 Bft) SW 225 1 min 0,000 mm 0,0 UV-I 197 W/m 1,4 C -4,8 C 22,5 km/h (4 Bft) 100,00 %
28.12.2017 10:41 3,0 C 3,9 C 90 % 994,5 hPa 0,0 l/m 17,7 km/h (3 Bft) W-SW 247 1 min 0,000 mm 0,0 UV-I 241 W/m 1,5 C -4,7 C 22,5 km/h (4 Bft) 91,30 %
28.12.2017 10:42 3,1 C 3,9 C 90 % 994,4 hPa 0,0 l/m 12,9 km/h (3 Bft) W-SW 247 1 min 0,000 mm 0,0 UV-I 220 W/m 1,6 C -2,0 C 17,7 km/h (3 Bft) 95,65 %
28.12.2017 10:43 3,1 C 3,9 C 90 % 994,3 hPa 0,0 l/m 16,1 km/h (3 Bft) W-SW 247 1 min 0,000 mm 0,0 UV-I 255 W/m 1,6 C -3,8 C 24,1 km/h (4 Bft) 95,65 %
28.12.2017 10:44 3,2 C 3,9 C 90 % 994,3 hPa 0,0 l/m 16,1 km/h (3 Bft) W-SW 247 1 min 0,000 mm 0,0 UV-I 255 W/m 1,7 C -3,7 C 25,7 km/h (4 Bft) 95,65 %
28.12.2017 10:45 3,2 C 3,9 C 90 % 994,3 hPa 0,0 l/m 14,5 km/h (3 Bft) W-SW 247 1 min 0,000 mm 0,0 UV-I 308 W/m 1,7 C -2,8 C 19,3 km/h (3 Bft) 91,30 %
28.12.2017 10:46 3,3 C 3,9 C 90 % 994,3 hPa 0,0 l/m 19,3 km/h (3 Bft) W 270 1 min 0,000 mm 0,0 UV-I 265 W/m 1,8 C -5,1 C 25,7 km/h (4 Bft) 86,96 %
28.12.2017 10:47 3,3 C 3,9 C 90 % 994,2 hPa 0,0 l/m 20,9 km/h (4 Bft) W 270 1 min 0,000 mm 0,0 UV-I 213 W/m 1,8 C -5,7 C 24,1 km/h (4 Bft) 95,65 %
28.12.2017 10:48 3,4 C 3,9 C 90 % 994,2 hPa 0,0 l/m 14,5 km/h (3 Bft) SW 225 1 min 0,000 mm 0,0 UV-I 193 W/m 1,9 C -2,6 C 22,5 km/h (4 Bft) 91,30 %
28.12.2017 10:49 3,4 C 3,9 C 89 % 994,3 hPa 0,0 l/m 16,1 km/h (3 Bft) W-SW 247 0 min 0,000 mm 0,0 UV-I 160 W/m 1,8 C -3,4 C 25,7 km/h (4 Bft) 91,30 %
28.12.2017 10:50 3,4 C 3,9 C 89 % 994,3 hPa 0,0 l/m 17,7 km/h (3 Bft) W-SW 247 0 min 0,000 mm 0,0 UV-I 141 W/m 1,8 C -4,2 C 24,1 km/h (4 Bft) 95,65 %
28.12.2017 10:51 3,4 C 3,9 C 89 % 994,3 hPa 0,0 l/m 14,5 km/h (3 Bft) SW 225 0 min 0,000 mm 0,0 UV-I 137 W/m 1,8 C -2,6 C 20,9 km/h (4 Bft) 91,30 %
28.12.2017 10:52 3,4 C 3,9 C 89 % 994,4 hPa 0,0 l/m 14,5 km/h (3 Bft) W-SW 247 0 min 0,000 mm 0,0 UV-I 142 W/m 1,8 C -2,6 C 20,9 km/h (4 Bft) 100,00 %
28.12.2017 10:53 3,4 C 3,9 C 89 % 994,4 hPa 0,0 l/m 11,3 km/h (2 Bft) W-SW 247 0 min 0,000 mm 0,0 UV-I 146 W/m 1,8 C -0,6 C 17,7 km/h (3 Bft) 91,30 %
28.12.2017 10:54 3,4 C 3,9 C 89 % 994,5 hPa 0,0 l/m 12,9 km/h (3 Bft) SW 225 0 min 0,000 mm 0,0 UV-I 149 W/m 1,8 C -1,7 C 19,3 km/h (3 Bft) 100,00 %
28.12.2017 10:55 3,4 C 3,9 C 89 % 994,6 hPa 0,0 l/m 14,5 km/h (3 Bft) S-SW 202 1 min 0,000 mm 0,0 UV-I 178 W/m 1,8 C -2,6 C 19,3 km/h (3 Bft) 95,65 %
28.12.2017 10:56 3,4 C 3,9 C 89 % 994,7 hPa 0,0 l/m 17,7 km/h (3 Bft) SW 225 1 min 0,000 mm 0,0 UV-I 186 W/m 1,8 C -4,2 C 24,1 km/h (4 Bft) 100,00 %
28.12.2017 10:57 3,4 C 3,9 C 89 % 994,6 hPa 0,0 l/m 14,5 km/h (3 Bft) W-SW 247 1 min 0,000 mm 0,0 UV-I 202 W/m 1,8 C -2,6 C 19,3 km/h (3 Bft) 95,65 %
28.12.2017 10:58 3,4 C 3,9 C 89 % 994,7 hPa 0,0 l/m 14,5 km/h (3 Bft) SW 225 1 min 0,000 mm 0,0 UV-I 200 W/m 1,8 C -2,6 C 19,3 km/h (3 Bft) 95,65 %
28.12.2017 10:59 3,4 C 3,9 C 90 % 994,7 hPa 0,0 l/m 16,1 km/h (3 Bft) SW 225 1 min 0,000 mm 0,0 UV-I 213 W/m 1,9 C -3,4 C 25,7 km/h (4 Bft) 100,00 %
28.12.2017 11:00 3,4 C 3,9 C 89 % 994,7 hPa 0,0 l/m 16,1 km/h (3 Bft) SW 225 1 min 0,076 mm 0,0 UV-I 214 W/m 1,8 C -3,4 C 25,7 km/h (4 Bft) 86,96 %
28.12.2017 11:01 3,4 C 3,9 C 89 % 994,6 hPa 0,0 l/m 14,5 km/h (3 Bft) SW 225 1 min 0,000 mm 0,0 UV-I 230 W/m 1,8 C -2,6 C 24,1 km/h (4 Bft) 95,65 %
28.12.2017 11:02 3,4 C 3,9 C 89 % 994,6 hPa 0,0 l/m 19,3 km/h (3 Bft) SW 225 1 min 0,000 mm 0,0 UV-I 230 W/m 1,8 C -4,9 C 25,7 km/h (4 Bft) 95,65 %
28.12.2017 11:03 3,4 C 3,9 C 89 % 994,6 hPa 0,0 l/m 12,9 km/h (3 Bft) W-SW 247 1 min 0,000 mm 0,0 UV-I 202 W/m 1,8 C -1,7 C 19,3 km/h (3 Bft) 95,65 %
28.12.2017 11:04 3,4 C 3,9 C 89 % 994,7 hPa 0,0 l/m 16,1 km/h (3 Bft) W-SW 247 1 min 0,000 mm 0,0 UV-I 196 W/m 1,8 C -3,4 C 22,5 km/h (4 Bft) 95,65 %
28.12.2017 11:05 3,5 C 3,9 C 89 % 994,7 hPa 0,0 l/m 12,9 km/h (3 Bft) SW 225 1 min 0,000 mm 0,0 UV-I 209 W/m 1,9 C -1,5 C 17,7 km/h (3 Bft) 100,00 %
28.12.2017 11:06 3,5 C 3,9 C 89 % 994,7 hPa 0,0 l/m 11,3 km/h (2 Bft) W-SW 247 1 min 0,000 mm 0,0 UV-I 188 W/m 1,9 C -0,5 C 17,7 km/h (3 Bft) 95,65 %
28.12.2017 11:07 3,5 C 3,9 C 89 % 994,7 hPa 0,0 l/m 14,5 km/h (3 Bft) W-SW 247 1 min 0,000 mm 0,0 UV-I 188 W/m 1,9 C -2,5 C 19,3 km/h (3 Bft) 95,65 %
28.12.2017 11:08 3,5 C 3,9 C 89 % 994,6 hPa 0,0 l/m 17,7 km/h (3 Bft) SW 225 1 min 0,000 mm 0,0 UV-I 204 W/m 1,9 C -4,1 C 24,1 km/h (4 Bft) 100,00 %
28.12.2017 11:09 3,5 C 3,9 C 89 % 994,6 hPa 0,0 l/m 14,5 km/h (3 Bft) W-SW 247 1 min 0,000 mm 0,0 UV-I 204 W/m 1,9 C -2,5 C 17,7 km/h (3 Bft) 100,00 %
28.12.2017 11:10 3,6 C 3,9 C 89 % 994,6 hPa 0,0 l/m 12,9 km/h (3 Bft) SW 225 1 min 0,000 mm 0,0 UV-I 183 W/m 2,0 C -1,4 C 17,7 km/h (3 Bft) 100,00 %
28.12.2017 11:11 3,6 C 3,9 C 89 % 994,6 hPa 0,0 l/m 16,1 km/h (3 Bft) SW 225 1 min 0,000 mm 0,0 UV-I 183 W/m 2,0 C -3,2 C 20,9 km/h (4 Bft) 100,00 %
28.12.2017 11:12 3,6 C 3,9 C 89 % 994,6 hPa 0,0 l/m 16,1 km/h (3 Bft) SW 225 0 min 0,000 mm 0,0 UV-I 155 W/m 2,0 C -3,2 C 19,3 km/h (3 Bft) 100,00 %
28.12.2017 11:13 3,6 C 3,9 C 89 % 994,5 hPa 0,0 l/m 19,3 km/h (3 Bft) SW 225 0 min 0,000 mm 0,0 UV-I 139 W/m 2,0 C -4,7 C 25,7 km/h (4 Bft) 100,00 %
28.12.2017 11:14 3,6 C 3,9 C 89 % 994,5 hPa 0,0 l/m 19,3 km/h (3 Bft) SW 225 0 min 0,000 mm 0,0 UV-I 148 W/m 2,0 C -4,7 C 27,4 km/h (4 Bft) 95,65 %
28.12.2017 11:15 3,6 C 3,9 C 89 % 994,4 hPa 0,0 l/m 14,5 km/h (3 Bft) W-SW 247 0 min 0,000 mm 0,0 UV-I 124 W/m 2,0 C -2,3 C 20,9 km/h (4 Bft) 95,65 %
28.12.2017 11:16 3,6 C 3,9 C 89 % 994,5 hPa 0,0 l/m 14,5 km/h (3 Bft) SW 225 0 min 0,000 mm 0,0 UV-I 116 W/m 2,0 C -2,3 C 24,1 km/h (4 Bft) 100,00 %
28.12.2017 11:17 3,5 C 3,9 C 89 % 994,5 hPa 0,0 l/m 17,7 km/h (3 Bft) W-SW 247 0 min 0,000 mm 0,0 UV-I 127 W/m 1,9 C -4,1 C 24,1 km/h (4 Bft) 95,65 %
28.12.2017 11:18 3,5 C 3,9 C 88 % 994,5 hPa 0,0 l/m 14,5 km/h (3 Bft) W-SW 247 0 min 0,000 mm 0,0 UV-I 139 W/m 1,7 C -2,5 C 19,3 km/h (3 Bft) 100,00 %
28.12.2017 11:19 3,4 C 3,9 C 89 % 994,5 hPa 0,0 l/m 19,3 km/h (3 Bft) W-SW 247 0 min 0,000 mm 0,0 UV-I 151 W/m 1,8 C -4,9 C 24,1 km/h (4 Bft) 100,00 %
28.12.2017 11:20 3,4 C 3,9 C 89 % 994,5 hPa 0,0 l/m 14,5 km/h (3 Bft) SW 225 0 min 0,000 mm 0,0 UV-I 156 W/m 1,8 C -2,6 C 22,5 km/h (4 Bft) 100,00 %
28.12.2017 11:21 3,4 C 3,9 C 89 % 994,6 hPa 0,0 l/m 12,9 km/h (3 Bft) SW 225 0 min 0,000 mm 0,0 UV-I 158 W/m 1,8 C -1,7 C 19,3 km/h (3 Bft) 95,65 %
28.12.2017 11:22 3,4 C 3,9 C 89 % 994,6 hPa 0,0 l/m 16,1 km/h (3 Bft) SW 225 0 min 0,000 mm 0,0 UV-I 160 W/m 1,8 C -3,4 C 24,1 km/h (4 Bft) 95,65 %
28.12.2017 11:23 3,4 C 3,9 C 89 % 994,5 hPa 0,0 l/m 16,1 km/h (3 Bft) W-SW 247 0 min 0,000 mm 0,0 UV-I 156 W/m 1,8 C -3,4 C 20,9 km/h (4 Bft) 95,65 %
28.12.2017 11:24 3,4 C 3,9 C 89 % 994,6 hPa 0,0 l/m 14,5 km/h (3 Bft) W-SW 247 0 min 0,000 mm 0,0 UV-I 144 W/m 1,8 C -2,6 C 19,3 km/h (3 Bft) 100,00 %
28.12.2017 11:25 3,4 C 3,9 C 88 % 994,5 hPa 0,0 l/m 14,5 km/h (3 Bft) W-SW 247 0 min 0,000 mm 0,0 UV-I 146 W/m 1,6 C -2,6 C 19,3 km/h (3 Bft) 100,00 %
28.12.2017 11:26 3,4 C 3,9 C 89 % 994,5 hPa 0,0 l/m 12,9 km/h (3 Bft) W-SW 247 0 min 0,000 mm 0,0 UV-I 151 W/m 1,8 C -1,7 C 17,7 km/h (3 Bft) 100,00 %
28.12.2017 11:27 3,4 C 3,9 C 89 % 994,6 hPa 0,0 l/m 12,9 km/h (3 Bft) W-SW 247 0 min 0,000 mm 0,0 UV-I 136 W/m 1,8 C -1,7 C 24,1 km/h (4 Bft) 100,00 %
28.12.2017 11:28 3,4 C 3,9 C 89 % 994,6 hPa 0,0 l/m 16,1 km/h (3 Bft) W-SW 247 0 min 0,000 mm 0,0 UV-I 141 W/m 1,8 C -3,4 C 24,1 km/h (4 Bft) 95,65 %
28.12.2017 11:29 3,4 C 3,9 C 89 % 994,6 hPa 0,0 l/m 14,5 km/h (3 Bft) SW 225 0 min 0,000 mm 0,0 UV-I 137 W/m 1,8 C -2,6 C 20,9 km/h (4 Bft) 100,00 %
28.12.2017 11:30 3,4 C 3,9 C 89 % 994,7 hPa 0,0 l/m 14,5 km/h (3 Bft) SW 225 0 min 0,000 mm 0,0 UV-I 125 W/m 1,8 C -2,6 C 17,7 km/h (3 Bft) 100,00 %
28.12.2017 11:31 3,4 C 3,9 C 89 % 994,8 hPa 0,0 l/m 11,3 km/h (2 Bft) SW 225 0 min 0,000 mm 0,0 UV-I 123 W/m 1,8 C -0,6 C 19,3 km/h (3 Bft) 100,00 %
28.12.2017 11:32 3,4 C 3,9 C 89 % 994,8 hPa 0,0 l/m 11,3 km/h (2 Bft) SW 225 0 min 0,000 mm 0,0 UV-I 127 W/m 1,8 C -0,6 C 17,7 km/h (3 Bft) 100,00 %
28.12.2017 11:33 3,4 C 3,9 C 89 % 994,8 hPa 0,0 l/m 12,9 km/h (3 Bft) W-SW 247 0 min 0,000 mm 0,0 UV-I 137 W/m 1,8 C -1,7 C 20,9 km/h (4 Bft) 100,00 %
28.12.2017 11:34 3,4 C 3,9 C 89 % 995,0 hPa 0,0 l/m 16,1 km/h (3 Bft) SW 225 0 min 0,000 mm 0,0 UV-I 137 W/m 1,8 C -3,4 C 24,1 km/h (4 Bft) 100,00 %
28.12.2017 11:35 3,4 C 3,9 C 89 % 994,9 hPa 0,0 l/m 12,9 km/h (3 Bft) W-SW 247 0 min 0,000 mm 0,0 UV-I 134 W/m 1,8 C -1,7 C 19,3 km/h (3 Bft) 91,30 %
28.12.2017 11:36 3,4 C 3,9 C 88 % 994,8 hPa 0,0 l/m 12,9 km/h (3 Bft) W-SW 247 0 min 0,000 mm 0,0 UV-I 135 W/m 1,6 C -1,7 C 22,5 km/h (4 Bft) 100,00 %
28.12.2017 11:37 3,4 C 3,9 C 89 % 994,9 hPa 0,0 l/m 16,1 km/h (3 Bft) W-SW 247 0 min 0,000 mm 0,0 UV-I 139 W/m 1,8 C -3,4 C 27,4 km/h (4 Bft) 95,65 %
28.12.2017 11:38 3,4 C 3,9 C 88 % 994,9 hPa 0,0 l/m 17,7 km/h (3 Bft) SW 225 0 min 0,000 mm 0,0 UV-I 141 W/m 1,6 C -4,2 C 24,1 km/h (4 Bft) 95,65 %
28.12.2017 11:39 3,4 C 3,9 C 88 % 994,8 hPa 0,0 l/m 14,5 km/h (3 Bft) SW 225 0 min 0,000 mm 0,0 UV-I 151 W/m 1,6 C -2,6 C 22,5 km/h (4 Bft) 100,00 %
28.12.2017 11:40 3,4 C 3,9 C 88 % 994,8 hPa 0,0 l/m 14,5 km/h (3 Bft) W-SW 247 0 min 0,000 mm 0,0 UV-I 153 W/m 1,6 C -2,6 C 19,3 km/h (3 Bft) 95,65 %
28.12.2017 11:41 3,4 C 3,9 C 88 % 994,8 hPa 0,0 l/m 16,1 km/h (3 Bft) W-SW 247 0 min 0,000 mm 0,0 UV-I 142 W/m 1,6 C -3,4 C 22,5 km/h (4 Bft) 95,65 %
28.12.2017 11:42 3,4 C 3,9 C 88 % 994,7 hPa 0,0 l/m 12,9 km/h (3 Bft) W-SW 247 0 min 0,000 mm 0,0 UV-I 134 W/m 1,6 C -1,7 C 17,7 km/h (3 Bft) 95,65 %
28.12.2017 11:43 3,4 C 3,9 C 88 % 994,7 hPa 0,0 l/m 16,1 km/h (3 Bft) W-SW 247 0 min 0,000 mm 0,0 UV-I 137 W/m 1,6 C -3,4 C 20,9 km/h (4 Bft) 100,00 %
28.12.2017 11:44 3,4 C 3,9 C 88 % 994,7 hPa 0,0 l/m 16,1 km/h (3 Bft) W-SW 247 0 min 0,000 mm 0,0 UV-I 144 W/m 1,6 C -3,4 C 22,5 km/h (4 Bft) 100,00 %
28.12.2017 11:45 3,4 C 3,9 C 88 % 994,8 hPa 0,0 l/m 11,3 km/h (2 Bft) W-SW 247 0 min 0,000 mm 0,0 UV-I 133 W/m 1,6 C -0,6 C 19,3 km/h (3 Bft) 100,00 %
28.12.2017 11:46 3,4 C 3,9 C 88 % 994,8 hPa 0,0 l/m 16,1 km/h (3 Bft) W-SW 247 0 min 0,000 mm 0,0 UV-I 114 W/m 1,6 C -3,4 C 19,3 km/h (3 Bft) 100,00 %
28.12.2017 11:47 3,4 C 3,9 C 88 % 994,8 hPa 0,0 l/m 12,9 km/h (3 Bft) W-SW 247 0 min 0,000 mm 0,0 UV-I 104 W/m 1,6 C -1,7 C 16,1 km/h (3 Bft) 100,00 %
28.12.2017 11:48 3,4 C 3,9 C 88 % 994,9 hPa 0,0 l/m 16,1 km/h (3 Bft) W-SW 247 0 min 0,000 mm 0,0 UV-I 105 W/m 1,6 C -3,4 C 20,9 km/h (4 Bft) 100,00 %
28.12.2017 11:49 3,4 C 3,9 C 88 % 994,8 hPa 0,0 l/m 14,5 km/h (3 Bft) W-SW 247 0 min 0,000 mm 0,0 UV-I 111 W/m 1,6 C -2,6 C 20,9 km/h (4 Bft) 95,65 %
28.12.2017 11:50 3,4 C 3,9 C 88 % 994,8 hPa 0,0 l/m 11,3 km/h (2 Bft) W-SW 247 0 min 0,000 mm 0,0 UV-I 109 W/m 1,6 C -0,6 C 16,1 km/h (3 Bft) 100,00 %
28.12.2017 11:51 3,4 C 3,9 C 88 % 994,9 hPa 0,0 l/m 12,9 km/h (3 Bft) W-SW 247 0 min 0,000 mm 0,0 UV-I 104 W/m 1,6 C -1,7 C 16,1 km/h (3 Bft) 100,00 %
28.12.2017 11:52 3,4 C 3,9 C 88 % 994,9 hPa 0,0 l/m 12,9 km/h (3 Bft) W-SW 247 0 min 0,000 mm 0,0 UV-I 102 W/m 1,6 C -1,7 C 20,9 km/h (4 Bft) 100,00 %
28.12.2017 11:53 3,4 C 3,9 C 88 % 994,9 hPa 0,0 l/m 16,1 km/h (3 Bft) W-SW 247 0 min 0,000 mm 0,0 UV-I 100 W/m 1,6 C -3,4 C 22,5 km/h (4 Bft) 100,00 %
28.12.2017 11:54 3,4 C 3,9 C 88 % 994,9 hPa 0,0 l/m 14,5 km/h (3 Bft) W-SW 247 0 min 0,000 mm 0,0 UV-I 97 W/m 1,6 C -2,6 C 19,3 km/h (3 Bft) 95,65 %
28.12.2017 11:55 3,4 C 3,9 C 88 % 994,9 hPa 0,0 l/m 12,9 km/h (3 Bft) W-SW 247 0 min 0,000 mm 0,0 UV-I 102 W/m 1,6 C -1,7 C 17,7 km/h (3 Bft) 95,65 %
28.12.2017 11:56 3,4 C 3,9 C 88 % 995,0 hPa 0,0 l/m 12,9 km/h (3 Bft) W-SW 247 0 min 0,000 mm 0,0 UV-I 117 W/m 1,6 C -1,7 C 19,3 km/h (3 Bft) 91,30 %
28.12.2017 11:57 3,4 C 3,9 C 88 % 994,9 hPa 0,0 l/m 11,3 km/h (2 Bft) W-SW 247 0 min 0,000 mm 0,0 UV-I 121 W/m 1,6 C -0,6 C 16,1 km/h (3 Bft) 100,00 %
28.12.2017 11:58 3,4 C 3,9 C 88 % 995,0 hPa 0,0 l/m 14,5 km/h (3 Bft) W 270 0 min 0,000 mm 0,0 UV-I 118 W/m 1,6 C -2,6 C 19,3 km/h (3 Bft) 95,65 %
28.12.2017 11:59 3,4 C 3,9 C 88 % 995,0 hPa 0,0 l/m 11,3 km/h (2 Bft) SW 225 0 min 0,000 mm 0,0 UV-I 116 W/m 1,6 C -0,6 C 12,9 km/h (3 Bft) 100,00 %
28.12.2017 12:00 3,4 C 3,9 C 88 % 995,0 hPa 0,0 l/m 16,1 km/h (3 Bft) W-SW 247 0 min 0,076 mm 0,0 UV-I 105 W/m 1,6 C -3,4 C 20,9 km/h (4 Bft) 95,65 %
28.12.2017 12:01 3,4 C 3,9 C 87 % 995,0 hPa 0,0 l/m 17,7 km/h (3 Bft) W-SW 247 0 min 0,000 mm 0,0 UV-I 97 W/m 1,4 C -4,2 C 22,5 km/h (4 Bft) 100,00 %
28.12.2017 12:02 3,4 C 3,9 C 87 % 994,9 hPa 0,0 l/m 14,5 km/h (3 Bft) W-SW 247 0 min 0,000 mm 0,0 UV-I 90 W/m 1,4 C -2,6 C 19,3 km/h (3 Bft) 95,65 %
28.12.2017 12:03 3,4 C 3,9 C 87 % 994,9 hPa 0,0 l/m 9,7 km/h (2 Bft) W-SW 247 0 min 0,000 mm 0,0 UV-I 91 W/m 1,4 C 0,5 C 16,1 km/h (3 Bft) 95,65 %
28.12.2017 12:04 3,4 C 3,9 C 88 % 994,9 hPa 0,0 l/m 16,1 km/h (3 Bft) W-SW 247 0 min 0,000 mm 0,0 UV-I 97 W/m 1,6 C -3,4 C 24,1 km/h (4 Bft) 95,65 %
28.12.2017 12:05 3,3 C 3,9 C 87 % 994,9 hPa 0,0 l/m 19,3 km/h (3 Bft) W-SW 247 0 min 0,000 mm 0,0 UV-I 95 W/m 1,3 C -5,1 C 25,7 km/h (4 Bft) 100,00 %
28.12.2017 12:06 3,3 C 3,9 C 87 % 994,9 hPa 0,0 l/m 14,5 km/h (3 Bft) W-SW 247 0 min 0,000 mm 0,0 UV-I 95 W/m 1,3 C -2,7 C 17,7 km/h (3 Bft) 95,65 %
28.12.2017 12:07 3,3 C 3,9 C 87 % 995,0 hPa 0,0 l/m 12,9 km/h (3 Bft) W-SW 247 0 min 0,000 mm 0,0 UV-I 95 W/m 1,3 C -1,8 C 17,7 km/h (3 Bft) 91,30 %
28.12.2017 12:08 3,4 C 3,9 C 87 % 995,0 hPa 0,0 l/m 14,5 km/h (3 Bft) W-SW 247 0 min 0,000 mm 0,0 UV-I 86 W/m 1,4 C -2,6 C 20,9 km/h (4 Bft) 100,00 %
28.12.2017 12:09 3,3 C 3,9 C 87 % 995,0 hPa 0,0 l/m 9,7 km/h (2 Bft) W-SW 247 0 min 0,000 mm 0,0 UV-I 81 W/m 1,3 C 0,4 C 12,9 km/h (3 Bft) 95,65 %
28.12.2017 12:10 3,3 C 3,9 C 87 % 995,0 hPa 0,0 l/m 11,3 km/h (2 Bft) W-SW 247 0 min 0,000 mm 0,0 UV-I 81 W/m 1,3 C -0,7 C 14,5 km/h (3 Bft) 95,65 %
28.12.2017 12:11 3,3 C 3,9 C 88 % 995,0 hPa 0,0 l/m 12,9 km/h (3 Bft) W 270 0 min 0,000 mm 0,0 UV-I 88 W/m 1,5 C -1,8 C 22,5 km/h (4 Bft) 95,65 %
28.12.2017 12:12 3,3 C 3,9 C 88 % 995,0 hPa 0,0 l/m 17,7 km/h (3 Bft) W 270 0 min 0,000 mm 0,0 UV-I 86 W/m 1,5 C -4,3 C 22,5 km/h (4 Bft) 100,00 %
28.12.2017 12:13 3,3 C 3,9 C 87 % 995,0 hPa 0,0 l/m 11,3 km/h (2 Bft) W 270 0 min 0,000 mm 0,0 UV-I 84 W/m 1,3 C -0,7 C 16,1 km/h (3 Bft) 95,65 %
28.12.2017 12:14 3,3 C 3,9 C 88 % 995,0 hPa 0,0 l/m 12,9 km/h (3 Bft) W-SW 247 0 min 0,000 mm 0,0 UV-I 78 W/m 1,5 C -1,8 C 16,1 km/h (3 Bft) 95,65 %
28.12.2017 12:15 3,3 C 3,9 C 88 % 995,0 hPa 0,0 l/m 9,7 km/h (2 Bft) W-SW 247 0 min 0,000 mm 0,0 UV-I 72 W/m 1,5 C 0,4 C 14,5 km/h (3 Bft) 95,65 %
28.12.2017 12:16 3,3 C 3,9 C 88 % 995,0 hPa 0,0 l/m 14,5 km/h (3 Bft) W-SW 247 0 min 0,000 mm 0,0 UV-I 65 W/m 1,5 C -2,7 C 20,9 km/h (4 Bft) 100,00 %
28.12.2017 12:17 3,3 C 3,9 C 88 % 995,0 hPa 0,0 l/m 16,1 km/h (3 Bft) W 270 0 min 0,000 mm 0,0 UV-I 56 W/m 1,5 C -3,6 C 22,5 km/h (4 Bft) 86,96 %
28.12.2017 12:18 3,3 C 3,9 C 88 % 995,0 hPa 0,0 l/m 12,9 km/h (3 Bft) W-SW 247 0 min 0,000 mm 0,0 UV-I 49 W/m 1,5 C -1,8 C 19,3 km/h (3 Bft) 100,00 %
28.12.2017 12:19 3,2 C 3,9 C 87 % 995,1 hPa 0,0 l/m 14,5 km/h (3 Bft) W-SW 247 0 min 0,000 mm 0,0 UV-I 46 W/m 1,2 C -2,8 C 19,3 km/h (3 Bft) 100,00 %
28.12.2017 12:20 3,3 C 3,9 C 87 % 995,1 hPa 0,0 l/m 12,9 km/h (3 Bft) W 270 0 min 0,000 mm 0,0 UV-I 44 W/m 1,3 C -1,8 C 17,7 km/h (3 Bft) 100,00 %
28.12.2017 12:21 3,2 C 3,9 C 87 % 995,1 hPa 0,0 l/m 11,3 km/h (2 Bft) W-SW 247 0 min 0,000 mm 0,0 UV-I 39 W/m 1,2 C -0,8 C 14,5 km/h (3 Bft) 100,00 %
28.12.2017 12:22 3,2 C 3,9 C 88 % 995,1 hPa 0,0 l/m 11,3 km/h (2 Bft) W-SW 247 0 min 0,000 mm 0,0 UV-I 33 W/m 1,4 C -0,8 C 24,1 km/h (4 Bft) 95,65 %
28.12.2017 12:23 3,2 C 3,9 C 87 % 995,1 hPa 0,0 l/m 16,1 km/h (3 Bft) W-SW 247 0 min 0,000 mm 0,0 UV-I 28 W/m 1,2 C -3,7 C 24,1 km/h (4 Bft) 100,00 %
28.12.2017 12:24 3,2 C 3,9 C 87 % 995,1 hPa 0,0 l/m 14,5 km/h (3 Bft) SW 225 0 min 0,000 mm 0,0 UV-I 26 W/m 1,2 C -2,8 C 17,7 km/h (3 Bft) 91,30 %
28.12.2017 12:25 3,2 C 3,9 C 87 % 995,1 hPa 0,0 l/m 11,3 km/h (2 Bft) W-SW 247 0 min 0,000 mm 0,0 UV-I 25 W/m 1,2 C -0,8 C 14,5 km/h (3 Bft) 95,65 %
28.12.2017 12:26 3,2 C 3,9 C 87 % 995,2 hPa 0,0 l/m 9,7 km/h (2 Bft) W-SW 247 0 min 0,000 mm 0,0 UV-I 26 W/m 1,2 C 0,3 C 14,5 km/h (3 Bft) 100,00 %
28.12.2017 12:27 3,1 C 3,9 C 87 % 995,1 hPa 0,0 l/m 16,1 km/h (3 Bft) SW 225 0 min 0,000 mm 0,0 UV-I 25 W/m 1,2 C -3,8 C 20,9 km/h (4 Bft) 100,00 %
28.12.2017 12:28 3,1 C 3,9 C 87 % 995,2 hPa 0,0 l/m 22,5 km/h (4 Bft) W-SW 247 0 min 0,000 mm 0,0 UV-I 25 W/m 1,2 C -6,6 C 27,4 km/h (4 Bft) 100,00 %
28.12.2017 12:29 3,1 C 3,9 C 87 % 995,2 hPa 0,0 l/m 14,5 km/h (3 Bft) W-SW 247 0 min 0,000 mm 0,0 UV-I 26 W/m 1,2 C -2,9 C 20,9 km/h (4 Bft) 100,00 %
28.12.2017 12:30 3,1 C 3,9 C 87 % 995,2 hPa 0,0 l/m 14,5 km/h (3 Bft) W-SW 247 0 min 0,000 mm 0,0 UV-I 26 W/m 1,2 C -2,9 C 20,9 km/h (4 Bft) 95,65 %
28.12.2017 12:31 3,1 C 3,9 C 87 % 995,2 hPa 0,0 l/m 16,1 km/h (3 Bft) W-SW 247 0 min 0,000 mm 0,0 UV-I 28 W/m 1,2 C -3,8 C 19,3 km/h (3 Bft) 95,65 %
28.12.2017 12:32 3,1 C 3,9 C 87 % 995,3 hPa 0,0 l/m 16,1 km/h (3 Bft) SW 225 0 min 0,000 mm 0,0 UV-I 29 W/m 1,2 C -3,8 C 24,1 km/h (4 Bft) 95,65 %
28.12.2017 12:33 3,1 C 3,9 C 87 % 995,3 hPa 0,0 l/m 16,1 km/h (3 Bft) SW 225 0 min 0,000 mm 0,0 UV-I 30 W/m 1,2 C -3,8 C 20,9 km/h (4 Bft) 95,65 %
28.12.2017 12:34 3,1 C 3,9 C 87 % 995,3 hPa 0,0 l/m 11,3 km/h (2 Bft) W-SW 247 0 min 0,000 mm 0,0 UV-I 32 W/m 1,2 C -1,0 C 14,5 km/h (3 Bft) 100,00 %
28.12.2017 12:35 3,1 C 3,9 C 87 % 995,3 hPa 0,0 l/m 14,5 km/h (3 Bft) W-SW 247 0 min 0,000 mm 0,0 UV-I 35 W/m 1,2 C -2,9 C 19,3 km/h (3 Bft) 95,65 %
28.12.2017 12:36 3,1 C 3,9 C 87 % 995,3 hPa 0,0 l/m 11,3 km/h (2 Bft) W-SW 247 0 min 0,000 mm 0,0 UV-I 33 W/m 1,2 C -1,0 C 16,1 km/h (3 Bft) 95,65 %
28.12.2017 12:37 3,1 C 3,9 C 87 % 995,3 hPa 0,0 l/m 16,1 km/h (3 Bft) W-SW 247 0 min 0,000 mm 0,0 UV-I 33 W/m 1,2 C -3,8 C 20,9 km/h (4 Bft) 95,65 %
28.12.2017 12:38 3,1 C 3,9 C 87 % 995,3 hPa 0,0 l/m 14,5 km/h (3 Bft) SW 225 0 min 0,000 mm 0,0 UV-I 33 W/m 1,2 C -2,9 C 22,5 km/h (4 Bft) 91,30 %
28.12.2017 12:39 3,1 C 3,9 C 87 % 995,3 hPa 0,0 l/m 12,9 km/h (3 Bft) W-SW 247 0 min 0,000 mm 0,0 UV-I 33 W/m 1,2 C -2,0 C 19,3 km/h (3 Bft) 95,65 %
28.12.2017 12:40 3,1 C 3,9 C 87 % 995,3 hPa 0,0 l/m 14,5 km/h (3 Bft) W-SW 247 0 min 0,000 mm 0,0 UV-I 32 W/m 1,2 C -2,9 C 19,3 km/h (3 Bft) 100,00 %
28.12.2017 12:41 3,0 C 3,9 C 88 % 995,3 hPa 0,0 l/m 12,9 km/h (3 Bft) W-SW 247 0 min 0,000 mm 0,0 UV-I 30 W/m 1,2 C -2,1 C 19,3 km/h (3 Bft) 95,65 %
28.12.2017 12:42 3,0 C 3,9 C 88 % 995,3 hPa 0,0 l/m 12,9 km/h (3 Bft) SW 225 0 min 0,000 mm 0,0 UV-I 30 W/m 1,2 C -2,1 C 16,1 km/h (3 Bft) 91,30 %
28.12.2017 12:43 3,0 C 3,9 C 88 % 995,3 hPa 0,0 l/m 12,9 km/h (3 Bft) W 270 0 min 0,000 mm 0,0 UV-I 33 W/m 1,2 C -2,1 C 20,9 km/h (4 Bft) 100,00 %
28.12.2017 12:44 2,9 C 3,9 C 88 % 995,4 hPa 0,0 l/m 12,9 km/h (3 Bft) W-SW 247 0 min 0,000 mm 0,0 UV-I 35 W/m 1,1 C -2,2 C 19,3 km/h (3 Bft) 91,30 %
28.12.2017 12:45 2,9 C 3,9 C 88 % 995,3 hPa 0,0 l/m 14,5 km/h (3 Bft) W-SW 247 0 min 0,000 mm 0,0 UV-I 33 W/m 1,1 C -3,2 C 19,3 km/h (3 Bft) 95,65 %
28.12.2017 12:46 2,9 C 3,9 C 88 % 995,4 hPa 0,0 l/m 12,9 km/h (3 Bft) SW 225 0 min 0,000 mm 0,0 UV-I 33 W/m 1,1 C -2,2 C 17,7 km/h (3 Bft) 95,65 %
28.12.2017 12:47 2,9 C 3,9 C 88 % 995,4 hPa 0,0 l/m 17,7 km/h (3 Bft) W-SW 247 0 min 0,000 mm 0,0 UV-I 33 W/m 1,1 C -4,8 C 24,1 km/h (4 Bft) 100,00 %
28.12.2017 12:48 2,9 C 3,9 C 88 % 995,4 hPa 0,0 l/m 16,1 km/h (3 Bft) W-SW 247 0 min 0,000 mm 0,0 UV-I 35 W/m 1,1 C -4,1 C 20,9 km/h (4 Bft) 95,65 %
28.12.2017 12:49 2,9 C 3,9 C 88 % 995,4 hPa 0,0 l/m 12,9 km/h (3 Bft) SW 225 0 min 0,000 mm 0,0 UV-I 37 W/m 1,1 C -2,2 C 22,5 km/h (4 Bft) 100,00 %
28.12.2017 12:50 2,9 C 3,9 C 88 % 995,6 hPa 0,0 l/m 16,1 km/h (3 Bft) SW 225 0 min 0,000 mm 0,0 UV-I 37 W/m 1,1 C -4,1 C 25,7 km/h (4 Bft) 95,65 %
28.12.2017 12:51 2,9 C 3,9 C 88 % 995,5 hPa 0,0 l/m 14,5 km/h (3 Bft) W-SW 247 0 min 0,000 mm 0,0 UV-I 39 W/m 1,1 C -3,2 C 24,1 km/h (4 Bft) 95,65 %
28.12.2017 12:52 2,9 C 3,9 C 88 % 995,5 hPa 0,0 l/m 14,5 km/h (3 Bft) W-SW 247 0 min 0,000 mm 0,0 UV-I 39 W/m 1,1 C -3,2 C 19,3 km/h (3 Bft) 91,30 %
28.12.2017 12:53 2,9 C 3,9 C 88 % 995,5 hPa 0,0 l/m 14,5 km/h (3 Bft) SW 225 0 min 0,000 mm 0,0 UV-I 39 W/m 1,1 C -3,2 C 19,3 km/h (3 Bft) 95,65 %
28.12.2017 12:54 2,9 C 3,9 C 88 % 995,5 hPa 0,0 l/m 14,5 km/h (3 Bft) SW 225 0 min 0,000 mm 0,0 UV-I 37 W/m 1,1 C -3,2 C 17,7 km/h (3 Bft) 100,00 %
28.12.2017 12:55 2,9 C 3,9 C 88 % 995,5 hPa 0,0 l/m 14,5 km/h (3 Bft) W-SW 247 0 min 0,000 mm 0,0 UV-I 39 W/m 1,1 C -3,2 C 19,3 km/h (3 Bft) 95,65 %
28.12.2017 12:56 2,8 C 3,9 C 88 % 995,4 hPa 0,0 l/m 12,9 km/h (3 Bft) W-SW 247 0 min 0,000 mm 0,0 UV-I 44 W/m 1,0 C -2,4 C 25,7 km/h (4 Bft) 95,65 %
28.12.2017 12:57 2,9 C 3,9 C 88 % 995,4 hPa 0,0 l/m 14,5 km/h (3 Bft) SW 225 0 min 0,000 mm 0,0 UV-I 46 W/m 1,1 C -3,2 C 19,3 km/h (3 Bft) 95,65 %
28.12.2017 12:58 2,8 C 3,9 C 88 % 995,4 hPa 0,0 l/m 16,1 km/h (3 Bft) SW 225 0 min 0,000 mm 0,0 UV-I 46 W/m 1,0 C -4,2 C 20,9 km/h (4 Bft) 100,00 %
28.12.2017 12:59 2,8 C 3,9 C 88 % 995,4 hPa 0,0 l/m 19,3 km/h (3 Bft) SW 225 0 min 0,000 mm 0,0 UV-I 47 W/m 1,0 C -5,7 C 27,4 km/h (4 Bft) 86,96 %
28.12.2017 13:00 2,8 C 3,9 C 88 % 995,5 hPa 0,0 l/m 14,5 km/h (3 Bft) SW 225 0 min 0,025 mm 0,0 UV-I 51 W/m 1,0 C -3,3 C 17,7 km/h (3 Bft) 91,30 %
28.12.2017 13:01 2,8 C 3,9 C 89 % 995,4 hPa 0,0 l/m 16,1 km/h (3 Bft) SW 225 0 min 0,000 mm 0,0 UV-I 52 W/m 1,2 C -4,2 C 20,9 km/h (4 Bft) 95,65 %
28.12.2017 13:02 2,8 C 3,9 C 89 % 995,4 hPa 0,0 l/m 11,3 km/h (2 Bft) W-SW 247 0 min 0,000 mm 0,0 UV-I 49 W/m 1,2 C -1,3 C 19,3 km/h (3 Bft) 95,65 %
28.12.2017 13:03 2,8 C 3,9 C 89 % 995,5 hPa 0,0 l/m 14,5 km/h (3 Bft) SW 225 0 min 0,000 mm 0,0 UV-I 51 W/m 1,2 C -3,3 C 22,5 km/h (4 Bft) 95,65 %
28.12.2017 13:04 2,8 C 3,9 C 89 % 995,5 hPa 0,0 l/m 17,7 km/h (3 Bft) SW 225 0 min 0,000 mm 0,0 UV-I 51 W/m 1,2 C -5,0 C 24,1 km/h (4 Bft) 95,65 %
28.12.2017 13:05 2,8 C 3,9 C 89 % 995,5 hPa 0,0 l/m 12,9 km/h (3 Bft) SW 225 0 min 0,000 mm 0,0 UV-I 51 W/m 1,2 C -2,4 C 17,7 km/h (3 Bft) 100,00 %
28.12.2017 13:06 2,8 C 3,9 C 89 % 995,5 hPa 0,0 l/m 12,9 km/h (3 Bft) SW 225 0 min 0,000 mm 0,0 UV-I 56 W/m 1,2 C -2,4 C 17,7 km/h (3 Bft) 91,30 %
28.12.2017 13:07 2,8 C 3,9 C 89 % 995,5 hPa 0,0 l/m 14,5 km/h (3 Bft) SW 225 0 min 0,000 mm 0,0 UV-I 57 W/m 1,2 C -3,3 C 22,5 km/h (4 Bft) 100,00 %
28.12.2017 13:08 2,8 C 3,9 C 89 % 995,5 hPa 0,0 l/m 17,7 km/h (3 Bft) SW 225 0 min 0,000 mm 0,0 UV-I 54 W/m 1,2 C -5,0 C 25,7 km/h (4 Bft) 95,65 %
28.12.2017 13:09 2,8 C 3,9 C 89 % 995,5 hPa 0,0 l/m 14,5 km/h (3 Bft) W-SW 247 0 min 0,000 mm 0,0 UV-I 54 W/m 1,2 C -3,3 C 17,7 km/h (3 Bft) 100,00 %
28.12.2017 13:10 2,8 C 3,9 C 89 % 995,5 hPa 0,0 l/m 16,1 km/h (3 Bft) W-SW 247 0 min 0,000 mm 0,0 UV-I 56 W/m 1,2 C -4,2 C 27,4 km/h (4 Bft) 95,65 %
28.12.2017 13:11 2,8 C 3,9 C 89 % 995,5 hPa 0,0 l/m 19,3 km/h (3 Bft) SW 225 0 min 0,000 mm 0,0 UV-I 58 W/m 1,2 C -5,7 C 30,6 km/h (5 Bft) 100,00 %
28.12.2017 13:12 2,8 C 3,9 C 89 % 995,5 hPa 0,0 l/m 16,1 km/h (3 Bft) W-SW 247 0 min 0,000 mm 0,0 UV-I 58 W/m 1,2 C -4,2 C 20,9 km/h (4 Bft) 100,00 %
28.12.2017 13:13 2,8 C 3,9 C 89 % 995,6 hPa 0,0 l/m 14,5 km/h (3 Bft) SW 225 0 min 0,000 mm 0,0 UV-I 55 W/m 1,2 C -3,3 C 20,9 km/h (4 Bft) 95,65 %
28.12.2017 13:14 2,8 C 3,9 C 89 % 995,6 hPa 0,0 l/m 16,1 km/h (3 Bft) SW 225 0 min 0,000 mm 0,0 UV-I 51 W/m 1,2 C -4,2 C 24,1 km/h (4 Bft) 100,00 %
28.12.2017 13:15 2,8 C 3,9 C 89 % 995,6 hPa 0,0 l/m 17,7 km/h (3 Bft) W-SW 247 0 min 0,000 mm 0,0 UV-I 49 W/m 1,2 C -5,0 C 24,1 km/h (4 Bft) 100,00 %
28.12.2017 13:16 2,8 C 3,9 C 89 % 995,6 hPa 0,0 l/m 11,3 km/h (2 Bft) W-SW 247 0 min 0,000 mm 0,0 UV-I 47 W/m 1,2 C -1,3 C 17,7 km/h (3 Bft) 100,00 %
28.12.2017 13:17 2,8 C 3,9 C 89 % 995,6 hPa 0,0 l/m 17,7 km/h (3 Bft) W-SW 247 0 min 0,000 mm 0,0 UV-I 46 W/m 1,2 C -5,0 C 24,1 km/h (4 Bft) 91,30 %
28.12.2017 13:18 2,7 C 3,9 C 89 % 995,6 hPa 0,0 l/m 16,1 km/h (3 Bft) W 270 0 min 0,000 mm 0,0 UV-I 47 W/m 1,1 C -4,3 C 25,7 km/h (4 Bft) 100,00 %
28.12.2017 13:19 2,7 C 3,9 C 89 % 995,6 hPa 0,0 l/m 17,7 km/h (3 Bft) W-SW 247 0 min 0,000 mm 0,0 UV-I 49 W/m 1,1 C -5,1 C 32,2 km/h (5 Bft) 95,65 %
28.12.2017 13:20 2,7 C 3,9 C 89 % 995,6 hPa 0,0 l/m 19,3 km/h (3 Bft) W-SW 247 0 min 0,000 mm 0,0 UV-I 49 W/m 1,1 C -5,8 C 29,0 km/h (5 Bft) 95,65 %
28.12.2017 13:21 2,7 C 3,9 C 89 % 995,6 hPa 0,0 l/m 17,7 km/h (3 Bft) W-SW 247 0 min 0,000 mm 0,0 UV-I 49 W/m 1,1 C -5,1 C 24,1 km/h (4 Bft) 95,65 %
28.12.2017 13:22 2,7 C 3,9 C 89 % 995,6 hPa 0,0 l/m 14,5 km/h (3 Bft) SW 225 0 min 0,000 mm 0,0 UV-I 51 W/m 1,1 C -3,4 C 19,3 km/h (3 Bft) 100,00 %
28.12.2017 13:23 2,7 C 3,9 C 89 % 995,6 hPa 0,0 l/m 12,9 km/h (3 Bft) W-SW 247 0 min 0,000 mm 0,0 UV-I 53 W/m 1,1 C -2,5 C 17,7 km/h (3 Bft) 95,65 %
28.12.2017 13:24 2,7 C 3,9 C 89 % 995,6 hPa 0,0 l/m 16,1 km/h (3 Bft) W-SW 247 0 min 0,000 mm 0,0 UV-I 54 W/m 1,1 C -4,3 C 22,5 km/h (4 Bft) 100,00 %
28.12.2017 13:25 2,7 C 3,9 C 89 % 995,6 hPa 0,0 l/m 12,9 km/h (3 Bft) SW 225 0 min 0,000 mm 0,0 UV-I 56 W/m 1,1 C -2,5 C 20,9 km/h (4 Bft) 95,65 %
28.12.2017 13:26 2,7 C 3,9 C 89 % 995,6 hPa 0,0 l/m 14,5 km/h (3 Bft) SW 225 0 min 0,000 mm 0,0 UV-I 56 W/m 1,1 C -3,4 C 20,9 km/h (4 Bft) 100,00 %
28.12.2017 13:27 2,7 C 3,9 C 89 % 995,6 hPa 0,0 l/m 16,1 km/h (3 Bft) W-SW 247 0 min 0,000 mm 0,0 UV-I 58 W/m 1,1 C -4,3 C 19,3 km/h (3 Bft) 91,30 %
28.12.2017 13:28 2,7 C 3,9 C 89 % 995,6 hPa 0,0 l/m 16,1 km/h (3 Bft) W 270 0 min 0,000 mm 0,0 UV-I 56 W/m 1,1 C -4,3 C 22,5 km/h (4 Bft) 95,65 %
28.12.2017 13:29 2,7 C 3,9 C 89 % 995,6 hPa 0,0 l/m 17,7 km/h (3 Bft) W-SW 247 0 min 0,000 mm 0,0 UV-I 56 W/m 1,1 C -5,1 C 24,1 km/h (4 Bft) 100,00 %
28.12.2017 13:30 2,7 C 3,9 C 89 % 995,6 hPa 0,0 l/m 11,3 km/h (2 Bft) W-SW 247 0 min 0,000 mm 0,0 UV-I 54 W/m 1,1 C -1,4 C 14,5 km/h (3 Bft) 91,30 %
28.12.2017 13:31 2,7 C 3,9 C 90 % 995,6 hPa 0,0 l/m 19,3 km/h (3 Bft) W-SW 247 0 min 0,000 mm 0,0 UV-I 53 W/m 1,2 C -5,8 C 22,5 km/h (4 Bft) 100,00 %
28.12.2017 13:32 2,7 C 3,9 C 89 % 995,6 hPa 0,0 l/m 14,5 km/h (3 Bft) W-SW 247 0 min 0,000 mm 0,0 UV-I 51 W/m 1,1 C -3,4 C 17,7 km/h (3 Bft) 95,65 %
28.12.2017 13:33 2,7 C 3,9 C 90 % 995,6 hPa 0,0 l/m 16,1 km/h (3 Bft) W-SW 247 0 min 0,000 mm 0,0 UV-I 49 W/m 1,2 C -4,3 C 19,3 km/h (3 Bft) 100,00 %
28.12.2017 13:34 2,7 C 3,9 C 89 % 995,7 hPa 0,0 l/m 16,1 km/h (3 Bft) W-SW 247 0 min 0,000 mm 0,0 UV-I 51 W/m 1,1 C -4,3 C 19,3 km/h (3 Bft) 91,30 %
28.12.2017 13:35 2,7 C 3,9 C 89 % 995,7 hPa 0,0 l/m 14,5 km/h (3 Bft) W-SW 247 0 min 0,000 mm 0,0 UV-I 53 W/m 1,1 C -3,4 C 22,5 km/h (4 Bft) 95,65 %
28.12.2017 13:36 2,7 C 3,9 C 90 % 995,6 hPa 0,0 l/m 12,9 km/h (3 Bft) W-SW 247 0 min 0,000 mm 0,0 UV-I 55 W/m 1,2 C -2,5 C 17,7 km/h (3 Bft) 95,65 %
28.12.2017 13:37 2,7 C 3,9 C 90 % 995,7 hPa 0,0 l/m 17,7 km/h (3 Bft) W-SW 247 0 min 0,000 mm 0,0 UV-I 56 W/m 1,2 C -5,1 C 22,5 km/h (4 Bft) 95,65 %
28.12.2017 13:38 2,7 C 3,9 C 90 % 995,6 hPa 0,0 l/m 12,9 km/h (3 Bft) W-SW 247 0 min 0,000 mm 0,0 UV-I 56 W/m 1,2 C -2,5 C 19,3 km/h (3 Bft) 95,65 %
28.12.2017 13:39 2,7 C 3,9 C 90 % 995,6 hPa 0,0 l/m 11,3 km/h (2 Bft) W-SW 247 0 min 0,000 mm 0,0 UV-I 56 W/m 1,2 C -1,4 C 16,1 km/h (3 Bft) 95,65 %
28.12.2017 13:40 2,7 C 3,9 C 90 % 995,7 hPa 0,0 l/m 17,7 km/h (3 Bft) W-SW 247 0 min 0,000 mm 0,0 UV-I 54 W/m 1,2 C -5,1 C 20,9 km/h (4 Bft) 95,65 %
28.12.2017 13:41 2,7 C 3,9 C 90 % 995,7 hPa 0,0 l/m 16,1 km/h (3 Bft) SW 225 0 min 0,000 mm 0,0 UV-I 56 W/m 1,2 C -4,3 C 22,5 km/h (4 Bft) 91,30 %
28.12.2017 13:42 2,7 C 3,9 C 90 % 995,7 hPa 0,0 l/m 14,5 km/h (3 Bft) W-SW 247 0 min 0,000 mm 0,0 UV-I 56 W/m 1,2 C -3,4 C 22,5 km/h (4 Bft) 100,00 %
28.12.2017 13:43 2,7 C 3,9 C 90 % 995,7 hPa 0,0 l/m 19,3 km/h (3 Bft) SW 225 0 min 0,000 mm 0,0 UV-I 54 W/m 1,2 C -5,8 C 22,5 km/h (4 Bft) 100,00 %
28.12.2017 13:44 2,7 C 3,9 C 90 % 995,7 hPa 0,0 l/m 16,1 km/h (3 Bft) W-SW 247 0 min 0,000 mm 0,0 UV-I 53 W/m 1,2 C -4,3 C 20,9 km/h (4 Bft) 95,65 %
28.12.2017 13:45 2,7 C 3,9 C 90 % 995,7 hPa 0,0 l/m 12,9 km/h (3 Bft) W-SW 247 0 min 0,000 mm 0,0 UV-I 51 W/m 1,2 C -2,5 C 22,5 km/h (4 Bft) 95,65 %
28.12.2017 13:46 2,7 C 3,9 C 90 % 995,7 hPa 0,0 l/m 14,5 km/h (3 Bft) W-SW 247 0 min 0,000 mm 0,0 UV-I 49 W/m 1,2 C -3,4 C 19,3 km/h (3 Bft) 100,00 %
28.12.2017 13:47 2,7 C 3,9 C 90 % 995,7 hPa 0,0 l/m 12,9 km/h (3 Bft) W-SW 247 0 min 0,000 mm 0,0 UV-I 49 W/m 1,2 C -2,5 C 19,3 km/h (3 Bft) 100,00 %
28.12.2017 13:48 2,7 C 3,9 C 90 % 995,8 hPa 0,0 l/m 17,7 km/h (3 Bft) W-SW 247 0 min 0,000 mm 0,0 UV-I 51 W/m 1,2 C -5,1 C 25,7 km/h (4 Bft) 95,65 %
28.12.2017 13:49 2,7 C 3,9 C 90 % 995,8 hPa 0,0 l/m 19,3 km/h (3 Bft) W-SW 247 0 min 0,000 mm 0,0 UV-I 53 W/m 1,2 C -5,8 C 27,4 km/h (4 Bft) 100,00 %
28.12.2017 13:50 2,7 C 3,9 C 89 % 995,7 hPa 0,0 l/m 17,7 km/h (3 Bft) W-SW 247 0 min 0,000 mm 0,0 UV-I 53 W/m 1,1 C -5,1 C 27,4 km/h (4 Bft) 100,00 %
28.12.2017 13:51 2,7 C 3,9 C 90 % 995,8 hPa 0,0 l/m 20,9 km/h (4 Bft) W-SW 247 0 min 0,000 mm 0,0 UV-I 54 W/m 1,2 C -6,5 C 30,6 km/h (5 Bft) 100,00 %
28.12.2017 13:52 2,7 C 3,9 C 90 % 995,8 hPa 0,0 l/m 17,7 km/h (3 Bft) W-SW 247 0 min 0,000 mm 0,0 UV-I 56 W/m 1,2 C -5,1 C 25,7 km/h (4 Bft) 100,00 %
28.12.2017 13:53 2,7 C 3,9 C 90 % 995,8 hPa 0,0 l/m 19,3 km/h (3 Bft) W-SW 247 0 min 0,000 mm 0,0 UV-I 58 W/m 1,2 C -5,8 C 29,0 km/h (5 Bft) 100,00 %
28.12.2017 13:54 2,6 C 3,9 C 90 % 995,7 hPa 0,0 l/m 14,5 km/h (3 Bft) W-SW 247 0 min 0,000 mm 0,0 UV-I 58 W/m 1,1 C -3,5 C 24,1 km/h (4 Bft) 100,00 %
28.12.2017 13:55 2,6 C 3,9 C 90 % 995,7 hPa 0,0 l/m 19,3 km/h (3 Bft) W 270 0 min 0,000 mm 0,0 UV-I 60 W/m 1,1 C -6,0 C 25,7 km/h (4 Bft) 95,65 %
28.12.2017 13:56 2,6 C 3,9 C 90 % 995,8 hPa 0,0 l/m 12,9 km/h (3 Bft) W-SW 247 0 min 0,000 mm 0,0 UV-I 62 W/m 1,1 C -2,6 C 17,7 km/h (3 Bft) 100,00 %
28.12.2017 13:57 2,6 C 3,9 C 90 % 995,8 hPa 0,0 l/m 16,1 km/h (3 Bft) SW 225 0 min 0,000 mm 0,0 UV-I 62 W/m 1,1 C -4,4 C 25,7 km/h (4 Bft) 100,00 %
28.12.2017 13:58 2,6 C 3,9 C 90 % 995,8 hPa 0,0 l/m 22,5 km/h (4 Bft) SW 225 0 min 0,000 mm 0,0 UV-I 62 W/m 1,1 C -7,3 C 32,2 km/h (5 Bft) 100,00 %
28.12.2017 13:59 2,6 C 3,9 C 90 % 995,8 hPa 0,0 l/m 14,5 km/h (3 Bft) W-SW 247 0 min 0,000 mm 0,0 UV-I 62 W/m 1,1 C -3,5 C 20,9 km/h (4 Bft) 100,00 %
28.12.2017 14:00 2,6 C 3,9 C 90 % 995,8 hPa 0,0 l/m 14,5 km/h (3 Bft) W-SW 247 0 min 0,025 mm 0,0 UV-I 63 W/m 1,1 C -3,5 C 19,3 km/h (3 Bft) 100,00 %
28.12.2017 14:01 2,6 C 3,9 C 90 % 995,8 hPa 0,0 l/m 12,9 km/h (3 Bft) W-SW 247 0 min 0,000 mm 0,0 UV-I 63 W/m 1,1 C -2,6 C 17,7 km/h (3 Bft) 95,65 %
28.12.2017 14:02 2,6 C 3,9 C 90 % 995,8 hPa 0,0 l/m 14,5 km/h (3 Bft) SW 225 0 min 0,000 mm 0,0 UV-I 63 W/m 1,1 C -3,5 C 17,7 km/h (3 Bft) 86,96 %
28.12.2017 14:03 2,6 C 3,9 C 90 % 995,8 hPa 0,0 l/m 19,3 km/h (3 Bft) W-SW 247 0 min 0,000 mm 0,0 UV-I 63 W/m 1,1 C -6,0 C 27,4 km/h (4 Bft) 100,00 %
28.12.2017 14:04 2,6 C 3,9 C 90 % 995,8 hPa 0,0 l/m 20,9 km/h (4 Bft) W-SW 247 0 min 0,000 mm 0,0 UV-I 63 W/m 1,1 C -6,7 C 29,0 km/h (5 Bft) 100,00 %
28.12.2017 14:05 2,6 C 3,9 C 90 % 995,8 hPa 0,0 l/m 17,7 km/h (3 Bft) W-SW 247 0 min 0,000 mm 0,0 UV-I 63 W/m 1,1 C -5,2 C 27,4 km/h (4 Bft) 95,65 %
28.12.2017 14:06 2,6 C 3,9 C 90 % 995,8 hPa 0,0 l/m 19,3 km/h (3 Bft) W 270 0 min 0,000 mm 0,0 UV-I 62 W/m 1,1 C -6,0 C 27,4 km/h (4 Bft) 100,00 %
28.12.2017 14:07 2,6 C 3,9 C 90 % 995,8 hPa 0,0 l/m 16,1 km/h (3 Bft) W-SW 247 0 min 0,000 mm 0,0 UV-I 63 W/m 1,1 C -4,4 C 19,3 km/h (3 Bft) 100,00 %
28.12.2017 14:08 2,6 C 3,9 C 90 % 995,8 hPa 0,0 l/m 16,1 km/h (3 Bft) W-SW 247 0 min 0,000 mm 0,0 UV-I 63 W/m 1,1 C -4,4 C 24,1 km/h (4 Bft) 100,00 %
28.12.2017 14:09 2,6 C 3,9 C 90 % 995,8 hPa 0,0 l/m 14,5 km/h (3 Bft) W-SW 247 0 min 0,000 mm 0,0 UV-I 62 W/m 1,1 C -3,5 C 19,3 km/h (3 Bft) 95,65 %
28.12.2017 14:10 2,6 C 3,9 C 90 % 995,8 hPa 0,0 l/m 19,3 km/h (3 Bft) W-SW 247 0 min 0,000 mm 0,0 UV-I 62 W/m 1,1 C -6,0 C 25,7 km/h (4 Bft) 100,00 %
28.12.2017 14:11 2,6 C 3,9 C 90 % 995,8 hPa 0,0 l/m 16,1 km/h (3 Bft) SW 225 0 min 0,000 mm 0,0 UV-I 60 W/m 1,1 C -4,4 C 20,9 km/h (4 Bft) 100,00 %
28.12.2017 14:12 2,6 C 3,9 C 90 % 995,8 hPa 0,0 l/m 16,1 km/h (3 Bft) W-SW 247 0 min 0,000 mm 0,0 UV-I 60 W/m 1,1 C -4,4 C 17,7 km/h (3 Bft) 100,00 %
28.12.2017 14:13 2,6 C 3,9 C 90 % 995,9 hPa 0,0 l/m 11,3 km/h (2 Bft) SW 225 0 min 0,000 mm 0,0 UV-I 58 W/m 1,1 C -1,5 C 19,3 km/h (3 Bft) 95,65 %
28.12.2017 14:14 2,6 C 3,9 C 91 % 995,9 hPa 0,0 l/m 14,5 km/h (3 Bft) SW 225 0 min 0,000 mm 0,0 UV-I 56 W/m 1,3 C -3,5 C 24,1 km/h (4 Bft) 100,00 %
28.12.2017 14:15 2,6 C 3,9 C 91 % 995,9 hPa 0,0 l/m 14,5 km/h (3 Bft) SW 225 0 min 0,000 mm 0,0 UV-I 56 W/m 1,3 C -3,5 C 20,9 km/h (4 Bft) 100,00 %
28.12.2017 14:16 2,6 C 3,9 C 91 % 995,9 hPa 0,0 l/m 11,3 km/h (2 Bft) W-SW 247 0 min 0,000 mm 0,0 UV-I 54 W/m 1,3 C -1,5 C 14,5 km/h (3 Bft) 95,65 %
28.12.2017 14:17 2,6 C 3,9 C 91 % 995,9 hPa 0,0 l/m 12,9 km/h (3 Bft) SW 225 0 min 0,000 mm 0,0 UV-I 55 W/m 1,3 C -2,6 C 20,9 km/h (4 Bft) 95,65 %
28.12.2017 14:18 2,6 C 3,9 C 91 % 995,9 hPa 0,0 l/m 9,7 km/h (2 Bft) W-SW 247 0 min 0,000 mm 0,0 UV-I 56 W/m 1,3 C -0,3 C 14,5 km/h (3 Bft) 91,30 %
28.12.2017 14:19 2,6 C 3,9 C 91 % 996,0 hPa 0,0 l/m 12,9 km/h (3 Bft) SW 225 0 min 0,000 mm 0,0 UV-I 53 W/m 1,3 C -2,6 C 19,3 km/h (3 Bft) 100,00 %
28.12.2017 14:20 2,6 C 3,9 C 91 % 995,9 hPa 0,0 l/m 16,1 km/h (3 Bft) W-SW 247 0 min 0,000 mm 0,0 UV-I 53 W/m 1,3 C -4,4 C 24,1 km/h (4 Bft) 100,00 %
28.12.2017 14:21 2,6 C 3,9 C 91 % 995,9 hPa 0,0 l/m 20,9 km/h (4 Bft) W-SW 247 0 min 0,000 mm 0,0 UV-I 49 W/m 1,3 C -6,7 C 27,4 km/h (4 Bft) 100,00 %
28.12.2017 14:22 2,6 C 3,9 C 91 % 995,9 hPa 0,0 l/m 20,9 km/h (4 Bft) W-SW 247 0 min 0,000 mm 0,0 UV-I 47 W/m 1,3 C -6,7 C 25,7 km/h (4 Bft) 95,65 %
28.12.2017 14:23 2,6 C 3,9 C 91 % 995,9 hPa 0,0 l/m 14,5 km/h (3 Bft) W-SW 247 0 min 0,000 mm 0,0 UV-I 42 W/m 1,3 C -3,5 C 17,7 km/h (3 Bft) 95,65 %
28.12.2017 14:24 2,6 C 3,9 C 91 % 995,9 hPa 0,0 l/m 14,5 km/h (3 Bft) W-SW 247 0 min 0,000 mm 0,0 UV-I 42 W/m 1,3 C -3,5 C 20,9 km/h (4 Bft) 95,65 %
28.12.2017 14:25 2,6 C 3,9 C 91 % 995,9 hPa 0,0 l/m 12,9 km/h (3 Bft) SW 225 0 min 0,000 mm 0,0 UV-I 42 W/m 1,3 C -2,6 C 19,3 km/h (3 Bft) 100,00 %
28.12.2017 14:26 2,6 C 3,9 C 91 % 996,0 hPa 0,0 l/m 11,3 km/h (2 Bft) W-SW 247 0 min 0,000 mm 0,0 UV-I 40 W/m 1,3 C -1,5 C 16,1 km/h (3 Bft) 100,00 %
28.12.2017 14:27 2,6 C 3,9 C 91 % 996,0 hPa 0,0 l/m 16,1 km/h (3 Bft) W-SW 247 0 min 0,000 mm 0,0 UV-I 39 W/m 1,3 C -4,4 C 20,9 km/h (4 Bft) 95,65 %
28.12.2017 14:28 2,5 C 3,9 C 91 % 995,9 hPa 0,0 l/m 17,7 km/h (3 Bft) W-SW 247 0 min 0,000 mm 0,0 UV-I 37 W/m 1,2 C -5,4 C 24,1 km/h (4 Bft) 100,00 %
28.12.2017 14:29 2,5 C 3,9 C 91 % 995,9 hPa 0,0 l/m 14,5 km/h (3 Bft) W-SW 247 0 min 0,000 mm 0,0 UV-I 38 W/m 1,2 C -3,7 C 19,3 km/h (3 Bft) 100,00 %
28.12.2017 14:30 2,5 C 3,9 C 91 % 996,0 hPa 0,0 l/m 14,5 km/h (3 Bft) W-SW 247 0 min 0,000 mm 0,0 UV-I 39 W/m 1,2 C -3,7 C 20,9 km/h (4 Bft) 95,65 %
28.12.2017 14:31 2,5 C 3,9 C 91 % 995,9 hPa 0,0 l/m 19,3 km/h (3 Bft) W-SW 247 0 min 0,000 mm 0,0 UV-I 39 W/m 1,2 C -6,1 C 24,1 km/h (4 Bft) 100,00 %
28.12.2017 14:32 2,5 C 3,9 C 91 % 996,0 hPa 0,0 l/m 17,7 km/h (3 Bft) W-SW 247 0 min 0,000 mm 0,0 UV-I 40 W/m 1,2 C -5,4 C 27,4 km/h (4 Bft) 100,00 %
28.12.2017 14:33 2,5 C 3,9 C 91 % 996,0 hPa 0,0 l/m 16,1 km/h (3 Bft) SW 225 0 min 0,000 mm 0,0 UV-I 40 W/m 1,2 C -4,5 C 22,5 km/h (4 Bft) 100,00 %
28.12.2017 14:34 2,5 C 3,9 C 91 % 996,0 hPa 0,0 l/m 16,1 km/h (3 Bft) W-SW 247 0 min 0,000 mm 0,0 UV-I 40 W/m 1,2 C -4,5 C 19,3 km/h (3 Bft) 91,30 %
28.12.2017 14:35 2,4 C 3,9 C 91 % 996,0 hPa 0,0 l/m 19,3 km/h (3 Bft) W-SW 247 0 min 0,000 mm 0,0 UV-I 37 W/m 1,1 C -6,2 C 25,7 km/h (4 Bft) 95,65 %
28.12.2017 14:36 2,5 C 3,9 C 91 % 996,0 hPa 0,0 l/m 14,5 km/h (3 Bft) W-SW 247 0 min 0,000 mm 0,0 UV-I 35 W/m 1,2 C -3,7 C 20,9 km/h (4 Bft) 100,00 %
28.12.2017 14:37 2,4 C 3,9 C 91 % 996,1 hPa 0,0 l/m 11,3 km/h (2 Bft) SW 225 0 min 0,000 mm 0,0 UV-I 35 W/m 1,1 C -1,8 C 16,1 km/h (3 Bft) 91,30 %
28.12.2017 14:38 2,4 C 3,9 C 91 % 996,1 hPa 0,0 l/m 14,5 km/h (3 Bft) SW 225 0 min 0,000 mm 0,0 UV-I 32 W/m 1,1 C -3,8 C 25,7 km/h (4 Bft) 100,00 %
28.12.2017 14:39 2,4 C 3,9 C 91 % 996,1 hPa 0,0 l/m 16,1 km/h (3 Bft) W-SW 247 0 min 0,000 mm 0,0 UV-I 30 W/m 1,1 C -4,7 C 25,7 km/h (4 Bft) 91,30 %
28.12.2017 14:40 2,4 C 3,9 C 91 % 996,1 hPa 0,0 l/m 17,7 km/h (3 Bft) W-SW 247 0 min 0,000 mm 0,0 UV-I 26 W/m 1,1 C -5,5 C 24,1 km/h (4 Bft) 95,65 %
28.12.2017 14:41 2,4 C 3,9 C 91 % 996,2 hPa 0,0 l/m 12,9 km/h (3 Bft) W-SW 247 0 min 0,000 mm 0,0 UV-I 25 W/m 1,1 C -2,8 C 19,3 km/h (3 Bft) 95,65 %
28.12.2017 14:42 2,4 C 3,9 C 91 % 996,1 hPa 0,0 l/m 14,5 km/h (3 Bft) W-SW 247 0 min 0,000 mm 0,0 UV-I 21 W/m 1,1 C -3,8 C 19,3 km/h (3 Bft) 95,65 %
28.12.2017 14:43 2,4 C 3,9 C 91 % 996,2 hPa 0,0 l/m 11,3 km/h (2 Bft) W 270 0 min 0,000 mm 0,0 UV-I 21 W/m 1,1 C -1,8 C 16,1 km/h (3 Bft) 95,65 %
28.12.2017 14:44 2,4 C 3,9 C 92 % 996,2 hPa 0,0 l/m 11,3 km/h (2 Bft) W-SW 247 0 min 0,000 mm 0,0 UV-I 21 W/m 1,2 C -1,8 C 16,1 km/h (3 Bft) 91,30 %
28.12.2017 14:45 2,4 C 3,9 C 92 % 996,2 hPa 0,0 l/m 11,3 km/h (2 Bft) W-SW 247 0 min 0,000 mm 0,0 UV-I 21 W/m 1,2 C -1,8 C 16,1 km/h (3 Bft) 95,65 %
28.12.2017 14:46 2,4 C 3,9 C 92 % 996,2 hPa 0,0 l/m 16,1 km/h (3 Bft) W-SW 247 0 min 0,000 mm 0,0 UV-I 19 W/m 1,2 C -4,7 C 20,9 km/h (4 Bft) 91,30 %
28.12.2017 14:47 2,4 C 3,9 C 92 % 996,2 hPa 0,0 l/m 16,1 km/h (3 Bft) W-SW 247 0 min 0,000 mm 0,0 UV-I 19 W/m 1,2 C -4,7 C 20,9 km/h (4 Bft) 95,65 %
28.12.2017 14:48 2,4 C 3,9 C 92 % 996,2 hPa 0,0 l/m 11,3 km/h (2 Bft) W-SW 247 0 min 0,000 mm 0,0 UV-I 19 W/m 1,2 C -1,8 C 16,1 km/h (3 Bft) 95,65 %
28.12.2017 14:49 2,4 C 3,9 C 92 % 996,2 hPa 0,0 l/m 14,5 km/h (3 Bft) W-SW 247 0 min 0,000 mm 0,0 UV-I 19 W/m 1,2 C -3,8 C 22,5 km/h (4 Bft) 95,65 %
28.12.2017 14:50 2,4 C 3,9 C 92 % 996,2 hPa 0,0 l/m 16,1 km/h (3 Bft) W-SW 247 0 min 0,000 mm 0,0 UV-I 18 W/m 1,2 C -4,7 C 19,3 km/h (3 Bft) 95,65 %
28.12.2017 14:51 2,4 C 3,9 C 92 % 996,3 hPa 0,0 l/m 17,7 km/h (3 Bft) SW 225 0 min 0,000 mm 0,0 UV-I 16 W/m 1,2 C -5,5 C 25,7 km/h (4 Bft) 86,96 %
28.12.2017 14:52 2,4 C 3,9 C 92 % 996,3 hPa 0,0 l/m 16,1 km/h (3 Bft) W-SW 247 0 min 0,000 mm 0,0 UV-I 18 W/m 1,2 C -4,7 C 20,9 km/h (4 Bft) 95,65 %
28.12.2017 14:53 2,4 C 3,9 C 92 % 996,3 hPa 0,0 l/m 12,9 km/h (3 Bft) W-SW 247 0 min 0,000 mm 0,0 UV-I 18 W/m 1,2 C -2,8 C 16,1 km/h (3 Bft) 91,30 %
28.12.2017 14:54 2,3 C 3,9 C 92 % 996,3 hPa 0,0 l/m 16,1 km/h (3 Bft) W-SW 247 0 min 0,000 mm 0,0 UV-I 18 W/m 1,1 C -4,8 C 32,2 km/h (5 Bft) 95,65 %
28.12.2017 14:55 2,3 C 3,9 C 92 % 996,3 hPa 0,0 l/m 17,7 km/h (3 Bft) W-SW 247 0 min 0,000 mm 0,0 UV-I 19 W/m 1,1 C -5,6 C 22,5 km/h (4 Bft) 91,30 %
28.12.2017 14:56 2,3 C 3,9 C 92 % 996,3 hPa 0,0 l/m 16,1 km/h (3 Bft) W-SW 247 0 min 0,000 mm 0,0 UV-I 19 W/m 1,1 C -4,8 C 22,5 km/h (4 Bft) 91,30 %
28.12.2017 14:57 2,3 C 3,9 C 92 % 996,3 hPa 0,0 l/m 19,3 km/h (3 Bft) W-SW 247 0 min 0,000 mm 0,0 UV-I 19 W/m 1,1 C -6,4 C 27,4 km/h (4 Bft) 86,96 %
28.12.2017 14:58 2,3 C 3,9 C 92 % 996,3 hPa 0,0 l/m 16,1 km/h (3 Bft) W-SW 247 0 min 0,000 mm 0,0 UV-I 20 W/m 1,1 C -4,8 C 25,7 km/h (4 Bft) 95,65 %
28.12.2017 14:59 2,3 C 3,9 C 92 % 996,3 hPa 0,0 l/m 14,5 km/h (3 Bft) W 270 0 min 0,000 mm 0,0 UV-I 19 W/m 1,1 C -3,9 C 20,9 km/h (4 Bft) 91,30 %
28.12.2017 15:00 2,3 C 3,9 C 92 % 996,3 hPa 0,0 l/m 12,9 km/h (3 Bft) W-SW 247 0 min 0,025 mm 0,0 UV-I 19 W/m 1,1 C -2,9 C 17,7 km/h (3 Bft) 100,00 %
28.12.2017 15:01 2,3 C 3,9 C 92 % 996,3 hPa 0,0 l/m 16,1 km/h (3 Bft) W-SW 247 0 min 0,000 mm 0,0 UV-I 21 W/m 1,1 C -4,8 C 27,4 km/h (4 Bft) 91,30 %
28.12.2017 15:02 2,3 C 3,9 C 92 % 996,3 hPa 0,0 l/m 17,7 km/h (3 Bft) W-SW 247 0 min 0,000 mm 0,0 UV-I 23 W/m 1,1 C -5,6 C 27,4 km/h (4 Bft) 95,65 %
28.12.2017 15:03 2,3 C 3,9 C 92 % 996,3 hPa 0,0 l/m 19,3 km/h (3 Bft) SW 225 0 min 0,000 mm 0,0 UV-I 21 W/m 1,1 C -6,4 C 22,5 km/h (4 Bft) 95,65 %
28.12.2017 15:04 2,3 C 3,9 C 92 % 996,3 hPa 0,0 l/m 12,9 km/h (3 Bft) W-SW 247 0 min 0,000 mm 0,0 UV-I 22 W/m 1,1 C -2,9 C 20,9 km/h (4 Bft) 95,65 %
28.12.2017 15:05 2,3 C 3,9 C 92 % 996,4 hPa 0,0 l/m 16,1 km/h (3 Bft) W 270 0 min 0,000 mm 0,0 UV-I 21 W/m 1,1 C -4,8 C 25,7 km/h (4 Bft) 95,65 %
28.12.2017 15:06 2,3 C 3,9 C 92 % 996,3 hPa 0,0 l/m 16,1 km/h (3 Bft) W-SW 247 0 min 0,000 mm 0,0 UV-I 23 W/m 1,1 C -4,8 C 19,3 km/h (3 Bft) 95,65 %
28.12.2017 15:07 2,3 C 3,9 C 92 % 996,3 hPa 0,0 l/m 16,1 km/h (3 Bft) W-SW 247 0 min 0,000 mm 0,0 UV-I 23 W/m 1,1 C -4,8 C 22,5 km/h (4 Bft) 95,65 %
28.12.2017 15:08 2,3 C 3,9 C 92 % 996,4 hPa 0,0 l/m 14,5 km/h (3 Bft) W-SW 247 0 min 0,000 mm 0,0 UV-I 23 W/m 1,1 C -3,9 C 19,3 km/h (3 Bft) 95,65 %
28.12.2017 15:09 2,3 C 3,9 C 92 % 996,4 hPa 0,0 l/m 19,3 km/h (3 Bft) SW 225 0 min 0,000 mm 0,0 UV-I 21 W/m 1,1 C -6,4 C 27,4 km/h (4 Bft) 100,00 %
28.12.2017 15:10 2,3 C 3,9 C 92 % 996,4 hPa 0,0 l/m 14,5 km/h (3 Bft) W-SW 247 0 min 0,000 mm 0,0 UV-I 18 W/m 1,1 C -3,9 C 20,9 km/h (4 Bft) 100,00 %
28.12.2017 15:11 2,3 C 3,9 C 92 % 996,5 hPa 0,0 l/m 14,5 km/h (3 Bft) SW 225 0 min 0,000 mm 0,0 UV-I 18 W/m 1,1 C -3,9 C 20,9 km/h (4 Bft) 100,00 %
28.12.2017 15:12 2,2 C 3,9 C 93 % 996,5 hPa 0,0 l/m 17,7 km/h (3 Bft) W-SW 247 0 min 0,000 mm 0,0 UV-I 16 W/m 1,2 C -5,7 C 24,1 km/h (4 Bft) 91,30 %
28.12.2017 15:13 2,2 C 3,9 C 93 % 996,5 hPa 0,0 l/m 16,1 km/h (3 Bft) W-SW 247 0 min 0,000 mm 0,0 UV-I 14 W/m 1,2 C -4,9 C 27,4 km/h (4 Bft) 95,65 %
28.12.2017 15:14 2,2 C 3,9 C 92 % 996,6 hPa 0,0 l/m 16,1 km/h (3 Bft) SW 225 0 min 0,000 mm 0,0 UV-I 16 W/m 1,0 C -4,9 C 25,7 km/h (4 Bft) 95,65 %
28.12.2017 15:15 2,2 C 3,9 C 93 % 996,6 hPa 0,0 l/m 20,9 km/h (4 Bft) W-SW 247 0 min 0,000 mm 0,0 UV-I 16 W/m 1,2 C -7,2 C 33,8 km/h (5 Bft) 95,65 %
28.12.2017 15:16 2,2 C 3,9 C 92 % 996,6 hPa 0,0 l/m 12,9 km/h (3 Bft) W-SW 247 0 min 0,000 mm 0,0 UV-I 14 W/m 1,0 C -3,1 C 19,3 km/h (3 Bft) 100,00 %
28.12.2017 15:17 2,2 C 3,9 C 92 % 996,6 hPa 0,0 l/m 14,5 km/h (3 Bft) W-SW 247 0 min 0,000 mm 0,0 UV-I 14 W/m 1,0 C -4,0 C 24,1 km/h (4 Bft) 100,00 %
28.12.2017 15:18 2,2 C 3,9 C 92 % 996,7 hPa 0,0 l/m 16,1 km/h (3 Bft) W-SW 247 0 min 0,000 mm 0,0 UV-I 12 W/m 1,0 C -4,9 C 24,1 km/h (4 Bft) 100,00 %
28.12.2017 15:19 2,2 C 3,9 C 92 % 996,7 hPa 0,0 l/m 17,7 km/h (3 Bft) W-SW 247 0 min 0,000 mm 0,0 UV-I 12 W/m 1,0 C -5,7 C 22,5 km/h (4 Bft) 95,65 %
28.12.2017 15:20 2,2 C 3,9 C 93 % 996,7 hPa 0,0 l/m 14,5 km/h (3 Bft) W 270 0 min 0,000 mm 0,0 UV-I 12 W/m 1,2 C -4,0 C 19,3 km/h (3 Bft) 100,00 %
28.12.2017 15:21 2,2 C 3,9 C 93 % 996,9 hPa 0,0 l/m 12,9 km/h (3 Bft) W-SW 247 0 min 0,000 mm 0,0 UV-I 11 W/m 1,2 C -3,1 C 19,3 km/h (3 Bft) 100,00 %
28.12.2017 15:22 2,2 C 3,9 C 93 % 996,9 hPa 0,0 l/m 14,5 km/h (3 Bft) W-SW 247 0 min 0,000 mm 0,0 UV-I 11 W/m 1,2 C -4,0 C 20,9 km/h (4 Bft) 100,00 %
28.12.2017 15:23 2,2 C 3,9 C 93 % 996,9 hPa 0,0 l/m 14,5 km/h (3 Bft) W-SW 247 0 min 0,000 mm 0,0 UV-I 11 W/m 1,2 C -4,0 C 20,9 km/h (4 Bft) 100,00 %
28.12.2017 15:24 2,1 C 3,9 C 93 % 996,9 hPa 0,0 l/m 19,3 km/h (3 Bft) W-SW 247 0 min 0,000 mm 0,0 UV-I 12 W/m 1,1 C -6,6 C 24,1 km/h (4 Bft) 95,65 %
28.12.2017 15:25 2,1 C 3,9 C 93 % 997,0 hPa 0,0 l/m 16,1 km/h (3 Bft) W-SW 247 0 min 0,000 mm 0,0 UV-I 12 W/m 1,1 C -5,0 C 19,3 km/h (3 Bft) 95,65 %
28.12.2017 15:26 2,1 C 3,9 C 93 % 997,0 hPa 0,0 l/m 20,9 km/h (4 Bft) W-SW 247 0 min 0,000 mm 0,0 UV-I 11 W/m 1,1 C -7,3 C 27,4 km/h (4 Bft) 91,30 %
28.12.2017 15:27 2,1 C 3,9 C 93 % 997,0 hPa 0,0 l/m 17,7 km/h (3 Bft) W 270 0 min 0,000 mm 0,0 UV-I 11 W/m 1,1 C -5,9 C 24,1 km/h (4 Bft) 100,00 %
28.12.2017 15:28 2,1 C 3,9 C 93 % 997,0 hPa 0,0 l/m 19,3 km/h (3 Bft) W-SW 247 0 min 0,000 mm 0,0 UV-I 11 W/m 1,1 C -6,6 C 25,7 km/h (4 Bft) 100,00 %
28.12.2017 15:29 2,1 C 3,9 C 93 % 997,1 hPa 0,2 l/m 17,7 km/h (3 Bft) W-SW 247 0 min 0,000 mm 0,0 UV-I 11 W/m 1,1 C -5,9 C 24,1 km/h (4 Bft) 100,00 %
28.12.2017 15:30 2,1 C 3,9 C 93 % 997,0 hPa 0,0 l/m 17,7 km/h (3 Bft) W 270 0 min 0,000 mm 0,0 UV-I 11 W/m 1,1 C -5,9 C 22,5 km/h (4 Bft) 100,00 %
28.12.2017 15:31 2,1 C 3,9 C 93 % 997,0 hPa 0,0 l/m 17,7 km/h (3 Bft) W-SW 247 0 min 0,000 mm 0,0 UV-I 11 W/m 1,1 C -5,9 C 24,1 km/h (4 Bft) 100,00 %
28.12.2017 15:32 2,1 C 3,9 C 93 % 997,1 hPa 0,0 l/m 17,7 km/h (3 Bft) W-SW 247 0 min 0,000 mm 0,0 UV-I 11 W/m 1,1 C -5,9 C 24,1 km/h (4 Bft) 100,00 %
28.12.2017 15:33 2,0 C 3,9 C 93 % 997,1 hPa 0,0 l/m 16,1 km/h (3 Bft) W-SW 247 0 min 0,000 mm 0,0 UV-I 10 W/m 1,0 C -5,2 C 17,7 km/h (3 Bft) 95,65 %
28.12.2017 15:34 2,0 C 3,9 C 93 % 997,2 hPa 0,0 l/m 16,1 km/h (3 Bft) W-SW 247 0 min 0,000 mm 0,0 UV-I 9 W/m 1,0 C -5,2 C 24,1 km/h (4 Bft) 100,00 %
28.12.2017 15:35 1,9 C 3,9 C 93 % 997,3 hPa 0,0 l/m 22,5 km/h (4 Bft) W-SW 247 0 min 0,000 mm 0,0 UV-I 9 W/m 0,9 C -8,2 C 32,2 km/h (5 Bft) 100,00 %
28.12.2017 15:36 1,9 C 3,9 C 93 % 997,2 hPa 0,0 l/m 12,9 km/h (3 Bft) W-SW 247 0 min 0,000 mm 0,0 UV-I 11 W/m 0,9 C -3,4 C 19,3 km/h (3 Bft) 95,65 %
28.12.2017 15:37 1,9 C 3,9 C 93 % 997,2 hPa 0,0 l/m 14,5 km/h (3 Bft) W-SW 247 0 min 0,000 mm 0,0 UV-I 11 W/m 0,9 C -4,4 C 19,3 km/h (3 Bft) 95,65 %
28.12.2017 15:38 1,9 C 3,9 C 94 % 997,3 hPa 0,0 l/m 12,9 km/h (3 Bft) W 270 0 min 0,000 mm 0,0 UV-I 9 W/m 1,0 C -3,4 C 22,5 km/h (4 Bft) 100,00 %
28.12.2017 15:39 1,8 C 3,9 C 94 % 997,3 hPa 0,0 l/m 17,7 km/h (3 Bft) W-SW 247 0 min 0,000 mm 0,0 UV-I 9 W/m 0,9 C -6,2 C 25,7 km/h (4 Bft) 95,65 %
28.12.2017 15:40 1,8 C 3,9 C 94 % 997,3 hPa 0,0 l/m 12,9 km/h (3 Bft) W-SW 247 0 min 0,000 mm 0,0 UV-I 9 W/m 0,9 C -3,5 C 16,1 km/h (3 Bft) 91,30 %
28.12.2017 15:41 1,8 C 3,9 C 94 % 997,3 hPa 0,0 l/m 11,3 km/h (2 Bft) SW 225 0 min 0,000 mm 0,0 UV-I 7 W/m 0,9 C -2,4 C 14,5 km/h (3 Bft) 95,65 %
28.12.2017 15:42 1,8 C 3,9 C 94 % 997,4 hPa 0,0 l/m 17,7 km/h (3 Bft) W 270 0 min 0,000 mm 0,0 UV-I 9 W/m 0,9 C -6,2 C 24,1 km/h (4 Bft) 95,65 %
28.12.2017 15:43 1,8 C 3,9 C 94 % 997,4 hPa 0,0 l/m 12,9 km/h (3 Bft) W-SW 247 0 min 0,000 mm 0,0 UV-I 7 W/m 0,9 C -3,5 C 17,7 km/h (3 Bft) 100,00 %
28.12.2017 15:44 1,7 C 3,9 C 94 % 997,5 hPa 0,0 l/m 11,3 km/h (2 Bft) W-SW 247 0 min 0,000 mm 0,0 UV-I 7 W/m 0,8 C -2,6 C 19,3 km/h (3 Bft) 100,00 %
28.12.2017 15:45 1,7 C 3,9 C 94 % 997,5 hPa 0,0 l/m 12,9 km/h (3 Bft) W-SW 247 0 min 0,000 mm 0,0 UV-I 7 W/m 0,8 C -3,6 C 16,1 km/h (3 Bft) 100,00 %
28.12.2017 15:46 1,7 C 3,9 C 94 % 997,5 hPa 0,2 l/m 17,7 km/h (3 Bft) W-SW 247 0 min 0,000 mm 0,0 UV-I 7 W/m 0,8 C -6,4 C 24,1 km/h (4 Bft) 100,00 %
28.12.2017 15:47 1,7 C 3,9 C 94 % 997,6 hPa 0,0 l/m 12,9 km/h (3 Bft) W-SW 247 0 min 0,000 mm 0,0 UV-I 7 W/m 0,8 C -3,6 C 17,7 km/h (3 Bft) 95,65 %
28.12.2017 15:48 1,6 C 3,9 C 94 % 997,6 hPa 0,0 l/m 12,9 km/h (3 Bft) W 270 0 min 0,000 mm 0,0 UV-I 7 W/m 0,7 C -3,8 C 16,1 km/h (3 Bft) 100,00 %
28.12.2017 15:49 1,6 C 3,9 C 94 % 997,6 hPa 0,0 l/m 17,7 km/h (3 Bft) W 270 0 min 0,000 mm 0,0 UV-I 7 W/m 0,7 C -6,5 C 24,1 km/h (4 Bft) 100,00 %
28.12.2017 15:50 1,6 C 3,9 C 94 % 997,6 hPa 0,0 l/m 17,7 km/h (3 Bft) W-SW 247 0 min 0,000 mm 0,0 UV-I 7 W/m 0,7 C -6,5 C 24,1 km/h (4 Bft) 100,00 %
28.12.2017 15:51 1,5 C 3,9 C 94 % 997,6 hPa 0,0 l/m 12,9 km/h (3 Bft) W-SW 247 0 min 0,000 mm 0,0 UV-I 7 W/m 0,6 C -3,9 C 19,3 km/h (3 Bft) 100,00 %
28.12.2017 15:52 1,4 C 3,9 C 94 % 997,6 hPa 0,0 l/m 12,9 km/h (3 Bft) W-SW 247 0 min 0,000 mm 0,0 UV-I 7 W/m 0,5 C -4,0 C 17,7 km/h (3 Bft) 100,00 %
28.12.2017 15:53 1,4 C 3,9 C 94 % 997,6 hPa 0,0 l/m 17,7 km/h (3 Bft) W 270 0 min 0,000 mm 0,0 UV-I 7 W/m 0,5 C -6,7 C 22,5 km/h (4 Bft) 100,00 %
28.12.2017 15:54 1,4 C 3,9 C 94 % 997,6 hPa 0,0 l/m 17,7 km/h (3 Bft) W-SW 247 0 min 0,000 mm 0,0 UV-I 5 W/m 0,5 C -6,7 C 24,1 km/h (4 Bft) 86,96 %
28.12.2017 15:55 1,3 C 3,9 C 94 % 997,7 hPa 0,2 l/m 12,9 km/h (3 Bft) SW 225 0 min 0,000 mm 0,0 UV-I 5 W/m 0,4 C -4,1 C 16,1 km/h (3 Bft) 100,00 %
28.12.2017 15:56 1,3 C 3,9 C 95 % 997,7 hPa 0,0 l/m 17,7 km/h (3 Bft) W 270 0 min 0,000 mm 0,0 UV-I 5 W/m 0,6 C -6,9 C 25,7 km/h (4 Bft) 100,00 %
28.12.2017 15:57 1,3 C 3,9 C 95 % 997,8 hPa 0,0 l/m 17,7 km/h (3 Bft) W-SW 247 0 min 0,000 mm 0,0 UV-I 5 W/m 0,6 C -6,9 C 22,5 km/h (4 Bft) 100,00 %
28.12.2017 15:58 1,3 C 3,9 C 95 % 997,7 hPa 0,0 l/m 16,1 km/h (3 Bft) W-SW 247 0 min 0,000 mm 0,0 UV-I 5 W/m 0,6 C -6,0 C 19,3 km/h (3 Bft) 100,00 %
28.12.2017 15:59 1,2 C 3,9 C 95 % 997,8 hPa 0,0 l/m 14,5 km/h (3 Bft) W-SW 247 0 min 0,000 mm 0,0 UV-I 5 W/m 0,5 C -5,2 C 24,1 km/h (4 Bft) 100,00 %
28.12.2017 16:00 1,2 C 3,9 C 95 % 997,7 hPa 0,0 l/m 17,7 km/h (3 Bft) W-SW 247 0 min 0,000 mm 0,0 UV-I 5 W/m 0,5 C -7,0 C 25,7 km/h (4 Bft) 100,00 %
28.12.2017 16:01 1,2 C 3,9 C 95 % 997,8 hPa 0,0 l/m 16,1 km/h (3 Bft) W-SW 247 0 min 0,000 mm 0,0 UV-I 5 W/m 0,5 C -6,1 C 25,7 km/h (4 Bft) 95,65 %
28.12.2017 16:02 1,2 C 3,9 C 95 % 997,8 hPa 0,0 l/m 12,9 km/h (3 Bft) W-SW 247 0 min 0,000 mm 0,0 UV-I 5 W/m 0,5 C -4,2 C 19,3 km/h (3 Bft) 100,00 %
28.12.2017 16:03 1,1 C 3,9 C 95 % 997,9 hPa 0,0 l/m 14,5 km/h (3 Bft) W 270 0 min 0,000 mm 0,0 UV-I 5 W/m 0,4 C -5,4 C 17,7 km/h (3 Bft) 95,65 %
28.12.2017 16:04 1,1 C 3,9 C 95 % 997,9 hPa 0,0 l/m 12,9 km/h (3 Bft) W-SW 247 0 min 0,000 mm 0,0 UV-I 5 W/m 0,4 C -4,3 C 19,3 km/h (3 Bft) 100,00 %
28.12.2017 16:05 1,1 C 3,9 C 95 % 998,0 hPa 0,0 l/m 17,7 km/h (3 Bft) W 270 0 min 0,000 mm 0,0 UV-I 5 W/m 0,4 C -7,1 C 24,1 km/h (4 Bft) 95,65 %
28.12.2017 16:06 1,1 C 3,9 C 95 % 998,0 hPa 0,0 l/m 12,9 km/h (3 Bft) W 270 0 min 0,000 mm 0,0 UV-I 5 W/m 0,4 C -4,3 C 17,7 km/h (3 Bft) 100,00 %
28.12.2017 16:07 1,1 C 3,9 C 95 % 997,9 hPa 0,0 l/m 14,5 km/h (3 Bft) W-SW 247 0 min 0,000 mm 0,0 UV-I 5 W/m 0,4 C -5,4 C 17,7 km/h (3 Bft) 95,65 %
28.12.2017 16:08 1,0 C 3,9 C 95 % 997,9 hPa 0,0 l/m 14,5 km/h (3 Bft) W-SW 247 0 min 0,000 mm 0,0 UV-I 5 W/m 0,3 C -5,5 C 19,3 km/h (3 Bft) 91,30 %
28.12.2017 16:09 1,0 C 3,9 C 95 % 998,0 hPa 0,0 l/m 14,5 km/h (3 Bft) W-SW 247 0 min 0,000 mm 0,0 UV-I 5 W/m 0,3 C -5,5 C 22,5 km/h (4 Bft) 95,65 %
28.12.2017 16:10 0,9 C 3,9 C 95 % 998,0 hPa 0,0 l/m 16,1 km/h (3 Bft) W-SW 247 0 min 0,000 mm 0,0 UV-I 5 W/m 0,2 C -6,5 C 20,9 km/h (4 Bft) 95,65 %
28.12.2017 16:11 0,9 C 3,9 C 95 % 998,0 hPa 0,0 l/m 14,5 km/h (3 Bft) W-SW 247 0 min 0,000 mm 0,0 UV-I 0 W/m 0,2 C -5,6 C 17,7 km/h (3 Bft) 100,00 %
28.12.2017 16:12 0,9 C 3,9 C 95 % 998,0 hPa 0,0 l/m 14,5 km/h (3 Bft) W 270 0 min 0,000 mm 0,0 UV-I 0 W/m 0,2 C -5,6 C 17,7 km/h (3 Bft) 95,65 %
28.12.2017 16:13 0,8 C 3,9 C 95 % 998,0 hPa 0,0 l/m 14,5 km/h (3 Bft) W-SW 247 0 min 0,000 mm 0,0 UV-I 0 W/m 0,1 C -5,7 C 19,3 km/h (3 Bft) 100,00 %
28.12.2017 16:14 0,8 C 3,9 C 95 % 998,0 hPa 0,0 l/m 16,1 km/h (3 Bft) W-SW 247 0 min 0,000 mm 0,0 UV-I 0 W/m 0,1 C -6,6 C 22,5 km/h (4 Bft) 95,65 %
28.12.2017 16:15 0,8 C 3,9 C 95 % 998,0 hPa 0,0 l/m 11,3 km/h (2 Bft) W-SW 247 0 min 0,000 mm 0,0 UV-I 0 W/m 0,1 C -3,6 C 14,5 km/h (3 Bft) 95,65 %
28.12.2017 16:16 0,8 C 3,9 C 95 % 998,1 hPa 0,2 l/m 14,5 km/h (3 Bft) W 270 0 min 0,000 mm 0,0 UV-I 0 W/m 0,1 C -5,7 C 19,3 km/h (3 Bft) 95,65 %
28.12.2017 16:17 0,8 C 3,9 C 95 % 998,1 hPa 0,0 l/m 17,7 km/h (3 Bft) W-SW 247 0 min 0,000 mm 0,0 UV-I 0 W/m 0,1 C -7,5 C 24,1 km/h (4 Bft) 100,00 %
28.12.2017 16:18 0,8 C 3,9 C 96 % 998,0 hPa 0,0 l/m 17,7 km/h (3 Bft) W-SW 247 0 min 0,000 mm 0,0 UV-I 0 W/m 0,2 C -7,5 C 22,5 km/h (4 Bft) 95,65 %
28.12.2017 16:19 0,7 C 3,9 C 96 % 998,1 hPa 0,0 l/m 16,1 km/h (3 Bft) W-SW 247 0 min 0,000 mm 0,0 UV-I 0 W/m 0,1 C -6,8 C 19,3 km/h (3 Bft) 100,00 %
28.12.2017 16:20 0,7 C 3,9 C 96 % 998,1 hPa 0,0 l/m 12,9 km/h (3 Bft) W-SW 247 0 min 0,000 mm 0,0 UV-I 0 W/m 0,1 C -4,8 C 16,1 km/h (3 Bft) 95,65 %
28.12.2017 16:21 0,7 C 3,9 C 96 % 998,1 hPa 0,0 l/m 20,9 km/h (4 Bft) W-SW 247 0 min 0,000 mm 0,0 UV-I 0 W/m 0,1 C -9,1 C 25,7 km/h (4 Bft) 100,00 %
28.12.2017 16:22 0,7 C 3,9 C 96 % 998,1 hPa 0,0 l/m 17,7 km/h (3 Bft) W-SW 247 0 min 0,000 mm 0,0 UV-I 0 W/m 0,1 C -7,6 C 24,1 km/h (4 Bft) 91,30 %
28.12.2017 16:23 0,7 C 3,9 C 96 % 998,2 hPa 0,0 l/m 14,5 km/h (3 Bft) W-SW 247 0 min 0,000 mm 0,0 UV-I 0 W/m 0,1 C -5,8 C 20,9 km/h (4 Bft) 100,00 %
28.12.2017 16:24 0,7 C 3,9 C 96 % 998,2 hPa 0,0 l/m 12,9 km/h (3 Bft) W-SW 247 0 min 0,000 mm 0,0 UV-I 0 W/m 0,1 C -4,8 C 16,1 km/h (3 Bft) 91,30 %
28.12.2017 16:25 0,7 C 3,9 C 96 % 998,2 hPa 0,0 l/m 22,5 km/h (4 Bft) W 270 0 min 0,000 mm 0,0 UV-I 0 W/m 0,1 C -9,8 C 29,0 km/h (5 Bft) 100,00 %
28.12.2017 16:26 0,7 C 3,9 C 96 % 998,3 hPa 0,0 l/m 14,5 km/h (3 Bft) W-SW 247 0 min 0,000 mm 0,0 UV-I 0 W/m 0,1 C -5,8 C 19,3 km/h (3 Bft) 95,65 %
28.12.2017 16:27 0,7 C 3,9 C 96 % 998,3 hPa 0,0 l/m 17,7 km/h (3 Bft) W-SW 247 0 min 0,000 mm 0,0 UV-I 0 W/m 0,1 C -7,6 C 25,7 km/h (4 Bft) 100,00 %
28.12.2017 16:28 0,7 C 3,9 C 96 % 998,4 hPa 0,0 l/m 16,1 km/h (3 Bft) W-SW 247 0 min 0,000 mm 0,0 UV-I 0 W/m 0,1 C -6,8 C 24,1 km/h (4 Bft) 100,00 %
28.12.2017 16:29 0,7 C 3,9 C 96 % 998,4 hPa 0,0 l/m 16,1 km/h (3 Bft) W-SW 247 0 min 0,000 mm 0,0 UV-I 0 W/m 0,1 C -6,8 C 19,3 km/h (3 Bft) 95,65 %
28.12.2017 16:30 0,7 C 3,9 C 96 % 998,4 hPa 0,0 l/m 16,1 km/h (3 Bft) W-SW 247 0 min 0,000 mm 0,0 UV-I 0 W/m 0,1 C -6,8 C 24,1 km/h (4 Bft) 100,00 %
28.12.2017 16:31 0,7 C 3,9 C 96 % 998,4 hPa 0,0 l/m 16,1 km/h (3 Bft) W-SW 247 0 min 0,000 mm 0,0 UV-I 0 W/m 0,1 C -6,8 C 22,5 km/h (4 Bft) 100,00 %
28.12.2017 16:32 0,7 C 3,9 C 96 % 998,4 hPa 0,0 l/m 12,9 km/h (3 Bft) W 270 0 min 0,000 mm 0,0 UV-I 0 W/m 0,1 C -4,8 C 19,3 km/h (3 Bft) 100,00 %
28.12.2017 16:33 0,7 C 3,9 C 96 % 998,4 hPa 0,0 l/m 19,3 km/h (3 Bft) W-SW 247 0 min 0,000 mm 0,0 UV-I 0 W/m 0,1 C -8,4 C 25,7 km/h (4 Bft) 100,00 %
28.12.2017 16:34 0,7 C 3,9 C 96 % 998,4 hPa 0,0 l/m 19,3 km/h (3 Bft) W-SW 247 0 min 0,000 mm 0,0 UV-I 0 W/m 0,1 C -8,4 C 24,1 km/h (4 Bft) 100,00 %
28.12.2017 16:35 0,7 C 3,9 C 96 % 998,4 hPa 0,0 l/m 19,3 km/h (3 Bft) W-SW 247 0 min 0,000 mm 0,0 UV-I 0 W/m 0,1 C -8,4 C 30,6 km/h (5 Bft) 100,00 %
28.12.2017 16:36 0,7 C 3,9 C 96 % 998,5 hPa 0,0 l/m 22,5 km/h (4 Bft) W 270 0 min 0,000 mm 0,0 UV-I 0 W/m 0,1 C -9,8 C 30,6 km/h (5 Bft) 91,30 %
28.12.2017 16:37 0,7 C 3,9 C 96 % 998,5 hPa 0,0 l/m 20,9 km/h (4 Bft) W-SW 247 0 min 0,000 mm 0,0 UV-I 0 W/m 0,1 C -9,1 C 29,0 km/h (5 Bft) 100,00 %
28.12.2017 16:38 0,7 C 3,9 C 96 % 998,5 hPa 0,0 l/m 17,7 km/h (3 Bft) W-SW 247 0 min 0,000 mm 0,0 UV-I 0 W/m 0,1 C -7,6 C 22,5 km/h (4 Bft) 100,00 %
28.12.2017 16:39 0,7 C 3,9 C 96 % 998,5 hPa 0,0 l/m 19,3 km/h (3 Bft) W-SW 247 0 min 0,000 mm 0,0 UV-I 0 W/m 0,1 C -8,4 C 30,6 km/h (5 Bft) 95,65 %
28.12.2017 16:40 0,7 C 3,9 C 96 % 998,6 hPa 0,0 l/m 20,9 km/h (4 Bft) W-SW 247 0 min 0,000 mm 0,0 UV-I 0 W/m 0,1 C -9,1 C 29,0 km/h (5 Bft) 100,00 %
28.12.2017 16:41 0,7 C 3,9 C 96 % 998,6 hPa 0,0 l/m 19,3 km/h (3 Bft) W-SW 247 0 min 0,000 mm 0,0 UV-I 0 W/m 0,1 C -8,4 C 25,7 km/h (4 Bft) 95,65 %
28.12.2017 16:42 0,7 C 3,9 C 96 % 998,6 hPa 0,0 l/m 22,5 km/h (4 Bft) W 270 0 min 0,000 mm 0,0 UV-I 0 W/m 0,1 C -9,8 C 30,6 km/h (5 Bft) 100,00 %
28.12.2017 16:43 0,7 C 3,9 C 96 % 998,7 hPa 0,0 l/m 19,3 km/h (3 Bft) W 270 0 min 0,000 mm 0,0 UV-I 0 W/m 0,1 C -8,4 C 24,1 km/h (4 Bft) 95,65 %
28.12.2017 16:44 0,7 C 3,9 C 96 % 998,7 hPa 0,0 l/m 14,5 km/h (3 Bft) W-SW 247 0 min 0,000 mm 0,0 UV-I 0 W/m 0,1 C -5,8 C 20,9 km/h (4 Bft) 95,65 %
28.12.2017 16:45 0,6 C 3,9 C 96 % 998,7 hPa 0,0 l/m 19,3 km/h (3 Bft) W-SW 247 0 min 0,000 mm 0,0 UV-I 0 W/m 0,0 C -8,5 C 25,7 km/h (4 Bft) 95,65 %
28.12.2017 16:46 0,7 C 3,9 C 96 % 998,6 hPa 0,0 l/m 22,5 km/h (4 Bft) W-SW 247 0 min 0,000 mm 0,0 UV-I 0 W/m 0,1 C -9,8 C 32,2 km/h (5 Bft) 91,30 %
28.12.2017 16:47 0,7 C 3,9 C 96 % 998,7 hPa 0,0 l/m 17,7 km/h (3 Bft) W-SW 247 0 min 0,000 mm 0,0 UV-I 0 W/m 0,1 C -7,6 C 25,7 km/h (4 Bft) 100,00 %
28.12.2017 16:48 0,6 C 3,9 C 96 % 998,7 hPa 0,0 l/m 16,1 km/h (3 Bft) W 270 0 min 0,000 mm 0,0 UV-I 0 W/m 0,0 C -6,9 C 22,5 km/h (4 Bft) 95,65 %
28.12.2017 16:49 0,6 C 3,9 C 96 % 998,8 hPa 0,0 l/m 20,9 km/h (4 Bft) W-SW 247 0 min 0,000 mm 0,0 UV-I 0 W/m 0,0 C -9,3 C 25,7 km/h (4 Bft) 95,65 %
28.12.2017 16:50 0,6 C 3,9 C 96 % 998,8 hPa 0,0 l/m 17,7 km/h (3 Bft) W-SW 247 0 min 0,000 mm 0,0 UV-I 0 W/m 0,0 C -7,7 C 22,5 km/h (4 Bft) 91,30 %
28.12.2017 16:51 0,6 C 3,9 C 96 % 998,9 hPa 0,0 l/m 16,1 km/h (3 Bft) W-SW 247 0 min 0,000 mm 0,0 UV-I 0 W/m 0,0 C -6,9 C 19,3 km/h (3 Bft) 100,00 %
28.12.2017 16:52 0,6 C 3,9 C 96 % 998,8 hPa 0,0 l/m 16,1 km/h (3 Bft) W-SW 247 0 min 0,000 mm 0,0 UV-I 0 W/m 0,0 C -6,9 C 22,5 km/h (4 Bft) 95,65 %
28.12.2017 16:53 0,6 C 3,9 C 96 % 999,0 hPa 0,0 l/m 19,3 km/h (3 Bft) W-SW 247 0 min 0,000 mm 0,0 UV-I 0 W/m 0,0 C -8,5 C 22,5 km/h (4 Bft) 95,65 %
28.12.2017 16:54 0,6 C 3,9 C 96 % 998,9 hPa 0,0 l/m 17,7 km/h (3 Bft) W-SW 247 0 min 0,000 mm 0,0 UV-I 0 W/m 0,0 C -7,7 C 25,7 km/h (4 Bft) 100,00 %
28.12.2017 16:55 0,5 C 3,9 C 96 % 999,0 hPa 0,0 l/m 14,5 km/h (3 Bft) W-SW 247 0 min 0,000 mm 0,0 UV-I 0 W/m -0,1 C -6,1 C 17,7 km/h (3 Bft) 95,65 %
28.12.2017 16:56 0,5 C 3,9 C 96 % 998,9 hPa 0,0 l/m 19,3 km/h (3 Bft) W 270 0 min 0,000 mm 0,0 UV-I 0 W/m -0,1 C -8,7 C 22,5 km/h (4 Bft) 100,00 %
28.12.2017 16:57 0,5 C 3,9 C 96 % 999,0 hPa 0,0 l/m 14,5 km/h (3 Bft) W-SW 247 0 min 0,000 mm 0,0 UV-I 0 W/m -0,1 C -6,1 C 19,3 km/h (3 Bft) 91,30 %
28.12.2017 16:58 0,5 C 3,9 C 96 % 999,0 hPa 0,0 l/m 14,5 km/h (3 Bft) W-SW 247 0 min 0,000 mm 0,0 UV-I 0 W/m -0,1 C -6,1 C 20,9 km/h (4 Bft) 100,00 %
28.12.2017 16:59 0,5 C 3,9 C 96 % 999,0 hPa 0,0 l/m 19,3 km/h (3 Bft) W 270 0 min 0,000 mm 0,0 UV-I 0 W/m -0,1 C -8,7 C 24,1 km/h (4 Bft) 95,65 %
28.12.2017 17:00 0,5 C 3,9 C 96 % 999,0 hPa 0,0 l/m 14,5 km/h (3 Bft) W 270 0 min 0,000 mm 0,0 UV-I 0 W/m -0,1 C -6,1 C 20,9 km/h (4 Bft) 100,00 %
28.12.2017 17:01 0,5 C 3,9 C 96 % 999,0 hPa 0,0 l/m 16,1 km/h (3 Bft) W 270 0 min 0,000 mm 0,0 UV-I 0 W/m -0,1 C -7,0 C 20,9 km/h (4 Bft) 95,65 %
28.12.2017 17:02 0,5 C 3,9 C 96 % 999,1 hPa 0,0 l/m 19,3 km/h (3 Bft) W-SW 247 0 min 0,000 mm 0,0 UV-I 0 W/m -0,1 C -8,7 C 25,7 km/h (4 Bft) 95,65 %
28.12.2017 17:03 0,5 C 3,9 C 96 % 999,1 hPa 0,0 l/m 12,9 km/h (3 Bft) W-SW 247 0 min 0,000 mm 0,0 UV-I 0 W/m -0,1 C -5,0 C 24,1 km/h (4 Bft) 100,00 %
28.12.2017 17:04 0,5 C 3,9 C 97 % 999,1 hPa 0,0 l/m 16,1 km/h (3 Bft) W 270 0 min 0,000 mm 0,0 UV-I 0 W/m 0,1 C -7,0 C 22,5 km/h (4 Bft) 91,30 %
28.12.2017 17:05 0,5 C 3,9 C 97 % 999,2 hPa 0,2 l/m 19,3 km/h (3 Bft) W-SW 247 0 min 0,000 mm 0,0 UV-I 0 W/m 0,1 C -8,7 C 24,1 km/h (4 Bft) 100,00 %
28.12.2017 17:06 0,6 C 3,9 C 97 % 999,2 hPa 0,0 l/m 16,1 km/h (3 Bft) W 270 0 min 0,000 mm 0,0 UV-I 0 W/m 0,2 C -6,9 C 20,9 km/h (4 Bft) 91,30 %
28.12.2017 17:07 0,6 C 3,9 C 97 % 999,2 hPa 0,0 l/m 12,9 km/h (3 Bft) W-SW 247 0 min 0,000 mm 0,0 UV-I 0 W/m 0,2 C -4,9 C 17,7 km/h (3 Bft) 100,00 %
28.12.2017 17:08 0,6 C 3,9 C 97 % 999,2 hPa 0,0 l/m 16,1 km/h (3 Bft) W-SW 247 0 min 0,000 mm 0,0 UV-I 0 W/m 0,2 C -6,9 C 20,9 km/h (4 Bft) 95,65 %
28.12.2017 17:09 0,6 C 3,9 C 97 % 999,2 hPa 0,0 l/m 17,7 km/h (3 Bft) W-SW 247 0 min 0,000 mm 0,0 UV-I 0 W/m 0,2 C -7,7 C 30,6 km/h (5 Bft) 95,65 %
28.12.2017 17:10 0,6 C 3,9 C 97 % 999,2 hPa 0,0 l/m 22,5 km/h (4 Bft) W-SW 247 0 min 0,000 mm 0,0 UV-I 0 W/m 0,2 C -9,9 C 30,6 km/h (5 Bft) 95,65 %
28.12.2017 17:11 0,6 C 3,9 C 97 % 999,3 hPa 0,0 l/m 19,3 km/h (3 Bft) W 270 0 min 0,000 mm 0,0 UV-I 0 W/m 0,2 C -8,5 C 24,1 km/h (4 Bft) 91,30 %
28.12.2017 17:12 0,6 C 3,9 C 97 % 999,3 hPa 0,0 l/m 12,9 km/h (3 Bft) W-SW 247 0 min 0,000 mm 0,0 UV-I 0 W/m 0,2 C -4,9 C 16,1 km/h (3 Bft) 100,00 %
28.12.2017 17:13 0,6 C 3,9 C 97 % 999,3 hPa 0,0 l/m 17,7 km/h (3 Bft) W-SW 247 0 min 0,000 mm 0,0 UV-I 0 W/m 0,2 C -7,7 C 24,1 km/h (4 Bft) 95,65 %
28.12.2017 17:14 0,6 C 3,9 C 97 % 999,3 hPa 0,0 l/m 17,7 km/h (3 Bft) W-SW 247 0 min 0,000 mm 0,0 UV-I 0 W/m 0,2 C -7,7 C 22,5 km/h (4 Bft) 100,00 %
28.12.2017 17:15 0,6 C 3,9 C 97 % 999,3 hPa 0,0 l/m 16,1 km/h (3 Bft) W-SW 247 0 min 0,000 mm 0,0 UV-I 0 W/m 0,2 C -6,9 C 24,1 km/h (4 Bft) 95,65 %
28.12.2017 17:16 0,6 C 3,9 C 97 % 999,3 hPa 0,0 l/m 14,5 km/h (3 Bft) W 270 0 min 0,000 mm 0,0 UV-I 0 W/m 0,2 C -6,0 C 22,5 km/h (4 Bft) 100,00 %
28.12.2017 17:17 0,6 C 3,9 C 97 % 999,4 hPa 0,0 l/m 11,3 km/h (2 Bft) W-SW 247 0 min 0,000 mm 0,0 UV-I 0 W/m 0,2 C -3,8 C 16,1 km/h (3 Bft) 95,65 %
28.12.2017 17:18 0,6 C 3,9 C 97 % 999,4 hPa 0,0 l/m 14,5 km/h (3 Bft) W 270 0 min 0,000 mm 0,0 UV-I 0 W/m 0,2 C -6,0 C 19,3 km/h (3 Bft) 95,65 %
28.12.2017 17:19 0,6 C 3,9 C 97 % 999,4 hPa 0,0 l/m 12,9 km/h (3 Bft) W 270 0 min 0,000 mm 0,0 UV-I 0 W/m 0,2 C -4,9 C 17,7 km/h (3 Bft) 95,65 %
28.12.2017 17:20 0,6 C 3,9 C 97 % 999,5 hPa 0,0 l/m 16,1 km/h (3 Bft) W-SW 247 0 min 0,000 mm 0,0 UV-I 0 W/m 0,2 C -6,9 C 20,9 km/h (4 Bft) 100,00 %
28.12.2017 17:21 0,6 C 3,9 C 97 % 999,5 hPa 0,0 l/m 16,1 km/h (3 Bft) W-SW 247 0 min 0,000 mm 0,0 UV-I 0 W/m 0,2 C -6,9 C 19,3 km/h (3 Bft) 95,65 %
28.12.2017 17:22 0,6 C 3,9 C 97 % 999,5 hPa 0,0 l/m 19,3 km/h (3 Bft) W 270 0 min 0,000 mm 0,0 UV-I 0 W/m 0,2 C -8,5 C 29,0 km/h (5 Bft) 100,00 %
28.12.2017 17:23 0,6 C 3,9 C 97 % 999,5 hPa 0,0 l/m 14,5 km/h (3 Bft) W-SW 247 0 min 0,000 mm 0,0 UV-I 0 W/m 0,2 C -6,0 C 19,3 km/h (3 Bft) 100,00 %
28.12.2017 17:24 0,6 C 3,9 C 97 % 999,6 hPa 0,0 l/m 16,1 km/h (3 Bft) W-SW 247 0 min 0,000 mm 0,0 UV-I 0 W/m 0,2 C -6,9 C 20,9 km/h (4 Bft) 100,00 %
28.12.2017 17:25 0,6 C 3,9 C 97 % 999,6 hPa 0,0 l/m 14,5 km/h (3 Bft) W-SW 247 0 min 0,000 mm 0,0 UV-I 0 W/m 0,2 C -6,0 C 17,7 km/h (3 Bft) 95,65 %
28.12.2017 17:26 0,6 C 3,9 C 97 % 999,6 hPa 0,0 l/m 17,7 km/h (3 Bft) W 270 0 min 0,000 mm 0,0 UV-I 0 W/m 0,2 C -7,7 C 20,9 km/h (4 Bft) 95,65 %
28.12.2017 17:27 0,6 C 3,9 C 97 % 999,6 hPa 0,0 l/m 14,5 km/h (3 Bft) W-SW 247 0 min 0,000 mm 0,0 UV-I 0 W/m 0,2 C -6,0 C 22,5 km/h (4 Bft) 95,65 %
28.12.2017 17:28 0,6 C 3,9 C 97 % 999,6 hPa 0,0 l/m 19,3 km/h (3 Bft) W 270 0 min 0,000 mm 0,0 UV-I 0 W/m 0,2 C -8,5 C 27,4 km/h (4 Bft) 95,65 %
28.12.2017 17:29 0,7 C 3,9 C 97 % 999,7 hPa 0,0 l/m 16,1 km/h (3 Bft) SW 225 0 min 0,000 mm 0,0 UV-I 0 W/m 0,3 C -6,8 C 20,9 km/h (4 Bft) 95,65 %
28.12.2017 17:30 0,7 C 3,9 C 97 % 999,7 hPa 0,0 l/m 16,1 km/h (3 Bft) W 270 0 min 0,000 mm 0,0 UV-I 0 W/m 0,3 C -6,8 C 24,1 km/h (4 Bft) 100,00 %
28.12.2017 17:31 0,6 C 3,9 C 97 % 999,7 hPa 0,0 l/m 17,7 km/h (3 Bft) W-SW 247 0 min 0,000 mm 0,0 UV-I 0 W/m 0,2 C -7,7 C 22,5 km/h (4 Bft) 95,65 %
28.12.2017 17:32 0,7 C 3,9 C 97 % 999,7 hPa 0,0 l/m 19,3 km/h (3 Bft) W 270 0 min 0,000 mm 0,0 UV-I 0 W/m 0,3 C -8,4 C 29,0 km/h (5 Bft) 91,30 %
28.12.2017 17:33 0,7 C 3,9 C 97 % 999,7 hPa 0,0 l/m 14,5 km/h (3 Bft) W 270 0 min 0,000 mm 0,0 UV-I 0 W/m 0,3 C -5,8 C 17,7 km/h (3 Bft) 95,65 %
28.12.2017 17:34 0,7 C 3,9 C 97 % 999,8 hPa 0,0 l/m 16,1 km/h (3 Bft) W 270 0 min 0,000 mm 0,0 UV-I 0 W/m 0,3 C -6,8 C 20,9 km/h (4 Bft) 100,00 %
28.12.2017 17:35 0,7 C 3,9 C 97 % 999,7 hPa 0,0 l/m 19,3 km/h (3 Bft) W-SW 247 0 min 0,000 mm 0,0 UV-I 0 W/m 0,3 C -8,4 C 25,7 km/h (4 Bft) 95,65 %
28.12.2017 17:36 0,7 C 3,9 C 97 % 999,8 hPa 0,0 l/m 24,1 km/h (4 Bft) W 270 0 min 0,000 mm 0,0 UV-I 0 W/m 0,3 C -10,4 C 33,8 km/h (5 Bft) 100,00 %
28.12.2017 17:37 0,7 C 3,9 C 97 % 999,8 hPa 0,0 l/m 20,9 km/h (4 Bft) W-SW 247 0 min 0,000 mm 0,0 UV-I 0 W/m 0,3 C -9,1 C 33,8 km/h (5 Bft) 95,65 %
28.12.2017 17:38 0,7 C 3,9 C 97 % 999,8 hPa 0,0 l/m 17,7 km/h (3 Bft) W 270 0 min 0,000 mm 0,0 UV-I 0 W/m 0,3 C -7,6 C 24,1 km/h (4 Bft) 100,00 %
28.12.2017 17:39 0,7 C 3,9 C 97 % 999,8 hPa 0,0 l/m 16,1 km/h (3 Bft) W 270 0 min 0,000 mm 0,0 UV-I 0 W/m 0,3 C -6,8 C 22,5 km/h (4 Bft) 91,30 %
28.12.2017 17:40 0,7 C 3,9 C 97 % 999,9 hPa 0,0 l/m 16,1 km/h (3 Bft) W-SW 247 0 min 0,000 mm 0,0 UV-I 0 W/m 0,3 C -6,8 C 22,5 km/h (4 Bft) 100,00 %
28.12.2017 17:41 0,7 C 3,9 C 96 % 999,9 hPa 0,0 l/m 16,1 km/h (3 Bft) W-SW 247 0 min 0,000 mm 0,0 UV-I 0 W/m 0,1 C -6,8 C 19,3 km/h (3 Bft) 95,65 %
28.12.2017 17:42 0,7 C 3,9 C 96 % 999,9 hPa 0,0 l/m 12,9 km/h (3 Bft) W 270 0 min 0,000 mm 0,0 UV-I 0 W/m 0,1 C -4,8 C 17,7 km/h (3 Bft) 100,00 %
28.12.2017 17:43 0,7 C 3,9 C 96 % 1000,0 hPa 0,0 l/m 16,1 km/h (3 Bft) W-SW 247 0 min 0,000 mm 0,0 UV-I 0 W/m 0,1 C -6,8 C 22,5 km/h (4 Bft) 95,65 %
28.12.2017 17:44 0,7 C 3,9 C 96 % 1000,0 hPa 0,0 l/m 16,1 km/h (3 Bft) W 270 0 min 0,000 mm 0,0 UV-I 0 W/m 0,1 C -6,8 C 20,9 km/h (4 Bft) 95,65 %
28.12.2017 17:45 0,7 C 3,9 C 96 % 1000,0 hPa 0,2 l/m 16,1 km/h (3 Bft) W 270 0 min 0,000 mm 0,0 UV-I 0 W/m 0,1 C -6,8 C 22,5 km/h (4 Bft) 100,00 %
28.12.2017 17:46 0,7 C 3,9 C 96 % 1000,1 hPa 0,0 l/m 19,3 km/h (3 Bft) W-SW 247 0 min 0,000 mm 0,0 UV-I 0 W/m 0,1 C -8,4 C 25,7 km/h (4 Bft) 91,30 %
28.12.2017 17:47 0,8 C 3,9 C 96 % 1000,1 hPa 0,0 l/m 24,1 km/h (4 Bft) W 270 0 min 0,000 mm 0,0 UV-I 0 W/m 0,2 C -10,3 C 33,8 km/h (5 Bft) 95,65 %
28.12.2017 17:48 0,8 C 3,9 C 96 % 1000,1 hPa 0,0 l/m 16,1 km/h (3 Bft) W 270 0 min 0,000 mm 0,0 UV-I 0 W/m 0,2 C -6,6 C 30,6 km/h (5 Bft) 95,65 %
28.12.2017 17:49 0,8 C 3,9 C 96 % 1000,1 hPa 0,0 l/m 16,1 km/h (3 Bft) W-SW 247 0 min 0,000 mm 0,0 UV-I 0 W/m 0,2 C -6,6 C 29,0 km/h (5 Bft) 95,65 %
28.12.2017 17:50 0,8 C 3,9 C 96 % 1000,1 hPa 0,0 l/m 12,9 km/h (3 Bft) W 270 0 min 0,000 mm 0,0 UV-I 0 W/m 0,2 C -4,7 C 20,9 km/h (4 Bft) 100,00 %
28.12.2017 17:51 0,8 C 3,9 C 96 % 1000,1 hPa 0,0 l/m 19,3 km/h (3 Bft) W 270 0 min 0,000 mm 0,0 UV-I 0 W/m 0,2 C -8,3 C 30,6 km/h (5 Bft) 91,30 %
28.12.2017 17:52 0,8 C 3,9 C 96 % 1000,1 hPa 0,0 l/m 17,7 km/h (3 Bft) W-SW 247 0 min 0,000 mm 0,0 UV-I 0 W/m 0,2 C -7,5 C 27,4 km/h (4 Bft) 95,65 %
28.12.2017 17:53 0,8 C 3,9 C 96 % 1000,1 hPa 0,0 l/m 22,5 km/h (4 Bft) W 270 0 min 0,000 mm 0,0 UV-I 0 W/m 0,2 C -9,7 C 33,8 km/h (5 Bft) 95,65 %
28.12.2017 17:54 0,8 C 3,9 C 96 % 1000,1 hPa 0,0 l/m 14,5 km/h (3 Bft) W-SW 247 0 min 0,000 mm 0,0 UV-I 0 W/m 0,2 C -5,7 C 20,9 km/h (4 Bft) 100,00 %
28.12.2017 17:55 0,8 C 3,9 C 96 % 1000,2 hPa 0,0 l/m 22,5 km/h (4 Bft) W-SW 247 0 min 0,000 mm 0,0 UV-I 0 W/m 0,2 C -9,7 C 29,0 km/h (5 Bft) 100,00 %
28.12.2017 17:56 0,8 C 3,9 C 96 % 1000,2 hPa 0,0 l/m 24,1 km/h (4 Bft) W-SW 247 0 min 0,000 mm 0,0 UV-I 0 W/m 0,2 C -10,3 C 30,6 km/h (5 Bft) 100,00 %
28.12.2017 17:57 0,8 C 3,9 C 96 % 1000,2 hPa 0,0 l/m 19,3 km/h (3 Bft) W-SW 247 0 min 0,000 mm 0,0 UV-I 0 W/m 0,2 C -8,3 C 29,0 km/h (5 Bft) 100,00 %
28.12.2017 17:58 0,8 C 3,9 C 96 % 1000,2 hPa 0,0 l/m 19,3 km/h (3 Bft) W-SW 247 0 min 0,000 mm 0,0 UV-I 0 W/m 0,2 C -8,3 C 24,1 km/h (4 Bft) 100,00 %
28.12.2017 17:59 0,9 C 3,9 C 96 % 1000,2 hPa 0,0 l/m 22,5 km/h (4 Bft) W-SW 247 0 min 0,000 mm 0,0 UV-I 0 W/m 0,3 C -9,5 C 32,2 km/h (5 Bft) 100,00 %
28.12.2017 18:00 0,9 C 3,9 C 96 % 1000,3 hPa 0,0 l/m 14,5 km/h (3 Bft) W-SW 247 0 min 0,000 mm 0,0 UV-I 0 W/m 0,3 C -5,6 C 20,9 km/h (4 Bft) 95,65 %
28.12.2017 18:01 0,9 C 3,9 C 96 % 1000,3 hPa 0,0 l/m 16,1 km/h (3 Bft) W-SW 247 0 min 0,000 mm 0,0 UV-I 0 W/m 0,3 C -6,5 C 20,9 km/h (4 Bft) 100,00 %
28.12.2017 18:02 0,9 C 3,9 C 96 % 1000,3 hPa 0,2 l/m 17,7 km/h (3 Bft) W-SW 247 0 min 0,000 mm 0,0 UV-I 0 W/m 0,3 C -7,4 C 25,7 km/h (4 Bft) 100,00 %
28.12.2017 18:03 0,9 C 3,9 C 96 % 1000,4 hPa 0,0 l/m 16,1 km/h (3 Bft) W-SW 247 0 min 0,000 mm 0,0 UV-I 0 W/m 0,3 C -6,5 C 22,5 km/h (4 Bft) 100,00 %
28.12.2017 18:04 0,9 C 3,9 C 96 % 1000,3 hPa 0,0 l/m 14,5 km/h (3 Bft) W-SW 247 0 min 0,000 mm 0,0 UV-I 0 W/m 0,3 C -5,6 C 19,3 km/h (3 Bft) 100,00 %
28.12.2017 18:05 0,9 C 3,9 C 96 % 1000,4 hPa 0,0 l/m 20,9 km/h (4 Bft) W-SW 247 0 min 0,000 mm 0,0 UV-I 0 W/m 0,3 C -8,9 C 27,4 km/h (4 Bft) 100,00 %
28.12.2017 18:06 0,9 C 3,9 C 96 % 1000,5 hPa 0,0 l/m 22,5 km/h (4 Bft) W 270 0 min 0,000 mm 0,0 UV-I 0 W/m 0,3 C -9,5 C 27,4 km/h (4 Bft) 95,65 %
28.12.2017 18:07 0,9 C 3,9 C 96 % 1000,5 hPa 0,0 l/m 19,3 km/h (3 Bft) W 270 0 min 0,000 mm 0,0 UV-I 0 W/m 0,3 C -8,1 C 27,4 km/h (4 Bft) 91,30 %
28.12.2017 18:08 0,9 C 3,9 C 96 % 1000,5 hPa 0,0 l/m 19,3 km/h (3 Bft) W-SW 247 0 min 0,000 mm 0,0 UV-I 0 W/m 0,3 C -8,1 C 27,4 km/h (4 Bft) 100,00 %
28.12.2017 18:09 0,9 C 3,9 C 96 % 1000,5 hPa 0,0 l/m 16,1 km/h (3 Bft) W 270 0 min 0,000 mm 0,0 UV-I 0 W/m 0,3 C -6,5 C 20,9 km/h (4 Bft) 91,30 %
28.12.2017 18:10 0,9 C 3,9 C 96 % 1000,5 hPa 0,0 l/m 14,5 km/h (3 Bft) W 270 0 min 0,000 mm 0,0 UV-I 0 W/m 0,3 C -5,6 C 19,3 km/h (3 Bft) 100,00 %
28.12.2017 18:11 0,9 C 3,9 C 96 % 1000,6 hPa 0,0 l/m 17,7 km/h (3 Bft) W-SW 247 0 min 0,000 mm 0,0 UV-I 0 W/m 0,3 C -7,4 C 25,7 km/h (4 Bft) 100,00 %
28.12.2017 18:12 0,9 C 3,9 C 96 % 1000,6 hPa 0,0 l/m 17,7 km/h (3 Bft) W 270 0 min 0,000 mm 0,0 UV-I 0 W/m 0,3 C -7,4 C 22,5 km/h (4 Bft) 100,00 %
28.12.2017 18:13 0,9 C 3,9 C 96 % 1000,6 hPa 0,0 l/m 14,5 km/h (3 Bft) W-SW 247 0 min 0,000 mm 0,0 UV-I 0 W/m 0,3 C -5,6 C 17,7 km/h (3 Bft) 100,00 %
28.12.2017 18:14 0,9 C 3,9 C 96 % 1000,6 hPa 0,0 l/m 20,9 km/h (4 Bft) W-SW 247 0 min 0,000 mm 0,0 UV-I 0 W/m 0,3 C -8,9 C 27,4 km/h (4 Bft) 95,65 %
28.12.2017 18:15 0,9 C 3,9 C 96 % 1000,6 hPa 0,0 l/m 16,1 km/h (3 Bft) W 270 0 min 0,000 mm 0,0 UV-I 0 W/m 0,3 C -6,5 C 19,3 km/h (3 Bft) 100,00 %
28.12.2017 18:16 0,9 C 3,9 C 96 % 1000,6 hPa 0,0 l/m 22,5 km/h (4 Bft) W-SW 247 0 min 0,000 mm 0,0 UV-I 0 W/m 0,3 C -9,5 C 33,8 km/h (5 Bft) 100,00 %
28.12.2017 18:17 0,9 C 3,9 C 96 % 1000,7 hPa 0,0 l/m 20,9 km/h (4 Bft) W-SW 247 0 min 0,000 mm 0,0 UV-I 0 W/m 0,3 C -8,9 C 27,4 km/h (4 Bft) 100,00 %
28.12.2017 18:18 1,0 C 3,9 C 96 % 1000,6 hPa 0,0 l/m 14,5 km/h (3 Bft) W-SW 247 0 min 0,000 mm 0,0 UV-I 0 W/m 0,4 C -5,5 C 20,9 km/h (4 Bft) 100,00 %
28.12.2017 18:19 0,9 C 3,9 C 96 % 1000,7 hPa 0,0 l/m 16,1 km/h (3 Bft) W 270 0 min 0,000 mm 0,0 UV-I 0 W/m 0,3 C -6,5 C 20,9 km/h (4 Bft) 100,00 %
28.12.2017 18:20 0,9 C 3,9 C 96 % 1000,7 hPa 0,0 l/m 17,7 km/h (3 Bft) W-SW 247 0 min 0,000 mm 0,0 UV-I 0 W/m 0,3 C -7,4 C 22,5 km/h (4 Bft) 100,00 %
28.12.2017 18:21 0,9 C 3,9 C 96 % 1000,7 hPa 0,0 l/m 20,9 km/h (4 Bft) W 270 0 min 0,000 mm 0,0 UV-I 0 W/m 0,3 C -8,9 C 30,6 km/h (5 Bft) 95,65 %
28.12.2017 18:22 0,9 C 3,9 C 96 % 1000,7 hPa 0,0 l/m 17,7 km/h (3 Bft) W-SW 247 0 min 0,000 mm 0,0 UV-I 0 W/m 0,3 C -7,4 C 22,5 km/h (4 Bft) 95,65 %
28.12.2017 18:23 0,9 C 3,9 C 96 % 1000,8 hPa 0,0 l/m 16,1 km/h (3 Bft) W-SW 247 0 min 0,000 mm 0,0 UV-I 0 W/m 0,3 C -6,5 C 24,1 km/h (4 Bft) 95,65 %
28.12.2017 18:24 0,9 C 3,9 C 96 % 1000,8 hPa 0,0 l/m 17,7 km/h (3 Bft) W 270 0 min 0,000 mm 0,0 UV-I 0 W/m 0,3 C -7,4 C 22,5 km/h (4 Bft) 100,00 %
28.12.2017 18:25 0,9 C 3,9 C 96 % 1000,8 hPa 0,0 l/m 17,7 km/h (3 Bft) W 270 0 min 0,000 mm 0,0 UV-I 0 W/m 0,3 C -7,4 C 24,1 km/h (4 Bft) 100,00 %
28.12.2017 18:26 0,9 C 3,9 C 96 % 1000,8 hPa 0,0 l/m 17,7 km/h (3 Bft) W 270 0 min 0,000 mm 0,0 UV-I 0 W/m 0,3 C -7,4 C 24,1 km/h (4 Bft) 100,00 %
28.12.2017 18:27 0,9 C 3,9 C 96 % 1000,8 hPa 0,0 l/m 12,9 km/h (3 Bft) W-SW 247 0 min 0,000 mm 0,0 UV-I 0 W/m 0,3 C -4,6 C 16,1 km/h (3 Bft) 95,65 %
28.12.2017 18:28 0,9 C 3,9 C 96 % 1000,9 hPa 0,0 l/m 16,1 km/h (3 Bft) W-SW 247 0 min 0,000 mm 0,0 UV-I 0 W/m 0,3 C -6,5 C 25,7 km/h (4 Bft) 100,00 %
28.12.2017 18:29 0,9 C 3,9 C 96 % 1000,9 hPa 0,2 l/m 16,1 km/h (3 Bft) W-SW 247 0 min 0,000 mm 0,0 UV-I 0 W/m 0,3 C -6,5 C 22,5 km/h (4 Bft) 95,65 %
28.12.2017 18:30 0,9 C 3,9 C 96 % 1000,9 hPa 0,0 l/m 17,7 km/h (3 Bft) W-SW 247 0 min 0,000 mm 0,0 UV-I 0 W/m 0,3 C -7,4 C 24,1 km/h (4 Bft) 100,00 %
28.12.2017 18:31 0,9 C 3,9 C 96 % 1000,9 hPa 0,0 l/m 17,7 km/h (3 Bft) W-SW 247 0 min 0,000 mm 0,0 UV-I 0 W/m 0,3 C -7,4 C 22,5 km/h (4 Bft) 100,00 %
28.12.2017 18:32 0,9 C 3,9 C 96 % 1000,9 hPa 0,0 l/m 12,9 km/h (3 Bft) W 270 0 min 0,000 mm 0,0 UV-I 0 W/m 0,3 C -4,6 C 19,3 km/h (3 Bft) 100,00 %
28.12.2017 18:33 0,9 C 3,9 C 96 % 1001,0 hPa 0,0 l/m 14,5 km/h (3 Bft) W 270 0 min 0,000 mm 0,0 UV-I 0 W/m 0,3 C -5,6 C 19,3 km/h (3 Bft) 100,00 %
28.12.2017 18:34 0,9 C 3,9 C 96 % 1001,0 hPa 0,0 l/m 17,7 km/h (3 Bft) W 270 0 min 0,000 mm 0,0 UV-I 0 W/m 0,3 C -7,4 C 24,1 km/h (4 Bft) 100,00 %
28.12.2017 18:35 0,9 C 3,9 C 96 % 1001,1 hPa 0,0 l/m 22,5 km/h (4 Bft) W-SW 247 0 min 0,000 mm 0,0 UV-I 0 W/m 0,3 C -9,5 C 29,0 km/h (5 Bft) 95,65 %
28.12.2017 18:36 0,9 C 3,9 C 96 % 1001,1 hPa 0,0 l/m 19,3 km/h (3 Bft) W 270 0 min 0,000 mm 0,0 UV-I 0 W/m 0,3 C -8,1 C 22,5 km/h (4 Bft) 95,65 %
28.12.2017 18:37 0,9 C 3,9 C 96 % 1001,1 hPa 0,0 l/m 16,1 km/h (3 Bft) W-SW 247 0 min 0,000 mm 0,0 UV-I 0 W/m 0,3 C -6,5 C 22,5 km/h (4 Bft) 95,65 %
28.12.2017 18:38 0,9 C 3,9 C 96 % 1001,2 hPa 0,0 l/m 16,1 km/h (3 Bft) W-SW 247 0 min 0,000 mm 0,0 UV-I 0 W/m 0,3 C -6,5 C 20,9 km/h (4 Bft) 100,00 %
28.12.2017 18:39 0,9 C 3,9 C 96 % 1001,2 hPa 0,0 l/m 16,1 km/h (3 Bft) W-SW 247 0 min 0,000 mm 0,0 UV-I 0 W/m 0,3 C -6,5 C 20,9 km/h (4 Bft) 100,00 %
28.12.2017 18:40 0,9 C 3,9 C 96 % 1001,2 hPa 0,0 l/m 14,5 km/h (3 Bft) W-SW 247 0 min 0,000 mm 0,0 UV-I 0 W/m 0,3 C -5,6 C 17,7 km/h (3 Bft) 95,65 %
28.12.2017 18:41 0,9 C 3,9 C 96 % 1001,2 hPa 0,0 l/m 14,5 km/h (3 Bft) W-SW 247 0 min 0,000 mm 0,0 UV-I 0 W/m 0,3 C -5,6 C 19,3 km/h (3 Bft) 95,65 %
28.12.2017 18:42 0,9 C 3,9 C 96 % 1001,2 hPa 0,0 l/m 20,9 km/h (4 Bft) W-SW 247 0 min 0,000 mm 0,0 UV-I 0 W/m 0,3 C -8,9 C 27,4 km/h (4 Bft) 100,00 %
28.12.2017 18:43 0,9 C 3,9 C 96 % 1001,2 hPa 0,0 l/m 20,9 km/h (4 Bft) W-SW 247 0 min 0,000 mm 0,0 UV-I 0 W/m 0,3 C -8,9 C 25,7 km/h (4 Bft) 95,65 %
28.12.2017 18:44 0,9 C 3,9 C 96 % 1001,2 hPa 0,0 l/m 17,7 km/h (3 Bft) W 270 0 min 0,000 mm 0,0 UV-I 0 W/m 0,3 C -7,4 C 24,1 km/h (4 Bft) 100,00 %
28.12.2017 18:45 0,9 C 3,9 C 96 % 1001,2 hPa 0,0 l/m 16,1 km/h (3 Bft) W-SW 247 0 min 0,000 mm 0,0 UV-I 0 W/m 0,3 C -6,5 C 25,7 km/h (4 Bft) 100,00 %
28.12.2017 18:46 0,9 C 3,9 C 96 % 1001,3 hPa 0,0 l/m 16,1 km/h (3 Bft) W-SW 247 0 min 0,000 mm 0,0 UV-I 0 W/m 0,3 C -6,5 C 20,9 km/h (4 Bft) 100,00 %
28.12.2017 18:47 0,9 C 3,9 C 96 % 1001,3 hPa 0,0 l/m 17,7 km/h (3 Bft) W-SW 247 0 min 0,000 mm 0,0 UV-I 0 W/m 0,3 C -7,4 C 22,5 km/h (4 Bft) 95,65 %
28.12.2017 18:48 0,9 C 3,9 C 96 % 1001,3 hPa 0,0 l/m 12,9 km/h (3 Bft) W-SW 247 0 min 0,000 mm 0,0 UV-I 0 W/m 0,3 C -4,6 C 16,1 km/h (3 Bft) 95,65 %
28.12.2017 18:49 0,9 C 3,9 C 96 % 1001,4 hPa 0,0 l/m 16,1 km/h (3 Bft) W-SW 247 0 min 0,000 mm 0,0 UV-I 0 W/m 0,3 C -6,5 C 20,9 km/h (4 Bft) 100,00 %
28.12.2017 18:50 0,9 C 3,9 C 96 % 1001,4 hPa 0,0 l/m 19,3 km/h (3 Bft) W-SW 247 0 min 0,000 mm 0,0 UV-I 0 W/m 0,3 C -8,1 C 25,7 km/h (4 Bft) 86,96 %
28.12.2017 18:51 0,9 C 3,9 C 96 % 1001,5 hPa 0,0 l/m 17,7 km/h (3 Bft) W-SW 247 0 min 0,000 mm 0,0 UV-I 0 W/m 0,3 C -7,4 C 25,7 km/h (4 Bft) 100,00 %
28.12.2017 18:52 0,9 C 3,9 C 96 % 1001,5 hPa 0,0 l/m 17,7 km/h (3 Bft) W-SW 247 0 min 0,000 mm 0,0 UV-I 0 W/m 0,3 C -7,4 C 20,9 km/h (4 Bft) 91,30 %
28.12.2017 18:53 0,9 C 3,9 C 96 % 1001,5 hPa 0,2 l/m 17,7 km/h (3 Bft) W-SW 247 0 min 0,000 mm 0,0 UV-I 0 W/m 0,3 C -7,4 C 24,1 km/h (4 Bft) 100,00 %
28.12.2017 18:54 0,9 C 3,9 C 96 % 1001,5 hPa 0,0 l/m 19,3 km/h (3 Bft) W-SW 247 0 min 0,000 mm 0,0 UV-I 0 W/m 0,3 C -8,1 C 25,7 km/h (4 Bft) 91,30 %
28.12.2017 18:55 0,9 C 3,9 C 96 % 1001,5 hPa 0,0 l/m 17,7 km/h (3 Bft) W-SW 247 0 min 0,000 mm 0,0 UV-I 0 W/m 0,3 C -7,4 C 24,1 km/h (4 Bft) 86,96 %
28.12.2017 18:56 0,9 C 3,9 C 96 % 1001,5 hPa 0,0 l/m 17,7 km/h (3 Bft) W-SW 247 0 min 0,000 mm 0,0 UV-I 0 W/m 0,3 C -7,4 C 24,1 km/h (4 Bft) 95,65 %
28.12.2017 18:57 1,0 C 3,9 C 96 % 1001,6 hPa 0,0 l/m 16,1 km/h (3 Bft) W-SW 247 0 min 0,000 mm 0,0 UV-I 0 W/m 0,4 C -6,4 C 24,1 km/h (4 Bft) 86,96 %
28.12.2017 18:58 1,0 C 3,9 C 96 % 1001,6 hPa 0,0 l/m 19,3 km/h (3 Bft) W-SW 247 0 min 0,000 mm 0,0 UV-I 0 W/m 0,4 C -8,0 C 29,0 km/h (5 Bft) 95,65 %
28.12.2017 18:59 1,0 C 3,9 C 96 % 1001,6 hPa 0,0 l/m 19,3 km/h (3 Bft) W-SW 247 0 min 0,000 mm 0,0 UV-I 0 W/m 0,4 C -8,0 C 25,7 km/h (4 Bft) 86,96 %
28.12.2017 19:00 1,0 C 3,9 C 96 % 1001,6 hPa 0,0 l/m 19,3 km/h (3 Bft) W-SW 247 0 min 0,000 mm 0,0 UV-I 0 W/m 0,4 C -8,0 C 25,7 km/h (4 Bft) 95,65 %
28.12.2017 19:01 1,0 C 3,9 C 96 % 1001,6 hPa 0,0 l/m 16,1 km/h (3 Bft) W-SW 247 0 min 0,000 mm 0,0 UV-I 0 W/m 0,4 C -6,4 C 24,1 km/h (4 Bft) 95,65 %
28.12.2017 19:02 1,0 C 3,9 C 96 % 1001,6 hPa 0,0 l/m 12,9 km/h (3 Bft) W-SW 247 0 min 0,000 mm 0,0 UV-I 0 W/m 0,4 C -4,5 C 22,5 km/h (4 Bft) 95,65 %
28.12.2017 19:03 1,0 C 3,9 C 96 % 1001,7 hPa 0,0 l/m 19,3 km/h (3 Bft) W-SW 247 0 min 0,000 mm 0,0 UV-I 0 W/m 0,4 C -8,0 C 27,4 km/h (4 Bft) 91,30 %
28.12.2017 19:04 1,0 C 3,9 C 96 % 1001,7 hPa 0,0 l/m 20,9 km/h (4 Bft) W-SW 247 0 min 0,000 mm 0,0 UV-I 0 W/m 0,4 C -8,7 C 27,4 km/h (4 Bft) 91,30 %
28.12.2017 19:05 1,0 C 3,9 C 96 % 1001,7 hPa 0,0 l/m 19,3 km/h (3 Bft) W-SW 247 0 min 0,000 mm 0,0 UV-I 0 W/m 0,4 C -8,0 C 22,5 km/h (4 Bft) 95,65 %
28.12.2017 19:06 1,1 C 3,9 C 96 % 1001,7 hPa 0,0 l/m 16,1 km/h (3 Bft) W-SW 247 0 min 0,000 mm 0,0 UV-I 0 W/m 0,5 C -6,3 C 19,3 km/h (3 Bft) 91,30 %
28.12.2017 19:07 1,1 C 3,9 C 96 % 1001,7 hPa 0,0 l/m 17,7 km/h (3 Bft) W-SW 247 0 min 0,000 mm 0,0 UV-I 0 W/m 0,5 C -7,1 C 24,1 km/h (4 Bft) 95,65 %
28.12.2017 19:08 1,1 C 3,9 C 96 % 1001,7 hPa 0,0 l/m 14,5 km/h (3 Bft) W-SW 247 0 min 0,000 mm 0,0 UV-I 0 W/m 0,5 C -5,4 C 20,9 km/h (4 Bft) 95,65 %
28.12.2017 19:09 1,1 C 3,9 C 96 % 1001,7 hPa 0,0 l/m 19,3 km/h (3 Bft) W-SW 247 0 min 0,000 mm 0,0 UV-I 0 W/m 0,5 C -7,9 C 25,7 km/h (4 Bft) 95,65 %
28.12.2017 19:10 1,1 C 3,9 C 96 % 1001,7 hPa 0,0 l/m 16,1 km/h (3 Bft) W-SW 247 0 min 0,000 mm 0,0 UV-I 0 W/m 0,5 C -6,3 C 20,9 km/h (4 Bft) 95,65 %
28.12.2017 19:11 1,1 C 3,9 C 96 % 1001,8 hPa 0,0 l/m 19,3 km/h (3 Bft) W-SW 247 0 min 0,000 mm 0,0 UV-I 0 W/m 0,5 C -7,9 C 25,7 km/h (4 Bft) 91,30 %
28.12.2017 19:12 1,1 C 3,9 C 96 % 1001,8 hPa 0,0 l/m 16,1 km/h (3 Bft) W-SW 247 0 min 0,000 mm 0,0 UV-I 0 W/m 0,5 C -6,3 C 24,1 km/h (4 Bft) 95,65 %
28.12.2017 19:13 1,1 C 3,9 C 96 % 1001,8 hPa 0,0 l/m 16,1 km/h (3 Bft) W-SW 247 0 min 0,000 mm 0,0 UV-I 0 W/m 0,5 C -6,3 C 27,4 km/h (4 Bft) 95,65 %
28.12.2017 19:14 1,1 C 3,9 C 96 % 1001,8 hPa 0,0 l/m 19,3 km/h (3 Bft) W-SW 247 0 min 0,000 mm 0,0 UV-I 0 W/m 0,5 C -7,9 C 29,0 km/h (5 Bft) 100,00 %
28.12.2017 19:15 1,1 C 3,9 C 96 % 1001,8 hPa 0,0 l/m 20,9 km/h (4 Bft) W-SW 247 0 min 0,000 mm 0,0 UV-I 0 W/m 0,5 C -8,6 C 25,7 km/h (4 Bft) 95,65 %
28.12.2017 19:16 1,1 C 3,9 C 96 % 1001,8 hPa 0,0 l/m 20,9 km/h (4 Bft) W-SW 247 0 min 0,000 mm 0,0 UV-I 0 W/m 0,5 C -8,6 C 29,0 km/h (5 Bft) 100,00 %
28.12.2017 19:17 1,1 C 3,9 C 96 % 1001,8 hPa 0,0 l/m 19,3 km/h (3 Bft) W 270 0 min 0,000 mm 0,0 UV-I 0 W/m 0,5 C -7,9 C 27,4 km/h (4 Bft) 95,65 %
28.12.2017 19:18 1,1 C 3,9 C 96 % 1001,8 hPa 0,0 l/m 17,7 km/h (3 Bft) W-SW 247 0 min 0,000 mm 0,0 UV-I 0 W/m 0,5 C -7,1 C 24,1 km/h (4 Bft) 95,65 %
28.12.2017 19:19 1,1 C 3,9 C 95 % 1001,8 hPa 0,0 l/m 14,5 km/h (3 Bft) W-SW 247 0 min 0,000 mm 0,0 UV-I 0 W/m 0,4 C -5,4 C 24,1 km/h (4 Bft) 95,65 %
28.12.2017 19:20 1,1 C 3,9 C 95 % 1001,8 hPa 0,0 l/m 17,7 km/h (3 Bft) W-SW 247 0 min 0,000 mm 0,0 UV-I 0 W/m 0,4 C -7,1 C 25,7 km/h (4 Bft) 100,00 %
28.12.2017 19:21 1,1 C 3,9 C 95 % 1001,9 hPa 0,0 l/m 19,3 km/h (3 Bft) W-SW 247 0 min 0,000 mm 0,0 UV-I 0 W/m 0,4 C -7,9 C 25,7 km/h (4 Bft) 95,65 %
28.12.2017 19:22 1,1 C 3,9 C 95 % 1001,9 hPa 0,0 l/m 17,7 km/h (3 Bft) W-SW 247 0 min 0,000 mm 0,0 UV-I 0 W/m 0,4 C -7,1 C 22,5 km/h (4 Bft) 91,30 %
28.12.2017 19:23 1,1 C 3,9 C 95 % 1001,9 hPa 0,0 l/m 16,1 km/h (3 Bft) W-SW 247 0 min 0,000 mm 0,0 UV-I 0 W/m 0,4 C -6,3 C 22,5 km/h (4 Bft) 100,00 %
28.12.2017 19:24 1,1 C 3,9 C 95 % 1001,9 hPa 0,0 l/m 17,7 km/h (3 Bft) W-SW 247 0 min 0,000 mm 0,0 UV-I 0 W/m 0,4 C -7,1 C 22,5 km/h (4 Bft) 86,96 %
28.12.2017 19:25 1,1 C 3,9 C 95 % 1001,9 hPa 0,0 l/m 20,9 km/h (4 Bft) W-SW 247 0 min 0,000 mm 0,0 UV-I 0 W/m 0,4 C -8,6 C 27,4 km/h (4 Bft) 95,65 %
28.12.2017 19:26 1,1 C 3,9 C 95 % 1001,9 hPa 0,0 l/m 19,3 km/h (3 Bft) W-SW 247 0 min 0,000 mm 0,0 UV-I 0 W/m 0,4 C -7,9 C 25,7 km/h (4 Bft) 95,65 %
28.12.2017 19:27 1,1 C 3,9 C 95 % 1001,9 hPa 0,2 l/m 16,1 km/h (3 Bft) W-SW 247 0 min 0,000 mm 0,0 UV-I 0 W/m 0,4 C -6,3 C 20,9 km/h (4 Bft) 100,00 %
28.12.2017 19:28 1,1 C 3,9 C 95 % 1001,9 hPa 0,0 l/m 17,7 km/h (3 Bft) W-SW 247 0 min 0,000 mm 0,0 UV-I 0 W/m 0,4 C -7,1 C 25,7 km/h (4 Bft) 100,00 %
28.12.2017 19:29 1,1 C 3,9 C 95 % 1001,9 hPa 0,0 l/m 16,1 km/h (3 Bft) W 270 0 min 0,000 mm 0,0 UV-I 0 W/m 0,4 C -6,3 C 25,7 km/h (4 Bft) 95,65 %
28.12.2017 19:30 1,1 C 3,9 C 95 % 1002,0 hPa 0,0 l/m 16,1 km/h (3 Bft) W-SW 247 0 min 0,000 mm 0,0 UV-I 0 W/m 0,4 C -6,3 C 22,5 km/h (4 Bft) 100,00 %
28.12.2017 19:31 1,1 C 3,9 C 95 % 1002,0 hPa 0,0 l/m 12,9 km/h (3 Bft) W-SW 247 0 min 0,000 mm 0,0 UV-I 0 W/m 0,4 C -4,3 C 16,1 km/h (3 Bft) 100,00 %
28.12.2017 19:32 1,1 C 3,9 C 95 % 1002,0 hPa 0,0 l/m 14,5 km/h (3 Bft) W-SW 247 0 min 0,000 mm 0,0 UV-I 0 W/m 0,4 C -5,4 C 22,5 km/h (4 Bft) 95,65 %
28.12.2017 19:33 1,1 C 3,9 C 95 % 1002,0 hPa 0,0 l/m 16,1 km/h (3 Bft) W-SW 247 0 min 0,000 mm 0,0 UV-I 0 W/m 0,4 C -6,3 C 25,7 km/h (4 Bft) 100,00 %
28.12.2017 19:34 1,1 C 3,9 C 95 % 1002,1 hPa 0,0 l/m 14,5 km/h (3 Bft) W-SW 247 0 min 0,000 mm 0,0 UV-I 0 W/m 0,4 C -5,4 C 19,3 km/h (3 Bft) 100,00 %
28.12.2017 19:35 1,1 C 3,9 C 95 % 1002,1 hPa 0,0 l/m 16,1 km/h (3 Bft) W-SW 247 0 min 0,000 mm 0,0 UV-I 0 W/m 0,4 C -6,3 C 22,5 km/h (4 Bft) 100,00 %
28.12.2017 19:36 1,1 C 3,9 C 95 % 1002,1 hPa 0,0 l/m 12,9 km/h (3 Bft) W-SW 247 0 min 0,000 mm 0,0 UV-I 0 W/m 0,4 C -4,3 C 17,7 km/h (3 Bft) 100,00 %
28.12.2017 19:37 1,1 C 3,9 C 95 % 1002,2 hPa 0,0 l/m 16,1 km/h (3 Bft) W-SW 247 0 min 0,000 mm 0,0 UV-I 0 W/m 0,4 C -6,3 C 19,3 km/h (3 Bft) 100,00 %
28.12.2017 19:38 1,1 C 3,9 C 95 % 1002,1 hPa 0,0 l/m 19,3 km/h (3 Bft) W-SW 247 0 min 0,000 mm 0,0 UV-I 0 W/m 0,4 C -7,9 C 25,7 km/h (4 Bft) 100,00 %
28.12.2017 19:39 1,1 C 3,9 C 95 % 1002,1 hPa 0,0 l/m 14,5 km/h (3 Bft) W-SW 247 0 min 0,000 mm 0,0 UV-I 0 W/m 0,4 C -5,4 C 20,9 km/h (4 Bft) 91,30 %
28.12.2017 19:40 1,1 C 3,9 C 95 % 1002,2 hPa 0,0 l/m 16,1 km/h (3 Bft) W 270 0 min 0,000 mm 0,0 UV-I 0 W/m 0,4 C -6,3 C 20,9 km/h (4 Bft) 100,00 %
28.12.2017 19:41 1,1 C 3,9 C 95 % 1002,2 hPa 0,0 l/m 14,5 km/h (3 Bft) W-SW 247 0 min 0,000 mm 0,0 UV-I 0 W/m 0,4 C -5,4 C 20,9 km/h (4 Bft) 95,65 %
28.12.2017 19:42 1,1 C 3,9 C 95 % 1002,2 hPa 0,0 l/m 11,3 km/h (2 Bft) W-SW 247 0 min 0,000 mm 0,0 UV-I 0 W/m 0,4 C -3,2 C 16,1 km/h (3 Bft) 100,00 %
28.12.2017 19:43 1,1 C 3,9 C 95 % 1002,2 hPa 0,0 l/m 16,1 km/h (3 Bft) W-SW 247 0 min 0,000 mm 0,0 UV-I 0 W/m 0,4 C -6,3 C 22,5 km/h (4 Bft) 100,00 %
28.12.2017 19:44 1,1 C 3,9 C 95 % 1002,3 hPa 0,0 l/m 16,1 km/h (3 Bft) W-SW 247 0 min 0,000 mm 0,0 UV-I 0 W/m 0,4 C -6,3 C 24,1 km/h (4 Bft) 100,00 %
28.12.2017 19:45 1,1 C 3,9 C 95 % 1002,2 hPa 0,0 l/m 17,7 km/h (3 Bft) W-SW 247 0 min 0,000 mm 0,0 UV-I 0 W/m 0,4 C -7,1 C 20,9 km/h (4 Bft) 100,00 %
28.12.2017 19:46 1,1 C 3,9 C 95 % 1002,3 hPa 0,0 l/m 14,5 km/h (3 Bft) W-SW 247 0 min 0,000 mm 0,0 UV-I 0 W/m 0,4 C -5,4 C 20,9 km/h (4 Bft) 95,65 %
28.12.2017 19:47 1,1 C 3,9 C 95 % 1002,3 hPa 0,0 l/m 14,5 km/h (3 Bft) W-SW 247 0 min 0,000 mm 0,0 UV-I 0 W/m 0,4 C -5,4 C 22,5 km/h (4 Bft) 95,65 %
28.12.2017 19:48 1,2 C 3,9 C 95 % 1002,4 hPa 0,0 l/m 17,7 km/h (3 Bft) W-SW 247 0 min 0,000 mm 0,0 UV-I 0 W/m 0,5 C -7,0 C 22,5 km/h (4 Bft) 100,00 %
28.12.2017 19:49 1,2 C 3,9 C 95 % 1002,3 hPa 0,0 l/m 12,9 km/h (3 Bft) W-SW 247 0 min 0,000 mm 0,0 UV-I 0 W/m 0,5 C -4,2 C 20,9 km/h (4 Bft) 95,65 %
28.12.2017 19:50 1,2 C 3,9 C 95 % 1002,4 hPa 0,0 l/m 19,3 km/h (3 Bft) W-SW 247 0 min 0,000 mm 0,0 UV-I 0 W/m 0,5 C -7,8 C 25,7 km/h (4 Bft) 100,00 %
28.12.2017 19:51 1,2 C 3,9 C 95 % 1002,4 hPa 0,0 l/m 12,9 km/h (3 Bft) SW 225 0 min 0,000 mm 0,0 UV-I 0 W/m 0,5 C -4,2 C 20,9 km/h (4 Bft) 95,65 %
28.12.2017 19:52 1,2 C 3,9 C 95 % 1002,4 hPa 0,0 l/m 12,9 km/h (3 Bft) W-SW 247 0 min 0,000 mm 0,0 UV-I 0 W/m 0,5 C -4,2 C 17,7 km/h (3 Bft) 95,65 %
28.12.2017 19:53 1,2 C 3,9 C 95 % 1002,4 hPa 0,0 l/m 14,5 km/h (3 Bft) W-SW 247 0 min 0,000 mm 0,0 UV-I 0 W/m 0,5 C -5,2 C 19,3 km/h (3 Bft) 95,65 %
28.12.2017 19:54 1,2 C 3,9 C 95 % 1002,4 hPa 0,0 l/m 17,7 km/h (3 Bft) W-SW 247 0 min 0,000 mm 0,0 UV-I 0 W/m 0,5 C -7,0 C 22,5 km/h (4 Bft) 100,00 %
28.12.2017 19:55 1,3 C 3,9 C 95 % 1002,4 hPa 0,0 l/m 17,7 km/h (3 Bft) W-SW 247 0 min 0,000 mm 0,0 UV-I 0 W/m 0,6 C -6,9 C 24,1 km/h (4 Bft) 100,00 %
28.12.2017 19:56 1,3 C 3,9 C 95 % 1002,4 hPa 0,0 l/m 16,1 km/h (3 Bft) SW 225 0 min 0,000 mm 0,0 UV-I 0 W/m 0,6 C -6,0 C 22,5 km/h (4 Bft) 100,00 %
28.12.2017 19:57 1,3 C 3,9 C 94 % 1002,4 hPa 0,2 l/m 16,1 km/h (3 Bft) W-SW 247 0 min 0,000 mm 0,0 UV-I 0 W/m 0,4 C -6,0 C 22,5 km/h (4 Bft) 100,00 %
28.12.2017 19:58 1,3 C 3,9 C 94 % 1002,4 hPa 0,0 l/m 14,5 km/h (3 Bft) W-SW 247 0 min 0,000 mm 0,0 UV-I 0 W/m 0,4 C -5,1 C 22,5 km/h (4 Bft) 100,00 %
28.12.2017 19:59 1,3 C 3,9 C 94 % 1002,4 hPa 0,0 l/m 14,5 km/h (3 Bft) W-SW 247 0 min 0,000 mm 0,0 UV-I 0 W/m 0,4 C -5,1 C 20,9 km/h (4 Bft) 100,00 %
28.12.2017 20:00 1,3 C 3,9 C 94 % 1002,4 hPa 0,0 l/m 19,3 km/h (3 Bft) W-SW 247 0 min 0,000 mm 0,0 UV-I 0 W/m 0,4 C -7,6 C 24,1 km/h (4 Bft) 95,65 %
28.12.2017 20:01 1,3 C 3,9 C 94 % 1002,5 hPa 0,0 l/m 16,1 km/h (3 Bft) W-SW 247 0 min 0,000 mm 0,0 UV-I 0 W/m 0,4 C -6,0 C 20,9 km/h (4 Bft) 100,00 %
28.12.2017 20:02 1,3 C 3,9 C 94 % 1002,5 hPa 0,0 l/m 16,1 km/h (3 Bft) W-SW 247 0 min 0,000 mm 0,0 UV-I 0 W/m 0,4 C -6,0 C 20,9 km/h (4 Bft) 100,00 %
28.12.2017 20:03 1,3 C 3,9 C 94 % 1002,5 hPa 0,0 l/m 16,1 km/h (3 Bft) W-SW 247 0 min 0,000 mm 0,0 UV-I 0 W/m 0,4 C -6,0 C 19,3 km/h (3 Bft) 100,00 %
28.12.2017 20:04 1,3 C 3,9 C 94 % 1002,5 hPa 0,0 l/m 16,1 km/h (3 Bft) W-SW 247 0 min 0,000 mm 0,0 UV-I 0 W/m 0,4 C -6,0 C 22,5 km/h (4 Bft) 100,00 %
28.12.2017 20:05 1,3 C 3,9 C 94 % 1002,5 hPa 0,0 l/m 11,3 km/h (2 Bft) W-SW 247 0 min 0,000 mm 0,0 UV-I 0 W/m 0,4 C -3,0 C 17,7 km/h (3 Bft) 100,00 %
28.12.2017 20:06 1,3 C 3,9 C 94 % 1002,5 hPa 0,0 l/m 14,5 km/h (3 Bft) W-SW 247 0 min 0,000 mm 0,0 UV-I 0 W/m 0,4 C -5,1 C 24,1 km/h (4 Bft) 100,00 %
28.12.2017 20:07 1,3 C 3,9 C 94 % 1002,6 hPa 0,0 l/m 16,1 km/h (3 Bft) W-SW 247 0 min 0,000 mm 0,0 UV-I 0 W/m 0,4 C -6,0 C 24,1 km/h (4 Bft) 91,30 %
28.12.2017 20:08 1,3 C 3,9 C 94 % 1002,6 hPa 0,0 l/m 14,5 km/h (3 Bft) W-SW 247 0 min 0,000 mm 0,0 UV-I 0 W/m 0,4 C -5,1 C 22,5 km/h (4 Bft) 100,00 %
28.12.2017 20:09 1,3 C 3,9 C 94 % 1002,6 hPa 0,0 l/m 11,3 km/h (2 Bft) W-SW 247 0 min 0,000 mm 0,0 UV-I 0 W/m 0,4 C -3,0 C 16,1 km/h (3 Bft) 100,00 %
28.12.2017 20:10 1,3 C 3,9 C 94 % 1002,7 hPa 0,0 l/m 14,5 km/h (3 Bft) W-SW 247 0 min 0,000 mm 0,0 UV-I 0 W/m 0,4 C -5,1 C 20,9 km/h (4 Bft) 95,65 %
28.12.2017 20:11 1,3 C 3,9 C 94 % 1002,6 hPa 0,0 l/m 14,5 km/h (3 Bft) W-SW 247 0 min 0,000 mm 0,0 UV-I 0 W/m 0,4 C -5,1 C 24,1 km/h (4 Bft) 100,00 %
28.12.2017 20:12 1,3 C 3,9 C 94 % 1002,7 hPa 0,0 l/m 12,9 km/h (3 Bft) W-SW 247 0 min 0,000 mm 0,0 UV-I 0 W/m 0,4 C -4,1 C 17,7 km/h (3 Bft) 95,65 %
28.12.2017 20:13 1,3 C 3,9 C 94 % 1002,7 hPa 0,0 l/m 17,7 km/h (3 Bft) W-SW 247 0 min 0,000 mm 0,0 UV-I 0 W/m 0,4 C -6,9 C 24,1 km/h (4 Bft) 95,65 %
28.12.2017 20:14 1,3 C 3,9 C 94 % 1002,8 hPa 0,0 l/m 17,7 km/h (3 Bft) W-SW 247 0 min 0,000 mm 0,0 UV-I 0 W/m 0,4 C -6,9 C 25,7 km/h (4 Bft) 95,65 %
28.12.2017 20:15 1,3 C 3,9 C 94 % 1002,8 hPa 0,0 l/m 14,5 km/h (3 Bft) W-SW 247 0 min 0,000 mm 0,0 UV-I 0 W/m 0,4 C -5,1 C 20,9 km/h (4 Bft) 95,65 %
28.12.2017 20:16 1,4 C 3,9 C 94 % 1002,8 hPa 0,0 l/m 12,9 km/h (3 Bft) W-SW 247 0 min 0,000 mm 0,0 UV-I 0 W/m 0,5 C -4,0 C 19,3 km/h (3 Bft) 100,00 %
28.12.2017 20:17 1,3 C 3,9 C 94 % 1002,8 hPa 0,0 l/m 14,5 km/h (3 Bft) W 270 0 min 0,000 mm 0,0 UV-I 0 W/m 0,4 C -5,1 C 20,9 km/h (4 Bft) 95,65 %
28.12.2017 20:18 1,3 C 3,9 C 94 % 1002,8 hPa 0,0 l/m 12,9 km/h (3 Bft) W 270 0 min 0,000 mm 0,0 UV-I 0 W/m 0,4 C -4,1 C 19,3 km/h (3 Bft) 100,00 %
28.12.2017 20:19 1,3 C 3,9 C 94 % 1002,8 hPa 0,0 l/m 14,5 km/h (3 Bft) W-SW 247 0 min 0,000 mm 0,0 UV-I 0 W/m 0,4 C -5,1 C 20,9 km/h (4 Bft) 95,65 %
28.12.2017 20:20 1,3 C 3,9 C 94 % 1002,9 hPa 0,0 l/m 20,9 km/h (4 Bft) W-SW 247 0 min 0,000 mm 0,0 UV-I 0 W/m 0,4 C -8,3 C 30,6 km/h (5 Bft) 95,65 %
28.12.2017 20:21 1,4 C 3,9 C 94 % 1002,9 hPa 0,0 l/m 17,7 km/h (3 Bft) W-SW 247 0 min 0,000 mm 0,0 UV-I 0 W/m 0,5 C -6,7 C 20,9 km/h (4 Bft) 91,30 %
28.12.2017 20:22 1,4 C 3,9 C 94 % 1002,9 hPa 0,0 l/m 16,1 km/h (3 Bft) W-SW 247 0 min 0,000 mm 0,0 UV-I 0 W/m 0,5 C -5,9 C 20,9 km/h (4 Bft) 100,00 %
28.12.2017 20:23 1,4 C 3,9 C 93 % 1003,0 hPa 0,0 l/m 17,7 km/h (3 Bft) W-SW 247 0 min 0,000 mm 0,0 UV-I 0 W/m 0,4 C -6,7 C 22,5 km/h (4 Bft) 95,65 %
28.12.2017 20:24 1,4 C 3,9 C 93 % 1003,0 hPa 0,0 l/m 16,1 km/h (3 Bft) W-SW 247 0 min 0,000 mm 0,0 UV-I 0 W/m 0,4 C -5,9 C 19,3 km/h (3 Bft) 95,65 %
28.12.2017 20:25 1,4 C 3,9 C 93 % 1003,0 hPa 0,0 l/m 12,9 km/h (3 Bft) W-SW 247 0 min 0,000 mm 0,0 UV-I 0 W/m 0,4 C -4,0 C 19,3 km/h (3 Bft) 95,65 %
28.12.2017 20:26 1,3 C 3,9 C 94 % 1003,0 hPa 0,0 l/m 16,1 km/h (3 Bft) W-SW 247 0 min 0,000 mm 0,0 UV-I 0 W/m 0,4 C -6,0 C 24,1 km/h (4 Bft) 95,65 %
28.12.2017 20:27 1,3 C 3,9 C 94 % 1003,1 hPa 0,0 l/m 14,5 km/h (3 Bft) W-SW 247 0 min 0,000 mm 0,0 UV-I 0 W/m 0,4 C -5,1 C 20,9 km/h (4 Bft) 100,00 %
28.12.2017 20:28 1,3 C 3,9 C 94 % 1003,0 hPa 0,0 l/m 12,9 km/h (3 Bft) W 270 0 min 0,000 mm 0,0 UV-I 0 W/m 0,4 C -4,1 C 17,7 km/h (3 Bft) 91,30 %
28.12.2017 20:29 1,3 C 3,9 C 94 % 1003,1 hPa 0,0 l/m 12,9 km/h (3 Bft) W-SW 247 0 min 0,000 mm 0,0 UV-I 0 W/m 0,4 C -4,1 C 17,7 km/h (3 Bft) 100,00 %
28.12.2017 20:30 1,3 C 3,9 C 94 % 1003,0 hPa 0,0 l/m 14,5 km/h (3 Bft) W-SW 247 0 min 0,000 mm 0,0 UV-I 0 W/m 0,4 C -5,1 C 20,9 km/h (4 Bft) 95,65 %
28.12.2017 20:31 1,3 C 3,9 C 94 % 1003,0 hPa 0,0 l/m 12,9 km/h (3 Bft) W 270 0 min 0,000 mm 0,0 UV-I 0 W/m 0,4 C -4,1 C 22,5 km/h (4 Bft) 100,00 %
28.12.2017 20:32 1,3 C 3,9 C 94 % 1003,1 hPa 0,0 l/m 14,5 km/h (3 Bft) W-SW 247 0 min 0,000 mm 0,0 UV-I 0 W/m 0,4 C -5,1 C 20,9 km/h (4 Bft) 95,65 %
28.12.2017 20:33 1,3 C 3,9 C 94 % 1003,1 hPa 0,0 l/m 17,7 km/h (3 Bft) W-SW 247 0 min 0,000 mm 0,0 UV-I 0 W/m 0,4 C -6,9 C 24,1 km/h (4 Bft) 100,00 %
28.12.2017 20:34 1,3 C 3,9 C 94 % 1003,1 hPa 0,0 l/m 11,3 km/h (2 Bft) W-SW 247 0 min 0,000 mm 0,0 UV-I 0 W/m 0,4 C -3,0 C 17,7 km/h (3 Bft) 95,65 %
28.12.2017 20:35 1,3 C 3,9 C 94 % 1003,1 hPa 0,0 l/m 14,5 km/h (3 Bft) W-SW 247 0 min 0,000 mm 0,0 UV-I 0 W/m 0,4 C -5,1 C 20,9 km/h (4 Bft) 91,30 %
28.12.2017 20:36 1,3 C 3,9 C 94 % 1003,1 hPa 0,0 l/m 17,7 km/h (3 Bft) W-SW 247 0 min 0,000 mm 0,0 UV-I 0 W/m 0,4 C -6,9 C 25,7 km/h (4 Bft) 95,65 %
28.12.2017 20:37 1,3 C 3,9 C 94 % 1003,1 hPa 0,0 l/m 16,1 km/h (3 Bft) W 270 0 min 0,000 mm 0,0 UV-I 0 W/m 0,4 C -6,0 C 22,5 km/h (4 Bft) 95,65 %
28.12.2017 20:38 1,3 C 3,9 C 94 % 1003,0 hPa 0,0 l/m 20,9 km/h (4 Bft) W-SW 247 0 min 0,000 mm 0,0 UV-I 0 W/m 0,4 C -8,3 C 30,6 km/h (5 Bft) 100,00 %
28.12.2017 20:39 1,3 C 3,9 C 94 % 1003,1 hPa 0,0 l/m 16,1 km/h (3 Bft) W-SW 247 0 min 0,000 mm 0,0 UV-I 0 W/m 0,4 C -6,0 C 27,4 km/h (4 Bft) 100,00 %
28.12.2017 20:40 1,3 C 3,9 C 94 % 1003,2 hPa 0,0 l/m 19,3 km/h (3 Bft) W 270 0 min 0,000 mm 0,0 UV-I 0 W/m 0,4 C -7,6 C 25,7 km/h (4 Bft) 100,00 %
28.12.2017 20:41 1,3 C 3,9 C 94 % 1003,2 hPa 0,0 l/m 19,3 km/h (3 Bft) W-SW 247 0 min 0,000 mm 0,0 UV-I 0 W/m 0,4 C -7,6 C 25,7 km/h (4 Bft) 100,00 %
28.12.2017 20:42 1,3 C 3,9 C 94 % 1003,1 hPa 0,0 l/m 16,1 km/h (3 Bft) W 270 0 min 0,000 mm 0,0 UV-I 0 W/m 0,4 C -6,0 C 19,3 km/h (3 Bft) 95,65 %
28.12.2017 20:43 1,3 C 3,9 C 94 % 1003,2 hPa 0,0 l/m 17,7 km/h (3 Bft) W-SW 247 0 min 0,000 mm 0,0 UV-I 0 W/m 0,4 C -6,9 C 29,0 km/h (5 Bft) 100,00 %
28.12.2017 20:44 1,3 C 3,9 C 94 % 1003,3 hPa 0,0 l/m 20,9 km/h (4 Bft) W 270 0 min 0,000 mm 0,0 UV-I 0 W/m 0,4 C -8,3 C 37,0 km/h (5 Bft) 100,00 %
28.12.2017 20:45 1,3 C 3,9 C 94 % 1003,2 hPa 0,0 l/m 17,7 km/h (3 Bft) W 270 0 min 0,000 mm 0,0 UV-I 0 W/m 0,4 C -6,9 C 24,1 km/h (4 Bft) 100,00 %
28.12.2017 20:46 1,2 C 3,9 C 94 % 1003,3 hPa 0,0 l/m 17,7 km/h (3 Bft) W-SW 247 0 min 0,000 mm 0,0 UV-I 0 W/m 0,3 C -7,0 C 24,1 km/h (4 Bft) 100,00 %
28.12.2017 20:47 1,2 C 3,9 C 94 % 1003,3 hPa 0,0 l/m 17,7 km/h (3 Bft) W-SW 247 0 min 0,000 mm 0,0 UV-I 0 W/m 0,3 C -7,0 C 24,1 km/h (4 Bft) 91,30 %
28.12.2017 20:48 1,2 C 3,9 C 94 % 1003,3 hPa 0,0 l/m 17,7 km/h (3 Bft) W-SW 247 0 min 0,000 mm 0,0 UV-I 0 W/m 0,3 C -7,0 C 24,1 km/h (4 Bft) 100,00 %
28.12.2017 20:49 1,1 C 3,9 C 94 % 1003,4 hPa 0,0 l/m 14,5 km/h (3 Bft) W 270 0 min 0,000 mm 0,0 UV-I 0 W/m 0,2 C -5,4 C 17,7 km/h (3 Bft) 95,65 %
28.12.2017 20:50 1,1 C 3,9 C 94 % 1003,4 hPa 0,0 l/m 14,5 km/h (3 Bft) W-SW 247 0 min 0,000 mm 0,0 UV-I 0 W/m 0,2 C -5,4 C 19,3 km/h (3 Bft) 100,00 %
28.12.2017 20:51 1,1 C 3,9 C 94 % 1003,4 hPa 0,0 l/m 14,5 km/h (3 Bft) W-SW 247 0 min 0,000 mm 0,0 UV-I 0 W/m 0,2 C -5,4 C 16,1 km/h (3 Bft) 100,00 %
28.12.2017 20:52 1,1 C 3,9 C 94 % 1003,4 hPa 0,0 l/m 19,3 km/h (3 Bft) W-SW 247 0 min 0,000 mm 0,0 UV-I 0 W/m 0,2 C -7,9 C 25,7 km/h (4 Bft) 95,65 %
28.12.2017 20:53 1,0 C 3,9 C 94 % 1003,4 hPa 0,0 l/m 12,9 km/h (3 Bft) W-SW 247 0 min 0,000 mm 0,0 UV-I 0 W/m 0,1 C -4,5 C 22,5 km/h (4 Bft) 100,00 %
28.12.2017 20:54 1,0 C 3,9 C 95 % 1003,4 hPa 0,0 l/m 8,0 km/h (2 Bft) W-SW 247 0 min 0,000 mm 0,0 UV-I 0 W/m 0,3 C -0,6 C 14,5 km/h (3 Bft) 100,00 %
28.12.2017 20:55 1,0 C 3,9 C 95 % 1003,5 hPa 0,0 l/m 11,3 km/h (2 Bft) W-SW 247 0 min 0,000 mm 0,0 UV-I 0 W/m 0,3 C -3,3 C 16,1 km/h (3 Bft) 100,00 %
28.12.2017 20:56 1,0 C 3,9 C 95 % 1003,5 hPa 0,0 l/m 16,1 km/h (3 Bft) W-SW 247 0 min 0,000 mm 0,0 UV-I 0 W/m 0,3 C -6,4 C 24,1 km/h (4 Bft) 91,30 %
28.12.2017 20:57 1,0 C 3,9 C 95 % 1003,5 hPa 0,0 l/m 14,5 km/h (3 Bft) W-SW 247 0 min 0,000 mm 0,0 UV-I 0 W/m 0,3 C -5,5 C 20,9 km/h (4 Bft) 95,65 %
28.12.2017 20:58 1,1 C 3,9 C 95 % 1003,5 hPa 0,0 l/m 12,9 km/h (3 Bft) W-SW 247 0 min 0,000 mm 0,0 UV-I 0 W/m 0,4 C -4,3 C 17,7 km/h (3 Bft) 100,00 %
28.12.2017 20:59 1,1 C 3,9 C 95 % 1003,6 hPa 0,0 l/m 16,1 km/h (3 Bft) W-SW 247 0 min 0,000 mm 0,0 UV-I 0 W/m 0,4 C -6,3 C 24,1 km/h (4 Bft) 95,65 %
28.12.2017 21:00 1,1 C 3,9 C 95 % 1003,5 hPa 0,2 l/m 11,3 km/h (2 Bft) W 270 0 min 0,000 mm 0,0 UV-I 0 W/m 0,4 C -3,2 C 16,1 km/h (3 Bft) 91,30 %
28.12.2017 21:01 1,1 C 3,9 C 95 % 1003,6 hPa 0,0 l/m 14,5 km/h (3 Bft) W-SW 247 0 min 0,000 mm 0,0 UV-I 0 W/m 0,4 C -5,4 C 17,7 km/h (3 Bft) 95,65 %
28.12.2017 21:02 1,1 C 3,9 C 95 % 1003,5 hPa 0,0 l/m 12,9 km/h (3 Bft) W 270 0 min 0,000 mm 0,0 UV-I 0 W/m 0,4 C -4,3 C 17,7 km/h (3 Bft) 100,00 %
28.12.2017 21:03 1,1 C 3,9 C 95 % 1003,6 hPa 0,0 l/m 12,9 km/h (3 Bft) W-SW 247 0 min 0,000 mm 0,0 UV-I 0 W/m 0,4 C -4,3 C 16,1 km/h (3 Bft) 91,30 %
28.12.2017 21:04 1,1 C 3,9 C 95 % 1003,6 hPa 0,0 l/m 11,3 km/h (2 Bft) W 270 0 min 0,000 mm 0,0 UV-I 0 W/m 0,4 C -3,2 C 20,9 km/h (4 Bft) 100,00 %
28.12.2017 21:05 1,1 C 3,9 C 95 % 1003,6 hPa 0,0 l/m 17,7 km/h (3 Bft) W-SW 247 0 min 0,000 mm 0,0 UV-I 0 W/m 0,4 C -7,1 C 25,7 km/h (4 Bft) 95,65 %
28.12.2017 21:06 1,1 C 3,9 C 95 % 1003,6 hPa 0,0 l/m 14,5 km/h (3 Bft) W-SW 247 0 min 0,000 mm 0,0 UV-I 0 W/m 0,4 C -5,4 C 22,5 km/h (4 Bft) 95,65 %
28.12.2017 21:07 1,1 C 3,9 C 95 % 1003,6 hPa 0,0 l/m 17,7 km/h (3 Bft) W-SW 247 0 min 0,000 mm 0,0 UV-I 0 W/m 0,4 C -7,1 C 24,1 km/h (4 Bft) 100,00 %
28.12.2017 21:08 1,1 C 3,9 C 95 % 1003,6 hPa 0,0 l/m 12,9 km/h (3 Bft) W-SW 247 0 min 0,000 mm 0,0 UV-I 0 W/m 0,4 C -4,3 C 17,7 km/h (3 Bft) 95,65 %
28.12.2017 21:09 1,1 C 3,9 C 95 % 1003,6 hPa 0,0 l/m 16,1 km/h (3 Bft) W-SW 247 0 min 0,000 mm 0,0 UV-I 0 W/m 0,4 C -6,3 C 24,1 km/h (4 Bft) 100,00 %
28.12.2017 21:10 1,0 C 3,9 C 95 % 1003,6 hPa 0,0 l/m 16,1 km/h (3 Bft) W-SW 247 0 min 0,000 mm 0,0 UV-I 0 W/m 0,3 C -6,4 C 22,5 km/h (4 Bft) 86,96 %
28.12.2017 21:11 1,0 C 3,9 C 95 % 1003,7 hPa 0,0 l/m 17,7 km/h (3 Bft) W-SW 247 0 min 0,000 mm 0,0 UV-I 0 W/m 0,3 C -7,2 C 22,5 km/h (4 Bft) 100,00 %
28.12.2017 21:12 1,0 C 3,9 C 95 % 1003,7 hPa 0,0 l/m 16,1 km/h (3 Bft) W-SW 247 0 min 0,000 mm 0,0 UV-I 0 W/m 0,3 C -6,4 C 19,3 km/h (3 Bft) 95,65 %
28.12.2017 21:13 1,0 C 3,9 C 95 % 1003,7 hPa 0,0 l/m 14,5 km/h (3 Bft) W-SW 247 0 min 0,000 mm 0,0 UV-I 0 W/m 0,3 C -5,5 C 19,3 km/h (3 Bft) 95,65 %
28.12.2017 21:14 0,9 C 3,9 C 95 % 1003,7 hPa 0,0 l/m 16,1 km/h (3 Bft) W-SW 247 0 min 0,000 mm 0,0 UV-I 0 W/m 0,2 C -6,5 C 22,5 km/h (4 Bft) 100,00 %
28.12.2017 21:15 0,9 C 3,9 C 95 % 1003,7 hPa 0,0 l/m 16,1 km/h (3 Bft) W-SW 247 0 min 0,000 mm 0,0 UV-I 0 W/m 0,2 C -6,5 C 22,5 km/h (4 Bft) 95,65 %
28.12.2017 21:16 0,9 C 3,9 C 95 % 1003,8 hPa 0,0 l/m 17,7 km/h (3 Bft) W-SW 247 0 min 0,000 mm 0,0 UV-I 0 W/m 0,2 C -7,4 C 24,1 km/h (4 Bft) 100,00 %
28.12.2017 21:17 0,9 C 3,9 C 95 % 1003,8 hPa 0,0 l/m 17,7 km/h (3 Bft) W 270 0 min 0,000 mm 0,0 UV-I 0 W/m 0,2 C -7,4 C 25,7 km/h (4 Bft) 91,30 %
28.12.2017 21:18 0,9 C 3,9 C 95 % 1003,8 hPa 0,0 l/m 17,7 km/h (3 Bft) W-SW 247 0 min 0,000 mm 0,0 UV-I 0 W/m 0,2 C -7,4 C 27,4 km/h (4 Bft) 100,00 %
28.12.2017 21:19 0,9 C 3,9 C 95 % 1003,8 hPa 0,0 l/m 12,9 km/h (3 Bft) W 270 0 min 0,000 mm 0,0 UV-I 0 W/m 0,2 C -4,6 C 17,7 km/h (3 Bft) 95,65 %
28.12.2017 21:20 0,9 C 3,9 C 95 % 1003,9 hPa 0,0 l/m 17,7 km/h (3 Bft) W-SW 247 0 min 0,000 mm 0,0 UV-I 0 W/m 0,2 C -7,4 C 29,0 km/h (5 Bft) 100,00 %
28.12.2017 21:21 0,9 C 3,9 C 95 % 1003,9 hPa 0,0 l/m 12,9 km/h (3 Bft) W-SW 247 0 min 0,000 mm 0,0 UV-I 0 W/m 0,2 C -4,6 C 19,3 km/h (3 Bft) 95,65 %
28.12.2017 21:22 0,9 C 3,9 C 95 % 1003,9 hPa 0,0 l/m 19,3 km/h (3 Bft) W-SW 247 0 min 0,000 mm 0,0 UV-I 0 W/m 0,2 C -8,1 C 25,7 km/h (4 Bft) 95,65 %
28.12.2017 21:23 0,9 C 3,9 C 95 % 1003,9 hPa 0,0 l/m 17,7 km/h (3 Bft) W-SW 247 0 min 0,000 mm 0,0 UV-I 0 W/m 0,2 C -7,4 C 24,1 km/h (4 Bft) 100,00 %
28.12.2017 21:24 0,8 C 3,9 C 95 % 1003,9 hPa 0,0 l/m 19,3 km/h (3 Bft) W-SW 247 0 min 0,000 mm 0,0 UV-I 0 W/m 0,1 C -8,3 C 24,1 km/h (4 Bft) 91,30 %
28.12.2017 21:25 0,8 C 3,9 C 95 % 1003,9 hPa 0,0 l/m 16,1 km/h (3 Bft) W-SW 247 0 min 0,000 mm 0,0 UV-I 0 W/m 0,1 C -6,6 C 22,5 km/h (4 Bft) 100,00 %
28.12.2017 21:26 0,8 C 3,9 C 95 % 1003,9 hPa 0,0 l/m 17,7 km/h (3 Bft) W 270 0 min 0,000 mm 0,0 UV-I 0 W/m 0,1 C -7,5 C 22,5 km/h (4 Bft) 95,65 %
28.12.2017 21:27 0,8 C 3,9 C 95 % 1003,9 hPa 0,0 l/m 16,1 km/h (3 Bft) W-SW 247 0 min 0,000 mm 0,0 UV-I 0 W/m 0,1 C -6,6 C 25,7 km/h (4 Bft) 100,00 %
28.12.2017 21:28 0,8 C 3,9 C 95 % 1003,9 hPa 0,0 l/m 17,7 km/h (3 Bft) W-SW 247 0 min 0,000 mm 0,0 UV-I 0 W/m 0,1 C -7,5 C 22,5 km/h (4 Bft) 95,65 %
28.12.2017 21:29 0,8 C 3,9 C 95 % 1003,9 hPa 0,0 l/m 12,9 km/h (3 Bft) W-SW 247 0 min 0,000 mm 0,0 UV-I 0 W/m 0,1 C -4,7 C 17,7 km/h (3 Bft) 100,00 %
28.12.2017 21:30 0,8 C 3,9 C 95 % 1003,9 hPa 0,0 l/m 19,3 km/h (3 Bft) W 270 0 min 0,000 mm 0,0 UV-I 0 W/m 0,1 C -8,3 C 25,7 km/h (4 Bft) 95,65 %
28.12.2017 21:31 0,8 C 3,9 C 95 % 1003,9 hPa 0,0 l/m 14,5 km/h (3 Bft) W-SW 247 0 min 0,000 mm 0,0 UV-I 0 W/m 0,1 C -5,7 C 22,5 km/h (4 Bft) 91,30 %
28.12.2017 21:32 0,8 C 3,9 C 95 % 1003,9 hPa 0,0 l/m 14,5 km/h (3 Bft) W 270 0 min 0,000 mm 0,0 UV-I 0 W/m 0,1 C -5,7 C 24,1 km/h (4 Bft) 100,00 %
28.12.2017 21:33 0,8 C 3,9 C 95 % 1003,9 hPa 0,0 l/m 16,1 km/h (3 Bft) W-SW 247 0 min 0,000 mm 0,0 UV-I 0 W/m 0,1 C -6,6 C 22,5 km/h (4 Bft) 100,00 %
28.12.2017 21:34 0,8 C 3,9 C 95 % 1003,9 hPa 0,0 l/m 19,3 km/h (3 Bft) W-SW 247 0 min 0,000 mm 0,0 UV-I 0 W/m 0,1 C -8,3 C 25,7 km/h (4 Bft) 100,00 %
28.12.2017 21:35 0,8 C 3,9 C 95 % 1004,0 hPa 0,0 l/m 16,1 km/h (3 Bft) W-SW 247 0 min 0,000 mm 0,0 UV-I 0 W/m 0,1 C -6,6 C 25,7 km/h (4 Bft) 100,00 %
28.12.2017 21:36 0,8 C 3,9 C 95 % 1004,0 hPa 0,0 l/m 20,9 km/h (4 Bft) W-SW 247 0 min 0,000 mm 0,0 UV-I 0 W/m 0,1 C -9,0 C 27,4 km/h (4 Bft) 100,00 %
28.12.2017 21:37 0,7 C 3,9 C 95 % 1004,0 hPa 0,2 l/m 19,3 km/h (3 Bft) W-SW 247 0 min 0,000 mm 0,0 UV-I 0 W/m -0,0 C -8,4 C 27,4 km/h (4 Bft) 100,00 %
28.12.2017 21:38 0,8 C 3,9 C 95 % 1004,0 hPa 0,0 l/m 16,1 km/h (3 Bft) W-SW 247 0 min 0,000 mm 0,0 UV-I 0 W/m 0,1 C -6,6 C 25,7 km/h (4 Bft) 91,30 %
28.12.2017 21:39 0,8 C 3,9 C 95 % 1004,0 hPa 0,0 l/m 17,7 km/h (3 Bft) W-SW 247 0 min 0,000 mm 0,0 UV-I 0 W/m 0,1 C -7,5 C 22,5 km/h (4 Bft) 100,00 %
28.12.2017 21:40 0,7 C 3,9 C 95 % 1004,1 hPa 0,0 l/m 19,3 km/h (3 Bft) W-SW 247 0 min 0,000 mm 0,0 UV-I 0 W/m -0,0 C -8,4 C 22,5 km/h (4 Bft) 95,65 %
28.12.2017 21:41 0,8 C 3,9 C 95 % 1004,1 hPa 0,0 l/m 19,3 km/h (3 Bft) W-SW 247 0 min 0,000 mm 0,0 UV-I 0 W/m 0,1 C -8,3 C 24,1 km/h (4 Bft) 95,65 %
28.12.2017 21:42 0,7 C 3,9 C 95 % 1004,1 hPa 0,0 l/m 19,3 km/h (3 Bft) W 270 0 min 0,000 mm 0,0 UV-I 0 W/m -0,0 C -8,4 C 24,1 km/h (4 Bft) 95,65 %
28.12.2017 21:43 0,7 C 3,9 C 96 % 1004,0 hPa 0,0 l/m 22,5 km/h (4 Bft) W-SW 247 0 min 0,000 mm 0,0 UV-I 0 W/m 0,1 C -9,8 C 33,8 km/h (5 Bft) 91,30 %
28.12.2017 21:44 0,7 C 3,9 C 96 % 1004,1 hPa 0,0 l/m 12,9 km/h (3 Bft) W-SW 247 0 min 0,000 mm 0,0 UV-I 0 W/m 0,1 C -4,8 C 17,7 km/h (3 Bft) 100,00 %
28.12.2017 21:45 0,7 C 3,9 C 96 % 1004,1 hPa 0,0 l/m 16,1 km/h (3 Bft) W-SW 247 0 min 0,000 mm 0,0 UV-I 0 W/m 0,1 C -6,8 C 22,5 km/h (4 Bft) 91,30 %
28.12.2017 21:46 0,7 C 3,9 C 96 % 1004,1 hPa 0,0 l/m 19,3 km/h (3 Bft) W-SW 247 0 min 0,000 mm 0,0 UV-I 0 W/m 0,1 C -8,4 C 29,0 km/h (5 Bft) 100,00 %
28.12.2017 21:47 0,7 C 3,9 C 96 % 1004,1 hPa 0,0 l/m 14,5 km/h (3 Bft) W 270 0 min 0,000 mm 0,0 UV-I 0 W/m 0,1 C -5,8 C 19,3 km/h (3 Bft) 100,00 %
28.12.2017 21:48 0,7 C 3,9 C 96 % 1004,1 hPa 0,0 l/m 14,5 km/h (3 Bft) W-SW 247 0 min 0,000 mm 0,0 UV-I 0 W/m 0,1 C -5,8 C 17,7 km/h (3 Bft) 100,00 %
28.12.2017 21:49 0,7 C 3,9 C 96 % 1004,2 hPa 0,0 l/m 14,5 km/h (3 Bft) W-SW 247 0 min 0,000 mm 0,0 UV-I 0 W/m 0,1 C -5,8 C 20,9 km/h (4 Bft) 100,00 %
28.12.2017 21:50 0,7 C 3,9 C 96 % 1004,1 hPa 0,0 l/m 14,5 km/h (3 Bft) W-SW 247 0 min 0,000 mm 0,0 UV-I 0 W/m 0,1 C -5,8 C 19,3 km/h (3 Bft) 100,00 %
28.12.2017 21:51 0,7 C 3,9 C 96 % 1004,0 hPa 0,0 l/m 14,5 km/h (3 Bft) W-SW 247 0 min 0,000 mm 0,0 UV-I 0 W/m 0,1 C -5,8 C 17,7 km/h (3 Bft) 100,00 %
28.12.2017 21:52 0,7 C 3,9 C 96 % 1004,1 hPa 0,0 l/m 9,7 km/h (2 Bft) W-SW 247 0 min 0,000 mm 0,0 UV-I 0 W/m 0,1 C -2,4 C 12,9 km/h (3 Bft) 95,65 %
28.12.2017 21:53 0,7 C 3,9 C 96 % 1004,1 hPa 0,0 l/m 12,9 km/h (3 Bft) W-SW 247 0 min 0,000 mm 0,0 UV-I 0 W/m 0,1 C -4,8 C 17,7 km/h (3 Bft) 95,65 %
28.12.2017 21:54 0,7 C 3,9 C 96 % 1004,1 hPa 0,0 l/m 14,5 km/h (3 Bft) W-SW 247 0 min 0,000 mm 0,0 UV-I 0 W/m 0,1 C -5,8 C 19,3 km/h (3 Bft) 95,65 %
28.12.2017 21:55 0,7 C 3,9 C 96 % 1004,1 hPa 0,0 l/m 16,1 km/h (3 Bft) W-SW 247 0 min 0,000 mm 0,0 UV-I 0 W/m 0,1 C -6,8 C 20,9 km/h (4 Bft) 100,00 %
28.12.2017 21:56 0,7 C 3,9 C 96 % 1004,1 hPa 0,0 l/m 14,5 km/h (3 Bft) W-SW 247 0 min 0,000 mm 0,0 UV-I 0 W/m 0,1 C -5,8 C 17,7 km/h (3 Bft) 100,00 %
28.12.2017 21:57 0,7 C 3,9 C 96 % 1004,1 hPa 0,0 l/m 17,7 km/h (3 Bft) W-SW 247 0 min 0,000 mm 0,0 UV-I 0 W/m 0,1 C -7,6 C 22,5 km/h (4 Bft) 95,65 %
28.12.2017 21:58 0,7 C 3,9 C 96 % 1004,2 hPa 0,0 l/m 17,7 km/h (3 Bft) W 270 0 min 0,000 mm 0,0 UV-I 0 W/m 0,1 C -7,6 C 24,1 km/h (4 Bft) 95,65 %
28.12.2017 21:59 0,7 C 3,9 C 96 % 1004,2 hPa 0,0 l/m 17,7 km/h (3 Bft) W-SW 247 0 min 0,000 mm 0,0 UV-I 0 W/m 0,1 C -7,6 C 22,5 km/h (4 Bft) 95,65 %
28.12.2017 22:00 0,7 C 3,9 C 96 % 1004,3 hPa 0,0 l/m 19,3 km/h (3 Bft) W-SW 247 0 min 0,000 mm 0,0 UV-I 0 W/m 0,1 C -8,4 C 25,7 km/h (4 Bft) 91,30 %
28.12.2017 22:01 0,7 C 3,9 C 96 % 1004,3 hPa 0,0 l/m 12,9 km/h (3 Bft) W-SW 247 0 min 0,000 mm 0,0 UV-I 0 W/m 0,1 C -4,8 C 22,5 km/h (4 Bft) 100,00 %
28.12.2017 22:02 0,7 C 3,9 C 96 % 1004,2 hPa 0,0 l/m 14,5 km/h (3 Bft) W-SW 247 0 min 0,000 mm 0,0 UV-I 0 W/m 0,1 C -5,8 C 17,7 km/h (3 Bft) 95,65 %
28.12.2017 22:03 0,7 C 3,9 C 96 % 1004,3 hPa 0,0 l/m 17,7 km/h (3 Bft) W-SW 247 0 min 0,000 mm 0,0 UV-I 0 W/m 0,1 C -7,6 C 22,5 km/h (4 Bft) 100,00 %
28.12.2017 22:04 0,7 C 3,9 C 96 % 1004,3 hPa 0,0 l/m 14,5 km/h (3 Bft) W-SW 247 0 min 0,000 mm 0,0 UV-I 0 W/m 0,1 C -5,8 C 20,9 km/h (4 Bft) 100,00 %
28.12.2017 22:05 0,8 C 3,9 C 96 % 1004,2 hPa 0,0 l/m 11,3 km/h (2 Bft) W-SW 247 0 min 0,000 mm 0,0 UV-I 0 W/m 0,2 C -3,6 C 14,5 km/h (3 Bft) 100,00 %
28.12.2017 22:06 0,7 C 3,9 C 96 % 1004,2 hPa 0,0 l/m 17,7 km/h (3 Bft) W 270 0 min 0,000 mm 0,0 UV-I 0 W/m 0,1 C -7,6 C 30,6 km/h (5 Bft) 95,65 %
28.12.2017 22:07 0,8 C 3,9 C 96 % 1004,2 hPa 0,0 l/m 20,9 km/h (4 Bft) W-SW 247 0 min 0,000 mm 0,0 UV-I 0 W/m 0,2 C -9,0 C 27,4 km/h (4 Bft) 95,65 %
28.12.2017 22:08 0,7 C 3,9 C 96 % 1004,3 hPa 0,0 l/m 16,1 km/h (3 Bft) W 270 0 min 0,000 mm 0,0 UV-I 0 W/m 0,1 C -6,8 C 20,9 km/h (4 Bft) 100,00 %
28.12.2017 22:09 0,8 C 3,9 C 96 % 1004,3 hPa 0,0 l/m 19,3 km/h (3 Bft) W-SW 247 0 min 0,000 mm 0,0 UV-I 0 W/m 0,2 C -8,3 C 29,0 km/h (5 Bft) 100,00 %
28.12.2017 22:10 0,8 C 3,9 C 96 % 1004,3 hPa 0,0 l/m 17,7 km/h (3 Bft) W-SW 247 0 min 0,000 mm 0,0 UV-I 0 W/m 0,2 C -7,5 C 27,4 km/h (4 Bft) 100,00 %
28.12.2017 22:11 0,8 C 3,9 C 96 % 1004,4 hPa 0,0 l/m 16,1 km/h (3 Bft) W 270 0 min 0,000 mm 0,0 UV-I 0 W/m 0,2 C -6,6 C 20,9 km/h (4 Bft) 91,30 %
28.12.2017 22:12 0,8 C 3,9 C 96 % 1004,3 hPa 0,0 l/m 17,7 km/h (3 Bft) W-SW 247 0 min 0,000 mm 0,0 UV-I 0 W/m 0,2 C -7,5 C 22,5 km/h (4 Bft) 100,00 %
28.12.2017 22:13 0,8 C 3,9 C 96 % 1004,4 hPa 0,0 l/m 16,1 km/h (3 Bft) W-SW 247 0 min 0,000 mm 0,0 UV-I 0 W/m 0,2 C -6,6 C 22,5 km/h (4 Bft) 95,65 %
28.12.2017 22:14 0,8 C 3,9 C 96 % 1004,4 hPa 0,0 l/m 16,1 km/h (3 Bft) W-SW 247 0 min 0,000 mm 0,0 UV-I 0 W/m 0,2 C -6,6 C 20,9 km/h (4 Bft) 100,00 %
28.12.2017 22:15 0,8 C 3,9 C 96 % 1004,4 hPa 0,0 l/m 12,9 km/h (3 Bft) W-SW 247 0 min 0,000 mm 0,0 UV-I 0 W/m 0,2 C -4,7 C 19,3 km/h (3 Bft) 100,00 %
28.12.2017 22:16 0,8 C 3,9 C 96 % 1004,4 hPa 0,0 l/m 20,9 km/h (4 Bft) W-SW 247 0 min 0,000 mm 0,0 UV-I 0 W/m 0,2 C -9,0 C 27,4 km/h (4 Bft) 100,00 %
28.12.2017 22:17 0,8 C 3,9 C 96 % 1004,4 hPa 0,0 l/m 14,5 km/h (3 Bft) W-SW 247 0 min 0,000 mm 0,0 UV-I 0 W/m 0,2 C -5,7 C 25,7 km/h (4 Bft) 100,00 %
28.12.2017 22:18 0,8 C 3,9 C 96 % 1004,4 hPa 0,0 l/m 20,9 km/h (4 Bft) W-SW 247 0 min 0,000 mm 0,0 UV-I 0 W/m 0,2 C -9,0 C 27,4 km/h (4 Bft) 100,00 %
28.12.2017 22:19 0,8 C 3,9 C 96 % 1004,4 hPa 0,0 l/m 12,9 km/h (3 Bft) W-SW 247 0 min 0,000 mm 0,0 UV-I 0 W/m 0,2 C -4,7 C 19,3 km/h (3 Bft) 100,00 %
28.12.2017 22:20 0,8 C 3,9 C 96 % 1004,5 hPa 0,0 l/m 16,1 km/h (3 Bft) W 270 0 min 0,000 mm 0,0 UV-I 0 W/m 0,2 C -6,6 C 22,5 km/h (4 Bft) 95,65 %
28.12.2017 22:21 0,8 C 3,9 C 96 % 1004,5 hPa 0,0 l/m 11,3 km/h (2 Bft) W 270 0 min 0,000 mm 0,0 UV-I 0 W/m 0,2 C -3,6 C 16,1 km/h (3 Bft) 100,00 %
28.12.2017 22:22 0,7 C 3,9 C 96 % 1004,5 hPa 0,0 l/m 16,1 km/h (3 Bft) W-SW 247 0 min 0,000 mm 0,0 UV-I 0 W/m 0,1 C -6,8 C 20,9 km/h (4 Bft) 100,00 %
28.12.2017 22:23 0,7 C 3,9 C 96 % 1004,5 hPa 0,0 l/m 14,5 km/h (3 Bft) W-SW 247 0 min 0,000 mm 0,0 UV-I 0 W/m 0,1 C -5,8 C 19,3 km/h (3 Bft) 100,00 %
28.12.2017 22:24 0,7 C 3,9 C 96 % 1004,5 hPa 0,0 l/m 17,7 km/h (3 Bft) W 270 0 min 0,000 mm 0,0 UV-I 0 W/m 0,1 C -7,6 C 22,5 km/h (4 Bft) 100,00 %
28.12.2017 22:25 0,7 C 3,9 C 96 % 1004,6 hPa 0,0 l/m 14,5 km/h (3 Bft) W-SW 247 0 min 0,000 mm 0,0 UV-I 0 W/m 0,1 C -5,8 C 24,1 km/h (4 Bft) 100,00 %
28.12.2017 22:26 0,7 C 3,9 C 96 % 1004,6 hPa 0,0 l/m 14,5 km/h (3 Bft) W-SW 247 0 min 0,000 mm 0,0 UV-I 0 W/m 0,1 C -5,8 C 17,7 km/h (3 Bft) 100,00 %
28.12.2017 22:27 0,7 C 3,9 C 96 % 1004,6 hPa 0,0 l/m 11,3 km/h (2 Bft) W-SW 247 0 min 0,000 mm 0,0 UV-I 0 W/m 0,1 C -3,7 C 19,3 km/h (3 Bft) 95,65 %
28.12.2017 22:28 0,7 C 3,9 C 96 % 1004,6 hPa 0,0 l/m 17,7 km/h (3 Bft) W-SW 247 0 min 0,000 mm 0,0 UV-I 0 W/m 0,1 C -7,6 C 24,1 km/h (4 Bft) 100,00 %
28.12.2017 22:29 0,7 C 3,9 C 96 % 1004,6 hPa 0,0 l/m 12,9 km/h (3 Bft) W-SW 247 0 min 0,000 mm 0,0 UV-I 0 W/m 0,1 C -4,8 C 16,1 km/h (3 Bft) 100,00 %
28.12.2017 22:30 0,6 C 3,9 C 96 % 1004,7 hPa 0,0 l/m 16,1 km/h (3 Bft) W-SW 247 0 min 0,000 mm 0,0 UV-I 0 W/m 0,0 C -6,9 C 24,1 km/h (4 Bft) 100,00 %
28.12.2017 22:31 0,7 C 3,9 C 96 % 1004,7 hPa 0,0 l/m 12,9 km/h (3 Bft) W 270 0 min 0,000 mm 0,0 UV-I 0 W/m 0,1 C -4,8 C 16,1 km/h (3 Bft) 95,65 %
28.12.2017 22:32 0,7 C 3,9 C 96 % 1004,7 hPa 0,0 l/m 12,9 km/h (3 Bft) W-SW 247 0 min 0,000 mm 0,0 UV-I 0 W/m 0,1 C -4,8 C 20,9 km/h (4 Bft) 100,00 %
28.12.2017 22:33 0,6 C 3,9 C 96 % 1004,8 hPa 0,0 l/m 16,1 km/h (3 Bft) W-SW 247 0 min 0,000 mm 0,0 UV-I 0 W/m 0,0 C -6,9 C 25,7 km/h (4 Bft) 91,30 %
28.12.2017 22:34 0,6 C 3,9 C 96 % 1004,8 hPa 0,0 l/m 12,9 km/h (3 Bft) W-SW 247 0 min 0,000 mm 0,0 UV-I 0 W/m 0,0 C -4,9 C 17,7 km/h (3 Bft) 95,65 %
28.12.2017 22:35 0,7 C 3,9 C 96 % 1004,7 hPa 0,0 l/m 11,3 km/h (2 Bft) W-SW 247 0 min 0,000 mm 0,0 UV-I 0 W/m 0,1 C -3,7 C 16,1 km/h (3 Bft) 95,65 %
28.12.2017 22:36 0,7 C 3,9 C 96 % 1004,8 hPa 0,0 l/m 14,5 km/h (3 Bft) W-SW 247 0 min 0,000 mm 0,0 UV-I 0 W/m 0,1 C -5,8 C 20,9 km/h (4 Bft) 100,00 %
28.12.2017 22:37 0,7 C 3,9 C 96 % 1004,8 hPa 0,0 l/m 11,3 km/h (2 Bft) W-SW 247 0 min 0,000 mm 0,0 UV-I 0 W/m 0,1 C -3,7 C 14,5 km/h (3 Bft) 100,00 %
28.12.2017 22:38 0,7 C 3,9 C 96 % 1004,8 hPa 0,0 l/m 14,5 km/h (3 Bft) W-SW 247 0 min 0,000 mm 0,0 UV-I 0 W/m 0,1 C -5,8 C 19,3 km/h (3 Bft) 95,65 %
28.12.2017 22:39 0,7 C 3,9 C 96 % 1004,8 hPa 0,0 l/m 14,5 km/h (3 Bft) W-SW 247 0 min 0,000 mm 0,0 UV-I 0 W/m 0,1 C -5,8 C 16,1 km/h (3 Bft) 100,00 %
28.12.2017 22:40 0,7 C 3,9 C 96 % 1004,9 hPa 0,0 l/m 12,9 km/h (3 Bft) W 270 0 min 0,000 mm 0,0 UV-I 0 W/m 0,1 C -4,8 C 16,1 km/h (3 Bft) 100,00 %
28.12.2017 22:41 0,7 C 3,9 C 96 % 1004,9 hPa 0,0 l/m 16,1 km/h (3 Bft) W-SW 247 0 min 0,000 mm 0,0 UV-I 0 W/m 0,1 C -6,8 C 20,9 km/h (4 Bft) 95,65 %
28.12.2017 22:42 0,7 C 3,9 C 96 % 1004,8 hPa 0,0 l/m 12,9 km/h (3 Bft) W-SW 247 0 min 0,000 mm 0,0 UV-I 0 W/m 0,1 C -4,8 C 16,1 km/h (3 Bft) 100,00 %
28.12.2017 22:43 0,7 C 3,9 C 96 % 1004,9 hPa 0,0 l/m 14,5 km/h (3 Bft) W-SW 247 0 min 0,000 mm 0,0 UV-I 0 W/m 0,1 C -5,8 C 19,3 km/h (3 Bft) 100,00 %
28.12.2017 22:44 0,7 C 3,9 C 96 % 1004,9 hPa 0,0 l/m 17,7 km/h (3 Bft) W-SW 247 0 min 0,000 mm 0,0 UV-I 0 W/m 0,1 C -7,6 C 20,9 km/h (4 Bft) 100,00 %
28.12.2017 22:45 0,7 C 3,9 C 96 % 1004,9 hPa 0,0 l/m 12,9 km/h (3 Bft) W 270 0 min 0,000 mm 0,0 UV-I 0 W/m 0,1 C -4,8 C 17,7 km/h (3 Bft) 100,00 %
28.12.2017 22:46 0,7 C 3,9 C 96 % 1004,9 hPa 0,0 l/m 12,9 km/h (3 Bft) W-SW 247 0 min 0,000 mm 0,0 UV-I 0 W/m 0,1 C -4,8 C 16,1 km/h (3 Bft) 95,65 %
28.12.2017 22:47 0,6 C 3,9 C 96 % 1005,0 hPa 0,0 l/m 17,7 km/h (3 Bft) W-SW 247 0 min 0,000 mm 0,0 UV-I 0 W/m 0,0 C -7,7 C 22,5 km/h (4 Bft) 100,00 %
28.12.2017 22:48 0,6 C 3,9 C 96 % 1005,0 hPa 0,0 l/m 17,7 km/h (3 Bft) W 270 0 min 0,000 mm 0,0 UV-I 0 W/m 0,0 C -7,7 C 25,7 km/h (4 Bft) 91,30 %
28.12.2017 22:49 0,6 C 3,9 C 96 % 1005,0 hPa 0,0 l/m 17,7 km/h (3 Bft) W-SW 247 0 min 0,000 mm 0,0 UV-I 0 W/m 0,0 C -7,7 C 27,4 km/h (4 Bft) 100,00 %
28.12.2017 22:50 0,6 C 3,9 C 96 % 1005,0 hPa 0,0 l/m 19,3 km/h (3 Bft) W 270 0 min 0,000 mm 0,0 UV-I 0 W/m 0,0 C -8,5 C 25,7 km/h (4 Bft) 100,00 %
28.12.2017 22:51 0,7 C 3,9 C 96 % 1005,1 hPa 0,0 l/m 14,5 km/h (3 Bft) W-SW 247 0 min 0,000 mm 0,0 UV-I 0 W/m 0,1 C -5,8 C 22,5 km/h (4 Bft) 100,00 %
28.12.2017 22:52 0,7 C 3,9 C 96 % 1005,1 hPa 0,0 l/m 22,5 km/h (4 Bft) W 270 0 min 0,000 mm 0,0 UV-I 0 W/m 0,1 C -9,8 C 27,4 km/h (4 Bft) 100,00 %
28.12.2017 22:53 0,6 C 3,9 C 96 % 1005,1 hPa 0,0 l/m 19,3 km/h (3 Bft) W 270 0 min 0,000 mm 0,0 UV-I 0 W/m 0,0 C -8,5 C 25,7 km/h (4 Bft) 100,00 %
28.12.2017 22:54 0,6 C 3,9 C 96 % 1005,2 hPa 0,0 l/m 19,3 km/h (3 Bft) W-SW 247 0 min 0,000 mm 0,0 UV-I 0 W/m 0,0 C -8,5 C 24,1 km/h (4 Bft) 95,65 %
28.12.2017 22:55 0,6 C 3,9 C 96 % 1005,2 hPa 0,0 l/m 17,7 km/h (3 Bft) W 270 0 min 0,000 mm 0,0 UV-I 0 W/m 0,0 C -7,7 C 22,5 km/h (4 Bft) 91,30 %
28.12.2017 22:56 0,6 C 3,9 C 96 % 1005,2 hPa 0,2 l/m 24,1 km/h (4 Bft) W 270 0 min 0,000 mm 0,0 UV-I 0 W/m 0,0 C -10,6 C 30,6 km/h (5 Bft) 100,00 %
28.12.2017 22:57 0,7 C 3,9 C 96 % 1005,2 hPa 0,0 l/m 19,3 km/h (3 Bft) W-SW 247 0 min 0,000 mm 0,0 UV-I 0 W/m 0,1 C -8,4 C 29,0 km/h (5 Bft) 100,00 %
28.12.2017 22:58 0,6 C 3,9 C 96 % 1005,2 hPa 0,0 l/m 16,1 km/h (3 Bft) W 270 0 min 0,000 mm 0,0 UV-I 0 W/m 0,0 C -6,9 C 22,5 km/h (4 Bft) 95,65 %
28.12.2017 22:59 0,6 C 3,9 C 96 % 1005,2 hPa 0,0 l/m 14,5 km/h (3 Bft) W 270 0 min 0,000 mm 0,0 UV-I 0 W/m 0,0 C -6,0 C 20,9 km/h (4 Bft) 95,65 %
28.12.2017 23:00 0,6 C 3,9 C 96 % 1005,2 hPa 0,0 l/m 14,5 km/h (3 Bft) W-SW 247 0 min 0,000 mm 0,0 UV-I 0 W/m 0,0 C -6,0 C 19,3 km/h (3 Bft) 100,00 %
28.12.2017 23:01 0,6 C 3,9 C 96 % 1005,3 hPa 0,0 l/m 17,7 km/h (3 Bft) W 270 0 min 0,000 mm 0,0 UV-I 0 W/m 0,0 C -7,7 C 24,1 km/h (4 Bft) 95,65 %
28.12.2017 23:02 0,6 C 3,9 C 96 % 1005,3 hPa 0,0 l/m 17,7 km/h (3 Bft) W-SW 247 0 min 0,000 mm 0,0 UV-I 0 W/m 0,0 C -7,7 C 24,1 km/h (4 Bft) 95,65 %
28.12.2017 23:03 0,6 C 3,9 C 96 % 1005,3 hPa 0,0 l/m 19,3 km/h (3 Bft) W-SW 247 0 min 0,000 mm 0,0 UV-I 0 W/m 0,0 C -8,5 C 27,4 km/h (4 Bft) 95,65 %
28.12.2017 23:04 0,6 C 3,9 C 96 % 1005,4 hPa 0,0 l/m 22,5 km/h (4 Bft) W 270 0 min 0,000 mm 0,0 UV-I 0 W/m 0,0 C -9,9 C 29,0 km/h (5 Bft) 95,65 %
28.12.2017 23:05 0,7 C 3,9 C 96 % 1005,4 hPa 0,0 l/m 16,1 km/h (3 Bft) W 270 0 min 0,000 mm 0,0 UV-I 0 W/m 0,1 C -6,8 C 19,3 km/h (3 Bft) 95,65 %
28.12.2017 23:06 0,7 C 3,9 C 96 % 1005,4 hPa 0,0 l/m 16,1 km/h (3 Bft) W 270 0 min 0,000 mm 0,0 UV-I 0 W/m 0,1 C -6,8 C 20,9 km/h (4 Bft) 91,30 %
28.12.2017 23:07 0,7 C 3,9 C 96 % 1005,5 hPa 0,0 l/m 17,7 km/h (3 Bft) W 270 0 min 0,000 mm 0,0 UV-I 0 W/m 0,1 C -7,6 C 24,1 km/h (4 Bft) 100,00 %
28.12.2017 23:08 0,6 C 3,9 C 96 % 1005,5 hPa 0,0 l/m 16,1 km/h (3 Bft) W 270 0 min 0,000 mm 0,0 UV-I 0 W/m 0,0 C -6,9 C 20,9 km/h (4 Bft) 91,30 %
28.12.2017 23:09 0,6 C 3,9 C 96 % 1005,5 hPa 0,0 l/m 17,7 km/h (3 Bft) W-SW 247 0 min 0,000 mm 0,0 UV-I 0 W/m 0,0 C -7,7 C 27,4 km/h (4 Bft) 95,65 %
28.12.2017 23:10 0,7 C 3,9 C 96 % 1005,5 hPa 0,0 l/m 17,7 km/h (3 Bft) W 270 0 min 0,000 mm 0,0 UV-I 0 W/m 0,1 C -7,6 C 27,4 km/h (4 Bft) 91,30 %
28.12.2017 23:11 0,7 C 3,9 C 96 % 1005,6 hPa 0,0 l/m 17,7 km/h (3 Bft) W-SW 247 0 min 0,000 mm 0,0 UV-I 0 W/m 0,1 C -7,6 C 25,7 km/h (4 Bft) 100,00 %
28.12.2017 23:12 0,7 C 3,9 C 96 % 1005,6 hPa 0,0 l/m 14,5 km/h (3 Bft) W 270 0 min 0,000 mm 0,0 UV-I 0 W/m 0,1 C -5,8 C 19,3 km/h (3 Bft) 91,30 %
28.12.2017 23:13 0,7 C 3,9 C 96 % 1005,6 hPa 0,0 l/m 16,1 km/h (3 Bft) W 270 0 min 0,000 mm 0,0 UV-I 0 W/m 0,1 C -6,8 C 25,7 km/h (4 Bft) 100,00 %
28.12.2017 23:14 0,7 C 3,9 C 95 % 1005,6 hPa 0,0 l/m 16,1 km/h (3 Bft) W 270 0 min 0,000 mm 0,0 UV-I 0 W/m -0,0 C -6,8 C 25,7 km/h (4 Bft) 91,30 %
28.12.2017 23:15 0,7 C 3,9 C 95 % 1005,7 hPa 0,0 l/m 19,3 km/h (3 Bft) W 270 0 min 0,000 mm 0,0 UV-I 0 W/m -0,0 C -8,4 C 30,6 km/h (5 Bft) 91,30 %
28.12.2017 23:16 0,7 C 3,9 C 95 % 1005,7 hPa 0,0 l/m 19,3 km/h (3 Bft) W 270 0 min 0,000 mm 0,0 UV-I 0 W/m -0,0 C -8,4 C 24,1 km/h (4 Bft) 91,30 %
28.12.2017 23:17 0,7 C 3,9 C 95 % 1005,7 hPa 0,0 l/m 17,7 km/h (3 Bft) W-SW 247 0 min 0,000 mm 0,0 UV-I 0 W/m -0,0 C -7,6 C 25,7 km/h (4 Bft) 95,65 %
28.12.2017 23:18 0,7 C 3,9 C 95 % 1005,7 hPa 0,0 l/m 16,1 km/h (3 Bft) W 270 0 min 0,000 mm 0,0 UV-I 0 W/m -0,0 C -6,8 C 22,5 km/h (4 Bft) 91,30 %
28.12.2017 23:19 0,7 C 3,9 C 95 % 1005,7 hPa 0,0 l/m 17,7 km/h (3 Bft) W-SW 247 0 min 0,000 mm 0,0 UV-I 0 W/m -0,0 C -7,6 C 27,4 km/h (4 Bft) 91,30 %
28.12.2017 23:20 0,7 C 3,9 C 95 % 1005,8 hPa 0,0 l/m 17,7 km/h (3 Bft) W 270 0 min 0,000 mm 0,0 UV-I 0 W/m -0,0 C -7,6 C 22,5 km/h (4 Bft) 100,00 %
28.12.2017 23:21 0,7 C 3,9 C 94 % 1005,8 hPa 0,0 l/m 14,5 km/h (3 Bft) W 270 0 min 0,000 mm 0,0 UV-I 0 W/m -0,2 C -5,8 C 19,3 km/h (3 Bft) 91,30 %
28.12.2017 23:22 0,7 C 3,9 C 94 % 1005,8 hPa 0,0 l/m 16,1 km/h (3 Bft) W-SW 247 0 min 0,000 mm 0,0 UV-I 0 W/m -0,2 C -6,8 C 22,5 km/h (4 Bft) 100,00 %
28.12.2017 23:23 0,7 C 3,9 C 94 % 1005,8 hPa 0,0 l/m 14,5 km/h (3 Bft) W-SW 247 0 min 0,000 mm 0,0 UV-I 0 W/m -0,2 C -5,8 C 19,3 km/h (3 Bft) 82,61 %
28.12.2017 23:24 0,7 C 3,9 C 94 % 1005,8 hPa 0,0 l/m 17,7 km/h (3 Bft) W-SW 247 0 min 0,000 mm 0,0 UV-I 0 W/m -0,2 C -7,6 C 24,1 km/h (4 Bft) 95,65 %
28.12.2017 23:25 0,7 C 3,9 C 94 % 1005,8 hPa 0,0 l/m 16,1 km/h (3 Bft) W-SW 247 0 min 0,000 mm 0,0 UV-I 0 W/m -0,2 C -6,8 C 25,7 km/h (4 Bft) 100,00 %
28.12.2017 23:26 0,7 C 3,9 C 94 % 1005,8 hPa 0,0 l/m 17,7 km/h (3 Bft) W 270 0 min 0,000 mm 0,0 UV-I 0 W/m -0,2 C -7,6 C 25,7 km/h (4 Bft) 95,65 %
28.12.2017 23:27 0,7 C 3,9 C 94 % 1005,9 hPa 0,0 l/m 17,7 km/h (3 Bft) W 270 0 min 0,000 mm 0,0 UV-I 0 W/m -0,2 C -7,6 C 24,1 km/h (4 Bft) 100,00 %
28.12.2017 23:28 0,7 C 3,9 C 94 % 1005,9 hPa 0,0 l/m 17,7 km/h (3 Bft) W 270 0 min 0,000 mm 0,0 UV-I 0 W/m -0,2 C -7,6 C 24,1 km/h (4 Bft) 95,65 %
28.12.2017 23:29 0,7 C 3,9 C 94 % 1005,9 hPa 0,0 l/m 17,7 km/h (3 Bft) W-SW 247 0 min 0,000 mm 0,0 UV-I 0 W/m -0,2 C -7,6 C 32,2 km/h (5 Bft) 95,65 %
28.12.2017 23:30 0,7 C 3,9 C 94 % 1005,9 hPa 0,0 l/m 14,5 km/h (3 Bft) W-SW 247 0 min 0,000 mm 0,0 UV-I 0 W/m -0,2 C -5,8 C 17,7 km/h (3 Bft) 91,30 %
28.12.2017 23:31 0,7 C 3,9 C 94 % 1005,9 hPa 0,0 l/m 12,9 km/h (3 Bft) W 270 0 min 0,000 mm 0,0 UV-I 0 W/m -0,2 C -4,8 C 16,1 km/h (3 Bft) 100,00 %
28.12.2017 23:32 0,7 C 3,9 C 94 % 1006,0 hPa 0,0 l/m 12,9 km/h (3 Bft) W-SW 247 0 min 0,000 mm 0,0 UV-I 0 W/m -0,2 C -4,8 C 16,1 km/h (3 Bft) 95,65 %
28.12.2017 23:33 0,6 C 3,9 C 94 % 1006,0 hPa 0,0 l/m 12,9 km/h (3 Bft) W 270 0 min 0,000 mm 0,0 UV-I 0 W/m -0,3 C -4,9 C 17,7 km/h (3 Bft) 95,65 %
28.12.2017 23:34 0,6 C 3,9 C 94 % 1006,0 hPa 0,0 l/m 12,9 km/h (3 Bft) W-SW 247 0 min 0,000 mm 0,0 UV-I 0 W/m -0,3 C -4,9 C 19,3 km/h (3 Bft) 100,00 %
28.12.2017 23:35 0,6 C 3,9 C 94 % 1006,0 hPa 0,0 l/m 17,7 km/h (3 Bft) W 270 0 min 0,000 mm 0,0 UV-I 0 W/m -0,3 C -7,7 C 29,0 km/h (5 Bft) 95,65 %
28.12.2017 23:36 0,7 C 3,9 C 94 % 1006,0 hPa 0,0 l/m 17,7 km/h (3 Bft) W 270 0 min 0,000 mm 0,0 UV-I 0 W/m -0,2 C -7,6 C 25,7 km/h (4 Bft) 100,00 %
28.12.2017 23:37 0,7 C 3,9 C 94 % 1006,0 hPa 0,0 l/m 14,5 km/h (3 Bft) W-SW 247 0 min 0,000 mm 0,0 UV-I 0 W/m -0,2 C -5,8 C 22,5 km/h (4 Bft) 91,30 %
28.12.2017 23:38 0,7 C 3,9 C 94 % 1006,0 hPa 0,0 l/m 14,5 km/h (3 Bft) W-SW 247 0 min 0,000 mm 0,0 UV-I 0 W/m -0,2 C -5,8 C 19,3 km/h (3 Bft) 91,30 %
28.12.2017 23:39 0,7 C 3,9 C 94 % 1006,0 hPa 0,0 l/m 17,7 km/h (3 Bft) W 270 0 min 0,000 mm 0,0 UV-I 0 W/m -0,2 C -7,6 C 30,6 km/h (5 Bft) 91,30 %
28.12.2017 23:40 0,7 C 3,9 C 93 % 1006,1 hPa 0,0 l/m 22,5 km/h (4 Bft) W-SW 247 0 min 0,000 mm 0,0 UV-I 0 W/m -0,3 C -9,8 C 33,8 km/h (5 Bft) 100,00 %
28.12.2017 23:41 0,8 C 3,9 C 93 % 1006,2 hPa 0,0 l/m 19,3 km/h (3 Bft) W 270 0 min 0,000 mm 0,0 UV-I 0 W/m -0,2 C -8,3 C 24,1 km/h (4 Bft) 95,65 %
28.12.2017 23:42 0,7 C 3,9 C 93 % 1006,2 hPa 0,0 l/m 16,1 km/h (3 Bft) W 270 0 min 0,000 mm 0,0 UV-I 0 W/m -0,3 C -6,8 C 22,5 km/h (4 Bft) 100,00 %
28.12.2017 23:43 0,7 C 3,9 C 93 % 1006,2 hPa 0,0 l/m 16,1 km/h (3 Bft) W 270 0 min 0,000 mm 0,0 UV-I 0 W/m -0,3 C -6,8 C 20,9 km/h (4 Bft) 95,65 %
28.12.2017 23:44 0,7 C 3,9 C 93 % 1006,2 hPa 0,0 l/m 17,7 km/h (3 Bft) W 270 0 min 0,000 mm 0,0 UV-I 0 W/m -0,3 C -7,6 C 29,0 km/h (5 Bft) 95,65 %
28.12.2017 23:45 0,7 C 3,9 C 93 % 1006,2 hPa 0,0 l/m 16,1 km/h (3 Bft) W 270 0 min 0,000 mm 0,0 UV-I 0 W/m -0,3 C -6,8 C 20,9 km/h (4 Bft) 95,65 %
28.12.2017 23:46 0,7 C 3,9 C 93 % 1006,2 hPa 0,0 l/m 12,9 km/h (3 Bft) W 270 0 min 0,000 mm 0,0 UV-I 0 W/m -0,3 C -4,8 C 19,3 km/h (3 Bft) 100,00 %
28.12.2017 23:47 0,7 C 3,9 C 93 % 1006,2 hPa 0,0 l/m 19,3 km/h (3 Bft) W-SW 247 0 min 0,000 mm 0,0 UV-I 0 W/m -0,3 C -8,4 C 25,7 km/h (4 Bft) 100,00 %
28.12.2017 23:48 0,7 C 3,9 C 93 % 1006,2 hPa 0,0 l/m 19,3 km/h (3 Bft) W-SW 247 0 min 0,000 mm 0,0 UV-I 0 W/m -0,3 C -8,4 C 27,4 km/h (4 Bft) 100,00 %
28.12.2017 23:49 0,7 C 3,9 C 93 % 1006,2 hPa 0,0 l/m 17,7 km/h (3 Bft) W 270 0 min 0,000 mm 0,0 UV-I 0 W/m -0,3 C -7,6 C 25,7 km/h (4 Bft) 100,00 %
28.12.2017 23:50 0,7 C 3,9 C 93 % 1006,2 hPa 0,0 l/m 17,7 km/h (3 Bft) W 270 0 min 0,000 mm 0,0 UV-I 0 W/m -0,3 C -7,6 C 25,7 km/h (4 Bft) 100,00 %
28.12.2017 23:51 0,8 C 3,9 C 93 % 1006,2 hPa 0,0 l/m 20,9 km/h (4 Bft) W-SW 247 0 min 0,000 mm 0,0 UV-I 0 W/m -0,2 C -9,0 C 27,4 km/h (4 Bft) 95,65 %
28.12.2017 23:52 0,8 C 3,9 C 93 % 1006,2 hPa 0,0 l/m 20,9 km/h (4 Bft) W-SW 247 0 min 0,000 mm 0,0 UV-I 0 W/m -0,2 C -9,0 C 32,2 km/h (5 Bft) 100,00 %
28.12.2017 23:53 0,8 C 3,9 C 93 % 1006,2 hPa 0,0 l/m 19,3 km/h (3 Bft) W-SW 247 0 min 0,000 mm 0,0 UV-I 0 W/m -0,2 C -8,3 C 22,5 km/h (4 Bft) 100,00 %
28.12.2017 23:54 0,8 C 3,9 C 92 % 1006,2 hPa 0,0 l/m 12,9 km/h (3 Bft) W 270 0 min 0,000 mm 0,0 UV-I 0 W/m -0,3 C -4,7 C 19,3 km/h (3 Bft) 100,00 %
28.12.2017 23:55 0,8 C 3,9 C 92 % 1006,3 hPa 0,0 l/m 12,9 km/h (3 Bft) W-SW 247 0 min 0,000 mm 0,0 UV-I 0 W/m -0,3 C -4,7 C 20,9 km/h (4 Bft) 100,00 %
28.12.2017 23:56 0,8 C 3,9 C 92 % 1006,3 hPa 0,0 l/m 16,1 km/h (3 Bft) W-SW 247 0 min 0,000 mm 0,0 UV-I 0 W/m -0,3 C -6,6 C 22,5 km/h (4 Bft) 100,00 %
28.12.2017 23:57 0,8 C 3,9 C 93 % 1006,3 hPa 0,0 l/m 16,1 km/h (3 Bft) W 270 0 min 0,000 mm 0,0 UV-I 0 W/m -0,2 C -6,6 C 24,1 km/h (4 Bft) 95,65 %
28.12.2017 23:58 0,8 C 3,9 C 92 % 1006,3 hPa 0,0 l/m 14,5 km/h (3 Bft) W-SW 247 0 min 0,000 mm 0,0 UV-I 0 W/m -0,3 C -5,7 C 17,7 km/h (3 Bft) 95,65 %
28.12.2017 23:59 0,8 C 3,9 C 93 % 1006,4 hPa 0,0 l/m 19,3 km/h (3 Bft) W-SW 247 0 min 0,000 mm 0,0 UV-I 0 W/m -0,2 C -8,3 C 27,4 km/h (4 Bft) 91,30 %
_ Min-Zeit 16:55 00:07 12:01 00:03 - 00:35 - - - - - - 23:54 04:58 00:55 23:23
Minimum _ 0,5 C 3,9 C 87 % 988,4 hPa - 6,4 km/h (2 Bft) - - - - - - -0,3 C -11,7 C 8,0 km/h (2 Bft) 82,61 %
_ Max-Zeit 11:13 00:00 17:04 23:59 01:41 04:58 - - 09:16 11:00 00:00 10:45 11:10 00:55 06:11 00:05
Maximum _ 3,7 C 4,4 C 97 % 1006,4 hPa 0,2 l/m 29,0 km/h
SW (5 Bft)
- - 1 min 0,076 mm 0,0 UV-I 308 W/m 2,0 C 1,7 C 43,5 km/h
SW (6 Bft)
100,00 %
Durchschnitt _ 1,6 C 3,9 C 94 % 996,0 hPa #9,4 l/m 16,5 km/h (3 Bft) W-SW - #1:20 h #0,303 mm 0,0 UV-I 74 W/m 0,6 C -5,7 C 23,1 km/h (4 Bft) 97,07 %